<?xml version="1.0" encoding="UTF-8" standalone="no" ?>
<gpx xmlns="http://www.topografix.com/GPX/1/1" xmlns:xsi="http://www.w3.org/2001/XMLSchema-instance" xsi:schemaLocation="http://www.topografix.com/GPX/1/1 http://www.topografix.com/GPX/1/1/gpx.xsd" version="1.1" creator="VisuGPX - https://www.visugpx.com">
  <metadata>
    <name>circuit vtt bugatti 2017</name>
    <desc><![CDATA[Circuit Bugatti 2017]]></desc>
  </metadata>
  <trk>
    <name><![CDATA[circuit vtt bugatti 2017_1]]></name>
    <trkseg>
      <trkpt lat="48.53245" lon="7.5016">
        <ele>176.88580322266</ele>
        <time>2017-06-04T06:49:55.000Z</time>
      </trkpt>
      <trkpt lat="48.53244" lon="7.5016">
        <ele>176.87187194824</ele>
        <time>2017-06-04T06:49:58.000Z</time>
      </trkpt>
      <trkpt lat="48.53245" lon="7.50159">
        <ele>176.87358093262</ele>
        <time>2017-06-04T06:50:02.000Z</time>
      </trkpt>
      <trkpt lat="48.53244" lon="7.50159">
        <ele>176.86972045898</ele>
        <time>2017-06-04T06:50:07.000Z</time>
      </trkpt>
      <trkpt lat="48.53242" lon="7.50162">
        <ele>176.8611907959</ele>
        <time>2017-06-04T06:50:10.000Z</time>
      </trkpt>
      <trkpt lat="48.53244" lon="7.50163">
        <ele>176.8550567627</ele>
        <time>2017-06-04T06:50:13.000Z</time>
      </trkpt>
      <trkpt lat="48.53244" lon="7.5016">
        <ele>176.85687255859</ele>
        <time>2017-06-04T06:50:16.000Z</time>
      </trkpt>
      <trkpt lat="48.53245" lon="7.50158">
        <ele>176.85890197754</ele>
        <time>2017-06-04T06:50:19.000Z</time>
      </trkpt>
      <trkpt lat="48.53245" lon="7.50158">
        <ele>176.85890197754</ele>
        <time>2017-06-04T06:50:39.000Z</time>
      </trkpt>
      <trkpt lat="48.53246" lon="7.50153">
        <ele>176.86714172363</ele>
        <time>2017-06-04T06:50:40.000Z</time>
      </trkpt>
      <trkpt lat="48.53244" lon="7.50153">
        <ele>176.87451171875</ele>
        <time>2017-06-04T06:50:43.000Z</time>
      </trkpt>
      <trkpt lat="48.5324" lon="7.50151">
        <ele>176.8589630127</ele>
        <time>2017-06-04T06:50:46.000Z</time>
      </trkpt>
      <trkpt lat="48.53236" lon="7.50149">
        <ele>176.82774353027</ele>
        <time>2017-06-04T06:50:49.000Z</time>
      </trkpt>
      <trkpt lat="48.53236" lon="7.50149">
        <ele>176.82774353027</ele>
        <time>2017-06-04T06:51:09.000Z</time>
      </trkpt>
      <trkpt lat="48.53236" lon="7.50147">
        <ele>176.79153442383</ele>
        <time>2017-06-04T06:51:14.000Z</time>
      </trkpt>
      <trkpt lat="48.53234" lon="7.50144">
        <ele>176.74722290039</ele>
        <time>2017-06-04T06:51:16.000Z</time>
      </trkpt>
      <trkpt lat="48.53234" lon="7.50139">
        <ele>176.71203613281</ele>
        <time>2017-06-04T06:51:18.000Z</time>
      </trkpt>
      <trkpt lat="48.53234" lon="7.50134">
        <ele>176.69641113281</ele>
        <time>2017-06-04T06:51:20.000Z</time>
      </trkpt>
      <trkpt lat="48.53234" lon="7.50129">
        <ele>176.69345092773</ele>
        <time>2017-06-04T06:51:22.000Z</time>
      </trkpt>
      <trkpt lat="48.53233" lon="7.5012">
        <ele>176.69287109375</ele>
        <time>2017-06-04T06:51:25.000Z</time>
      </trkpt>
      <trkpt lat="48.53235" lon="7.50111">
        <ele>176.70883178711</ele>
        <time>2017-06-04T06:51:28.000Z</time>
      </trkpt>
      <trkpt lat="48.53237" lon="7.50105">
        <ele>176.73301696777</ele>
        <time>2017-06-04T06:51:30.000Z</time>
      </trkpt>
      <trkpt lat="48.53241" lon="7.50094">
        <ele>176.76974487305</ele>
        <time>2017-06-04T06:51:33.000Z</time>
      </trkpt>
      <trkpt lat="48.53245" lon="7.50088">
        <ele>176.81694030762</ele>
        <time>2017-06-04T06:51:35.000Z</time>
      </trkpt>
      <trkpt lat="48.53251" lon="7.50078">
        <ele>176.86383056641</ele>
        <time>2017-06-04T06:51:38.000Z</time>
      </trkpt>
      <trkpt lat="48.53256" lon="7.50069">
        <ele>176.90145874023</ele>
        <time>2017-06-04T06:51:41.000Z</time>
      </trkpt>
      <trkpt lat="48.53263" lon="7.50057">
        <ele>176.94715881348</ele>
        <time>2017-06-04T06:51:44.000Z</time>
      </trkpt>
      <trkpt lat="48.53272" lon="7.50046">
        <ele>177.03048706055</ele>
        <time>2017-06-04T06:51:47.000Z</time>
      </trkpt>
      <trkpt lat="48.53281" lon="7.50034">
        <ele>177.17199707031</ele>
        <time>2017-06-04T06:51:50.000Z</time>
      </trkpt>
      <trkpt lat="48.53289" lon="7.5002">
        <ele>177.40982055664</ele>
        <time>2017-06-04T06:51:53.000Z</time>
      </trkpt>
      <trkpt lat="48.53295" lon="7.50004">
        <ele>177.75044250488</ele>
        <time>2017-06-04T06:51:56.000Z</time>
      </trkpt>
      <trkpt lat="48.53298" lon="7.49993">
        <ele>178.08248901367</ele>
        <time>2017-06-04T06:51:58.000Z</time>
      </trkpt>
      <trkpt lat="48.533" lon="7.49975">
        <ele>178.30137634277</ele>
        <time>2017-06-04T06:52:01.000Z</time>
      </trkpt>
      <trkpt lat="48.533" lon="7.49956">
        <ele>178.36309814453</ele>
        <time>2017-06-04T06:52:04.000Z</time>
      </trkpt>
      <trkpt lat="48.533" lon="7.49943">
        <ele>178.26049804688</ele>
        <time>2017-06-04T06:52:06.000Z</time>
      </trkpt>
      <trkpt lat="48.53299" lon="7.49925">
        <ele>177.95874023438</ele>
        <time>2017-06-04T06:52:09.000Z</time>
      </trkpt>
      <trkpt lat="48.53299" lon="7.49913">
        <ele>177.60949707031</ele>
        <time>2017-06-04T06:52:11.000Z</time>
      </trkpt>
      <trkpt lat="48.53299" lon="7.49902">
        <ele>177.31832885742</ele>
        <time>2017-06-04T06:52:13.000Z</time>
      </trkpt>
      <trkpt lat="48.53298" lon="7.49884">
        <ele>177.11354064941</ele>
        <time>2017-06-04T06:52:16.000Z</time>
      </trkpt>
      <trkpt lat="48.53296" lon="7.49872">
        <ele>176.96792602539</ele>
        <time>2017-06-04T06:52:18.000Z</time>
      </trkpt>
      <trkpt lat="48.53292" lon="7.49855">
        <ele>176.91557312012</ele>
        <time>2017-06-04T06:52:21.000Z</time>
      </trkpt>
      <trkpt lat="48.53289" lon="7.49839">
        <ele>176.91650390625</ele>
        <time>2017-06-04T06:52:24.000Z</time>
      </trkpt>
      <trkpt lat="48.53287" lon="7.49828">
        <ele>176.91496276855</ele>
        <time>2017-06-04T06:52:26.000Z</time>
      </trkpt>
      <trkpt lat="48.53281" lon="7.49813">
        <ele>176.8801574707</ele>
        <time>2017-06-04T06:52:29.000Z</time>
      </trkpt>
      <trkpt lat="48.53276" lon="7.49803">
        <ele>176.8303527832</ele>
        <time>2017-06-04T06:52:32.000Z</time>
      </trkpt>
      <trkpt lat="48.53275" lon="7.49795">
        <ele>176.76298522949</ele>
        <time>2017-06-04T06:52:34.000Z</time>
      </trkpt>
      <trkpt lat="48.53277" lon="7.49786">
        <ele>176.6591796875</ele>
        <time>2017-06-04T06:52:36.000Z</time>
      </trkpt>
      <trkpt lat="48.53276" lon="7.49775">
        <ele>176.53356933594</ele>
        <time>2017-06-04T06:52:39.000Z</time>
      </trkpt>
      <trkpt lat="48.53264" lon="7.49773">
        <ele>176.43859863281</ele>
        <time>2017-06-04T06:52:42.000Z</time>
      </trkpt>
      <trkpt lat="48.53252" lon="7.4977">
        <ele>176.36010742188</ele>
        <time>2017-06-04T06:52:45.000Z</time>
      </trkpt>
      <trkpt lat="48.53243" lon="7.49769">
        <ele>176.32623291016</ele>
        <time>2017-06-04T06:52:47.000Z</time>
      </trkpt>
      <trkpt lat="48.53234" lon="7.49767">
        <ele>176.3490447998</ele>
        <time>2017-06-04T06:52:49.000Z</time>
      </trkpt>
      <trkpt lat="48.53222" lon="7.49765">
        <ele>176.44509887695</ele>
        <time>2017-06-04T06:52:52.000Z</time>
      </trkpt>
      <trkpt lat="48.53214" lon="7.49762">
        <ele>176.57870483398</ele>
        <time>2017-06-04T06:52:54.000Z</time>
      </trkpt>
      <trkpt lat="48.53202" lon="7.49758">
        <ele>176.7670135498</ele>
        <time>2017-06-04T06:52:57.000Z</time>
      </trkpt>
      <trkpt lat="48.53191" lon="7.49753">
        <ele>176.97801208496</ele>
        <time>2017-06-04T06:53:00.000Z</time>
      </trkpt>
      <trkpt lat="48.53183" lon="7.4975">
        <ele>177.1905670166</ele>
        <time>2017-06-04T06:53:02.000Z</time>
      </trkpt>
      <trkpt lat="48.53175" lon="7.49748">
        <ele>177.39530944824</ele>
        <time>2017-06-04T06:53:04.000Z</time>
      </trkpt>
      <trkpt lat="48.53163" lon="7.49743">
        <ele>177.60891723633</ele>
        <time>2017-06-04T06:53:07.000Z</time>
      </trkpt>
      <trkpt lat="48.53155" lon="7.4974">
        <ele>177.78157043457</ele>
        <time>2017-06-04T06:53:09.000Z</time>
      </trkpt>
      <trkpt lat="48.53143" lon="7.49736">
        <ele>177.92402648926</ele>
        <time>2017-06-04T06:53:12.000Z</time>
      </trkpt>
      <trkpt lat="48.53132" lon="7.49731">
        <ele>178.05754089355</ele>
        <time>2017-06-04T06:53:15.000Z</time>
      </trkpt>
      <trkpt lat="48.53124" lon="7.49729">
        <ele>178.1741027832</ele>
        <time>2017-06-04T06:53:17.000Z</time>
      </trkpt>
      <trkpt lat="48.53112" lon="7.49726">
        <ele>178.28532409668</ele>
        <time>2017-06-04T06:53:20.000Z</time>
      </trkpt>
      <trkpt lat="48.53103" lon="7.49724">
        <ele>178.41520690918</ele>
        <time>2017-06-04T06:53:22.000Z</time>
      </trkpt>
      <trkpt lat="48.53093" lon="7.49715">
        <ele>178.60905456543</ele>
        <time>2017-06-04T06:53:25.000Z</time>
      </trkpt>
      <trkpt lat="48.53093" lon="7.49703">
        <ele>178.85270690918</ele>
        <time>2017-06-04T06:53:27.000Z</time>
      </trkpt>
      <trkpt lat="48.531" lon="7.49686">
        <ele>179.14553833008</ele>
        <time>2017-06-04T06:53:30.000Z</time>
      </trkpt>
      <trkpt lat="48.53107" lon="7.4967">
        <ele>179.44818115234</ele>
        <time>2017-06-04T06:53:33.000Z</time>
      </trkpt>
      <trkpt lat="48.53109" lon="7.49658">
        <ele>179.71179199219</ele>
        <time>2017-06-04T06:53:35.000Z</time>
      </trkpt>
      <trkpt lat="48.53111" lon="7.4964">
        <ele>179.86865234375</ele>
        <time>2017-06-04T06:53:38.000Z</time>
      </trkpt>
      <trkpt lat="48.53112" lon="7.49628">
        <ele>179.93168640137</ele>
        <time>2017-06-04T06:53:40.000Z</time>
      </trkpt>
      <trkpt lat="48.53115" lon="7.4961">
        <ele>179.90133666992</ele>
        <time>2017-06-04T06:53:43.000Z</time>
      </trkpt>
      <trkpt lat="48.53117" lon="7.49593">
        <ele>179.80914306641</ele>
        <time>2017-06-04T06:53:46.000Z</time>
      </trkpt>
      <trkpt lat="48.5312" lon="7.49575">
        <ele>179.71850585938</ele>
        <time>2017-06-04T06:53:49.000Z</time>
      </trkpt>
      <trkpt lat="48.53121" lon="7.49563">
        <ele>179.64874267578</ele>
        <time>2017-06-04T06:53:51.000Z</time>
      </trkpt>
      <trkpt lat="48.53123" lon="7.49551">
        <ele>179.59158325195</ele>
        <time>2017-06-04T06:53:53.000Z</time>
      </trkpt>
      <trkpt lat="48.53125" lon="7.49533">
        <ele>179.55030822754</ele>
        <time>2017-06-04T06:53:56.000Z</time>
      </trkpt>
      <trkpt lat="48.53127" lon="7.49521">
        <ele>179.5224609375</ele>
        <time>2017-06-04T06:53:58.000Z</time>
      </trkpt>
      <trkpt lat="48.53127" lon="7.4951">
        <ele>179.50390625</ele>
        <time>2017-06-04T06:54:00.000Z</time>
      </trkpt>
      <trkpt lat="48.53128" lon="7.495">
        <ele>179.48828125</ele>
        <time>2017-06-04T06:54:02.000Z</time>
      </trkpt>
      <trkpt lat="48.53129" lon="7.49483">
        <ele>179.53103637695</ele>
        <time>2017-06-04T06:54:05.000Z</time>
      </trkpt>
      <trkpt lat="48.53129" lon="7.49467">
        <ele>179.63786315918</ele>
        <time>2017-06-04T06:54:08.000Z</time>
      </trkpt>
      <trkpt lat="48.5313" lon="7.49451">
        <ele>179.79818725586</ele>
        <time>2017-06-04T06:54:11.000Z</time>
      </trkpt>
      <trkpt lat="48.53128" lon="7.49443">
        <ele>179.99607849121</ele>
        <time>2017-06-04T06:54:14.000Z</time>
      </trkpt>
      <trkpt lat="48.53124" lon="7.49436">
        <ele>180.23725891113</ele>
        <time>2017-06-04T06:54:16.000Z</time>
      </trkpt>
      <trkpt lat="48.5312" lon="7.4942">
        <ele>180.4991607666</ele>
        <time>2017-06-04T06:54:19.000Z</time>
      </trkpt>
      <trkpt lat="48.53122" lon="7.49401">
        <ele>180.70698547363</ele>
        <time>2017-06-04T06:54:22.000Z</time>
      </trkpt>
      <trkpt lat="48.53124" lon="7.49388">
        <ele>180.85641479492</ele>
        <time>2017-06-04T06:54:24.000Z</time>
      </trkpt>
      <trkpt lat="48.53125" lon="7.49376">
        <ele>180.96438598633</ele>
        <time>2017-06-04T06:54:26.000Z</time>
      </trkpt>
      <trkpt lat="48.53126" lon="7.49358">
        <ele>181.02420043945</ele>
        <time>2017-06-04T06:54:29.000Z</time>
      </trkpt>
      <trkpt lat="48.53127" lon="7.49339">
        <ele>181.001953125</ele>
        <time>2017-06-04T06:54:32.000Z</time>
      </trkpt>
      <trkpt lat="48.53129" lon="7.49321">
        <ele>180.98661804199</ele>
        <time>2017-06-04T06:54:35.000Z</time>
      </trkpt>
      <trkpt lat="48.53129" lon="7.49302">
        <ele>181.00367736816</ele>
        <time>2017-06-04T06:54:38.000Z</time>
      </trkpt>
      <trkpt lat="48.5313" lon="7.49283">
        <ele>181.04635620117</ele>
        <time>2017-06-04T06:54:41.000Z</time>
      </trkpt>
      <trkpt lat="48.53131" lon="7.49265">
        <ele>181.1174621582</ele>
        <time>2017-06-04T06:54:44.000Z</time>
      </trkpt>
      <trkpt lat="48.53131" lon="7.49246">
        <ele>181.21672058105</ele>
        <time>2017-06-04T06:54:47.000Z</time>
      </trkpt>
      <trkpt lat="48.53127" lon="7.49227">
        <ele>181.31579589844</ele>
        <time>2017-06-04T06:54:50.000Z</time>
      </trkpt>
      <trkpt lat="48.53129" lon="7.49214">
        <ele>181.39178466797</ele>
        <time>2017-06-04T06:54:52.000Z</time>
      </trkpt>
      <trkpt lat="48.53141" lon="7.49203">
        <ele>181.45352172852</ele>
        <time>2017-06-04T06:54:55.000Z</time>
      </trkpt>
      <trkpt lat="48.53155" lon="7.49205">
        <ele>181.49421691895</ele>
        <time>2017-06-04T06:54:58.000Z</time>
      </trkpt>
      <trkpt lat="48.53167" lon="7.49202">
        <ele>181.52099609375</ele>
        <time>2017-06-04T06:55:01.000Z</time>
      </trkpt>
      <trkpt lat="48.5318" lon="7.49197">
        <ele>181.52095031738</ele>
        <time>2017-06-04T06:55:04.000Z</time>
      </trkpt>
      <trkpt lat="48.53193" lon="7.4919">
        <ele>181.5029296875</ele>
        <time>2017-06-04T06:55:07.000Z</time>
      </trkpt>
      <trkpt lat="48.53201" lon="7.49186">
        <ele>181.46987915039</ele>
        <time>2017-06-04T06:55:09.000Z</time>
      </trkpt>
      <trkpt lat="48.5321" lon="7.49181">
        <ele>181.42553710938</ele>
        <time>2017-06-04T06:55:11.000Z</time>
      </trkpt>
      <trkpt lat="48.53219" lon="7.49177">
        <ele>181.35986328125</ele>
        <time>2017-06-04T06:55:13.000Z</time>
      </trkpt>
      <trkpt lat="48.53231" lon="7.49172">
        <ele>181.29418945312</ele>
        <time>2017-06-04T06:55:16.000Z</time>
      </trkpt>
      <trkpt lat="48.5324" lon="7.49168">
        <ele>181.23400878906</ele>
        <time>2017-06-04T06:55:18.000Z</time>
      </trkpt>
      <trkpt lat="48.53254" lon="7.49161">
        <ele>181.10757446289</ele>
        <time>2017-06-04T06:55:21.000Z</time>
      </trkpt>
      <trkpt lat="48.53263" lon="7.49158">
        <ele>180.91178894043</ele>
        <time>2017-06-04T06:55:23.000Z</time>
      </trkpt>
      <trkpt lat="48.53271" lon="7.49154">
        <ele>180.64888000488</ele>
        <time>2017-06-04T06:55:25.000Z</time>
      </trkpt>
      <trkpt lat="48.53283" lon="7.49148">
        <ele>180.28915405273</ele>
        <time>2017-06-04T06:55:28.000Z</time>
      </trkpt>
      <trkpt lat="48.53293" lon="7.49143">
        <ele>179.8447265625</ele>
        <time>2017-06-04T06:55:31.000Z</time>
      </trkpt>
      <trkpt lat="48.53304" lon="7.49138">
        <ele>179.37768554688</ele>
        <time>2017-06-04T06:55:34.000Z</time>
      </trkpt>
      <trkpt lat="48.53313" lon="7.49134">
        <ele>178.8994140625</ele>
        <time>2017-06-04T06:55:37.000Z</time>
      </trkpt>
      <trkpt lat="48.53322" lon="7.4913">
        <ele>178.4208984375</ele>
        <time>2017-06-04T06:55:39.000Z</time>
      </trkpt>
      <trkpt lat="48.53334" lon="7.49125">
        <ele>177.9521484375</ele>
        <time>2017-06-04T06:55:42.000Z</time>
      </trkpt>
      <trkpt lat="48.53343" lon="7.49121">
        <ele>177.60513305664</ele>
        <time>2017-06-04T06:55:44.000Z</time>
      </trkpt>
      <trkpt lat="48.53357" lon="7.49115">
        <ele>177.40670776367</ele>
        <time>2017-06-04T06:55:47.000Z</time>
      </trkpt>
      <trkpt lat="48.5337" lon="7.49109">
        <ele>177.3531036377</ele>
        <time>2017-06-04T06:55:50.000Z</time>
      </trkpt>
      <trkpt lat="48.53379" lon="7.49104">
        <ele>177.4195098877</ele>
        <time>2017-06-04T06:55:52.000Z</time>
      </trkpt>
      <trkpt lat="48.53394" lon="7.49099">
        <ele>177.67549133301</ele>
        <time>2017-06-04T06:55:55.000Z</time>
      </trkpt>
      <trkpt lat="48.53409" lon="7.49097">
        <ele>177.99710083008</ele>
        <time>2017-06-04T06:55:58.000Z</time>
      </trkpt>
      <trkpt lat="48.53419" lon="7.49098">
        <ele>178.31762695312</ele>
        <time>2017-06-04T06:56:00.000Z</time>
      </trkpt>
      <trkpt lat="48.53436" lon="7.49101">
        <ele>178.58369445801</ele>
        <time>2017-06-04T06:56:03.000Z</time>
      </trkpt>
      <trkpt lat="48.53452" lon="7.49104">
        <ele>178.81005859375</ele>
        <time>2017-06-04T06:56:06.000Z</time>
      </trkpt>
      <trkpt lat="48.53466" lon="7.49107">
        <ele>178.95085144043</ele>
        <time>2017-06-04T06:56:09.000Z</time>
      </trkpt>
      <trkpt lat="48.53476" lon="7.49109">
        <ele>179</ele>
        <time>2017-06-04T06:56:11.000Z</time>
      </trkpt>
      <trkpt lat="48.53501" lon="7.49114">
        <ele>179.00149536133</ele>
        <time>2017-06-04T06:56:16.000Z</time>
      </trkpt>
      <trkpt lat="48.53517" lon="7.49115">
        <ele>179.02738952637</ele>
        <time>2017-06-04T06:56:19.000Z</time>
      </trkpt>
      <trkpt lat="48.53533" lon="7.49116">
        <ele>179.0753326416</ele>
        <time>2017-06-04T06:56:22.000Z</time>
      </trkpt>
      <trkpt lat="48.53549" lon="7.49119">
        <ele>179.14279174805</ele>
        <time>2017-06-04T06:56:25.000Z</time>
      </trkpt>
      <trkpt lat="48.53559" lon="7.4912">
        <ele>179.22225952148</ele>
        <time>2017-06-04T06:56:28.000Z</time>
      </trkpt>
      <trkpt lat="48.53574" lon="7.4912">
        <ele>179.31948852539</ele>
        <time>2017-06-04T06:56:30.000Z</time>
      </trkpt>
      <trkpt lat="48.53585" lon="7.49119">
        <ele>179.40785217285</ele>
        <time>2017-06-04T06:56:32.000Z</time>
      </trkpt>
      <trkpt lat="48.536" lon="7.49119">
        <ele>179.48136901855</ele>
        <time>2017-06-04T06:56:35.000Z</time>
      </trkpt>
      <trkpt lat="48.53614" lon="7.49118">
        <ele>179.54244995117</ele>
        <time>2017-06-04T06:56:38.000Z</time>
      </trkpt>
      <trkpt lat="48.53624" lon="7.49119">
        <ele>179.59222412109</ele>
        <time>2017-06-04T06:56:40.000Z</time>
      </trkpt>
      <trkpt lat="48.53634" lon="7.49119">
        <ele>179.6244354248</ele>
        <time>2017-06-04T06:56:42.000Z</time>
      </trkpt>
      <trkpt lat="48.53648" lon="7.49119">
        <ele>179.64854431152</ele>
        <time>2017-06-04T06:56:45.000Z</time>
      </trkpt>
      <trkpt lat="48.53658" lon="7.49116">
        <ele>179.6875</ele>
        <time>2017-06-04T06:56:48.000Z</time>
      </trkpt>
      <trkpt lat="48.53659" lon="7.49103">
        <ele>179.80528259277</ele>
        <time>2017-06-04T06:56:51.000Z</time>
      </trkpt>
      <trkpt lat="48.53656" lon="7.49091">
        <ele>180.00123596191</ele>
        <time>2017-06-04T06:56:53.000Z</time>
      </trkpt>
      <trkpt lat="48.53653" lon="7.49073">
        <ele>180.23690795898</ele>
        <time>2017-06-04T06:56:56.000Z</time>
      </trkpt>
      <trkpt lat="48.5365" lon="7.49057">
        <ele>180.4582824707</ele>
        <time>2017-06-04T06:56:59.000Z</time>
      </trkpt>
      <trkpt lat="48.53646" lon="7.49042">
        <ele>180.64886474609</ele>
        <time>2017-06-04T06:57:02.000Z</time>
      </trkpt>
      <trkpt lat="48.53643" lon="7.49029">
        <ele>180.7447052002</ele>
        <time>2017-06-04T06:57:05.000Z</time>
      </trkpt>
      <trkpt lat="48.5364" lon="7.49014">
        <ele>180.7548828125</ele>
        <time>2017-06-04T06:57:08.000Z</time>
      </trkpt>
      <trkpt lat="48.5364" lon="7.49004">
        <ele>180.7236328125</ele>
        <time>2017-06-04T06:57:10.000Z</time>
      </trkpt>
      <trkpt lat="48.53638" lon="7.48987">
        <ele>180.73739624023</ele>
        <time>2017-06-04T06:57:13.000Z</time>
      </trkpt>
      <trkpt lat="48.53637" lon="7.48977">
        <ele>180.79385375977</ele>
        <time>2017-06-04T06:57:15.000Z</time>
      </trkpt>
      <trkpt lat="48.53635" lon="7.48961">
        <ele>180.91787719727</ele>
        <time>2017-06-04T06:57:18.000Z</time>
      </trkpt>
      <trkpt lat="48.53634" lon="7.48952">
        <ele>181.0817565918</ele>
        <time>2017-06-04T06:57:20.000Z</time>
      </trkpt>
      <trkpt lat="48.53633" lon="7.48935">
        <ele>181.31732177734</ele>
        <time>2017-06-04T06:57:23.000Z</time>
      </trkpt>
      <trkpt lat="48.53631" lon="7.48923">
        <ele>181.57502746582</ele>
        <time>2017-06-04T06:57:25.000Z</time>
      </trkpt>
      <trkpt lat="48.53627" lon="7.48913">
        <ele>181.84432983398</ele>
        <time>2017-06-04T06:57:27.000Z</time>
      </trkpt>
      <trkpt lat="48.53622" lon="7.48895">
        <ele>182.07321166992</ele>
        <time>2017-06-04T06:57:30.000Z</time>
      </trkpt>
      <trkpt lat="48.5362" lon="7.48882">
        <ele>182.27139282227</ele>
        <time>2017-06-04T06:57:32.000Z</time>
      </trkpt>
      <trkpt lat="48.53618" lon="7.4887">
        <ele>182.40614318848</ele>
        <time>2017-06-04T06:57:34.000Z</time>
      </trkpt>
      <trkpt lat="48.53614" lon="7.48852">
        <ele>182.49575805664</ele>
        <time>2017-06-04T06:57:37.000Z</time>
      </trkpt>
      <trkpt lat="48.53611" lon="7.4884">
        <ele>182.5599822998</ele>
        <time>2017-06-04T06:57:39.000Z</time>
      </trkpt>
      <trkpt lat="48.53607" lon="7.48823">
        <ele>182.56230163574</ele>
        <time>2017-06-04T06:57:42.000Z</time>
      </trkpt>
      <trkpt lat="48.53605" lon="7.48811">
        <ele>182.4963684082</ele>
        <time>2017-06-04T06:57:44.000Z</time>
      </trkpt>
      <trkpt lat="48.53603" lon="7.48792">
        <ele>182.2933807373</ele>
        <time>2017-06-04T06:57:47.000Z</time>
      </trkpt>
      <trkpt lat="48.53601" lon="7.48774">
        <ele>181.95092773438</ele>
        <time>2017-06-04T06:57:50.000Z</time>
      </trkpt>
      <trkpt lat="48.536" lon="7.48755">
        <ele>181.4469909668</ele>
        <time>2017-06-04T06:57:53.000Z</time>
      </trkpt>
      <trkpt lat="48.53598" lon="7.48742">
        <ele>180.92807006836</ele>
        <time>2017-06-04T06:57:55.000Z</time>
      </trkpt>
      <trkpt lat="48.53594" lon="7.48727">
        <ele>180.43463134766</ele>
        <time>2017-06-04T06:57:58.000Z</time>
      </trkpt>
      <trkpt lat="48.53589" lon="7.48711">
        <ele>180.03231811523</ele>
        <time>2017-06-04T06:58:01.000Z</time>
      </trkpt>
      <trkpt lat="48.53588" lon="7.48694">
        <ele>179.71170043945</ele>
        <time>2017-06-04T06:58:04.000Z</time>
      </trkpt>
      <trkpt lat="48.53588" lon="7.48682">
        <ele>179.50105285645</ele>
        <time>2017-06-04T06:58:06.000Z</time>
      </trkpt>
      <trkpt lat="48.53591" lon="7.48664">
        <ele>179.31057739258</ele>
        <time>2017-06-04T06:58:09.000Z</time>
      </trkpt>
      <trkpt lat="48.53593" lon="7.48647">
        <ele>179.20310974121</ele>
        <time>2017-06-04T06:58:12.000Z</time>
      </trkpt>
      <trkpt lat="48.53593" lon="7.48635">
        <ele>179.16262817383</ele>
        <time>2017-06-04T06:58:14.000Z</time>
      </trkpt>
      <trkpt lat="48.53594" lon="7.48619">
        <ele>179.20851135254</ele>
        <time>2017-06-04T06:58:17.000Z</time>
      </trkpt>
      <trkpt lat="48.53593" lon="7.48603">
        <ele>179.3306427002</ele>
        <time>2017-06-04T06:58:20.000Z</time>
      </trkpt>
      <trkpt lat="48.5359" lon="7.48586">
        <ele>179.53628540039</ele>
        <time>2017-06-04T06:58:23.000Z</time>
      </trkpt>
      <trkpt lat="48.53589" lon="7.48576">
        <ele>179.76031494141</ele>
        <time>2017-06-04T06:58:25.000Z</time>
      </trkpt>
      <trkpt lat="48.53585" lon="7.48559">
        <ele>180.07592773438</ele>
        <time>2017-06-04T06:58:28.000Z</time>
      </trkpt>
      <trkpt lat="48.53582" lon="7.48541">
        <ele>180.48385620117</ele>
        <time>2017-06-04T06:58:31.000Z</time>
      </trkpt>
      <trkpt lat="48.5358" lon="7.48522">
        <ele>180.98258972168</ele>
        <time>2017-06-04T06:58:34.000Z</time>
      </trkpt>
      <trkpt lat="48.53578" lon="7.4851">
        <ele>181.52603149414</ele>
        <time>2017-06-04T06:58:36.000Z</time>
      </trkpt>
      <trkpt lat="48.53576" lon="7.48496">
        <ele>182.087890625</ele>
        <time>2017-06-04T06:58:38.000Z</time>
      </trkpt>
      <trkpt lat="48.53572" lon="7.48475">
        <ele>182.60681152344</ele>
        <time>2017-06-04T06:58:41.000Z</time>
      </trkpt>
      <trkpt lat="48.53571" lon="7.48463">
        <ele>183.03434753418</ele>
        <time>2017-06-04T06:58:43.000Z</time>
      </trkpt>
      <trkpt lat="48.5357" lon="7.48444">
        <ele>183.38972473145</ele>
        <time>2017-06-04T06:58:46.000Z</time>
      </trkpt>
      <trkpt lat="48.53571" lon="7.48432">
        <ele>183.70449829102</ele>
        <time>2017-06-04T06:58:48.000Z</time>
      </trkpt>
      <trkpt lat="48.53573" lon="7.48413">
        <ele>184.05136108398</ele>
        <time>2017-06-04T06:58:51.000Z</time>
      </trkpt>
      <trkpt lat="48.53572" lon="7.48399">
        <ele>184.43151855469</ele>
        <time>2017-06-04T06:58:53.000Z</time>
      </trkpt>
      <trkpt lat="48.5357" lon="7.48386">
        <ele>184.8597869873</ele>
        <time>2017-06-04T06:58:55.000Z</time>
      </trkpt>
      <trkpt lat="48.53567" lon="7.48366">
        <ele>185.36181640625</ele>
        <time>2017-06-04T06:58:58.000Z</time>
      </trkpt>
      <trkpt lat="48.53567" lon="7.48345">
        <ele>185.9817199707</ele>
        <time>2017-06-04T06:59:01.000Z</time>
      </trkpt>
      <trkpt lat="48.53569" lon="7.48324">
        <ele>186.59646606445</ele>
        <time>2017-06-04T06:59:04.000Z</time>
      </trkpt>
      <trkpt lat="48.53571" lon="7.48311">
        <ele>187.10523986816</ele>
        <time>2017-06-04T06:59:06.000Z</time>
      </trkpt>
      <trkpt lat="48.53574" lon="7.4829">
        <ele>187.52055358887</ele>
        <time>2017-06-04T06:59:09.000Z</time>
      </trkpt>
      <trkpt lat="48.53576" lon="7.48276">
        <ele>187.79544067383</ele>
        <time>2017-06-04T06:59:11.000Z</time>
      </trkpt>
      <trkpt lat="48.53577" lon="7.48262">
        <ele>187.89242553711</ele>
        <time>2017-06-04T06:59:13.000Z</time>
      </trkpt>
      <trkpt lat="48.5358" lon="7.48242">
        <ele>187.85946655273</ele>
        <time>2017-06-04T06:59:16.000Z</time>
      </trkpt>
      <trkpt lat="48.53582" lon="7.48222">
        <ele>187.79684448242</ele>
        <time>2017-06-04T06:59:19.000Z</time>
      </trkpt>
      <trkpt lat="48.53584" lon="7.48208">
        <ele>187.75189208984</ele>
        <time>2017-06-04T06:59:21.000Z</time>
      </trkpt>
      <trkpt lat="48.53588" lon="7.48187">
        <ele>187.77946472168</ele>
        <time>2017-06-04T06:59:24.000Z</time>
      </trkpt>
      <trkpt lat="48.53592" lon="7.48168">
        <ele>187.93032836914</ele>
        <time>2017-06-04T06:59:27.000Z</time>
      </trkpt>
      <trkpt lat="48.53595" lon="7.48157">
        <ele>188.1852722168</ele>
        <time>2017-06-04T06:59:29.000Z</time>
      </trkpt>
      <trkpt lat="48.536" lon="7.48139">
        <ele>188.55218505859</ele>
        <time>2017-06-04T06:59:32.000Z</time>
      </trkpt>
      <trkpt lat="48.53602" lon="7.48127">
        <ele>188.93603515625</ele>
        <time>2017-06-04T06:59:34.000Z</time>
      </trkpt>
      <trkpt lat="48.53605" lon="7.48114">
        <ele>189.27742004395</ele>
        <time>2017-06-04T06:59:36.000Z</time>
      </trkpt>
      <trkpt lat="48.53608" lon="7.48102">
        <ele>189.55166625977</ele>
        <time>2017-06-04T06:59:38.000Z</time>
      </trkpt>
      <trkpt lat="48.53614" lon="7.48084">
        <ele>189.84085083008</ele>
        <time>2017-06-04T06:59:41.000Z</time>
      </trkpt>
      <trkpt lat="48.5362" lon="7.48068">
        <ele>190.03486633301</ele>
        <time>2017-06-04T06:59:44.000Z</time>
      </trkpt>
      <trkpt lat="48.53626" lon="7.4805">
        <ele>190.18437194824</ele>
        <time>2017-06-04T06:59:47.000Z</time>
      </trkpt>
      <trkpt lat="48.5363" lon="7.48038">
        <ele>190.26905822754</ele>
        <time>2017-06-04T06:59:49.000Z</time>
      </trkpt>
      <trkpt lat="48.53633" lon="7.48026">
        <ele>190.28536987305</ele>
        <time>2017-06-04T06:59:51.000Z</time>
      </trkpt>
      <trkpt lat="48.53638" lon="7.48007">
        <ele>190.11734008789</ele>
        <time>2017-06-04T06:59:54.000Z</time>
      </trkpt>
      <trkpt lat="48.53643" lon="7.47995">
        <ele>189.99021911621</ele>
        <time>2017-06-04T06:59:56.000Z</time>
      </trkpt>
      <trkpt lat="48.53653" lon="7.47978">
        <ele>190.0110168457</ele>
        <time>2017-06-04T06:59:59.000Z</time>
      </trkpt>
      <trkpt lat="48.53662" lon="7.47961">
        <ele>190.173828125</ele>
        <time>2017-06-04T07:00:02.000Z</time>
      </trkpt>
      <trkpt lat="48.53672" lon="7.47948">
        <ele>190.62515258789</ele>
        <time>2017-06-04T07:00:05.000Z</time>
      </trkpt>
      <trkpt lat="48.53675" lon="7.47936">
        <ele>191.23454284668</ele>
        <time>2017-06-04T07:00:07.000Z</time>
      </trkpt>
      <trkpt lat="48.53678" lon="7.47925">
        <ele>191.83139038086</ele>
        <time>2017-06-04T07:00:09.000Z</time>
      </trkpt>
      <trkpt lat="48.53677" lon="7.47909">
        <ele>192.09700012207</ele>
        <time>2017-06-04T07:00:12.000Z</time>
      </trkpt>
      <trkpt lat="48.53676" lon="7.47903">
        <ele>192.14057922363</ele>
        <time>2017-06-04T07:00:14.000Z</time>
      </trkpt>
      <trkpt lat="48.53677" lon="7.47891">
        <ele>191.80899047852</ele>
        <time>2017-06-04T07:00:17.000Z</time>
      </trkpt>
      <trkpt lat="48.53677" lon="7.47873">
        <ele>191.16618347168</ele>
        <time>2017-06-04T07:00:20.000Z</time>
      </trkpt>
      <trkpt lat="48.53675" lon="7.47854">
        <ele>190.18005371094</ele>
        <time>2017-06-04T07:00:23.000Z</time>
      </trkpt>
      <trkpt lat="48.53673" lon="7.47842">
        <ele>189.14775085449</ele>
        <time>2017-06-04T07:00:25.000Z</time>
      </trkpt>
      <trkpt lat="48.53671" lon="7.47823">
        <ele>187.99723815918</ele>
        <time>2017-06-04T07:00:28.000Z</time>
      </trkpt>
      <trkpt lat="48.5367" lon="7.47811">
        <ele>186.86584472656</ele>
        <time>2017-06-04T07:00:30.000Z</time>
      </trkpt>
      <trkpt lat="48.53669" lon="7.47799">
        <ele>185.87759399414</ele>
        <time>2017-06-04T07:00:32.000Z</time>
      </trkpt>
      <trkpt lat="48.53668" lon="7.47787">
        <ele>185.11869812012</ele>
        <time>2017-06-04T07:00:34.000Z</time>
      </trkpt>
      <trkpt lat="48.53666" lon="7.47775">
        <ele>184.51321411133</ele>
        <time>2017-06-04T07:00:36.000Z</time>
      </trkpt>
      <trkpt lat="48.53666" lon="7.47766">
        <ele>184.09843444824</ele>
        <time>2017-06-04T07:00:38.000Z</time>
      </trkpt>
      <trkpt lat="48.53666" lon="7.47748">
        <ele>183.69772338867</ele>
        <time>2017-06-04T07:00:41.000Z</time>
      </trkpt>
      <trkpt lat="48.53665" lon="7.47735">
        <ele>183.39443969727</ele>
        <time>2017-06-04T07:00:43.000Z</time>
      </trkpt>
      <trkpt lat="48.53664" lon="7.47716">
        <ele>183.1795501709</ele>
        <time>2017-06-04T07:00:46.000Z</time>
      </trkpt>
      <trkpt lat="48.53663" lon="7.47703">
        <ele>183.04582214355</ele>
        <time>2017-06-04T07:00:48.000Z</time>
      </trkpt>
      <trkpt lat="48.53662" lon="7.4769">
        <ele>182.95100402832</ele>
        <time>2017-06-04T07:00:50.000Z</time>
      </trkpt>
      <trkpt lat="48.53662" lon="7.47669">
        <ele>182.93356323242</ele>
        <time>2017-06-04T07:00:53.000Z</time>
      </trkpt>
      <trkpt lat="48.53663" lon="7.47655">
        <ele>182.91928100586</ele>
        <time>2017-06-04T07:00:55.000Z</time>
      </trkpt>
      <trkpt lat="48.53662" lon="7.47642">
        <ele>182.90788269043</ele>
        <time>2017-06-04T07:00:57.000Z</time>
      </trkpt>
      <trkpt lat="48.53662" lon="7.47623">
        <ele>182.90007019043</ele>
        <time>2017-06-04T07:01:00.000Z</time>
      </trkpt>
      <trkpt lat="48.53661" lon="7.4761">
        <ele>182.89482116699</ele>
        <time>2017-06-04T07:01:02.000Z</time>
      </trkpt>
      <trkpt lat="48.53659" lon="7.47591">
        <ele>182.87890625</ele>
        <time>2017-06-04T07:01:05.000Z</time>
      </trkpt>
      <trkpt lat="48.53658" lon="7.47578">
        <ele>182.84913635254</ele>
        <time>2017-06-04T07:01:07.000Z</time>
      </trkpt>
      <trkpt lat="48.53657" lon="7.47564">
        <ele>182.79220581055</ele>
        <time>2017-06-04T07:01:09.000Z</time>
      </trkpt>
      <trkpt lat="48.53656" lon="7.47543">
        <ele>182.70262145996</ele>
        <time>2017-06-04T07:01:12.000Z</time>
      </trkpt>
      <trkpt lat="48.53657" lon="7.47523">
        <ele>182.58676147461</ele>
        <time>2017-06-04T07:01:15.000Z</time>
      </trkpt>
      <trkpt lat="48.53659" lon="7.4751">
        <ele>182.45826721191</ele>
        <time>2017-06-04T07:01:17.000Z</time>
      </trkpt>
      <trkpt lat="48.53662" lon="7.4749">
        <ele>182.33984375</ele>
        <time>2017-06-04T07:01:20.000Z</time>
      </trkpt>
      <trkpt lat="48.53665" lon="7.47469">
        <ele>182.29216003418</ele>
        <time>2017-06-04T07:01:23.000Z</time>
      </trkpt>
      <trkpt lat="48.53671" lon="7.47452">
        <ele>182.31309509277</ele>
        <time>2017-06-04T07:01:26.000Z</time>
      </trkpt>
      <trkpt lat="48.53674" lon="7.47434">
        <ele>182.39953613281</ele>
        <time>2017-06-04T07:01:29.000Z</time>
      </trkpt>
      <trkpt lat="48.53679" lon="7.47416">
        <ele>182.53900146484</ele>
        <time>2017-06-04T07:01:32.000Z</time>
      </trkpt>
      <trkpt lat="48.53683" lon="7.47403">
        <ele>182.7202911377</ele>
        <time>2017-06-04T07:01:34.000Z</time>
      </trkpt>
      <trkpt lat="48.53688" lon="7.47384">
        <ele>182.90957641602</ele>
        <time>2017-06-04T07:01:37.000Z</time>
      </trkpt>
      <trkpt lat="48.53693" lon="7.47364">
        <ele>183.10842895508</ele>
        <time>2017-06-04T07:01:40.000Z</time>
      </trkpt>
      <trkpt lat="48.53698" lon="7.47352">
        <ele>183.28373718262</ele>
        <time>2017-06-04T07:01:42.000Z</time>
      </trkpt>
      <trkpt lat="48.53705" lon="7.47334">
        <ele>183.42916870117</ele>
        <time>2017-06-04T07:01:45.000Z</time>
      </trkpt>
      <trkpt lat="48.53709" lon="7.47322">
        <ele>183.56230163574</ele>
        <time>2017-06-04T07:01:47.000Z</time>
      </trkpt>
      <trkpt lat="48.53714" lon="7.4731">
        <ele>183.65823364258</ele>
        <time>2017-06-04T07:01:49.000Z</time>
      </trkpt>
      <trkpt lat="48.53722" lon="7.47292">
        <ele>183.72250366211</ele>
        <time>2017-06-04T07:01:52.000Z</time>
      </trkpt>
      <trkpt lat="48.53728" lon="7.47273">
        <ele>183.7825012207</ele>
        <time>2017-06-04T07:01:55.000Z</time>
      </trkpt>
      <trkpt lat="48.53733" lon="7.47262">
        <ele>183.82626342773</ele>
        <time>2017-06-04T07:01:57.000Z</time>
      </trkpt>
      <trkpt lat="48.53743" lon="7.47247">
        <ele>183.78642272949</ele>
        <time>2017-06-04T07:02:00.000Z</time>
      </trkpt>
      <trkpt lat="48.53749" lon="7.47239">
        <ele>183.74087524414</ele>
        <time>2017-06-04T07:02:02.000Z</time>
      </trkpt>
      <trkpt lat="48.53755" lon="7.47232">
        <ele>183.73295593262</ele>
        <time>2017-06-04T07:02:04.000Z</time>
      </trkpt>
      <trkpt lat="48.53764" lon="7.4722">
        <ele>183.80368041992</ele>
        <time>2017-06-04T07:02:07.000Z</time>
      </trkpt>
      <trkpt lat="48.5377" lon="7.47209">
        <ele>183.96096801758</ele>
        <time>2017-06-04T07:02:09.000Z</time>
      </trkpt>
      <trkpt lat="48.53779" lon="7.47193">
        <ele>184.25263977051</ele>
        <time>2017-06-04T07:02:12.000Z</time>
      </trkpt>
      <trkpt lat="48.53785" lon="7.47183">
        <ele>184.57698059082</ele>
        <time>2017-06-04T07:02:14.000Z</time>
      </trkpt>
      <trkpt lat="48.53793" lon="7.47167">
        <ele>184.89767456055</ele>
        <time>2017-06-04T07:02:17.000Z</time>
      </trkpt>
      <trkpt lat="48.53798" lon="7.47155">
        <ele>185.08959960938</ele>
        <time>2017-06-04T07:02:19.000Z</time>
      </trkpt>
      <trkpt lat="48.53804" lon="7.47136">
        <ele>185.1496887207</ele>
        <time>2017-06-04T07:02:22.000Z</time>
      </trkpt>
      <trkpt lat="48.53809" lon="7.47124">
        <ele>185.09468078613</ele>
        <time>2017-06-04T07:02:24.000Z</time>
      </trkpt>
      <trkpt lat="48.53813" lon="7.47106">
        <ele>184.96588134766</ele>
        <time>2017-06-04T07:02:27.000Z</time>
      </trkpt>
      <trkpt lat="48.53817" lon="7.47087">
        <ele>184.75796508789</ele>
        <time>2017-06-04T07:02:30.000Z</time>
      </trkpt>
      <trkpt lat="48.53822" lon="7.47066">
        <ele>184.63046264648</ele>
        <time>2017-06-04T07:02:33.000Z</time>
      </trkpt>
      <trkpt lat="48.53824" lon="7.47053">
        <ele>184.60559082031</ele>
        <time>2017-06-04T07:02:35.000Z</time>
      </trkpt>
      <trkpt lat="48.53826" lon="7.47041">
        <ele>184.66506958008</ele>
        <time>2017-06-04T07:02:37.000Z</time>
      </trkpt>
      <trkpt lat="48.53828" lon="7.47027">
        <ele>184.81484985352</ele>
        <time>2017-06-04T07:02:39.000Z</time>
      </trkpt>
      <trkpt lat="48.53832" lon="7.47009">
        <ele>185.08639526367</ele>
        <time>2017-06-04T07:02:42.000Z</time>
      </trkpt>
      <trkpt lat="48.53836" lon="7.46991">
        <ele>185.45463562012</ele>
        <time>2017-06-04T07:02:45.000Z</time>
      </trkpt>
      <trkpt lat="48.53839" lon="7.4697">
        <ele>185.88711547852</ele>
        <time>2017-06-04T07:02:48.000Z</time>
      </trkpt>
      <trkpt lat="48.53842" lon="7.4695">
        <ele>186.35221862793</ele>
        <time>2017-06-04T07:02:51.000Z</time>
      </trkpt>
      <trkpt lat="48.53844" lon="7.46929">
        <ele>186.82113647461</ele>
        <time>2017-06-04T07:02:54.000Z</time>
      </trkpt>
      <trkpt lat="48.53845" lon="7.46907">
        <ele>187.25706481934</ele>
        <time>2017-06-04T07:02:57.000Z</time>
      </trkpt>
      <trkpt lat="48.53847" lon="7.46885">
        <ele>187.63117980957</ele>
        <time>2017-06-04T07:03:00.000Z</time>
      </trkpt>
      <trkpt lat="48.53848" lon="7.46871">
        <ele>187.94885253906</ele>
        <time>2017-06-04T07:03:02.000Z</time>
      </trkpt>
      <trkpt lat="48.53848" lon="7.46851">
        <ele>188.22561645508</ele>
        <time>2017-06-04T07:03:05.000Z</time>
      </trkpt>
      <trkpt lat="48.53854" lon="7.46832">
        <ele>188.54879760742</ele>
        <time>2017-06-04T07:03:08.000Z</time>
      </trkpt>
      <trkpt lat="48.53855" lon="7.4682">
        <ele>188.85557556152</ele>
        <time>2017-06-04T07:03:10.000Z</time>
      </trkpt>
      <trkpt lat="48.5386" lon="7.46803">
        <ele>189.18984985352</ele>
        <time>2017-06-04T07:03:13.000Z</time>
      </trkpt>
      <trkpt lat="48.53864" lon="7.46787">
        <ele>189.56164550781</ele>
        <time>2017-06-04T07:03:16.000Z</time>
      </trkpt>
      <trkpt lat="48.53867" lon="7.46769">
        <ele>189.97680664062</ele>
        <time>2017-06-04T07:03:19.000Z</time>
      </trkpt>
      <trkpt lat="48.5387" lon="7.46756">
        <ele>190.34606933594</ele>
        <time>2017-06-04T07:03:21.000Z</time>
      </trkpt>
      <trkpt lat="48.53873" lon="7.46738">
        <ele>190.72895812988</ele>
        <time>2017-06-04T07:03:24.000Z</time>
      </trkpt>
      <trkpt lat="48.53874" lon="7.46717">
        <ele>191.02139282227</ele>
        <time>2017-06-04T07:03:27.000Z</time>
      </trkpt>
      <trkpt lat="48.53875" lon="7.467">
        <ele>191.23654174805</ele>
        <time>2017-06-04T07:03:29.000Z</time>
      </trkpt>
      <trkpt lat="48.5388" lon="7.46682">
        <ele>191.43742370605</ele>
        <time>2017-06-04T07:03:32.000Z</time>
      </trkpt>
      <trkpt lat="48.53881" lon="7.46658">
        <ele>191.61135864258</ele>
        <time>2017-06-04T07:03:35.000Z</time>
      </trkpt>
      <trkpt lat="48.5388" lon="7.46638">
        <ele>191.77548217773</ele>
        <time>2017-06-04T07:03:38.000Z</time>
      </trkpt>
      <trkpt lat="48.53881" lon="7.46625">
        <ele>191.97863769531</ele>
        <time>2017-06-04T07:03:40.000Z</time>
      </trkpt>
      <trkpt lat="48.53883" lon="7.46609">
        <ele>192.24114990234</ele>
        <time>2017-06-04T07:03:42.000Z</time>
      </trkpt>
      <trkpt lat="48.53883" lon="7.46594">
        <ele>192.48246765137</ele>
        <time>2017-06-04T07:03:44.000Z</time>
      </trkpt>
      <trkpt lat="48.53883" lon="7.46574">
        <ele>192.76957702637</ele>
        <time>2017-06-04T07:03:47.000Z</time>
      </trkpt>
      <trkpt lat="48.53883" lon="7.4656">
        <ele>193.0725402832</ele>
        <time>2017-06-04T07:03:49.000Z</time>
      </trkpt>
      <trkpt lat="48.53882" lon="7.46545">
        <ele>193.36779785156</ele>
        <time>2017-06-04T07:03:51.000Z</time>
      </trkpt>
      <trkpt lat="48.53882" lon="7.46527">
        <ele>193.6633605957</ele>
        <time>2017-06-04T07:03:54.000Z</time>
      </trkpt>
      <trkpt lat="48.53883" lon="7.46509">
        <ele>194.0030670166</ele>
        <time>2017-06-04T07:03:57.000Z</time>
      </trkpt>
      <trkpt lat="48.53883" lon="7.46482">
        <ele>194.34091186523</ele>
        <time>2017-06-04T07:04:00.000Z</time>
      </trkpt>
      <trkpt lat="48.53883" lon="7.46456">
        <ele>194.63468933105</ele>
        <time>2017-06-04T07:04:03.000Z</time>
      </trkpt>
      <trkpt lat="48.53886" lon="7.46437">
        <ele>194.97802734375</ele>
        <time>2017-06-04T07:04:06.000Z</time>
      </trkpt>
      <trkpt lat="48.53887" lon="7.46414">
        <ele>195.27624511719</ele>
        <time>2017-06-04T07:04:09.000Z</time>
      </trkpt>
      <trkpt lat="48.53889" lon="7.464">
        <ele>195.52520751953</ele>
        <time>2017-06-04T07:04:11.000Z</time>
      </trkpt>
      <trkpt lat="48.53887" lon="7.46377">
        <ele>195.62312316895</ele>
        <time>2017-06-04T07:04:14.000Z</time>
      </trkpt>
      <trkpt lat="48.53885" lon="7.46362">
        <ele>195.64694213867</ele>
        <time>2017-06-04T07:04:16.000Z</time>
      </trkpt>
      <trkpt lat="48.5388" lon="7.46342">
        <ele>195.43605041504</ele>
        <time>2017-06-04T07:04:19.000Z</time>
      </trkpt>
      <trkpt lat="48.53875" lon="7.46325">
        <ele>195.04194641113</ele>
        <time>2017-06-04T07:04:22.000Z</time>
      </trkpt>
      <trkpt lat="48.53871" lon="7.46309">
        <ele>194.41775512695</ele>
        <time>2017-06-04T07:04:25.000Z</time>
      </trkpt>
      <trkpt lat="48.53868" lon="7.46295">
        <ele>193.69819641113</ele>
        <time>2017-06-04T07:04:28.000Z</time>
      </trkpt>
      <trkpt lat="48.53865" lon="7.46285">
        <ele>192.9383392334</ele>
        <time>2017-06-04T07:04:30.000Z</time>
      </trkpt>
      <trkpt lat="48.53862" lon="7.46277">
        <ele>192.19311523438</ele>
        <time>2017-06-04T07:04:32.000Z</time>
      </trkpt>
      <trkpt lat="48.53858" lon="7.46261">
        <ele>191.42887878418</ele>
        <time>2017-06-04T07:04:35.000Z</time>
      </trkpt>
      <trkpt lat="48.53855" lon="7.46244">
        <ele>190.74154663086</ele>
        <time>2017-06-04T07:04:38.000Z</time>
      </trkpt>
      <trkpt lat="48.53852" lon="7.46233">
        <ele>190.19384765625</ele>
        <time>2017-06-04T07:04:40.000Z</time>
      </trkpt>
      <trkpt lat="48.53844" lon="7.46209">
        <ele>189.6768951416</ele>
        <time>2017-06-04T07:04:43.000Z</time>
      </trkpt>
      <trkpt lat="48.53838" lon="7.46197">
        <ele>189.24014282227</ele>
        <time>2017-06-04T07:04:45.000Z</time>
      </trkpt>
      <trkpt lat="48.53831" lon="7.46179">
        <ele>188.97944641113</ele>
        <time>2017-06-04T07:04:48.000Z</time>
      </trkpt>
      <trkpt lat="48.53825" lon="7.46161">
        <ele>188.85981750488</ele>
        <time>2017-06-04T07:04:51.000Z</time>
      </trkpt>
      <trkpt lat="48.53823" lon="7.4615">
        <ele>188.76002502441</ele>
        <time>2017-06-04T07:04:53.000Z</time>
      </trkpt>
      <trkpt lat="48.5382" lon="7.46133">
        <ele>188.71347045898</ele>
        <time>2017-06-04T07:04:56.000Z</time>
      </trkpt>
      <trkpt lat="48.53817" lon="7.46118">
        <ele>188.70053100586</ele>
        <time>2017-06-04T07:04:59.000Z</time>
      </trkpt>
      <trkpt lat="48.53814" lon="7.46106">
        <ele>188.67578125</ele>
        <time>2017-06-04T07:05:01.000Z</time>
      </trkpt>
      <trkpt lat="48.5381" lon="7.46087">
        <ele>188.6015625</ele>
        <time>2017-06-04T07:05:04.000Z</time>
      </trkpt>
      <trkpt lat="48.53805" lon="7.46063">
        <ele>188.5463104248</ele>
        <time>2017-06-04T07:05:07.000Z</time>
      </trkpt>
      <trkpt lat="48.53802" lon="7.4605">
        <ele>188.51974487305</ele>
        <time>2017-06-04T07:05:09.000Z</time>
      </trkpt>
      <trkpt lat="48.538" lon="7.46035">
        <ele>188.53164672852</ele>
        <time>2017-06-04T07:05:11.000Z</time>
      </trkpt>
      <trkpt lat="48.53797" lon="7.46013">
        <ele>188.59703063965</ele>
        <time>2017-06-04T07:05:14.000Z</time>
      </trkpt>
      <trkpt lat="48.53792" lon="7.45994">
        <ele>188.72341918945</ele>
        <time>2017-06-04T07:05:17.000Z</time>
      </trkpt>
      <trkpt lat="48.5379" lon="7.45982">
        <ele>188.86766052246</ele>
        <time>2017-06-04T07:05:19.000Z</time>
      </trkpt>
      <trkpt lat="48.53792" lon="7.45967">
        <ele>189.03761291504</ele>
        <time>2017-06-04T07:05:21.000Z</time>
      </trkpt>
      <trkpt lat="48.53794" lon="7.45948">
        <ele>189.23574829102</ele>
        <time>2017-06-04T07:05:24.000Z</time>
      </trkpt>
      <trkpt lat="48.53793" lon="7.45927">
        <ele>189.44355773926</ele>
        <time>2017-06-04T07:05:27.000Z</time>
      </trkpt>
      <trkpt lat="48.53793" lon="7.45914">
        <ele>189.64337158203</ele>
        <time>2017-06-04T07:05:29.000Z</time>
      </trkpt>
      <trkpt lat="48.53794" lon="7.45903">
        <ele>189.84443664551</ele>
        <time>2017-06-04T07:05:31.000Z</time>
      </trkpt>
      <trkpt lat="48.53793" lon="7.45895">
        <ele>190.02420043945</ele>
        <time>2017-06-04T07:05:33.000Z</time>
      </trkpt>
      <trkpt lat="48.53793" lon="7.45891">
        <ele>190.15977478027</ele>
        <time>2017-06-04T07:05:35.000Z</time>
      </trkpt>
      <trkpt lat="48.53792" lon="7.45887">
        <ele>190.25451660156</ele>
        <time>2017-06-04T07:05:38.000Z</time>
      </trkpt>
      <trkpt lat="48.53792" lon="7.45874">
        <ele>190.34509277344</ele>
        <time>2017-06-04T07:05:41.000Z</time>
      </trkpt>
      <trkpt lat="48.53791" lon="7.45864">
        <ele>190.42797851562</ele>
        <time>2017-06-04T07:05:43.000Z</time>
      </trkpt>
      <trkpt lat="48.53789" lon="7.45857">
        <ele>190.49975585938</ele>
        <time>2017-06-04T07:05:46.000Z</time>
      </trkpt>
      <trkpt lat="48.53787" lon="7.45857">
        <ele>190.55773925781</ele>
        <time>2017-06-04T07:05:54.000Z</time>
      </trkpt>
      <trkpt lat="48.53785" lon="7.45855">
        <ele>190.59851074219</ele>
        <time>2017-06-04T07:05:56.000Z</time>
      </trkpt>
      <trkpt lat="48.5378" lon="7.45854">
        <ele>190.58837890625</ele>
        <time>2017-06-04T07:05:58.000Z</time>
      </trkpt>
      <trkpt lat="48.5377" lon="7.45855">
        <ele>190.5048828125</ele>
        <time>2017-06-04T07:06:01.000Z</time>
      </trkpt>
      <trkpt lat="48.53758" lon="7.45862">
        <ele>190.34350585938</ele>
        <time>2017-06-04T07:06:04.000Z</time>
      </trkpt>
      <trkpt lat="48.53746" lon="7.4587">
        <ele>190.12646484375</ele>
        <time>2017-06-04T07:06:07.000Z</time>
      </trkpt>
      <trkpt lat="48.53734" lon="7.45876">
        <ele>189.890625</ele>
        <time>2017-06-04T07:06:10.000Z</time>
      </trkpt>
      <trkpt lat="48.53726" lon="7.45879">
        <ele>189.6667175293</ele>
        <time>2017-06-04T07:06:12.000Z</time>
      </trkpt>
      <trkpt lat="48.53714" lon="7.45886">
        <ele>189.49028015137</ele>
        <time>2017-06-04T07:06:15.000Z</time>
      </trkpt>
      <trkpt lat="48.53703" lon="7.45893">
        <ele>189.39410400391</ele>
        <time>2017-06-04T07:06:18.000Z</time>
      </trkpt>
      <trkpt lat="48.5369" lon="7.45899">
        <ele>189.38366699219</ele>
        <time>2017-06-04T07:06:21.000Z</time>
      </trkpt>
      <trkpt lat="48.53679" lon="7.45906">
        <ele>189.43740844727</ele>
        <time>2017-06-04T07:06:24.000Z</time>
      </trkpt>
      <trkpt lat="48.5367" lon="7.45912">
        <ele>189.53833007812</ele>
        <time>2017-06-04T07:06:26.000Z</time>
      </trkpt>
      <trkpt lat="48.53661" lon="7.4592">
        <ele>189.64701843262</ele>
        <time>2017-06-04T07:06:29.000Z</time>
      </trkpt>
      <trkpt lat="48.5365" lon="7.45927">
        <ele>189.69345092773</ele>
        <time>2017-06-04T07:06:32.000Z</time>
      </trkpt>
      <trkpt lat="48.53641" lon="7.45931">
        <ele>189.68759155273</ele>
        <time>2017-06-04T07:06:34.000Z</time>
      </trkpt>
      <trkpt lat="48.53629" lon="7.4594">
        <ele>189.60256958008</ele>
        <time>2017-06-04T07:06:37.000Z</time>
      </trkpt>
      <trkpt lat="48.53616" lon="7.45947">
        <ele>189.4536895752</ele>
        <time>2017-06-04T07:06:40.000Z</time>
      </trkpt>
      <trkpt lat="48.53606" lon="7.45949">
        <ele>189.29254150391</ele>
        <time>2017-06-04T07:06:42.000Z</time>
      </trkpt>
      <trkpt lat="48.53589" lon="7.45952">
        <ele>189.17501831055</ele>
        <time>2017-06-04T07:06:45.000Z</time>
      </trkpt>
      <trkpt lat="48.53567" lon="7.45947">
        <ele>189.00749206543</ele>
        <time>2017-06-04T07:06:48.000Z</time>
      </trkpt>
      <trkpt lat="48.53555" lon="7.45937">
        <ele>188.82565307617</ele>
        <time>2017-06-04T07:06:50.000Z</time>
      </trkpt>
      <trkpt lat="48.53552" lon="7.45921">
        <ele>188.65455627441</ele>
        <time>2017-06-04T07:06:52.000Z</time>
      </trkpt>
      <trkpt lat="48.53545" lon="7.45904">
        <ele>188.45727539062</ele>
        <time>2017-06-04T07:06:54.000Z</time>
      </trkpt>
      <trkpt lat="48.5354" lon="7.45883">
        <ele>188.24922180176</ele>
        <time>2017-06-04T07:06:57.000Z</time>
      </trkpt>
      <trkpt lat="48.53536" lon="7.45863">
        <ele>188.11706542969</ele>
        <time>2017-06-04T07:07:00.000Z</time>
      </trkpt>
      <trkpt lat="48.53531" lon="7.45841">
        <ele>188.04594421387</ele>
        <time>2017-06-04T07:07:03.000Z</time>
      </trkpt>
      <trkpt lat="48.53528" lon="7.45826">
        <ele>187.99516296387</ele>
        <time>2017-06-04T07:07:05.000Z</time>
      </trkpt>
      <trkpt lat="48.53525" lon="7.45803">
        <ele>187.98031616211</ele>
        <time>2017-06-04T07:07:08.000Z</time>
      </trkpt>
      <trkpt lat="48.53521" lon="7.4578">
        <ele>187.98617553711</ele>
        <time>2017-06-04T07:07:11.000Z</time>
      </trkpt>
      <trkpt lat="48.53517" lon="7.45766">
        <ele>187.99528503418</ele>
        <time>2017-06-04T07:07:13.000Z</time>
      </trkpt>
      <trkpt lat="48.53515" lon="7.45752">
        <ele>188</ele>
        <time>2017-06-04T07:07:15.000Z</time>
      </trkpt>
      <trkpt lat="48.53514" lon="7.45729">
        <ele>188.06007385254</ele>
        <time>2017-06-04T07:07:18.000Z</time>
      </trkpt>
      <trkpt lat="48.53508" lon="7.45708">
        <ele>188.16967773438</ele>
        <time>2017-06-04T07:07:21.000Z</time>
      </trkpt>
      <trkpt lat="48.53501" lon="7.45689">
        <ele>188.31661987305</ele>
        <time>2017-06-04T07:07:24.000Z</time>
      </trkpt>
      <trkpt lat="48.53496" lon="7.45679">
        <ele>188.48852539062</ele>
        <time>2017-06-04T07:07:26.000Z</time>
      </trkpt>
      <trkpt lat="48.53489" lon="7.45663">
        <ele>188.69831848145</ele>
        <time>2017-06-04T07:07:29.000Z</time>
      </trkpt>
      <trkpt lat="48.53481" lon="7.45643">
        <ele>188.89454650879</ele>
        <time>2017-06-04T07:07:32.000Z</time>
      </trkpt>
      <trkpt lat="48.53474" lon="7.45625">
        <ele>189.08480834961</ele>
        <time>2017-06-04T07:07:35.000Z</time>
      </trkpt>
      <trkpt lat="48.53468" lon="7.45606">
        <ele>189.28230285645</ele>
        <time>2017-06-04T07:07:38.000Z</time>
      </trkpt>
      <trkpt lat="48.53463" lon="7.45595">
        <ele>189.48156738281</ele>
        <time>2017-06-04T07:07:40.000Z</time>
      </trkpt>
      <trkpt lat="48.53458" lon="7.45587">
        <ele>189.66369628906</ele>
        <time>2017-06-04T07:07:42.000Z</time>
      </trkpt>
      <trkpt lat="48.53444" lon="7.45585">
        <ele>189.80358886719</ele>
        <time>2017-06-04T07:07:45.000Z</time>
      </trkpt>
      <trkpt lat="48.53433" lon="7.45578">
        <ele>189.92501831055</ele>
        <time>2017-06-04T07:07:48.000Z</time>
      </trkpt>
      <trkpt lat="48.53419" lon="7.45579">
        <ele>190.00175476074</ele>
        <time>2017-06-04T07:07:51.000Z</time>
      </trkpt>
      <trkpt lat="48.53412" lon="7.45581">
        <ele>190.01031494141</ele>
        <time>2017-06-04T07:07:53.000Z</time>
      </trkpt>
      <trkpt lat="48.53408" lon="7.45578">
        <ele>189.97988891602</ele>
        <time>2017-06-04T07:07:55.000Z</time>
      </trkpt>
      <trkpt lat="48.53409" lon="7.45566">
        <ele>190.00869750977</ele>
        <time>2017-06-04T07:07:58.000Z</time>
      </trkpt>
      <trkpt lat="48.53409" lon="7.4555">
        <ele>190.08436584473</ele>
        <time>2017-06-04T07:08:01.000Z</time>
      </trkpt>
      <trkpt lat="48.5341" lon="7.45539">
        <ele>190.21598815918</ele>
        <time>2017-06-04T07:08:03.000Z</time>
      </trkpt>
      <trkpt lat="48.5341" lon="7.45522">
        <ele>190.47183227539</ele>
        <time>2017-06-04T07:08:06.000Z</time>
      </trkpt>
      <trkpt lat="48.53409" lon="7.45504">
        <ele>190.81672668457</ele>
        <time>2017-06-04T07:08:09.000Z</time>
      </trkpt>
      <trkpt lat="48.53407" lon="7.45493">
        <ele>191.08645629883</ele>
        <time>2017-06-04T07:08:11.000Z</time>
      </trkpt>
      <trkpt lat="48.53402" lon="7.45482">
        <ele>191.23672485352</ele>
        <time>2017-06-04T07:08:13.000Z</time>
      </trkpt>
      <trkpt lat="48.53394" lon="7.45472">
        <ele>191.27210998535</ele>
        <time>2017-06-04T07:08:15.000Z</time>
      </trkpt>
      <trkpt lat="48.53389" lon="7.45461">
        <ele>191.20205688477</ele>
        <time>2017-06-04T07:08:17.000Z</time>
      </trkpt>
      <trkpt lat="48.53384" lon="7.45447">
        <ele>191.05537414551</ele>
        <time>2017-06-04T07:08:20.000Z</time>
      </trkpt>
      <trkpt lat="48.53381" lon="7.45435">
        <ele>190.92890930176</ele>
        <time>2017-06-04T07:08:23.000Z</time>
      </trkpt>
      <trkpt lat="48.53376" lon="7.45429">
        <ele>190.85244750977</ele>
        <time>2017-06-04T07:08:25.000Z</time>
      </trkpt>
      <trkpt lat="48.53362" lon="7.45433">
        <ele>190.79890441895</ele>
        <time>2017-06-04T07:08:28.000Z</time>
      </trkpt>
      <trkpt lat="48.53351" lon="7.45443">
        <ele>190.70010375977</ele>
        <time>2017-06-04T07:08:31.000Z</time>
      </trkpt>
      <trkpt lat="48.53341" lon="7.45449">
        <ele>190.53855895996</ele>
        <time>2017-06-04T07:08:34.000Z</time>
      </trkpt>
      <trkpt lat="48.53335" lon="7.4545">
        <ele>190.33416748047</ele>
        <time>2017-06-04T07:08:36.000Z</time>
      </trkpt>
      <trkpt lat="48.53329" lon="7.45451">
        <ele>190.14033508301</ele>
        <time>2017-06-04T07:08:38.000Z</time>
      </trkpt>
      <trkpt lat="48.53322" lon="7.45448">
        <ele>190.04621887207</ele>
        <time>2017-06-04T07:08:40.000Z</time>
      </trkpt>
      <trkpt lat="48.53318" lon="7.45432">
        <ele>190.19361877441</ele>
        <time>2017-06-04T07:08:43.000Z</time>
      </trkpt>
      <trkpt lat="48.5332" lon="7.45413">
        <ele>190.56094360352</ele>
        <time>2017-06-04T07:08:46.000Z</time>
      </trkpt>
      <trkpt lat="48.53321" lon="7.45401">
        <ele>191.06161499023</ele>
        <time>2017-06-04T07:08:48.000Z</time>
      </trkpt>
      <trkpt lat="48.53321" lon="7.45383">
        <ele>191.69871520996</ele>
        <time>2017-06-04T07:08:51.000Z</time>
      </trkpt>
      <trkpt lat="48.53322" lon="7.45365">
        <ele>192.41777038574</ele>
        <time>2017-06-04T07:08:54.000Z</time>
      </trkpt>
      <trkpt lat="48.53322" lon="7.45354">
        <ele>193.05130004883</ele>
        <time>2017-06-04T07:08:56.000Z</time>
      </trkpt>
      <trkpt lat="48.53322" lon="7.45338">
        <ele>193.66598510742</ele>
        <time>2017-06-04T07:08:59.000Z</time>
      </trkpt>
      <trkpt lat="48.53321" lon="7.45323">
        <ele>194.35229492188</ele>
        <time>2017-06-04T07:09:02.000Z</time>
      </trkpt>
      <trkpt lat="48.53319" lon="7.4531">
        <ele>195.08222961426</ele>
        <time>2017-06-04T07:09:05.000Z</time>
      </trkpt>
      <trkpt lat="48.53318" lon="7.45302">
        <ele>195.77084350586</ele>
        <time>2017-06-04T07:09:07.000Z</time>
      </trkpt>
      <trkpt lat="48.53317" lon="7.45291">
        <ele>196.5143737793</ele>
        <time>2017-06-04T07:09:10.000Z</time>
      </trkpt>
      <trkpt lat="48.53317" lon="7.45285">
        <ele>197.17883300781</ele>
        <time>2017-06-04T07:09:13.000Z</time>
      </trkpt>
      <trkpt lat="48.53317" lon="7.45282">
        <ele>197.69534301758</ele>
        <time>2017-06-04T07:09:15.000Z</time>
      </trkpt>
      <trkpt lat="48.53317" lon="7.4528">
        <ele>198.03408813477</ele>
        <time>2017-06-04T07:09:17.000Z</time>
      </trkpt>
      <trkpt lat="48.53317" lon="7.45276">
        <ele>198.30229187012</ele>
        <time>2017-06-04T07:09:20.000Z</time>
      </trkpt>
      <trkpt lat="48.53317" lon="7.45272">
        <ele>198.46513366699</ele>
        <time>2017-06-04T07:09:22.000Z</time>
      </trkpt>
      <trkpt lat="48.53317" lon="7.45268">
        <ele>198.60916137695</ele>
        <time>2017-06-04T07:09:24.000Z</time>
      </trkpt>
      <trkpt lat="48.53316" lon="7.45263">
        <ele>198.79403686523</ele>
        <time>2017-06-04T07:09:26.000Z</time>
      </trkpt>
      <trkpt lat="48.53316" lon="7.45256">
        <ele>199.02426147461</ele>
        <time>2017-06-04T07:09:29.000Z</time>
      </trkpt>
      <trkpt lat="48.53316" lon="7.4525">
        <ele>199.26473999023</ele>
        <time>2017-06-04T07:09:31.000Z</time>
      </trkpt>
      <trkpt lat="48.53316" lon="7.45244">
        <ele>199.50578308105</ele>
        <time>2017-06-04T07:09:34.000Z</time>
      </trkpt>
      <trkpt lat="48.53317" lon="7.45239">
        <ele>199.68521118164</ele>
        <time>2017-06-04T07:09:36.000Z</time>
      </trkpt>
      <trkpt lat="48.53318" lon="7.45234">
        <ele>199.79092407227</ele>
        <time>2017-06-04T07:09:38.000Z</time>
      </trkpt>
      <trkpt lat="48.53318" lon="7.45226">
        <ele>199.85386657715</ele>
        <time>2017-06-04T07:09:41.000Z</time>
      </trkpt>
      <trkpt lat="48.53316" lon="7.45219">
        <ele>199.95442199707</ele>
        <time>2017-06-04T07:09:44.000Z</time>
      </trkpt>
      <trkpt lat="48.53313" lon="7.45214">
        <ele>200.18771362305</ele>
        <time>2017-06-04T07:09:47.000Z</time>
      </trkpt>
      <trkpt lat="48.53312" lon="7.45211">
        <ele>200.55255126953</ele>
        <time>2017-06-04T07:09:49.000Z</time>
      </trkpt>
      <trkpt lat="48.5331" lon="7.45206">
        <ele>201.0170135498</ele>
        <time>2017-06-04T07:09:51.000Z</time>
      </trkpt>
      <trkpt lat="48.53309" lon="7.452">
        <ele>201.58674621582</ele>
        <time>2017-06-04T07:09:54.000Z</time>
      </trkpt>
      <trkpt lat="48.53308" lon="7.45195">
        <ele>202.14775085449</ele>
        <time>2017-06-04T07:09:56.000Z</time>
      </trkpt>
      <trkpt lat="48.53306" lon="7.45186">
        <ele>202.71142578125</ele>
        <time>2017-06-04T07:09:59.000Z</time>
      </trkpt>
      <trkpt lat="48.53303" lon="7.45179">
        <ele>203.39953613281</ele>
        <time>2017-06-04T07:10:01.000Z</time>
      </trkpt>
      <trkpt lat="48.53301" lon="7.45167">
        <ele>204.21325683594</ele>
        <time>2017-06-04T07:10:04.000Z</time>
      </trkpt>
      <trkpt lat="48.53302" lon="7.45156">
        <ele>204.87313842773</ele>
        <time>2017-06-04T07:10:07.000Z</time>
      </trkpt>
      <trkpt lat="48.53302" lon="7.45154">
        <ele>205.4313659668</ele>
        <time>2017-06-04T07:10:09.000Z</time>
      </trkpt>
      <trkpt lat="48.53302" lon="7.45151">
        <ele>205.78730773926</ele>
        <time>2017-06-04T07:10:12.000Z</time>
      </trkpt>
      <trkpt lat="48.53302" lon="7.45149">
        <ele>205.91377258301</ele>
        <time>2017-06-04T07:10:15.000Z</time>
      </trkpt>
      <trkpt lat="48.53302" lon="7.45146">
        <ele>205.82437133789</ele>
        <time>2017-06-04T07:10:17.000Z</time>
      </trkpt>
      <trkpt lat="48.53301" lon="7.45142">
        <ele>205.87426757812</ele>
        <time>2017-06-04T07:10:20.000Z</time>
      </trkpt>
      <trkpt lat="48.53299" lon="7.4514">
        <ele>206.0615234375</ele>
        <time>2017-06-04T07:10:22.000Z</time>
      </trkpt>
      <trkpt lat="48.53298" lon="7.45139">
        <ele>206.35913085938</ele>
        <time>2017-06-04T07:10:25.000Z</time>
      </trkpt>
      <trkpt lat="48.53297" lon="7.4514">
        <ele>206.74026489258</ele>
        <time>2017-06-04T07:10:28.000Z</time>
      </trkpt>
      <trkpt lat="48.53294" lon="7.45142">
        <ele>207.31547546387</ele>
        <time>2017-06-04T07:10:33.000Z</time>
      </trkpt>
      <trkpt lat="48.53293" lon="7.45141">
        <ele>207.83601379395</ele>
        <time>2017-06-04T07:10:34.000Z</time>
      </trkpt>
      <trkpt lat="48.53294" lon="7.4514">
        <ele>208.16511535645</ele>
        <time>2017-06-04T07:10:38.000Z</time>
      </trkpt>
      <trkpt lat="48.53295" lon="7.45136">
        <ele>208.35417175293</ele>
        <time>2017-06-04T07:10:41.000Z</time>
      </trkpt>
      <trkpt lat="48.53294" lon="7.4513">
        <ele>208.50863647461</ele>
        <time>2017-06-04T07:10:44.000Z</time>
      </trkpt>
      <trkpt lat="48.53293" lon="7.45126">
        <ele>208.54695129395</ele>
        <time>2017-06-04T07:10:46.000Z</time>
      </trkpt>
      <trkpt lat="48.53292" lon="7.45122">
        <ele>208.60659790039</ele>
        <time>2017-06-04T07:10:49.000Z</time>
      </trkpt>
      <trkpt lat="48.53289" lon="7.45118">
        <ele>208.95707702637</ele>
        <time>2017-06-04T07:10:52.000Z</time>
      </trkpt>
      <trkpt lat="48.53287" lon="7.45116">
        <ele>209.47001647949</ele>
        <time>2017-06-04T07:10:55.000Z</time>
      </trkpt>
      <trkpt lat="48.53285" lon="7.45114">
        <ele>210.03742980957</ele>
        <time>2017-06-04T07:10:57.000Z</time>
      </trkpt>
      <trkpt lat="48.53283" lon="7.45111">
        <ele>210.65365600586</ele>
        <time>2017-06-04T07:11:00.000Z</time>
      </trkpt>
      <trkpt lat="48.53282" lon="7.4511">
        <ele>211.27067565918</ele>
        <time>2017-06-04T07:11:02.000Z</time>
      </trkpt>
      <trkpt lat="48.53283" lon="7.4511">
        <ele>211.62875366211</ele>
        <time>2017-06-04T07:11:09.000Z</time>
      </trkpt>
      <trkpt lat="48.53283" lon="7.45108">
        <ele>211.87861633301</ele>
        <time>2017-06-04T07:11:19.000Z</time>
      </trkpt>
      <trkpt lat="48.53282" lon="7.45106">
        <ele>212.09912109375</ele>
        <time>2017-06-04T07:11:21.000Z</time>
      </trkpt>
      <trkpt lat="48.53282" lon="7.45104">
        <ele>212.19030761719</ele>
        <time>2017-06-04T07:11:24.000Z</time>
      </trkpt>
      <trkpt lat="48.5328" lon="7.45099">
        <ele>212.27339172363</ele>
        <time>2017-06-04T07:11:27.000Z</time>
      </trkpt>
      <trkpt lat="48.53278" lon="7.45091">
        <ele>212.56941223145</ele>
        <time>2017-06-04T07:11:30.000Z</time>
      </trkpt>
      <trkpt lat="48.53274" lon="7.45082">
        <ele>213.03608703613</ele>
        <time>2017-06-04T07:11:33.000Z</time>
      </trkpt>
      <trkpt lat="48.53272" lon="7.45076">
        <ele>213.45063781738</ele>
        <time>2017-06-04T07:11:35.000Z</time>
      </trkpt>
      <trkpt lat="48.53269" lon="7.45069">
        <ele>213.90344238281</ele>
        <time>2017-06-04T07:11:37.000Z</time>
      </trkpt>
      <trkpt lat="48.53265" lon="7.45059">
        <ele>214.28332519531</ele>
        <time>2017-06-04T07:11:40.000Z</time>
      </trkpt>
      <trkpt lat="48.53263" lon="7.45052">
        <ele>214.51579284668</ele>
        <time>2017-06-04T07:11:42.000Z</time>
      </trkpt>
      <trkpt lat="48.53258" lon="7.45041">
        <ele>214.59521484375</ele>
        <time>2017-06-04T07:11:45.000Z</time>
      </trkpt>
      <trkpt lat="48.53255" lon="7.45034">
        <ele>214.6167755127</ele>
        <time>2017-06-04T07:11:47.000Z</time>
      </trkpt>
      <trkpt lat="48.53251" lon="7.45022">
        <ele>214.5843963623</ele>
        <time>2017-06-04T07:11:50.000Z</time>
      </trkpt>
      <trkpt lat="48.53248" lon="7.45016">
        <ele>214.55375671387</ele>
        <time>2017-06-04T07:11:52.000Z</time>
      </trkpt>
      <trkpt lat="48.53245" lon="7.45012">
        <ele>214.62045288086</ele>
        <time>2017-06-04T07:11:55.000Z</time>
      </trkpt>
      <trkpt lat="48.53242" lon="7.45007">
        <ele>214.72702026367</ele>
        <time>2017-06-04T07:11:58.000Z</time>
      </trkpt>
      <trkpt lat="48.5324" lon="7.45004">
        <ele>214.95443725586</ele>
        <time>2017-06-04T07:12:00.000Z</time>
      </trkpt>
      <trkpt lat="48.53236" lon="7.45002">
        <ele>215.34321594238</ele>
        <time>2017-06-04T07:12:02.000Z</time>
      </trkpt>
      <trkpt lat="48.53231" lon="7.45">
        <ele>216.01103210449</ele>
        <time>2017-06-04T07:12:05.000Z</time>
      </trkpt>
      <trkpt lat="48.53227" lon="7.45001">
        <ele>216.86502075195</ele>
        <time>2017-06-04T07:12:08.000Z</time>
      </trkpt>
      <trkpt lat="48.53224" lon="7.45002">
        <ele>217.85176086426</ele>
        <time>2017-06-04T07:12:10.000Z</time>
      </trkpt>
      <trkpt lat="48.5322" lon="7.45002">
        <ele>219.02900695801</ele>
        <time>2017-06-04T07:12:13.000Z</time>
      </trkpt>
      <trkpt lat="48.53218" lon="7.45001">
        <ele>220.18237304688</ele>
        <time>2017-06-04T07:12:15.000Z</time>
      </trkpt>
      <trkpt lat="48.53214" lon="7.45001">
        <ele>221.30326843262</ele>
        <time>2017-06-04T07:12:18.000Z</time>
      </trkpt>
      <trkpt lat="48.5321" lon="7.45">
        <ele>222.32730102539</ele>
        <time>2017-06-04T07:12:20.000Z</time>
      </trkpt>
      <trkpt lat="48.53207" lon="7.45">
        <ele>223.36225891113</ele>
        <time>2017-06-04T07:12:22.000Z</time>
      </trkpt>
      <trkpt lat="48.53203" lon="7.44999">
        <ele>224.36039733887</ele>
        <time>2017-06-04T07:12:25.000Z</time>
      </trkpt>
      <trkpt lat="48.53199" lon="7.44999">
        <ele>225.51371765137</ele>
        <time>2017-06-04T07:12:28.000Z</time>
      </trkpt>
      <trkpt lat="48.53194" lon="7.44997">
        <ele>226.65112304688</ele>
        <time>2017-06-04T07:12:31.000Z</time>
      </trkpt>
      <trkpt lat="48.53193" lon="7.44996">
        <ele>227.64506530762</ele>
        <time>2017-06-04T07:12:34.000Z</time>
      </trkpt>
      <trkpt lat="48.53192" lon="7.44996">
        <ele>228.52645874023</ele>
        <time>2017-06-04T07:12:38.000Z</time>
      </trkpt>
      <trkpt lat="48.5319" lon="7.44996">
        <ele>229.29080200195</ele>
        <time>2017-06-04T07:12:40.000Z</time>
      </trkpt>
      <trkpt lat="48.53188" lon="7.44995">
        <ele>229.92712402344</ele>
        <time>2017-06-04T07:12:43.000Z</time>
      </trkpt>
      <trkpt lat="48.53185" lon="7.44996">
        <ele>230.49459838867</ele>
        <time>2017-06-04T07:12:46.000Z</time>
      </trkpt>
      <trkpt lat="48.53183" lon="7.44996">
        <ele>231.16427612305</ele>
        <time>2017-06-04T07:12:49.000Z</time>
      </trkpt>
      <trkpt lat="48.53181" lon="7.44997">
        <ele>231.83671569824</ele>
        <time>2017-06-04T07:12:52.000Z</time>
      </trkpt>
      <trkpt lat="48.5318" lon="7.44998">
        <ele>232.4800567627</ele>
        <time>2017-06-04T07:12:55.000Z</time>
      </trkpt>
      <trkpt lat="48.5318" lon="7.44998">
        <ele>233.02461242676</ele>
        <time>2017-06-04T07:12:57.000Z</time>
      </trkpt>
      <trkpt lat="48.53178" lon="7.44996">
        <ele>233.51040649414</ele>
        <time>2017-06-04T07:13:00.000Z</time>
      </trkpt>
      <trkpt lat="48.53176" lon="7.44994">
        <ele>233.8837890625</ele>
        <time>2017-06-04T07:13:03.000Z</time>
      </trkpt>
      <trkpt lat="48.53176" lon="7.44995">
        <ele>234.19119262695</ele>
        <time>2017-06-04T07:13:06.000Z</time>
      </trkpt>
      <trkpt lat="48.53175" lon="7.44994">
        <ele>234.43197631836</ele>
        <time>2017-06-04T07:13:11.000Z</time>
      </trkpt>
      <trkpt lat="48.53175" lon="7.44993">
        <ele>234.66850280762</ele>
        <time>2017-06-04T07:13:13.000Z</time>
      </trkpt>
      <trkpt lat="48.53175" lon="7.44995">
        <ele>234.80400085449</ele>
        <time>2017-06-04T07:13:19.000Z</time>
      </trkpt>
      <trkpt lat="48.53174" lon="7.44995">
        <ele>234.97299194336</ele>
        <time>2017-06-04T07:13:22.000Z</time>
      </trkpt>
      <trkpt lat="48.53173" lon="7.44995">
        <ele>235.17172241211</ele>
        <time>2017-06-04T07:13:29.000Z</time>
      </trkpt>
      <trkpt lat="48.53172" lon="7.44996">
        <ele>235.43144226074</ele>
        <time>2017-06-04T07:13:46.000Z</time>
      </trkpt>
      <trkpt lat="48.53171" lon="7.44997">
        <ele>235.72026062012</ele>
        <time>2017-06-04T07:13:49.000Z</time>
      </trkpt>
      <trkpt lat="48.53167" lon="7.44994">
        <ele>236.18737792969</ele>
        <time>2017-06-04T07:13:52.000Z</time>
      </trkpt>
      <trkpt lat="48.53164" lon="7.44988">
        <ele>236.65087890625</ele>
        <time>2017-06-04T07:13:55.000Z</time>
      </trkpt>
      <trkpt lat="48.5316" lon="7.44982">
        <ele>237.10710144043</ele>
        <time>2017-06-04T07:13:58.000Z</time>
      </trkpt>
      <trkpt lat="48.53159" lon="7.44979">
        <ele>237.50849914551</ele>
        <time>2017-06-04T07:14:00.000Z</time>
      </trkpt>
      <trkpt lat="48.53156" lon="7.44974">
        <ele>237.87716674805</ele>
        <time>2017-06-04T07:14:03.000Z</time>
      </trkpt>
      <trkpt lat="48.53152" lon="7.4497">
        <ele>238.1400604248</ele>
        <time>2017-06-04T07:14:06.000Z</time>
      </trkpt>
      <trkpt lat="48.5315" lon="7.44967">
        <ele>238.38912963867</ele>
        <time>2017-06-04T07:14:08.000Z</time>
      </trkpt>
      <trkpt lat="48.53148" lon="7.44963">
        <ele>238.63679504395</ele>
        <time>2017-06-04T07:14:10.000Z</time>
      </trkpt>
      <trkpt lat="48.53145" lon="7.44956">
        <ele>238.88993835449</ele>
        <time>2017-06-04T07:14:13.000Z</time>
      </trkpt>
      <trkpt lat="48.53144" lon="7.4495">
        <ele>239.10734558105</ele>
        <time>2017-06-04T07:14:15.000Z</time>
      </trkpt>
      <trkpt lat="48.53141" lon="7.44945">
        <ele>239.30038452148</ele>
        <time>2017-06-04T07:14:17.000Z</time>
      </trkpt>
      <trkpt lat="48.53138" lon="7.44938">
        <ele>239.49755859375</ele>
        <time>2017-06-04T07:14:20.000Z</time>
      </trkpt>
      <trkpt lat="48.53135" lon="7.44933">
        <ele>239.73181152344</ele>
        <time>2017-06-04T07:14:22.000Z</time>
      </trkpt>
      <trkpt lat="48.5313" lon="7.44924">
        <ele>240.09078979492</ele>
        <time>2017-06-04T07:14:25.000Z</time>
      </trkpt>
      <trkpt lat="48.53125" lon="7.44915">
        <ele>240.57466125488</ele>
        <time>2017-06-04T07:14:28.000Z</time>
      </trkpt>
      <trkpt lat="48.53122" lon="7.44909">
        <ele>241.04228210449</ele>
        <time>2017-06-04T07:14:30.000Z</time>
      </trkpt>
      <trkpt lat="48.53116" lon="7.449">
        <ele>241.54080200195</ele>
        <time>2017-06-04T07:14:33.000Z</time>
      </trkpt>
      <trkpt lat="48.53111" lon="7.44894">
        <ele>242.09594726562</ele>
        <time>2017-06-04T07:14:35.000Z</time>
      </trkpt>
      <trkpt lat="48.53105" lon="7.44889">
        <ele>242.68379211426</ele>
        <time>2017-06-04T07:14:37.000Z</time>
      </trkpt>
      <trkpt lat="48.53099" lon="7.44883">
        <ele>243.36637878418</ele>
        <time>2017-06-04T07:14:40.000Z</time>
      </trkpt>
      <trkpt lat="48.53096" lon="7.44879">
        <ele>244.09106445312</ele>
        <time>2017-06-04T07:14:42.000Z</time>
      </trkpt>
      <trkpt lat="48.53093" lon="7.44874">
        <ele>244.79496765137</ele>
        <time>2017-06-04T07:14:45.000Z</time>
      </trkpt>
      <trkpt lat="48.53088" lon="7.44867">
        <ele>245.46694946289</ele>
        <time>2017-06-04T07:14:48.000Z</time>
      </trkpt>
      <trkpt lat="48.53087" lon="7.44864">
        <ele>245.97956848145</ele>
        <time>2017-06-04T07:14:50.000Z</time>
      </trkpt>
      <trkpt lat="48.53085" lon="7.4486">
        <ele>246.28800964355</ele>
        <time>2017-06-04T07:14:52.000Z</time>
      </trkpt>
      <trkpt lat="48.53082" lon="7.44853">
        <ele>246.57414245605</ele>
        <time>2017-06-04T07:14:55.000Z</time>
      </trkpt>
      <trkpt lat="48.53078" lon="7.44849">
        <ele>246.8564453125</ele>
        <time>2017-06-04T07:14:57.000Z</time>
      </trkpt>
      <trkpt lat="48.53075" lon="7.44846">
        <ele>247.11291503906</ele>
        <time>2017-06-04T07:14:59.000Z</time>
      </trkpt>
      <trkpt lat="48.53072" lon="7.44843">
        <ele>247.43598937988</ele>
        <time>2017-06-04T07:15:02.000Z</time>
      </trkpt>
      <trkpt lat="48.53065" lon="7.44835">
        <ele>247.87771606445</ele>
        <time>2017-06-04T07:15:05.000Z</time>
      </trkpt>
      <trkpt lat="48.53061" lon="7.44829">
        <ele>248.36958312988</ele>
        <time>2017-06-04T07:15:08.000Z</time>
      </trkpt>
      <trkpt lat="48.53055" lon="7.44821">
        <ele>248.89094543457</ele>
        <time>2017-06-04T07:15:11.000Z</time>
      </trkpt>
      <trkpt lat="48.53051" lon="7.44815">
        <ele>249.4019317627</ele>
        <time>2017-06-04T07:15:13.000Z</time>
      </trkpt>
      <trkpt lat="48.53045" lon="7.44806">
        <ele>249.96476745605</ele>
        <time>2017-06-04T07:15:16.000Z</time>
      </trkpt>
      <trkpt lat="48.5304" lon="7.44801">
        <ele>250.48379516602</ele>
        <time>2017-06-04T07:15:18.000Z</time>
      </trkpt>
      <trkpt lat="48.53036" lon="7.44794">
        <ele>250.98799133301</ele>
        <time>2017-06-04T07:15:20.000Z</time>
      </trkpt>
      <trkpt lat="48.53031" lon="7.44785">
        <ele>251.49540710449</ele>
        <time>2017-06-04T07:15:23.000Z</time>
      </trkpt>
      <trkpt lat="48.53025" lon="7.44777">
        <ele>252.09294128418</ele>
        <time>2017-06-04T07:15:26.000Z</time>
      </trkpt>
      <trkpt lat="48.53021" lon="7.44769">
        <ele>252.62846374512</ele>
        <time>2017-06-04T07:15:29.000Z</time>
      </trkpt>
      <trkpt lat="48.5302" lon="7.44765">
        <ele>253.09692382812</ele>
        <time>2017-06-04T07:15:31.000Z</time>
      </trkpt>
      <trkpt lat="48.53018" lon="7.44761">
        <ele>253.48735046387</ele>
        <time>2017-06-04T07:15:34.000Z</time>
      </trkpt>
      <trkpt lat="48.53014" lon="7.44758">
        <ele>253.93208312988</ele>
        <time>2017-06-04T07:15:36.000Z</time>
      </trkpt>
      <trkpt lat="48.53009" lon="7.44753">
        <ele>254.41293334961</ele>
        <time>2017-06-04T07:15:39.000Z</time>
      </trkpt>
      <trkpt lat="48.53007" lon="7.4475">
        <ele>254.91036987305</ele>
        <time>2017-06-04T07:15:41.000Z</time>
      </trkpt>
      <trkpt lat="48.53002" lon="7.44744">
        <ele>255.60391235352</ele>
        <time>2017-06-04T07:15:44.000Z</time>
      </trkpt>
      <trkpt lat="48.52998" lon="7.44738">
        <ele>256.45962524414</ele>
        <time>2017-06-04T07:15:47.000Z</time>
      </trkpt>
      <trkpt lat="48.52995" lon="7.44734">
        <ele>257.2477722168</ele>
        <time>2017-06-04T07:15:49.000Z</time>
      </trkpt>
      <trkpt lat="48.5299" lon="7.44731">
        <ele>257.97723388672</ele>
        <time>2017-06-04T07:15:52.000Z</time>
      </trkpt>
      <trkpt lat="48.52987" lon="7.44729">
        <ele>258.70086669922</ele>
        <time>2017-06-04T07:15:54.000Z</time>
      </trkpt>
      <trkpt lat="48.52984" lon="7.44727">
        <ele>259.29217529297</ele>
        <time>2017-06-04T07:15:56.000Z</time>
      </trkpt>
      <trkpt lat="48.52982" lon="7.44722">
        <ele>259.77993774414</ele>
        <time>2017-06-04T07:15:59.000Z</time>
      </trkpt>
      <trkpt lat="48.5298" lon="7.44718">
        <ele>260.22943115234</ele>
        <time>2017-06-04T07:16:01.000Z</time>
      </trkpt>
      <trkpt lat="48.52977" lon="7.44711">
        <ele>260.65844726562</ele>
        <time>2017-06-04T07:16:04.000Z</time>
      </trkpt>
      <trkpt lat="48.52972" lon="7.4471">
        <ele>261.14184570312</ele>
        <time>2017-06-04T07:16:07.000Z</time>
      </trkpt>
      <trkpt lat="48.5297" lon="7.44709">
        <ele>261.63452148438</ele>
        <time>2017-06-04T07:16:09.000Z</time>
      </trkpt>
      <trkpt lat="48.52967" lon="7.44707">
        <ele>262.16485595703</ele>
        <time>2017-06-04T07:16:12.000Z</time>
      </trkpt>
      <trkpt lat="48.52963" lon="7.44706">
        <ele>262.77099609375</ele>
        <time>2017-06-04T07:16:15.000Z</time>
      </trkpt>
      <trkpt lat="48.52961" lon="7.44706">
        <ele>263.34832763672</ele>
        <time>2017-06-04T07:16:18.000Z</time>
      </trkpt>
      <trkpt lat="48.52957" lon="7.44705">
        <ele>263.88531494141</ele>
        <time>2017-06-04T07:16:21.000Z</time>
      </trkpt>
      <trkpt lat="48.52955" lon="7.44703">
        <ele>264.40301513672</ele>
        <time>2017-06-04T07:16:24.000Z</time>
      </trkpt>
      <trkpt lat="48.52953" lon="7.44702">
        <ele>264.89535522461</ele>
        <time>2017-06-04T07:16:26.000Z</time>
      </trkpt>
      <trkpt lat="48.52951" lon="7.447">
        <ele>265.33673095703</ele>
        <time>2017-06-04T07:16:29.000Z</time>
      </trkpt>
      <trkpt lat="48.52947" lon="7.44699">
        <ele>265.84585571289</ele>
        <time>2017-06-04T07:16:32.000Z</time>
      </trkpt>
      <trkpt lat="48.52938" lon="7.44696">
        <ele>266.56796264648</ele>
        <time>2017-06-04T07:16:35.000Z</time>
      </trkpt>
      <trkpt lat="48.52934" lon="7.44691">
        <ele>267.43576049805</ele>
        <time>2017-06-04T07:16:38.000Z</time>
      </trkpt>
      <trkpt lat="48.5293" lon="7.44689">
        <ele>268.34771728516</ele>
        <time>2017-06-04T07:16:40.000Z</time>
      </trkpt>
      <trkpt lat="48.52926" lon="7.44688">
        <ele>269.34051513672</ele>
        <time>2017-06-04T07:16:43.000Z</time>
      </trkpt>
      <trkpt lat="48.52925" lon="7.44685">
        <ele>270.25213623047</ele>
        <time>2017-06-04T07:16:46.000Z</time>
      </trkpt>
      <trkpt lat="48.52924" lon="7.44683">
        <ele>270.9143371582</ele>
        <time>2017-06-04T07:16:48.000Z</time>
      </trkpt>
      <trkpt lat="48.52921" lon="7.4468">
        <ele>271.48348999023</ele>
        <time>2017-06-04T07:16:51.000Z</time>
      </trkpt>
      <trkpt lat="48.52921" lon="7.44677">
        <ele>271.9596862793</ele>
        <time>2017-06-04T07:16:54.000Z</time>
      </trkpt>
      <trkpt lat="48.52921" lon="7.44676">
        <ele>272.28604125977</ele>
        <time>2017-06-04T07:16:56.000Z</time>
      </trkpt>
      <trkpt lat="48.52921" lon="7.44674">
        <ele>272.53482055664</ele>
        <time>2017-06-04T07:16:59.000Z</time>
      </trkpt>
      <trkpt lat="48.52922" lon="7.44675">
        <ele>272.65231323242</ele>
        <time>2017-06-04T07:17:03.000Z</time>
      </trkpt>
      <trkpt lat="48.52921" lon="7.44672">
        <ele>272.71395874023</ele>
        <time>2017-06-04T07:17:06.000Z</time>
      </trkpt>
      <trkpt lat="48.52917" lon="7.44669">
        <ele>272.92880249023</ele>
        <time>2017-06-04T07:17:09.000Z</time>
      </trkpt>
      <trkpt lat="48.52914" lon="7.44668">
        <ele>273.21948242188</ele>
        <time>2017-06-04T07:17:11.000Z</time>
      </trkpt>
      <trkpt lat="48.52912" lon="7.44665">
        <ele>273.57684326172</ele>
        <time>2017-06-04T07:17:13.000Z</time>
      </trkpt>
      <trkpt lat="48.52909" lon="7.44662">
        <ele>274.09063720703</ele>
        <time>2017-06-04T07:17:16.000Z</time>
      </trkpt>
      <trkpt lat="48.52906" lon="7.44663">
        <ele>274.58697509766</ele>
        <time>2017-06-04T07:17:19.000Z</time>
      </trkpt>
      <trkpt lat="48.52901" lon="7.44661">
        <ele>275.00042724609</ele>
        <time>2017-06-04T07:17:22.000Z</time>
      </trkpt>
      <trkpt lat="48.52897" lon="7.44659">
        <ele>275.45391845703</ele>
        <time>2017-06-04T07:17:25.000Z</time>
      </trkpt>
      <trkpt lat="48.52895" lon="7.44659">
        <ele>275.89144897461</ele>
        <time>2017-06-04T07:17:28.000Z</time>
      </trkpt>
      <trkpt lat="48.52893" lon="7.44658">
        <ele>276.28036499023</ele>
        <time>2017-06-04T07:17:31.000Z</time>
      </trkpt>
      <trkpt lat="48.52891" lon="7.44658">
        <ele>276.65692138672</ele>
        <time>2017-06-04T07:17:34.000Z</time>
      </trkpt>
      <trkpt lat="48.5289" lon="7.44659">
        <ele>276.93951416016</ele>
        <time>2017-06-04T07:17:36.000Z</time>
      </trkpt>
      <trkpt lat="48.52888" lon="7.44661">
        <ele>277.10635375977</ele>
        <time>2017-06-04T07:17:38.000Z</time>
      </trkpt>
      <trkpt lat="48.52885" lon="7.4466">
        <ele>277.31097412109</ele>
        <time>2017-06-04T07:17:41.000Z</time>
      </trkpt>
      <trkpt lat="48.52884" lon="7.44661">
        <ele>277.47735595703</ele>
        <time>2017-06-04T07:17:43.000Z</time>
      </trkpt>
      <trkpt lat="48.52884" lon="7.44664">
        <ele>277.56341552734</ele>
        <time>2017-06-04T07:17:46.000Z</time>
      </trkpt>
      <trkpt lat="48.52885" lon="7.44666">
        <ele>277.61468505859</ele>
        <time>2017-06-04T07:17:48.000Z</time>
      </trkpt>
      <trkpt lat="48.52885" lon="7.44669">
        <ele>277.63037109375</ele>
        <time>2017-06-04T07:17:51.000Z</time>
      </trkpt>
      <trkpt lat="48.52884" lon="7.44668">
        <ele>277.58898925781</ele>
        <time>2017-06-04T07:17:54.000Z</time>
      </trkpt>
      <trkpt lat="48.52882" lon="7.44669">
        <ele>277.57315063477</ele>
        <time>2017-06-04T07:17:57.000Z</time>
      </trkpt>
      <trkpt lat="48.5288" lon="7.44669">
        <ele>277.63589477539</ele>
        <time>2017-06-04T07:17:59.000Z</time>
      </trkpt>
      <trkpt lat="48.52878" lon="7.44668">
        <ele>277.76385498047</ele>
        <time>2017-06-04T07:18:01.000Z</time>
      </trkpt>
      <trkpt lat="48.52876" lon="7.44666">
        <ele>277.97103881836</ele>
        <time>2017-06-04T07:18:04.000Z</time>
      </trkpt>
      <trkpt lat="48.52874" lon="7.44664">
        <ele>278.22967529297</ele>
        <time>2017-06-04T07:18:07.000Z</time>
      </trkpt>
      <trkpt lat="48.52872" lon="7.44662">
        <ele>278.48904418945</ele>
        <time>2017-06-04T07:18:18.000Z</time>
      </trkpt>
      <trkpt lat="48.52872" lon="7.44661">
        <ele>278.72515869141</ele>
        <time>2017-06-04T07:18:24.000Z</time>
      </trkpt>
      <trkpt lat="48.52871" lon="7.44661">
        <ele>278.94494628906</ele>
        <time>2017-06-04T07:18:28.000Z</time>
      </trkpt>
      <trkpt lat="48.52868" lon="7.44664">
        <ele>279.14566040039</ele>
        <time>2017-06-04T07:18:31.000Z</time>
      </trkpt>
      <trkpt lat="48.52866" lon="7.44664">
        <ele>279.31469726562</ele>
        <time>2017-06-04T07:18:34.000Z</time>
      </trkpt>
      <trkpt lat="48.52866" lon="7.44664">
        <ele>279.31469726562</ele>
        <time>2017-06-04T07:18:54.000Z</time>
      </trkpt>
      <trkpt lat="48.52865" lon="7.44661">
        <ele>279.48413085938</ele>
        <time>2017-06-04T07:18:59.000Z</time>
      </trkpt>
      <trkpt lat="48.52866" lon="7.44662">
        <ele>279.61505126953</ele>
        <time>2017-06-04T07:19:18.000Z</time>
      </trkpt>
      <trkpt lat="48.52867" lon="7.44663">
        <ele>279.68661499023</ele>
        <time>2017-06-04T07:19:21.000Z</time>
      </trkpt>
      <trkpt lat="48.52869" lon="7.44665">
        <ele>279.64981079102</ele>
        <time>2017-06-04T07:19:29.000Z</time>
      </trkpt>
      <trkpt lat="48.52869" lon="7.44665">
        <ele>279.64981079102</ele>
        <time>2017-06-04T07:19:49.000Z</time>
      </trkpt>
      <trkpt lat="48.52869" lon="7.44666">
        <ele>279.54504394531</ele>
        <time>2017-06-04T07:20:26.000Z</time>
      </trkpt>
      <trkpt lat="48.5287" lon="7.44664">
        <ele>279.40264892578</ele>
        <time>2017-06-04T07:20:29.000Z</time>
      </trkpt>
      <trkpt lat="48.52871" lon="7.44662">
        <ele>279.28280639648</ele>
        <time>2017-06-04T07:20:32.000Z</time>
      </trkpt>
      <trkpt lat="48.52872" lon="7.44661">
        <ele>279.19390869141</ele>
        <time>2017-06-04T07:20:44.000Z</time>
      </trkpt>
      <trkpt lat="48.52871" lon="7.44657">
        <ele>279.23956298828</ele>
        <time>2017-06-04T07:20:47.000Z</time>
      </trkpt>
      <trkpt lat="48.52869" lon="7.44655">
        <ele>279.37954711914</ele>
        <time>2017-06-04T07:20:49.000Z</time>
      </trkpt>
      <trkpt lat="48.52867" lon="7.44653">
        <ele>279.57168579102</ele>
        <time>2017-06-04T07:20:51.000Z</time>
      </trkpt>
      <trkpt lat="48.52865" lon="7.44647">
        <ele>279.87017822266</ele>
        <time>2017-06-04T07:20:54.000Z</time>
      </trkpt>
      <trkpt lat="48.52858" lon="7.44643">
        <ele>280.37689208984</ele>
        <time>2017-06-04T07:20:57.000Z</time>
      </trkpt>
      <trkpt lat="48.52854" lon="7.44639">
        <ele>280.97894287109</ele>
        <time>2017-06-04T07:21:00.000Z</time>
      </trkpt>
      <trkpt lat="48.52851" lon="7.44634">
        <ele>281.64202880859</ele>
        <time>2017-06-04T07:21:03.000Z</time>
      </trkpt>
      <trkpt lat="48.5285" lon="7.44633">
        <ele>282.29376220703</ele>
        <time>2017-06-04T07:21:05.000Z</time>
      </trkpt>
      <trkpt lat="48.52848" lon="7.44629">
        <ele>282.93811035156</ele>
        <time>2017-06-04T07:21:08.000Z</time>
      </trkpt>
      <trkpt lat="48.52843" lon="7.44625">
        <ele>283.55703735352</ele>
        <time>2017-06-04T07:21:11.000Z</time>
      </trkpt>
      <trkpt lat="48.52839" lon="7.44621">
        <ele>284.16217041016</ele>
        <time>2017-06-04T07:21:13.000Z</time>
      </trkpt>
      <trkpt lat="48.52834" lon="7.44617">
        <ele>284.81448364258</ele>
        <time>2017-06-04T07:21:16.000Z</time>
      </trkpt>
      <trkpt lat="48.5283" lon="7.44613">
        <ele>285.54623413086</ele>
        <time>2017-06-04T07:21:19.000Z</time>
      </trkpt>
      <trkpt lat="48.52827" lon="7.4461">
        <ele>286.25225830078</ele>
        <time>2017-06-04T07:21:21.000Z</time>
      </trkpt>
      <trkpt lat="48.52824" lon="7.44607">
        <ele>286.85357666016</ele>
        <time>2017-06-04T07:21:23.000Z</time>
      </trkpt>
      <trkpt lat="48.52822" lon="7.44604">
        <ele>287.36563110352</ele>
        <time>2017-06-04T07:21:25.000Z</time>
      </trkpt>
      <trkpt lat="48.52819" lon="7.44601">
        <ele>287.76754760742</ele>
        <time>2017-06-04T07:21:28.000Z</time>
      </trkpt>
      <trkpt lat="48.52815" lon="7.44597">
        <ele>288.11926269531</ele>
        <time>2017-06-04T07:21:31.000Z</time>
      </trkpt>
      <trkpt lat="48.52812" lon="7.44592">
        <ele>288.48416137695</ele>
        <time>2017-06-04T07:21:34.000Z</time>
      </trkpt>
      <trkpt lat="48.5281" lon="7.44587">
        <ele>288.85119628906</ele>
        <time>2017-06-04T07:21:37.000Z</time>
      </trkpt>
      <trkpt lat="48.52807" lon="7.44584">
        <ele>289.21566772461</ele>
        <time>2017-06-04T07:21:39.000Z</time>
      </trkpt>
      <trkpt lat="48.52803" lon="7.44579">
        <ele>289.59036254883</ele>
        <time>2017-06-04T07:21:42.000Z</time>
      </trkpt>
      <trkpt lat="48.52798" lon="7.44575">
        <ele>289.96801757812</ele>
        <time>2017-06-04T07:21:45.000Z</time>
      </trkpt>
      <trkpt lat="48.52795" lon="7.44572">
        <ele>290.30377197266</ele>
        <time>2017-06-04T07:21:47.000Z</time>
      </trkpt>
      <trkpt lat="48.52793" lon="7.4457">
        <ele>290.61352539062</ele>
        <time>2017-06-04T07:21:49.000Z</time>
      </trkpt>
      <trkpt lat="48.52789" lon="7.44565">
        <ele>290.95306396484</ele>
        <time>2017-06-04T07:21:52.000Z</time>
      </trkpt>
      <trkpt lat="48.52786" lon="7.44563">
        <ele>291.25061035156</ele>
        <time>2017-06-04T07:21:54.000Z</time>
      </trkpt>
      <trkpt lat="48.52784" lon="7.4456">
        <ele>291.51879882812</ele>
        <time>2017-06-04T07:21:56.000Z</time>
      </trkpt>
      <trkpt lat="48.5278" lon="7.44555">
        <ele>291.81149291992</ele>
        <time>2017-06-04T07:21:59.000Z</time>
      </trkpt>
      <trkpt lat="48.52777" lon="7.44551">
        <ele>292.10702514648</ele>
        <time>2017-06-04T07:22:01.000Z</time>
      </trkpt>
      <trkpt lat="48.52775" lon="7.44548">
        <ele>292.37564086914</ele>
        <time>2017-06-04T07:22:03.000Z</time>
      </trkpt>
      <trkpt lat="48.52773" lon="7.44541">
        <ele>292.68542480469</ele>
        <time>2017-06-04T07:22:06.000Z</time>
      </trkpt>
      <trkpt lat="48.52771" lon="7.44536">
        <ele>293.00845336914</ele>
        <time>2017-06-04T07:22:08.000Z</time>
      </trkpt>
      <trkpt lat="48.5277" lon="7.44532">
        <ele>293.30755615234</ele>
        <time>2017-06-04T07:22:10.000Z</time>
      </trkpt>
      <trkpt lat="48.52768" lon="7.44527">
        <ele>293.61679077148</ele>
        <time>2017-06-04T07:22:12.000Z</time>
      </trkpt>
      <trkpt lat="48.52764" lon="7.4452">
        <ele>293.96209716797</ele>
        <time>2017-06-04T07:22:15.000Z</time>
      </trkpt>
      <trkpt lat="48.52761" lon="7.44515">
        <ele>294.28863525391</ele>
        <time>2017-06-04T07:22:17.000Z</time>
      </trkpt>
      <trkpt lat="48.52758" lon="7.44509">
        <ele>294.62701416016</ele>
        <time>2017-06-04T07:22:20.000Z</time>
      </trkpt>
      <trkpt lat="48.52755" lon="7.44505">
        <ele>294.96841430664</ele>
        <time>2017-06-04T07:22:22.000Z</time>
      </trkpt>
      <trkpt lat="48.52753" lon="7.44501">
        <ele>295.30090332031</ele>
        <time>2017-06-04T07:22:24.000Z</time>
      </trkpt>
      <trkpt lat="48.52751" lon="7.44496">
        <ele>295.6106262207</ele>
        <time>2017-06-04T07:22:27.000Z</time>
      </trkpt>
      <trkpt lat="48.52749" lon="7.4449">
        <ele>295.94921875</ele>
        <time>2017-06-04T07:22:30.000Z</time>
      </trkpt>
      <trkpt lat="48.52748" lon="7.44484">
        <ele>296.28375244141</ele>
        <time>2017-06-04T07:22:33.000Z</time>
      </trkpt>
      <trkpt lat="48.52748" lon="7.4448">
        <ele>296.60949707031</ele>
        <time>2017-06-04T07:22:35.000Z</time>
      </trkpt>
      <trkpt lat="48.52747" lon="7.44475">
        <ele>296.95513916016</ele>
        <time>2017-06-04T07:22:37.000Z</time>
      </trkpt>
      <trkpt lat="48.52746" lon="7.4447">
        <ele>297.29681396484</ele>
        <time>2017-06-04T07:22:39.000Z</time>
      </trkpt>
      <trkpt lat="48.52744" lon="7.44466">
        <ele>297.61306762695</ele>
        <time>2017-06-04T07:22:42.000Z</time>
      </trkpt>
      <trkpt lat="48.52742" lon="7.44463">
        <ele>297.90249633789</ele>
        <time>2017-06-04T07:22:44.000Z</time>
      </trkpt>
      <trkpt lat="48.52739" lon="7.44459">
        <ele>298.20819091797</ele>
        <time>2017-06-04T07:22:46.000Z</time>
      </trkpt>
      <trkpt lat="48.52736" lon="7.44453">
        <ele>298.52597045898</ele>
        <time>2017-06-04T07:22:49.000Z</time>
      </trkpt>
      <trkpt lat="48.52733" lon="7.44447">
        <ele>298.86468505859</ele>
        <time>2017-06-04T07:22:52.000Z</time>
      </trkpt>
      <trkpt lat="48.52732" lon="7.44441">
        <ele>299.21072387695</ele>
        <time>2017-06-04T07:22:55.000Z</time>
      </trkpt>
      <trkpt lat="48.52732" lon="7.44436">
        <ele>299.55648803711</ele>
        <time>2017-06-04T07:22:57.000Z</time>
      </trkpt>
      <trkpt lat="48.52731" lon="7.44433">
        <ele>299.87664794922</ele>
        <time>2017-06-04T07:22:59.000Z</time>
      </trkpt>
      <trkpt lat="48.5273" lon="7.4443">
        <ele>300.14880371094</ele>
        <time>2017-06-04T07:23:01.000Z</time>
      </trkpt>
      <trkpt lat="48.52729" lon="7.44425">
        <ele>300.39343261719</ele>
        <time>2017-06-04T07:23:04.000Z</time>
      </trkpt>
      <trkpt lat="48.52727" lon="7.44419">
        <ele>300.62432861328</ele>
        <time>2017-06-04T07:23:07.000Z</time>
      </trkpt>
      <trkpt lat="48.52726" lon="7.44416">
        <ele>300.86059570312</ele>
        <time>2017-06-04T07:23:09.000Z</time>
      </trkpt>
      <trkpt lat="48.52724" lon="7.44411">
        <ele>301.15182495117</ele>
        <time>2017-06-04T07:23:12.000Z</time>
      </trkpt>
      <trkpt lat="48.52722" lon="7.44406">
        <ele>301.49584960938</ele>
        <time>2017-06-04T07:23:15.000Z</time>
      </trkpt>
      <trkpt lat="48.52721" lon="7.44404">
        <ele>301.82659912109</ele>
        <time>2017-06-04T07:23:17.000Z</time>
      </trkpt>
      <trkpt lat="48.52718" lon="7.44399">
        <ele>302.17993164062</ele>
        <time>2017-06-04T07:23:20.000Z</time>
      </trkpt>
      <trkpt lat="48.52716" lon="7.44395">
        <ele>302.57217407227</ele>
        <time>2017-06-04T07:23:22.000Z</time>
      </trkpt>
      <trkpt lat="48.52716" lon="7.44391">
        <ele>302.95050048828</ele>
        <time>2017-06-04T07:23:24.000Z</time>
      </trkpt>
      <trkpt lat="48.52715" lon="7.44385">
        <ele>303.33837890625</ele>
        <time>2017-06-04T07:23:27.000Z</time>
      </trkpt>
      <trkpt lat="48.52715" lon="7.4438">
        <ele>303.77597045898</ele>
        <time>2017-06-04T07:23:30.000Z</time>
      </trkpt>
      <trkpt lat="48.52714" lon="7.44376">
        <ele>304.20684814453</ele>
        <time>2017-06-04T07:23:33.000Z</time>
      </trkpt>
      <trkpt lat="48.52713" lon="7.44374">
        <ele>304.57916259766</ele>
        <time>2017-06-04T07:23:36.000Z</time>
      </trkpt>
      <trkpt lat="48.52714" lon="7.44373">
        <ele>304.90600585938</ele>
        <time>2017-06-04T07:23:38.000Z</time>
      </trkpt>
      <trkpt lat="48.52714" lon="7.44369">
        <ele>305.19555664062</ele>
        <time>2017-06-04T07:23:40.000Z</time>
      </trkpt>
      <trkpt lat="48.52713" lon="7.44367">
        <ele>305.43206787109</ele>
        <time>2017-06-04T07:23:42.000Z</time>
      </trkpt>
      <trkpt lat="48.52711" lon="7.44363">
        <ele>305.67007446289</ele>
        <time>2017-06-04T07:23:45.000Z</time>
      </trkpt>
      <trkpt lat="48.5271" lon="7.4436">
        <ele>305.93658447266</ele>
        <time>2017-06-04T07:23:47.000Z</time>
      </trkpt>
      <trkpt lat="48.52708" lon="7.44357">
        <ele>306.24057006836</ele>
        <time>2017-06-04T07:23:50.000Z</time>
      </trkpt>
      <trkpt lat="48.52706" lon="7.44354">
        <ele>306.55014038086</ele>
        <time>2017-06-04T07:23:53.000Z</time>
      </trkpt>
      <trkpt lat="48.52705" lon="7.44351">
        <ele>306.86590576172</ele>
        <time>2017-06-04T07:23:55.000Z</time>
      </trkpt>
      <trkpt lat="48.52704" lon="7.44347">
        <ele>307.19171142578</ele>
        <time>2017-06-04T07:23:58.000Z</time>
      </trkpt>
      <trkpt lat="48.52705" lon="7.44345">
        <ele>307.48010253906</ele>
        <time>2017-06-04T07:24:00.000Z</time>
      </trkpt>
      <trkpt lat="48.52709" lon="7.44345">
        <ele>307.69635009766</ele>
        <time>2017-06-04T07:24:03.000Z</time>
      </trkpt>
      <trkpt lat="48.52711" lon="7.44344">
        <ele>307.84616088867</ele>
        <time>2017-06-04T07:24:05.000Z</time>
      </trkpt>
      <trkpt lat="48.52714" lon="7.44343">
        <ele>307.95663452148</ele>
        <time>2017-06-04T07:24:08.000Z</time>
      </trkpt>
      <trkpt lat="48.52717" lon="7.44342">
        <ele>307.99310302734</ele>
        <time>2017-06-04T07:24:11.000Z</time>
      </trkpt>
      <trkpt lat="48.52719" lon="7.44341">
        <ele>308.00347900391</ele>
        <time>2017-06-04T07:24:14.000Z</time>
      </trkpt>
      <trkpt lat="48.52723" lon="7.44343">
        <ele>307.96841430664</ele>
        <time>2017-06-04T07:24:17.000Z</time>
      </trkpt>
      <trkpt lat="48.52726" lon="7.44344">
        <ele>307.8955078125</ele>
        <time>2017-06-04T07:24:19.000Z</time>
      </trkpt>
      <trkpt lat="48.52734" lon="7.44347">
        <ele>307.74212646484</ele>
        <time>2017-06-04T07:24:22.000Z</time>
      </trkpt>
      <trkpt lat="48.52741" lon="7.44349">
        <ele>307.50677490234</ele>
        <time>2017-06-04T07:24:24.000Z</time>
      </trkpt>
      <trkpt lat="48.5275" lon="7.44352">
        <ele>307.18008422852</ele>
        <time>2017-06-04T07:24:27.000Z</time>
      </trkpt>
      <trkpt lat="48.52757" lon="7.44354">
        <ele>306.83819580078</ele>
        <time>2017-06-04T07:24:29.000Z</time>
      </trkpt>
      <trkpt lat="48.52765" lon="7.44356">
        <ele>306.47021484375</ele>
        <time>2017-06-04T07:24:31.000Z</time>
      </trkpt>
      <trkpt lat="48.52774" lon="7.44359">
        <ele>306.10238647461</ele>
        <time>2017-06-04T07:24:34.000Z</time>
      </trkpt>
      <trkpt lat="48.5278" lon="7.44358">
        <ele>305.78262329102</ele>
        <time>2017-06-04T07:24:36.000Z</time>
      </trkpt>
      <trkpt lat="48.52791" lon="7.44356">
        <ele>305.54840087891</ele>
        <time>2017-06-04T07:24:39.000Z</time>
      </trkpt>
      <trkpt lat="48.52806" lon="7.44352">
        <ele>305.3860168457</ele>
        <time>2017-06-04T07:24:42.000Z</time>
      </trkpt>
      <trkpt lat="48.52825" lon="7.44342">
        <ele>305.34686279297</ele>
        <time>2017-06-04T07:24:45.000Z</time>
      </trkpt>
      <trkpt lat="48.52845" lon="7.44331">
        <ele>305.17431640625</ele>
        <time>2017-06-04T07:24:48.000Z</time>
      </trkpt>
      <trkpt lat="48.52857" lon="7.44319">
        <ele>304.87326049805</ele>
        <time>2017-06-04T07:24:51.000Z</time>
      </trkpt>
      <trkpt lat="48.52864" lon="7.44309">
        <ele>304.51791381836</ele>
        <time>2017-06-04T07:24:53.000Z</time>
      </trkpt>
      <trkpt lat="48.52877" lon="7.44293">
        <ele>304.05383300781</ele>
        <time>2017-06-04T07:24:56.000Z</time>
      </trkpt>
      <trkpt lat="48.5289" lon="7.44279">
        <ele>303.38354492188</ele>
        <time>2017-06-04T07:24:59.000Z</time>
      </trkpt>
      <trkpt lat="48.52904" lon="7.44268">
        <ele>302.73974609375</ele>
        <time>2017-06-04T07:25:02.000Z</time>
      </trkpt>
      <trkpt lat="48.52913" lon="7.44263">
        <ele>302.07211303711</ele>
        <time>2017-06-04T07:25:04.000Z</time>
      </trkpt>
      <trkpt lat="48.52925" lon="7.44248">
        <ele>300.98007202148</ele>
        <time>2017-06-04T07:25:07.000Z</time>
      </trkpt>
      <trkpt lat="48.5293" lon="7.44234">
        <ele>299.90264892578</ele>
        <time>2017-06-04T07:25:09.000Z</time>
      </trkpt>
      <trkpt lat="48.52931" lon="7.44223">
        <ele>299.04400634766</ele>
        <time>2017-06-04T07:25:11.000Z</time>
      </trkpt>
      <trkpt lat="48.5293" lon="7.44204">
        <ele>298.69360351562</ele>
        <time>2017-06-04T07:25:14.000Z</time>
      </trkpt>
      <trkpt lat="48.5293" lon="7.44196">
        <ele>298.60809326172</ele>
        <time>2017-06-04T07:25:16.000Z</time>
      </trkpt>
      <trkpt lat="48.52933" lon="7.4418">
        <ele>299.0524597168</ele>
        <time>2017-06-04T07:25:19.000Z</time>
      </trkpt>
      <trkpt lat="48.52936" lon="7.44167">
        <ele>299.59292602539</ele>
        <time>2017-06-04T07:25:21.000Z</time>
      </trkpt>
      <trkpt lat="48.52939" lon="7.44154">
        <ele>299.99755859375</ele>
        <time>2017-06-04T07:25:23.000Z</time>
      </trkpt>
      <trkpt lat="48.52946" lon="7.44135">
        <ele>299.91278076172</ele>
        <time>2017-06-04T07:25:26.000Z</time>
      </trkpt>
      <trkpt lat="48.52949" lon="7.44124">
        <ele>299.66046142578</ele>
        <time>2017-06-04T07:25:28.000Z</time>
      </trkpt>
      <trkpt lat="48.52954" lon="7.4411">
        <ele>299.30035400391</ele>
        <time>2017-06-04T07:25:31.000Z</time>
      </trkpt>
      <trkpt lat="48.52956" lon="7.441">
        <ele>298.91787719727</ele>
        <time>2017-06-04T07:25:33.000Z</time>
      </trkpt>
      <trkpt lat="48.52959" lon="7.44085">
        <ele>298.67300415039</ele>
        <time>2017-06-04T07:25:36.000Z</time>
      </trkpt>
      <trkpt lat="48.5296" lon="7.44072">
        <ele>298.73205566406</ele>
        <time>2017-06-04T07:25:39.000Z</time>
      </trkpt>
      <trkpt lat="48.5296" lon="7.44065">
        <ele>298.95303344727</ele>
        <time>2017-06-04T07:25:41.000Z</time>
      </trkpt>
      <trkpt lat="48.52961" lon="7.44052">
        <ele>299.37103271484</ele>
        <time>2017-06-04T07:25:44.000Z</time>
      </trkpt>
      <trkpt lat="48.52963" lon="7.44043">
        <ele>299.83648681641</ele>
        <time>2017-06-04T07:25:46.000Z</time>
      </trkpt>
      <trkpt lat="48.52966" lon="7.44033">
        <ele>300.23379516602</ele>
        <time>2017-06-04T07:25:49.000Z</time>
      </trkpt>
      <trkpt lat="48.52969" lon="7.44026">
        <ele>300.46908569336</ele>
        <time>2017-06-04T07:25:51.000Z</time>
      </trkpt>
      <trkpt lat="48.52972" lon="7.44019">
        <ele>300.61685180664</ele>
        <time>2017-06-04T07:25:53.000Z</time>
      </trkpt>
      <trkpt lat="48.52975" lon="7.4401">
        <ele>300.65106201172</ele>
        <time>2017-06-04T07:25:56.000Z</time>
      </trkpt>
      <trkpt lat="48.52977" lon="7.44001">
        <ele>300.70861816406</ele>
        <time>2017-06-04T07:25:58.000Z</time>
      </trkpt>
      <trkpt lat="48.5298" lon="7.43994">
        <ele>300.74591064453</ele>
        <time>2017-06-04T07:26:00.000Z</time>
      </trkpt>
      <trkpt lat="48.52983" lon="7.43987">
        <ele>300.77001953125</ele>
        <time>2017-06-04T07:26:02.000Z</time>
      </trkpt>
      <trkpt lat="48.52989" lon="7.43978">
        <ele>300.73406982422</ele>
        <time>2017-06-04T07:26:05.000Z</time>
      </trkpt>
      <trkpt lat="48.5299" lon="7.43976">
        <ele>300.68325805664</ele>
        <time>2017-06-04T07:26:07.000Z</time>
      </trkpt>
      <trkpt lat="48.52989" lon="7.4397">
        <ele>300.66876220703</ele>
        <time>2017-06-04T07:26:10.000Z</time>
      </trkpt>
      <trkpt lat="48.52985" lon="7.43967">
        <ele>300.8210144043</ele>
        <time>2017-06-04T07:26:13.000Z</time>
      </trkpt>
      <trkpt lat="48.52982" lon="7.43964">
        <ele>301.13980102539</ele>
        <time>2017-06-04T07:26:15.000Z</time>
      </trkpt>
      <trkpt lat="48.5298" lon="7.43958">
        <ele>301.64846801758</ele>
        <time>2017-06-04T07:26:18.000Z</time>
      </trkpt>
      <trkpt lat="48.52979" lon="7.43953">
        <ele>302.22561645508</ele>
        <time>2017-06-04T07:26:20.000Z</time>
      </trkpt>
      <trkpt lat="48.52977" lon="7.4395">
        <ele>302.79266357422</ele>
        <time>2017-06-04T07:26:22.000Z</time>
      </trkpt>
      <trkpt lat="48.52975" lon="7.43945">
        <ele>303.31039428711</ele>
        <time>2017-06-04T07:26:25.000Z</time>
      </trkpt>
      <trkpt lat="48.52973" lon="7.43942">
        <ele>303.7802734375</ele>
        <time>2017-06-04T07:26:27.000Z</time>
      </trkpt>
      <trkpt lat="48.52971" lon="7.43938">
        <ele>304.21411132812</ele>
        <time>2017-06-04T07:26:30.000Z</time>
      </trkpt>
      <trkpt lat="48.5297" lon="7.43934">
        <ele>304.63885498047</ele>
        <time>2017-06-04T07:26:32.000Z</time>
      </trkpt>
      <trkpt lat="48.52968" lon="7.43931">
        <ele>305.05630493164</ele>
        <time>2017-06-04T07:26:34.000Z</time>
      </trkpt>
      <trkpt lat="48.52966" lon="7.43929">
        <ele>305.4440612793</ele>
        <time>2017-06-04T07:26:36.000Z</time>
      </trkpt>
      <trkpt lat="48.52963" lon="7.43923">
        <ele>305.85662841797</ele>
        <time>2017-06-04T07:26:39.000Z</time>
      </trkpt>
      <trkpt lat="48.52958" lon="7.43909">
        <ele>306.38848876953</ele>
        <time>2017-06-04T07:26:42.000Z</time>
      </trkpt>
      <trkpt lat="48.52953" lon="7.43902">
        <ele>306.99310302734</ele>
        <time>2017-06-04T07:26:44.000Z</time>
      </trkpt>
      <trkpt lat="48.5295" lon="7.43898">
        <ele>307.61819458008</ele>
        <time>2017-06-04T07:26:46.000Z</time>
      </trkpt>
      <trkpt lat="48.52946" lon="7.43892">
        <ele>308.28863525391</ele>
        <time>2017-06-04T07:26:49.000Z</time>
      </trkpt>
      <trkpt lat="48.52942" lon="7.43886">
        <ele>308.98355102539</ele>
        <time>2017-06-04T07:26:52.000Z</time>
      </trkpt>
      <trkpt lat="48.52935" lon="7.43881">
        <ele>309.6598815918</ele>
        <time>2017-06-04T07:26:55.000Z</time>
      </trkpt>
      <trkpt lat="48.52927" lon="7.43876">
        <ele>310.41195678711</ele>
        <time>2017-06-04T07:26:58.000Z</time>
      </trkpt>
      <trkpt lat="48.52924" lon="7.43872">
        <ele>311.1689453125</ele>
        <time>2017-06-04T07:27:00.000Z</time>
      </trkpt>
      <trkpt lat="48.52919" lon="7.43863">
        <ele>311.97854614258</ele>
        <time>2017-06-04T07:27:03.000Z</time>
      </trkpt>
      <trkpt lat="48.52912" lon="7.43855">
        <ele>312.79388427734</ele>
        <time>2017-06-04T07:27:06.000Z</time>
      </trkpt>
      <trkpt lat="48.52904" lon="7.43849">
        <ele>313.48510742188</ele>
        <time>2017-06-04T07:27:09.000Z</time>
      </trkpt>
      <trkpt lat="48.52898" lon="7.43847">
        <ele>313.99856567383</ele>
        <time>2017-06-04T07:27:11.000Z</time>
      </trkpt>
      <trkpt lat="48.5289" lon="7.43843">
        <ele>314.45782470703</ele>
        <time>2017-06-04T07:27:14.000Z</time>
      </trkpt>
      <trkpt lat="48.52884" lon="7.43839">
        <ele>314.78515625</ele>
        <time>2017-06-04T07:27:16.000Z</time>
      </trkpt>
      <trkpt lat="48.52878" lon="7.43836">
        <ele>315.00842285156</ele>
        <time>2017-06-04T07:27:19.000Z</time>
      </trkpt>
      <trkpt lat="48.52868" lon="7.43833">
        <ele>315.20074462891</ele>
        <time>2017-06-04T07:27:22.000Z</time>
      </trkpt>
      <trkpt lat="48.52859" lon="7.43834">
        <ele>315.38076782227</ele>
        <time>2017-06-04T07:27:25.000Z</time>
      </trkpt>
      <trkpt lat="48.52856" lon="7.43833">
        <ele>315.52178955078</ele>
        <time>2017-06-04T07:27:27.000Z</time>
      </trkpt>
      <trkpt lat="48.52852" lon="7.43831">
        <ele>315.63400268555</ele>
        <time>2017-06-04T07:27:29.000Z</time>
      </trkpt>
      <trkpt lat="48.52845" lon="7.43826">
        <ele>315.73370361328</ele>
        <time>2017-06-04T07:27:32.000Z</time>
      </trkpt>
      <trkpt lat="48.52838" lon="7.43824">
        <ele>315.82470703125</ele>
        <time>2017-06-04T07:27:35.000Z</time>
      </trkpt>
      <trkpt lat="48.52827" lon="7.4382">
        <ele>315.97296142578</ele>
        <time>2017-06-04T07:27:38.000Z</time>
      </trkpt>
      <trkpt lat="48.52815" lon="7.4381">
        <ele>316.20953369141</ele>
        <time>2017-06-04T07:27:41.000Z</time>
      </trkpt>
      <trkpt lat="48.5281" lon="7.43802">
        <ele>316.47189331055</ele>
        <time>2017-06-04T07:27:44.000Z</time>
      </trkpt>
      <trkpt lat="48.52806" lon="7.43796">
        <ele>316.7292175293</ele>
        <time>2017-06-04T07:27:47.000Z</time>
      </trkpt>
      <trkpt lat="48.52804" lon="7.43791">
        <ele>316.9616394043</ele>
        <time>2017-06-04T07:27:49.000Z</time>
      </trkpt>
      <trkpt lat="48.52801" lon="7.43787">
        <ele>317.12536621094</ele>
        <time>2017-06-04T07:27:51.000Z</time>
      </trkpt>
      <trkpt lat="48.52797" lon="7.4378">
        <ele>317.19485473633</ele>
        <time>2017-06-04T07:27:54.000Z</time>
      </trkpt>
      <trkpt lat="48.52795" lon="7.43776">
        <ele>317.23101806641</ele>
        <time>2017-06-04T07:27:56.000Z</time>
      </trkpt>
      <trkpt lat="48.52793" lon="7.43773">
        <ele>317.24627685547</ele>
        <time>2017-06-04T07:27:58.000Z</time>
      </trkpt>
      <trkpt lat="48.52789" lon="7.43766">
        <ele>317.24822998047</ele>
        <time>2017-06-04T07:28:01.000Z</time>
      </trkpt>
      <trkpt lat="48.52787" lon="7.4376">
        <ele>317.22888183594</ele>
        <time>2017-06-04T07:28:04.000Z</time>
      </trkpt>
      <trkpt lat="48.52782" lon="7.43756">
        <ele>317.19586181641</ele>
        <time>2017-06-04T07:28:06.000Z</time>
      </trkpt>
      <trkpt lat="48.52777" lon="7.4375">
        <ele>317.14254760742</ele>
        <time>2017-06-04T07:28:08.000Z</time>
      </trkpt>
      <trkpt lat="48.5277" lon="7.43739">
        <ele>316.97717285156</ele>
        <time>2017-06-04T07:28:11.000Z</time>
      </trkpt>
      <trkpt lat="48.52758" lon="7.43727">
        <ele>316.70477294922</ele>
        <time>2017-06-04T07:28:14.000Z</time>
      </trkpt>
      <trkpt lat="48.52743" lon="7.4372">
        <ele>316.40255737305</ele>
        <time>2017-06-04T07:28:17.000Z</time>
      </trkpt>
      <trkpt lat="48.52736" lon="7.43716">
        <ele>316.08856201172</ele>
        <time>2017-06-04T07:28:19.000Z</time>
      </trkpt>
      <trkpt lat="48.52725" lon="7.43709">
        <ele>315.75103759766</ele>
        <time>2017-06-04T07:28:22.000Z</time>
      </trkpt>
      <trkpt lat="48.52713" lon="7.43702">
        <ele>315.48837280273</ele>
        <time>2017-06-04T07:28:25.000Z</time>
      </trkpt>
      <trkpt lat="48.52706" lon="7.43697">
        <ele>315.31396484375</ele>
        <time>2017-06-04T07:28:27.000Z</time>
      </trkpt>
      <trkpt lat="48.52693" lon="7.43686">
        <ele>315.11083984375</ele>
        <time>2017-06-04T07:28:30.000Z</time>
      </trkpt>
      <trkpt lat="48.52681" lon="7.43675">
        <ele>314.8544921875</ele>
        <time>2017-06-04T07:28:33.000Z</time>
      </trkpt>
      <trkpt lat="48.52668" lon="7.43667">
        <ele>314.59423828125</ele>
        <time>2017-06-04T07:28:36.000Z</time>
      </trkpt>
      <trkpt lat="48.5266" lon="7.43662">
        <ele>314.31314086914</ele>
        <time>2017-06-04T07:28:38.000Z</time>
      </trkpt>
      <trkpt lat="48.52652" lon="7.43658">
        <ele>313.99884033203</ele>
        <time>2017-06-04T07:28:41.000Z</time>
      </trkpt>
      <trkpt lat="48.52643" lon="7.43647">
        <ele>313.59686279297</ele>
        <time>2017-06-04T07:28:44.000Z</time>
      </trkpt>
      <trkpt lat="48.52634" lon="7.43635">
        <ele>313.07272338867</ele>
        <time>2017-06-04T07:28:47.000Z</time>
      </trkpt>
      <trkpt lat="48.52626" lon="7.43627">
        <ele>312.45501708984</ele>
        <time>2017-06-04T07:28:49.000Z</time>
      </trkpt>
      <trkpt lat="48.52614" lon="7.43617">
        <ele>311.69403076172</ele>
        <time>2017-06-04T07:28:52.000Z</time>
      </trkpt>
      <trkpt lat="48.52606" lon="7.43608">
        <ele>310.80877685547</ele>
        <time>2017-06-04T07:28:54.000Z</time>
      </trkpt>
      <trkpt lat="48.52599" lon="7.43599">
        <ele>309.8740234375</ele>
        <time>2017-06-04T07:28:56.000Z</time>
      </trkpt>
      <trkpt lat="48.52592" lon="7.4358">
        <ele>308.75067138672</ele>
        <time>2017-06-04T07:28:59.000Z</time>
      </trkpt>
      <trkpt lat="48.52589" lon="7.4357">
        <ele>307.56170654297</ele>
        <time>2017-06-04T07:29:01.000Z</time>
      </trkpt>
      <trkpt lat="48.52584" lon="7.43552">
        <ele>306.17715454102</ele>
        <time>2017-06-04T07:29:04.000Z</time>
      </trkpt>
      <trkpt lat="48.52578" lon="7.43522">
        <ele>304.40563964844</ele>
        <time>2017-06-04T07:29:07.000Z</time>
      </trkpt>
      <trkpt lat="48.52571" lon="7.43489">
        <ele>302.255859375</ele>
        <time>2017-06-04T07:29:10.000Z</time>
      </trkpt>
      <trkpt lat="48.52571" lon="7.43468">
        <ele>300.18856811523</ele>
        <time>2017-06-04T07:29:13.000Z</time>
      </trkpt>
      <trkpt lat="48.5257" lon="7.43447">
        <ele>298.02334594727</ele>
        <time>2017-06-04T07:29:16.000Z</time>
      </trkpt>
      <trkpt lat="48.52571" lon="7.43434">
        <ele>296.06970214844</ele>
        <time>2017-06-04T07:29:18.000Z</time>
      </trkpt>
      <trkpt lat="48.52573" lon="7.43423">
        <ele>294.52978515625</ele>
        <time>2017-06-04T07:29:21.000Z</time>
      </trkpt>
      <trkpt lat="48.52571" lon="7.43418">
        <ele>293.5087890625</ele>
        <time>2017-06-04T07:29:24.000Z</time>
      </trkpt>
      <trkpt lat="48.5257" lon="7.43413">
        <ele>292.63833618164</ele>
        <time>2017-06-04T07:29:27.000Z</time>
      </trkpt>
      <trkpt lat="48.5257" lon="7.4341">
        <ele>291.96786499023</ele>
        <time>2017-06-04T07:29:29.000Z</time>
      </trkpt>
      <trkpt lat="48.5257" lon="7.43406">
        <ele>291.30764770508</ele>
        <time>2017-06-04T07:29:32.000Z</time>
      </trkpt>
      <trkpt lat="48.52571" lon="7.43401">
        <ele>290.60290527344</ele>
        <time>2017-06-04T07:29:35.000Z</time>
      </trkpt>
      <trkpt lat="48.52571" lon="7.43399">
        <ele>289.90985107422</ele>
        <time>2017-06-04T07:29:37.000Z</time>
      </trkpt>
      <trkpt lat="48.52571" lon="7.43396">
        <ele>289.26028442383</ele>
        <time>2017-06-04T07:29:39.000Z</time>
      </trkpt>
      <trkpt lat="48.52571" lon="7.43395">
        <ele>288.64755249023</ele>
        <time>2017-06-04T07:29:42.000Z</time>
      </trkpt>
      <trkpt lat="48.52569" lon="7.43394">
        <ele>288.18167114258</ele>
        <time>2017-06-04T07:29:47.000Z</time>
      </trkpt>
      <trkpt lat="48.52566" lon="7.43391">
        <ele>287.82656860352</ele>
        <time>2017-06-04T07:29:50.000Z</time>
      </trkpt>
      <trkpt lat="48.52555" lon="7.43379">
        <ele>287.16390991211</ele>
        <time>2017-06-04T07:29:53.000Z</time>
      </trkpt>
      <trkpt lat="48.52546" lon="7.4337">
        <ele>286.35928344727</ele>
        <time>2017-06-04T07:29:55.000Z</time>
      </trkpt>
      <trkpt lat="48.52541" lon="7.43364">
        <ele>285.46337890625</ele>
        <time>2017-06-04T07:29:57.000Z</time>
      </trkpt>
      <trkpt lat="48.52536" lon="7.43359">
        <ele>284.46322631836</ele>
        <time>2017-06-04T07:29:59.000Z</time>
      </trkpt>
      <trkpt lat="48.5253" lon="7.4335">
        <ele>283.32720947266</ele>
        <time>2017-06-04T07:30:02.000Z</time>
      </trkpt>
      <trkpt lat="48.52527" lon="7.43343">
        <ele>282.38037109375</ele>
        <time>2017-06-04T07:30:04.000Z</time>
      </trkpt>
      <trkpt lat="48.52523" lon="7.43337">
        <ele>281.53729248047</ele>
        <time>2017-06-04T07:30:06.000Z</time>
      </trkpt>
      <trkpt lat="48.52518" lon="7.4333">
        <ele>280.71603393555</ele>
        <time>2017-06-04T07:30:09.000Z</time>
      </trkpt>
      <trkpt lat="48.52514" lon="7.43323">
        <ele>279.80340576172</ele>
        <time>2017-06-04T07:30:11.000Z</time>
      </trkpt>
      <trkpt lat="48.52512" lon="7.43313">
        <ele>278.79223632812</ele>
        <time>2017-06-04T07:30:14.000Z</time>
      </trkpt>
      <trkpt lat="48.52513" lon="7.43303">
        <ele>277.55206298828</ele>
        <time>2017-06-04T07:30:17.000Z</time>
      </trkpt>
      <trkpt lat="48.52515" lon="7.43297">
        <ele>276.19995117188</ele>
        <time>2017-06-04T07:30:20.000Z</time>
      </trkpt>
      <trkpt lat="48.52513" lon="7.43293">
        <ele>274.86190795898</ele>
        <time>2017-06-04T07:30:23.000Z</time>
      </trkpt>
      <trkpt lat="48.52511" lon="7.43291">
        <ele>273.70269775391</ele>
        <time>2017-06-04T07:30:25.000Z</time>
      </trkpt>
      <trkpt lat="48.52507" lon="7.4329">
        <ele>272.88827514648</ele>
        <time>2017-06-04T07:30:27.000Z</time>
      </trkpt>
      <trkpt lat="48.52501" lon="7.43291">
        <ele>272.56094360352</ele>
        <time>2017-06-04T07:30:30.000Z</time>
      </trkpt>
      <trkpt lat="48.52495" lon="7.43291">
        <ele>272.57769775391</ele>
        <time>2017-06-04T07:30:33.000Z</time>
      </trkpt>
      <trkpt lat="48.52492" lon="7.43291">
        <ele>272.75704956055</ele>
        <time>2017-06-04T07:30:35.000Z</time>
      </trkpt>
      <trkpt lat="48.52488" lon="7.43289">
        <ele>272.95806884766</ele>
        <time>2017-06-04T07:30:38.000Z</time>
      </trkpt>
      <trkpt lat="48.52484" lon="7.43289">
        <ele>273.20877075195</ele>
        <time>2017-06-04T07:30:40.000Z</time>
      </trkpt>
      <trkpt lat="48.52475" lon="7.43288">
        <ele>273.423828125</ele>
        <time>2017-06-04T07:30:43.000Z</time>
      </trkpt>
      <trkpt lat="48.52464" lon="7.43284">
        <ele>273.55941772461</ele>
        <time>2017-06-04T07:30:46.000Z</time>
      </trkpt>
      <trkpt lat="48.52459" lon="7.43282">
        <ele>273.640625</ele>
        <time>2017-06-04T07:30:48.000Z</time>
      </trkpt>
      <trkpt lat="48.52456" lon="7.43282">
        <ele>273.78265380859</ele>
        <time>2017-06-04T07:30:50.000Z</time>
      </trkpt>
      <trkpt lat="48.5245" lon="7.43282">
        <ele>273.94927978516</ele>
        <time>2017-06-04T07:30:53.000Z</time>
      </trkpt>
      <trkpt lat="48.52446" lon="7.43283">
        <ele>274.15805053711</ele>
        <time>2017-06-04T07:30:55.000Z</time>
      </trkpt>
      <trkpt lat="48.52439" lon="7.43284">
        <ele>274.5026550293</ele>
        <time>2017-06-04T07:30:58.000Z</time>
      </trkpt>
      <trkpt lat="48.52434" lon="7.43285">
        <ele>274.94717407227</ele>
        <time>2017-06-04T07:31:00.000Z</time>
      </trkpt>
      <trkpt lat="48.52427" lon="7.4329">
        <ele>275.59704589844</ele>
        <time>2017-06-04T07:31:03.000Z</time>
      </trkpt>
      <trkpt lat="48.52415" lon="7.43294">
        <ele>276.37026977539</ele>
        <time>2017-06-04T07:31:06.000Z</time>
      </trkpt>
      <trkpt lat="48.52404" lon="7.43296">
        <ele>277.11492919922</ele>
        <time>2017-06-04T07:31:09.000Z</time>
      </trkpt>
      <trkpt lat="48.52396" lon="7.43302">
        <ele>277.85955810547</ele>
        <time>2017-06-04T07:31:11.000Z</time>
      </trkpt>
      <trkpt lat="48.52388" lon="7.43308">
        <ele>278.65124511719</ele>
        <time>2017-06-04T07:31:14.000Z</time>
      </trkpt>
      <trkpt lat="48.52383" lon="7.43313">
        <ele>279.31216430664</ele>
        <time>2017-06-04T07:31:16.000Z</time>
      </trkpt>
      <trkpt lat="48.52376" lon="7.43324">
        <ele>279.96014404297</ele>
        <time>2017-06-04T07:31:19.000Z</time>
      </trkpt>
      <trkpt lat="48.52367" lon="7.43331">
        <ele>280.64804077148</ele>
        <time>2017-06-04T07:31:22.000Z</time>
      </trkpt>
      <trkpt lat="48.52355" lon="7.43333">
        <ele>281.13705444336</ele>
        <time>2017-06-04T07:31:25.000Z</time>
      </trkpt>
      <trkpt lat="48.52346" lon="7.43333">
        <ele>281.43890380859</ele>
        <time>2017-06-04T07:31:28.000Z</time>
      </trkpt>
      <trkpt lat="48.52338" lon="7.43332">
        <ele>281.55703735352</ele>
        <time>2017-06-04T07:31:30.000Z</time>
      </trkpt>
      <trkpt lat="48.5233" lon="7.43331">
        <ele>281.46981811523</ele>
        <time>2017-06-04T07:31:33.000Z</time>
      </trkpt>
      <trkpt lat="48.5232" lon="7.43329">
        <ele>281.39715576172</ele>
        <time>2017-06-04T07:31:36.000Z</time>
      </trkpt>
      <trkpt lat="48.52312" lon="7.43327">
        <ele>281.45257568359</ele>
        <time>2017-06-04T07:31:39.000Z</time>
      </trkpt>
      <trkpt lat="48.52304" lon="7.43323">
        <ele>281.62457275391</ele>
        <time>2017-06-04T07:31:42.000Z</time>
      </trkpt>
      <trkpt lat="48.52294" lon="7.43316">
        <ele>281.90982055664</ele>
        <time>2017-06-04T07:31:45.000Z</time>
      </trkpt>
      <trkpt lat="48.52288" lon="7.43313">
        <ele>282.23727416992</ele>
        <time>2017-06-04T07:31:48.000Z</time>
      </trkpt>
      <trkpt lat="48.52282" lon="7.43309">
        <ele>282.47030639648</ele>
        <time>2017-06-04T07:31:50.000Z</time>
      </trkpt>
      <trkpt lat="48.52277" lon="7.43306">
        <ele>282.64645385742</ele>
        <time>2017-06-04T07:31:53.000Z</time>
      </trkpt>
      <trkpt lat="48.52272" lon="7.43305">
        <ele>282.81109619141</ele>
        <time>2017-06-04T07:31:56.000Z</time>
      </trkpt>
      <trkpt lat="48.52269" lon="7.43304">
        <ele>282.95913696289</ele>
        <time>2017-06-04T07:31:58.000Z</time>
      </trkpt>
      <trkpt lat="48.52265" lon="7.43304">
        <ele>283.11276245117</ele>
        <time>2017-06-04T07:32:00.000Z</time>
      </trkpt>
      <trkpt lat="48.52262" lon="7.43305">
        <ele>283.32070922852</ele>
        <time>2017-06-04T07:32:03.000Z</time>
      </trkpt>
      <trkpt lat="48.52259" lon="7.43306">
        <ele>283.56079101562</ele>
        <time>2017-06-04T07:32:05.000Z</time>
      </trkpt>
      <trkpt lat="48.52255" lon="7.43306">
        <ele>283.80685424805</ele>
        <time>2017-06-04T07:32:07.000Z</time>
      </trkpt>
      <trkpt lat="48.52251" lon="7.43304">
        <ele>284.06045532227</ele>
        <time>2017-06-04T07:32:10.000Z</time>
      </trkpt>
      <trkpt lat="48.52244" lon="7.43301">
        <ele>284.39553833008</ele>
        <time>2017-06-04T07:32:13.000Z</time>
      </trkpt>
      <trkpt lat="48.52239" lon="7.43301">
        <ele>284.79809570312</ele>
        <time>2017-06-04T07:32:16.000Z</time>
      </trkpt>
      <trkpt lat="48.52231" lon="7.433">
        <ele>285.35754394531</ele>
        <time>2017-06-04T07:32:19.000Z</time>
      </trkpt>
      <trkpt lat="48.52226" lon="7.433">
        <ele>285.99639892578</ele>
        <time>2017-06-04T07:32:21.000Z</time>
      </trkpt>
      <trkpt lat="48.52222" lon="7.43302">
        <ele>286.73901367188</ele>
        <time>2017-06-04T07:32:23.000Z</time>
      </trkpt>
      <trkpt lat="48.52218" lon="7.43304">
        <ele>287.49612426758</ele>
        <time>2017-06-04T07:32:25.000Z</time>
      </trkpt>
      <trkpt lat="48.52214" lon="7.43305">
        <ele>288.24917602539</ele>
        <time>2017-06-04T07:32:27.000Z</time>
      </trkpt>
      <trkpt lat="48.5221" lon="7.43304">
        <ele>288.89883422852</ele>
        <time>2017-06-04T07:32:30.000Z</time>
      </trkpt>
      <trkpt lat="48.52204" lon="7.43303">
        <ele>289.55230712891</ele>
        <time>2017-06-04T07:32:33.000Z</time>
      </trkpt>
      <trkpt lat="48.52199" lon="7.43304">
        <ele>290.22680664062</ele>
        <time>2017-06-04T07:32:36.000Z</time>
      </trkpt>
      <trkpt lat="48.52194" lon="7.43303">
        <ele>290.89050292969</ele>
        <time>2017-06-04T07:32:39.000Z</time>
      </trkpt>
      <trkpt lat="48.52192" lon="7.43302">
        <ele>291.46148681641</ele>
        <time>2017-06-04T07:32:41.000Z</time>
      </trkpt>
      <trkpt lat="48.52188" lon="7.43299">
        <ele>291.97827148438</ele>
        <time>2017-06-04T07:32:44.000Z</time>
      </trkpt>
      <trkpt lat="48.52185" lon="7.43297">
        <ele>292.42001342773</ele>
        <time>2017-06-04T07:32:47.000Z</time>
      </trkpt>
      <trkpt lat="48.52182" lon="7.43296">
        <ele>292.76397705078</ele>
        <time>2017-06-04T07:32:49.000Z</time>
      </trkpt>
      <trkpt lat="48.52178" lon="7.43295">
        <ele>293.06286621094</ele>
        <time>2017-06-04T07:32:52.000Z</time>
      </trkpt>
      <trkpt lat="48.52174" lon="7.43294">
        <ele>293.38995361328</ele>
        <time>2017-06-04T07:32:54.000Z</time>
      </trkpt>
      <trkpt lat="48.52169" lon="7.43293">
        <ele>293.80712890625</ele>
        <time>2017-06-04T07:32:57.000Z</time>
      </trkpt>
      <trkpt lat="48.52163" lon="7.43291">
        <ele>294.29278564453</ele>
        <time>2017-06-04T07:33:00.000Z</time>
      </trkpt>
      <trkpt lat="48.52159" lon="7.43288">
        <ele>294.82925415039</ele>
        <time>2017-06-04T07:33:03.000Z</time>
      </trkpt>
      <trkpt lat="48.52156" lon="7.43285">
        <ele>295.27822875977</ele>
        <time>2017-06-04T07:33:06.000Z</time>
      </trkpt>
      <trkpt lat="48.52153" lon="7.43284">
        <ele>295.75677490234</ele>
        <time>2017-06-04T07:33:09.000Z</time>
      </trkpt>
      <trkpt lat="48.5215" lon="7.43283">
        <ele>296.17440795898</ele>
        <time>2017-06-04T07:33:11.000Z</time>
      </trkpt>
      <trkpt lat="48.52147" lon="7.43284">
        <ele>296.58322143555</ele>
        <time>2017-06-04T07:33:13.000Z</time>
      </trkpt>
      <trkpt lat="48.52142" lon="7.43284">
        <ele>297.05438232422</ele>
        <time>2017-06-04T07:33:16.000Z</time>
      </trkpt>
      <trkpt lat="48.52139" lon="7.43285">
        <ele>297.64761352539</ele>
        <time>2017-06-04T07:33:19.000Z</time>
      </trkpt>
      <trkpt lat="48.52136" lon="7.43285">
        <ele>298.22714233398</ele>
        <time>2017-06-04T07:33:21.000Z</time>
      </trkpt>
      <trkpt lat="48.52134" lon="7.43285">
        <ele>298.81900024414</ele>
        <time>2017-06-04T07:33:23.000Z</time>
      </trkpt>
      <trkpt lat="48.52131" lon="7.43283">
        <ele>299.33502197266</ele>
        <time>2017-06-04T07:33:26.000Z</time>
      </trkpt>
      <trkpt lat="48.52127" lon="7.43283">
        <ele>299.80218505859</ele>
        <time>2017-06-04T07:33:29.000Z</time>
      </trkpt>
      <trkpt lat="48.52124" lon="7.43283">
        <ele>300.26879882812</ele>
        <time>2017-06-04T07:33:32.000Z</time>
      </trkpt>
      <trkpt lat="48.52121" lon="7.43283">
        <ele>300.73681640625</ele>
        <time>2017-06-04T07:33:35.000Z</time>
      </trkpt>
      <trkpt lat="48.52119" lon="7.43283">
        <ele>301.17938232422</ele>
        <time>2017-06-04T07:33:37.000Z</time>
      </trkpt>
      <trkpt lat="48.52115" lon="7.43283">
        <ele>301.69686889648</ele>
        <time>2017-06-04T07:33:40.000Z</time>
      </trkpt>
      <trkpt lat="48.52113" lon="7.43282">
        <ele>302.13000488281</ele>
        <time>2017-06-04T07:33:42.000Z</time>
      </trkpt>
      <trkpt lat="48.52111" lon="7.43282">
        <ele>302.51586914062</ele>
        <time>2017-06-04T07:33:44.000Z</time>
      </trkpt>
      <trkpt lat="48.52108" lon="7.43281">
        <ele>302.91000366211</ele>
        <time>2017-06-04T07:33:47.000Z</time>
      </trkpt>
      <trkpt lat="48.52104" lon="7.4328">
        <ele>303.34307861328</ele>
        <time>2017-06-04T07:33:49.000Z</time>
      </trkpt>
      <trkpt lat="48.521" lon="7.43279">
        <ele>303.7434387207</ele>
        <time>2017-06-04T07:33:51.000Z</time>
      </trkpt>
      <trkpt lat="48.52095" lon="7.43279">
        <ele>304.26748657227</ele>
        <time>2017-06-04T07:33:54.000Z</time>
      </trkpt>
      <trkpt lat="48.5209" lon="7.43279">
        <ele>304.88287353516</ele>
        <time>2017-06-04T07:33:57.000Z</time>
      </trkpt>
      <trkpt lat="48.52086" lon="7.43278">
        <ele>305.52182006836</ele>
        <time>2017-06-04T07:33:59.000Z</time>
      </trkpt>
      <trkpt lat="48.52084" lon="7.43277">
        <ele>306.10861206055</ele>
        <time>2017-06-04T07:34:01.000Z</time>
      </trkpt>
      <trkpt lat="48.52081" lon="7.43275">
        <ele>306.64663696289</ele>
        <time>2017-06-04T07:34:04.000Z</time>
      </trkpt>
      <trkpt lat="48.52078" lon="7.43275">
        <ele>307.06604003906</ele>
        <time>2017-06-04T07:34:07.000Z</time>
      </trkpt>
      <trkpt lat="48.52074" lon="7.43276">
        <ele>307.43572998047</ele>
        <time>2017-06-04T07:34:10.000Z</time>
      </trkpt>
      <trkpt lat="48.5207" lon="7.43275">
        <ele>307.76556396484</ele>
        <time>2017-06-04T07:34:13.000Z</time>
      </trkpt>
      <trkpt lat="48.52068" lon="7.43275">
        <ele>308.109375</ele>
        <time>2017-06-04T07:34:15.000Z</time>
      </trkpt>
      <trkpt lat="48.52064" lon="7.43276">
        <ele>308.51208496094</ele>
        <time>2017-06-04T07:34:18.000Z</time>
      </trkpt>
      <trkpt lat="48.52061" lon="7.43276">
        <ele>308.94088745117</ele>
        <time>2017-06-04T07:34:20.000Z</time>
      </trkpt>
      <trkpt lat="48.52059" lon="7.43275">
        <ele>309.28265380859</ele>
        <time>2017-06-04T07:34:22.000Z</time>
      </trkpt>
      <trkpt lat="48.52055" lon="7.43273">
        <ele>309.57470703125</ele>
        <time>2017-06-04T07:34:24.000Z</time>
      </trkpt>
      <trkpt lat="48.52053" lon="7.43273">
        <ele>309.85211181641</ele>
        <time>2017-06-04T07:34:26.000Z</time>
      </trkpt>
      <trkpt lat="48.52049" lon="7.43271">
        <ele>310.07388305664</ele>
        <time>2017-06-04T07:34:29.000Z</time>
      </trkpt>
      <trkpt lat="48.52047" lon="7.4327">
        <ele>310.24087524414</ele>
        <time>2017-06-04T07:34:32.000Z</time>
      </trkpt>
      <trkpt lat="48.52046" lon="7.4327">
        <ele>310.42523193359</ele>
        <time>2017-06-04T07:34:34.000Z</time>
      </trkpt>
      <trkpt lat="48.52043" lon="7.4327">
        <ele>310.64120483398</ele>
        <time>2017-06-04T07:34:36.000Z</time>
      </trkpt>
      <trkpt lat="48.52038" lon="7.43266">
        <ele>310.82415771484</ele>
        <time>2017-06-04T07:34:39.000Z</time>
      </trkpt>
      <trkpt lat="48.52033" lon="7.43264">
        <ele>311.02319335938</ele>
        <time>2017-06-04T07:34:42.000Z</time>
      </trkpt>
      <trkpt lat="48.52029" lon="7.43265">
        <ele>311.28790283203</ele>
        <time>2017-06-04T07:34:44.000Z</time>
      </trkpt>
      <trkpt lat="48.52026" lon="7.43265">
        <ele>311.60345458984</ele>
        <time>2017-06-04T07:34:47.000Z</time>
      </trkpt>
      <trkpt lat="48.52022" lon="7.43264">
        <ele>311.90780639648</ele>
        <time>2017-06-04T07:34:50.000Z</time>
      </trkpt>
      <trkpt lat="48.5202" lon="7.43263">
        <ele>312.22567749023</ele>
        <time>2017-06-04T07:34:52.000Z</time>
      </trkpt>
      <trkpt lat="48.52016" lon="7.4326">
        <ele>312.47180175781</ele>
        <time>2017-06-04T07:34:55.000Z</time>
      </trkpt>
      <trkpt lat="48.52014" lon="7.43256">
        <ele>312.59030151367</ele>
        <time>2017-06-04T07:34:57.000Z</time>
      </trkpt>
      <trkpt lat="48.52011" lon="7.43253">
        <ele>312.57122802734</ele>
        <time>2017-06-04T07:35:00.000Z</time>
      </trkpt>
      <trkpt lat="48.52011" lon="7.43251">
        <ele>312.44473266602</ele>
        <time>2017-06-04T07:35:05.000Z</time>
      </trkpt>
      <trkpt lat="48.5201" lon="7.43251">
        <ele>312.31317138672</ele>
        <time>2017-06-04T07:35:11.000Z</time>
      </trkpt>
      <trkpt lat="48.5201" lon="7.43251">
        <ele>312.31317138672</ele>
        <time>2017-06-04T07:35:31.000Z</time>
      </trkpt>
      <trkpt lat="48.52007" lon="7.43251">
        <ele>312.26495361328</ele>
        <time>2017-06-04T07:36:05.000Z</time>
      </trkpt>
      <trkpt lat="48.52007" lon="7.43251">
        <ele>312.26495361328</ele>
        <time>2017-06-04T07:36:25.000Z</time>
      </trkpt>
      <trkpt lat="48.52005" lon="7.4325">
        <ele>312.27532958984</ele>
        <time>2017-06-04T07:37:12.000Z</time>
      </trkpt>
      <trkpt lat="48.52" lon="7.43245">
        <ele>312.33715820312</ele>
        <time>2017-06-04T07:37:15.000Z</time>
      </trkpt>
      <trkpt lat="48.51997" lon="7.43242">
        <ele>312.48446655273</ele>
        <time>2017-06-04T07:37:17.000Z</time>
      </trkpt>
      <trkpt lat="48.51991" lon="7.43239">
        <ele>312.74520874023</ele>
        <time>2017-06-04T07:37:20.000Z</time>
      </trkpt>
      <trkpt lat="48.51986" lon="7.43234">
        <ele>312.99444580078</ele>
        <time>2017-06-04T07:37:22.000Z</time>
      </trkpt>
      <trkpt lat="48.5198" lon="7.4322">
        <ele>313.17352294922</ele>
        <time>2017-06-04T07:37:25.000Z</time>
      </trkpt>
      <trkpt lat="48.51977" lon="7.43207">
        <ele>313.23065185547</ele>
        <time>2017-06-04T07:37:27.000Z</time>
      </trkpt>
      <trkpt lat="48.51964" lon="7.43189">
        <ele>313.37167358398</ele>
        <time>2017-06-04T07:37:30.000Z</time>
      </trkpt>
      <trkpt lat="48.5195" lon="7.43173">
        <ele>313.54315185547</ele>
        <time>2017-06-04T07:37:33.000Z</time>
      </trkpt>
      <trkpt lat="48.51938" lon="7.4316">
        <ele>313.82586669922</ele>
        <time>2017-06-04T07:37:36.000Z</time>
      </trkpt>
      <trkpt lat="48.51929" lon="7.43153">
        <ele>314.33050537109</ele>
        <time>2017-06-04T07:37:38.000Z</time>
      </trkpt>
      <trkpt lat="48.51915" lon="7.43144">
        <ele>315.24368286133</ele>
        <time>2017-06-04T07:37:41.000Z</time>
      </trkpt>
      <trkpt lat="48.51907" lon="7.43137">
        <ele>316.09887695312</ele>
        <time>2017-06-04T07:37:43.000Z</time>
      </trkpt>
      <trkpt lat="48.51897" lon="7.43127">
        <ele>316.86956787109</ele>
        <time>2017-06-04T07:37:46.000Z</time>
      </trkpt>
      <trkpt lat="48.5189" lon="7.43122">
        <ele>317.5166015625</ele>
        <time>2017-06-04T07:37:48.000Z</time>
      </trkpt>
      <trkpt lat="48.5188" lon="7.43114">
        <ele>318.05938720703</ele>
        <time>2017-06-04T07:37:51.000Z</time>
      </trkpt>
      <trkpt lat="48.51875" lon="7.43108">
        <ele>318.3219909668</ele>
        <time>2017-06-04T07:37:53.000Z</time>
      </trkpt>
      <trkpt lat="48.51869" lon="7.43102">
        <ele>318.51141357422</ele>
        <time>2017-06-04T07:37:55.000Z</time>
      </trkpt>
      <trkpt lat="48.51861" lon="7.43097">
        <ele>318.67315673828</ele>
        <time>2017-06-04T07:37:58.000Z</time>
      </trkpt>
      <trkpt lat="48.51854" lon="7.43095">
        <ele>318.88314819336</ele>
        <time>2017-06-04T07:38:00.000Z</time>
      </trkpt>
      <trkpt lat="48.51844" lon="7.43092">
        <ele>319.16882324219</ele>
        <time>2017-06-04T07:38:03.000Z</time>
      </trkpt>
      <trkpt lat="48.51837" lon="7.43092">
        <ele>319.57025146484</ele>
        <time>2017-06-04T07:38:05.000Z</time>
      </trkpt>
      <trkpt lat="48.51829" lon="7.43087">
        <ele>319.95196533203</ele>
        <time>2017-06-04T07:38:08.000Z</time>
      </trkpt>
      <trkpt lat="48.51825" lon="7.43083">
        <ele>320.18963623047</ele>
        <time>2017-06-04T07:38:10.000Z</time>
      </trkpt>
      <trkpt lat="48.51817" lon="7.43077">
        <ele>320.21649169922</ele>
        <time>2017-06-04T07:38:12.000Z</time>
      </trkpt>
      <trkpt lat="48.51807" lon="7.43069">
        <ele>319.93667602539</ele>
        <time>2017-06-04T07:38:14.000Z</time>
      </trkpt>
      <trkpt lat="48.51789" lon="7.43057">
        <ele>319.20581054688</ele>
        <time>2017-06-04T07:38:17.000Z</time>
      </trkpt>
      <trkpt lat="48.51768" lon="7.43044">
        <ele>318.04135131836</ele>
        <time>2017-06-04T07:38:20.000Z</time>
      </trkpt>
      <trkpt lat="48.51749" lon="7.43029">
        <ele>316.32135009766</ele>
        <time>2017-06-04T07:38:23.000Z</time>
      </trkpt>
      <trkpt lat="48.51738" lon="7.43021">
        <ele>314.41201782227</ele>
        <time>2017-06-04T07:38:25.000Z</time>
      </trkpt>
      <trkpt lat="48.51721" lon="7.43012">
        <ele>312.36972045898</ele>
        <time>2017-06-04T07:38:28.000Z</time>
      </trkpt>
      <trkpt lat="48.51697" lon="7.43007">
        <ele>310.50143432617</ele>
        <time>2017-06-04T07:38:31.000Z</time>
      </trkpt>
      <trkpt lat="48.51682" lon="7.43002">
        <ele>308.97174072266</ele>
        <time>2017-06-04T07:38:33.000Z</time>
      </trkpt>
      <trkpt lat="48.51654" lon="7.42992">
        <ele>307.50085449219</ele>
        <time>2017-06-04T07:38:36.000Z</time>
      </trkpt>
      <trkpt lat="48.51638" lon="7.42986">
        <ele>305.76861572266</ele>
        <time>2017-06-04T07:38:38.000Z</time>
      </trkpt>
      <trkpt lat="48.51627" lon="7.42982">
        <ele>303.98254394531</ele>
        <time>2017-06-04T07:38:40.000Z</time>
      </trkpt>
      <trkpt lat="48.51612" lon="7.43003">
        <ele>302.75738525391</ele>
        <time>2017-06-04T07:38:43.000Z</time>
      </trkpt>
      <trkpt lat="48.51591" lon="7.43016">
        <ele>301.67700195312</ele>
        <time>2017-06-04T07:38:46.000Z</time>
      </trkpt>
      <trkpt lat="48.51581" lon="7.43025">
        <ele>301.27606201172</ele>
        <time>2017-06-04T07:38:48.000Z</time>
      </trkpt>
      <trkpt lat="48.51572" lon="7.43033">
        <ele>301.44604492188</ele>
        <time>2017-06-04T07:38:51.000Z</time>
      </trkpt>
      <trkpt lat="48.51556" lon="7.43046">
        <ele>301.91909790039</ele>
        <time>2017-06-04T07:38:54.000Z</time>
      </trkpt>
      <trkpt lat="48.51535" lon="7.43048">
        <ele>301.38595581055</ele>
        <time>2017-06-04T07:38:57.000Z</time>
      </trkpt>
      <trkpt lat="48.51518" lon="7.43054">
        <ele>300.44244384766</ele>
        <time>2017-06-04T07:38:59.000Z</time>
      </trkpt>
      <trkpt lat="48.51503" lon="7.43059">
        <ele>299.06671142578</ele>
        <time>2017-06-04T07:39:01.000Z</time>
      </trkpt>
      <trkpt lat="48.51488" lon="7.43058">
        <ele>297.53652954102</ele>
        <time>2017-06-04T07:39:03.000Z</time>
      </trkpt>
      <trkpt lat="48.51464" lon="7.43052">
        <ele>295.85604858398</ele>
        <time>2017-06-04T07:39:06.000Z</time>
      </trkpt>
      <trkpt lat="48.51451" lon="7.43054">
        <ele>294.77362060547</ele>
        <time>2017-06-04T07:39:08.000Z</time>
      </trkpt>
      <trkpt lat="48.51438" lon="7.43054">
        <ele>294.07287597656</ele>
        <time>2017-06-04T07:39:10.000Z</time>
      </trkpt>
      <trkpt lat="48.51425" lon="7.43058">
        <ele>293.7463684082</ele>
        <time>2017-06-04T07:39:12.000Z</time>
      </trkpt>
      <trkpt lat="48.51413" lon="7.43062">
        <ele>293.63436889648</ele>
        <time>2017-06-04T07:39:14.000Z</time>
      </trkpt>
      <trkpt lat="48.51398" lon="7.43065">
        <ele>293.78961181641</ele>
        <time>2017-06-04T07:39:17.000Z</time>
      </trkpt>
      <trkpt lat="48.51384" lon="7.43073">
        <ele>294.04547119141</ele>
        <time>2017-06-04T07:39:20.000Z</time>
      </trkpt>
      <trkpt lat="48.51371" lon="7.43083">
        <ele>294.43218994141</ele>
        <time>2017-06-04T07:39:23.000Z</time>
      </trkpt>
      <trkpt lat="48.51361" lon="7.43084">
        <ele>294.77536010742</ele>
        <time>2017-06-04T07:39:25.000Z</time>
      </trkpt>
      <trkpt lat="48.51352" lon="7.43089">
        <ele>295.09033203125</ele>
        <time>2017-06-04T07:39:28.000Z</time>
      </trkpt>
      <trkpt lat="48.51345" lon="7.43092">
        <ele>295.36117553711</ele>
        <time>2017-06-04T07:39:30.000Z</time>
      </trkpt>
      <trkpt lat="48.51342" lon="7.43094">
        <ele>295.52896118164</ele>
        <time>2017-06-04T07:39:32.000Z</time>
      </trkpt>
      <trkpt lat="48.51343" lon="7.43095">
        <ele>295.60009765625</ele>
        <time>2017-06-04T07:39:35.000Z</time>
      </trkpt>
      <trkpt lat="48.51343" lon="7.43097">
        <ele>295.69915771484</ele>
        <time>2017-06-04T07:39:38.000Z</time>
      </trkpt>
      <trkpt lat="48.51342" lon="7.43104">
        <ele>295.8283996582</ele>
        <time>2017-06-04T07:39:46.000Z</time>
      </trkpt>
      <trkpt lat="48.51343" lon="7.43105">
        <ele>295.9563293457</ele>
        <time>2017-06-04T07:39:50.000Z</time>
      </trkpt>
      <trkpt lat="48.51342" lon="7.43106">
        <ele>296.09494018555</ele>
        <time>2017-06-04T07:39:54.000Z</time>
      </trkpt>
      <trkpt lat="48.51342" lon="7.43109">
        <ele>296.23663330078</ele>
        <time>2017-06-04T07:39:56.000Z</time>
      </trkpt>
      <trkpt lat="48.51342" lon="7.43112">
        <ele>296.40008544922</ele>
        <time>2017-06-04T07:39:59.000Z</time>
      </trkpt>
      <trkpt lat="48.51343" lon="7.43113">
        <ele>296.51141357422</ele>
        <time>2017-06-04T07:40:01.000Z</time>
      </trkpt>
      <trkpt lat="48.51343" lon="7.43109">
        <ele>296.55792236328</ele>
        <time>2017-06-04T07:40:09.000Z</time>
      </trkpt>
      <trkpt lat="48.51345" lon="7.43107">
        <ele>296.58099365234</ele>
        <time>2017-06-04T07:40:12.000Z</time>
      </trkpt>
      <trkpt lat="48.51343" lon="7.43106">
        <ele>296.55413818359</ele>
        <time>2017-06-04T07:40:18.000Z</time>
      </trkpt>
      <trkpt lat="48.51341" lon="7.43105">
        <ele>296.46542358398</ele>
        <time>2017-06-04T07:40:20.000Z</time>
      </trkpt>
      <trkpt lat="48.51341" lon="7.43106">
        <ele>296.37860107422</ele>
        <time>2017-06-04T07:40:24.000Z</time>
      </trkpt>
      <trkpt lat="48.51341" lon="7.43108">
        <ele>296.3586730957</ele>
        <time>2017-06-04T07:40:29.000Z</time>
      </trkpt>
      <trkpt lat="48.5134" lon="7.4311">
        <ele>296.35870361328</ele>
        <time>2017-06-04T07:40:32.000Z</time>
      </trkpt>
      <trkpt lat="48.5134" lon="7.43112">
        <ele>296.40655517578</ele>
        <time>2017-06-04T07:40:45.000Z</time>
      </trkpt>
      <trkpt lat="48.5134" lon="7.43115">
        <ele>296.51651000977</ele>
        <time>2017-06-04T07:40:48.000Z</time>
      </trkpt>
      <trkpt lat="48.51339" lon="7.43114">
        <ele>296.58764648438</ele>
        <time>2017-06-04T07:40:56.000Z</time>
      </trkpt>
      <trkpt lat="48.51338" lon="7.43113">
        <ele>296.62249755859</ele>
        <time>2017-06-04T07:41:03.000Z</time>
      </trkpt>
      <trkpt lat="48.51337" lon="7.43113">
        <ele>296.63208007812</ele>
        <time>2017-06-04T07:41:05.000Z</time>
      </trkpt>
      <trkpt lat="48.51339" lon="7.43118">
        <ele>296.69268798828</ele>
        <time>2017-06-04T07:41:22.000Z</time>
      </trkpt>
      <trkpt lat="48.51339" lon="7.43117">
        <ele>296.69604492188</ele>
        <time>2017-06-04T07:41:30.000Z</time>
      </trkpt>
      <trkpt lat="48.51339" lon="7.43119">
        <ele>296.74008178711</ele>
        <time>2017-06-04T07:41:35.000Z</time>
      </trkpt>
      <trkpt lat="48.51339" lon="7.43117">
        <ele>296.78567504883</ele>
        <time>2017-06-04T07:41:49.000Z</time>
      </trkpt>
      <trkpt lat="48.51339" lon="7.43115">
        <ele>296.82708740234</ele>
        <time>2017-06-04T07:41:53.000Z</time>
      </trkpt>
      <trkpt lat="48.51339" lon="7.43114">
        <ele>296.78070068359</ele>
        <time>2017-06-04T07:41:59.000Z</time>
      </trkpt>
      <trkpt lat="48.51337" lon="7.43112">
        <ele>296.72671508789</ele>
        <time>2017-06-04T07:42:04.000Z</time>
      </trkpt>
      <trkpt lat="48.51337" lon="7.43112">
        <ele>296.72671508789</ele>
        <time>2017-06-04T07:42:24.000Z</time>
      </trkpt>
      <trkpt lat="48.51337" lon="7.43111">
        <ele>296.63720703125</ele>
        <time>2017-06-04T07:42:25.000Z</time>
      </trkpt>
      <trkpt lat="48.51337" lon="7.43113">
        <ele>296.58502197266</ele>
        <time>2017-06-04T07:42:31.000Z</time>
      </trkpt>
      <trkpt lat="48.51337" lon="7.43115">
        <ele>296.56793212891</ele>
        <time>2017-06-04T07:42:50.000Z</time>
      </trkpt>
      <trkpt lat="48.51338" lon="7.43115">
        <ele>296.57562255859</ele>
        <time>2017-06-04T07:43:04.000Z</time>
      </trkpt>
      <trkpt lat="48.51341" lon="7.43111">
        <ele>296.58514404297</ele>
        <time>2017-06-04T07:43:07.000Z</time>
      </trkpt>
      <trkpt lat="48.51342" lon="7.43111">
        <ele>296.61663818359</ele>
        <time>2017-06-04T07:43:12.000Z</time>
      </trkpt>
      <trkpt lat="48.51341" lon="7.43113">
        <ele>296.6369934082</ele>
        <time>2017-06-04T07:43:15.000Z</time>
      </trkpt>
      <trkpt lat="48.51341" lon="7.43111">
        <ele>296.62213134766</ele>
        <time>2017-06-04T07:43:21.000Z</time>
      </trkpt>
      <trkpt lat="48.5134" lon="7.43109">
        <ele>296.56600952148</ele>
        <time>2017-06-04T07:43:24.000Z</time>
      </trkpt>
      <trkpt lat="48.51339" lon="7.4311">
        <ele>296.54290771484</ele>
        <time>2017-06-04T07:43:28.000Z</time>
      </trkpt>
      <trkpt lat="48.5134" lon="7.43109">
        <ele>296.50259399414</ele>
        <time>2017-06-04T07:43:32.000Z</time>
      </trkpt>
      <trkpt lat="48.51339" lon="7.43108">
        <ele>296.43954467773</ele>
        <time>2017-06-04T07:43:34.000Z</time>
      </trkpt>
      <trkpt lat="48.51341" lon="7.43108">
        <ele>296.40737915039</ele>
        <time>2017-06-04T07:43:50.000Z</time>
      </trkpt>
      <trkpt lat="48.51341" lon="7.43108">
        <ele>296.40737915039</ele>
        <time>2017-06-04T07:44:10.000Z</time>
      </trkpt>
      <trkpt lat="48.51343" lon="7.43111">
        <ele>296.44717407227</ele>
        <time>2017-06-04T07:44:18.000Z</time>
      </trkpt>
      <trkpt lat="48.5134" lon="7.43108">
        <ele>296.42666625977</ele>
        <time>2017-06-04T07:44:20.000Z</time>
      </trkpt>
      <trkpt lat="48.51336" lon="7.43106">
        <ele>296.37753295898</ele>
        <time>2017-06-04T07:44:22.000Z</time>
      </trkpt>
      <trkpt lat="48.5133" lon="7.43107">
        <ele>296.38687133789</ele>
        <time>2017-06-04T07:44:25.000Z</time>
      </trkpt>
      <trkpt lat="48.51326" lon="7.43108">
        <ele>296.45782470703</ele>
        <time>2017-06-04T07:44:27.000Z</time>
      </trkpt>
      <trkpt lat="48.51323" lon="7.43109">
        <ele>296.56826782227</ele>
        <time>2017-06-04T07:44:29.000Z</time>
      </trkpt>
      <trkpt lat="48.51319" lon="7.4311">
        <ele>296.78866577148</ele>
        <time>2017-06-04T07:44:31.000Z</time>
      </trkpt>
      <trkpt lat="48.51316" lon="7.4311">
        <ele>297.09997558594</ele>
        <time>2017-06-04T07:44:33.000Z</time>
      </trkpt>
      <trkpt lat="48.51313" lon="7.43112">
        <ele>297.42797851562</ele>
        <time>2017-06-04T07:44:36.000Z</time>
      </trkpt>
      <trkpt lat="48.5131" lon="7.43113">
        <ele>297.76165771484</ele>
        <time>2017-06-04T07:44:38.000Z</time>
      </trkpt>
      <trkpt lat="48.51305" lon="7.43114">
        <ele>298.10443115234</ele>
        <time>2017-06-04T07:44:41.000Z</time>
      </trkpt>
      <trkpt lat="48.51299" lon="7.43114">
        <ele>298.47830200195</ele>
        <time>2017-06-04T07:44:44.000Z</time>
      </trkpt>
      <trkpt lat="48.51294" lon="7.43115">
        <ele>298.88784790039</ele>
        <time>2017-06-04T07:44:47.000Z</time>
      </trkpt>
      <trkpt lat="48.51291" lon="7.43117">
        <ele>299.30224609375</ele>
        <time>2017-06-04T07:44:49.000Z</time>
      </trkpt>
      <trkpt lat="48.51287" lon="7.43122">
        <ele>299.72052001953</ele>
        <time>2017-06-04T07:44:52.000Z</time>
      </trkpt>
      <trkpt lat="48.51285" lon="7.43126">
        <ele>300.10375976562</ele>
        <time>2017-06-04T07:44:54.000Z</time>
      </trkpt>
      <trkpt lat="48.51282" lon="7.43132">
        <ele>300.47988891602</ele>
        <time>2017-06-04T07:44:57.000Z</time>
      </trkpt>
      <trkpt lat="48.51279" lon="7.43135">
        <ele>300.81845092773</ele>
        <time>2017-06-04T07:44:59.000Z</time>
      </trkpt>
      <trkpt lat="48.51276" lon="7.43137">
        <ele>301.1520690918</ele>
        <time>2017-06-04T07:45:02.000Z</time>
      </trkpt>
      <trkpt lat="48.51273" lon="7.43137">
        <ele>301.44644165039</ele>
        <time>2017-06-04T07:45:04.000Z</time>
      </trkpt>
      <trkpt lat="48.51269" lon="7.43138">
        <ele>301.75039672852</ele>
        <time>2017-06-04T07:45:07.000Z</time>
      </trkpt>
      <trkpt lat="48.51265" lon="7.4314">
        <ele>302.03436279297</ele>
        <time>2017-06-04T07:45:10.000Z</time>
      </trkpt>
      <trkpt lat="48.51263" lon="7.43141">
        <ele>302.29913330078</ele>
        <time>2017-06-04T07:45:12.000Z</time>
      </trkpt>
      <trkpt lat="48.51259" lon="7.43141">
        <ele>302.55523681641</ele>
        <time>2017-06-04T07:45:15.000Z</time>
      </trkpt>
      <trkpt lat="48.51254" lon="7.43141">
        <ele>302.83657836914</ele>
        <time>2017-06-04T07:45:18.000Z</time>
      </trkpt>
      <trkpt lat="48.51251" lon="7.43141">
        <ele>303.09622192383</ele>
        <time>2017-06-04T07:45:20.000Z</time>
      </trkpt>
      <trkpt lat="48.51248" lon="7.43141">
        <ele>303.35455322266</ele>
        <time>2017-06-04T07:45:22.000Z</time>
      </trkpt>
      <trkpt lat="48.51244" lon="7.4314">
        <ele>303.72399902344</ele>
        <time>2017-06-04T07:45:25.000Z</time>
      </trkpt>
      <trkpt lat="48.5124" lon="7.4314">
        <ele>304.1364440918</ele>
        <time>2017-06-04T07:45:27.000Z</time>
      </trkpt>
      <trkpt lat="48.51236" lon="7.4314">
        <ele>304.61108398438</ele>
        <time>2017-06-04T07:45:30.000Z</time>
      </trkpt>
      <trkpt lat="48.51231" lon="7.4314">
        <ele>305.18856811523</ele>
        <time>2017-06-04T07:45:33.000Z</time>
      </trkpt>
      <trkpt lat="48.51227" lon="7.4314">
        <ele>305.82107543945</ele>
        <time>2017-06-04T07:45:36.000Z</time>
      </trkpt>
      <trkpt lat="48.51222" lon="7.4314">
        <ele>306.44256591797</ele>
        <time>2017-06-04T07:45:39.000Z</time>
      </trkpt>
      <trkpt lat="48.5122" lon="7.4314">
        <ele>307.05233764648</ele>
        <time>2017-06-04T07:45:41.000Z</time>
      </trkpt>
      <trkpt lat="48.51217" lon="7.4314">
        <ele>307.60174560547</ele>
        <time>2017-06-04T07:45:43.000Z</time>
      </trkpt>
      <trkpt lat="48.51213" lon="7.4314">
        <ele>308.12548828125</ele>
        <time>2017-06-04T07:45:46.000Z</time>
      </trkpt>
      <trkpt lat="48.51211" lon="7.4314">
        <ele>308.58853149414</ele>
        <time>2017-06-04T07:45:48.000Z</time>
      </trkpt>
      <trkpt lat="48.51208" lon="7.4314">
        <ele>309.00534057617</ele>
        <time>2017-06-04T07:45:50.000Z</time>
      </trkpt>
      <trkpt lat="48.51204" lon="7.43141">
        <ele>309.43844604492</ele>
        <time>2017-06-04T07:45:53.000Z</time>
      </trkpt>
      <trkpt lat="48.51202" lon="7.43141">
        <ele>309.88464355469</ele>
        <time>2017-06-04T07:45:55.000Z</time>
      </trkpt>
      <trkpt lat="48.51197" lon="7.43141">
        <ele>310.35623168945</ele>
        <time>2017-06-04T07:45:58.000Z</time>
      </trkpt>
      <trkpt lat="48.51192" lon="7.43141">
        <ele>310.89489746094</ele>
        <time>2017-06-04T07:46:01.000Z</time>
      </trkpt>
      <trkpt lat="48.51189" lon="7.43142">
        <ele>311.44058227539</ele>
        <time>2017-06-04T07:46:03.000Z</time>
      </trkpt>
      <trkpt lat="48.51185" lon="7.43143">
        <ele>311.98266601562</ele>
        <time>2017-06-04T07:46:06.000Z</time>
      </trkpt>
      <trkpt lat="48.51181" lon="7.43144">
        <ele>312.54306030273</ele>
        <time>2017-06-04T07:46:09.000Z</time>
      </trkpt>
      <trkpt lat="48.51177" lon="7.43145">
        <ele>313.06951904297</ele>
        <time>2017-06-04T07:46:12.000Z</time>
      </trkpt>
      <trkpt lat="48.51173" lon="7.43147">
        <ele>313.57037353516</ele>
        <time>2017-06-04T07:46:15.000Z</time>
      </trkpt>
      <trkpt lat="48.51168" lon="7.43148">
        <ele>314.0920715332</ele>
        <time>2017-06-04T07:46:18.000Z</time>
      </trkpt>
      <trkpt lat="48.51166" lon="7.43149">
        <ele>314.55697631836</ele>
        <time>2017-06-04T07:46:20.000Z</time>
      </trkpt>
      <trkpt lat="48.51163" lon="7.4315">
        <ele>314.98565673828</ele>
        <time>2017-06-04T07:46:23.000Z</time>
      </trkpt>
      <trkpt lat="48.5116" lon="7.4315">
        <ele>315.38186645508</ele>
        <time>2017-06-04T07:46:25.000Z</time>
      </trkpt>
      <trkpt lat="48.51157" lon="7.43149">
        <ele>315.76889038086</ele>
        <time>2017-06-04T07:46:27.000Z</time>
      </trkpt>
      <trkpt lat="48.51153" lon="7.43149">
        <ele>316.13922119141</ele>
        <time>2017-06-04T07:46:30.000Z</time>
      </trkpt>
      <trkpt lat="48.51149" lon="7.4315">
        <ele>316.57632446289</ele>
        <time>2017-06-04T07:46:33.000Z</time>
      </trkpt>
      <trkpt lat="48.51146" lon="7.43149">
        <ele>317.03497314453</ele>
        <time>2017-06-04T07:46:35.000Z</time>
      </trkpt>
      <trkpt lat="48.51142" lon="7.43149">
        <ele>317.52093505859</ele>
        <time>2017-06-04T07:46:38.000Z</time>
      </trkpt>
      <trkpt lat="48.51138" lon="7.43148">
        <ele>318.04244995117</ele>
        <time>2017-06-04T07:46:41.000Z</time>
      </trkpt>
      <trkpt lat="48.51133" lon="7.43147">
        <ele>318.59213256836</ele>
        <time>2017-06-04T07:46:44.000Z</time>
      </trkpt>
      <trkpt lat="48.51129" lon="7.43146">
        <ele>319.15234375</ele>
        <time>2017-06-04T07:46:47.000Z</time>
      </trkpt>
      <trkpt lat="48.51125" lon="7.43143">
        <ele>319.74041748047</ele>
        <time>2017-06-04T07:46:50.000Z</time>
      </trkpt>
      <trkpt lat="48.51123" lon="7.4314">
        <ele>320.32046508789</ele>
        <time>2017-06-04T07:46:52.000Z</time>
      </trkpt>
      <trkpt lat="48.5112" lon="7.43134">
        <ele>320.8928527832</ele>
        <time>2017-06-04T07:46:55.000Z</time>
      </trkpt>
      <trkpt lat="48.51117" lon="7.43127">
        <ele>321.45550537109</ele>
        <time>2017-06-04T07:46:58.000Z</time>
      </trkpt>
      <trkpt lat="48.51115" lon="7.43121">
        <ele>321.99063110352</ele>
        <time>2017-06-04T07:47:01.000Z</time>
      </trkpt>
      <trkpt lat="48.51114" lon="7.43117">
        <ele>322.45581054688</ele>
        <time>2017-06-04T07:47:03.000Z</time>
      </trkpt>
      <trkpt lat="48.51111" lon="7.43112">
        <ele>322.93194580078</ele>
        <time>2017-06-04T07:47:06.000Z</time>
      </trkpt>
      <trkpt lat="48.51107" lon="7.43105">
        <ele>323.40643310547</ele>
        <time>2017-06-04T07:47:09.000Z</time>
      </trkpt>
      <trkpt lat="48.51103" lon="7.43097">
        <ele>323.89566040039</ele>
        <time>2017-06-04T07:47:12.000Z</time>
      </trkpt>
      <trkpt lat="48.51097" lon="7.4309">
        <ele>324.43231201172</ele>
        <time>2017-06-04T07:47:15.000Z</time>
      </trkpt>
      <trkpt lat="48.51091" lon="7.43087">
        <ele>325.03256225586</ele>
        <time>2017-06-04T07:47:17.000Z</time>
      </trkpt>
      <trkpt lat="48.51084" lon="7.43086">
        <ele>325.66375732422</ele>
        <time>2017-06-04T07:47:20.000Z</time>
      </trkpt>
      <trkpt lat="48.51078" lon="7.43085">
        <ele>326.25073242188</ele>
        <time>2017-06-04T07:47:22.000Z</time>
      </trkpt>
      <trkpt lat="48.5107" lon="7.43081">
        <ele>326.79669189453</ele>
        <time>2017-06-04T07:47:25.000Z</time>
      </trkpt>
      <trkpt lat="48.51065" lon="7.4308">
        <ele>327.26156616211</ele>
        <time>2017-06-04T07:47:27.000Z</time>
      </trkpt>
      <trkpt lat="48.5106" lon="7.43077">
        <ele>327.66595458984</ele>
        <time>2017-06-04T07:47:29.000Z</time>
      </trkpt>
      <trkpt lat="48.51053" lon="7.43074">
        <ele>327.99053955078</ele>
        <time>2017-06-04T07:47:32.000Z</time>
      </trkpt>
      <trkpt lat="48.51049" lon="7.43071">
        <ele>328.27322387695</ele>
        <time>2017-06-04T07:47:34.000Z</time>
      </trkpt>
      <trkpt lat="48.51044" lon="7.43068">
        <ele>328.51116943359</ele>
        <time>2017-06-04T07:47:36.000Z</time>
      </trkpt>
      <trkpt lat="48.51038" lon="7.43066">
        <ele>328.7380065918</ele>
        <time>2017-06-04T07:47:38.000Z</time>
      </trkpt>
      <trkpt lat="48.51029" lon="7.43062">
        <ele>328.98672485352</ele>
        <time>2017-06-04T07:47:41.000Z</time>
      </trkpt>
      <trkpt lat="48.51021" lon="7.43061">
        <ele>329.24612426758</ele>
        <time>2017-06-04T07:47:44.000Z</time>
      </trkpt>
      <trkpt lat="48.51016" lon="7.43063">
        <ele>329.53656005859</ele>
        <time>2017-06-04T07:47:46.000Z</time>
      </trkpt>
      <trkpt lat="48.51012" lon="7.43064">
        <ele>329.84683227539</ele>
        <time>2017-06-04T07:47:48.000Z</time>
      </trkpt>
      <trkpt lat="48.51007" lon="7.43065">
        <ele>330.16674804688</ele>
        <time>2017-06-04T07:47:50.000Z</time>
      </trkpt>
      <trkpt lat="48.51" lon="7.43067">
        <ele>330.50238037109</ele>
        <time>2017-06-04T07:47:53.000Z</time>
      </trkpt>
      <trkpt lat="48.50996" lon="7.43066">
        <ele>330.79159545898</ele>
        <time>2017-06-04T07:47:55.000Z</time>
      </trkpt>
      <trkpt lat="48.50988" lon="7.43066">
        <ele>331.06820678711</ele>
        <time>2017-06-04T07:47:58.000Z</time>
      </trkpt>
      <trkpt lat="48.50983" lon="7.43068">
        <ele>331.32928466797</ele>
        <time>2017-06-04T07:48:00.000Z</time>
      </trkpt>
      <trkpt lat="48.50975" lon="7.43068">
        <ele>331.59475708008</ele>
        <time>2017-06-04T07:48:03.000Z</time>
      </trkpt>
      <trkpt lat="48.50969" lon="7.43066">
        <ele>331.79595947266</ele>
        <time>2017-06-04T07:48:05.000Z</time>
      </trkpt>
      <trkpt lat="48.50964" lon="7.43066">
        <ele>332.01031494141</ele>
        <time>2017-06-04T07:48:07.000Z</time>
      </trkpt>
      <trkpt lat="48.50956" lon="7.43069">
        <ele>332.26058959961</ele>
        <time>2017-06-04T07:48:10.000Z</time>
      </trkpt>
      <trkpt lat="48.50949" lon="7.43075">
        <ele>332.56768798828</ele>
        <time>2017-06-04T07:48:13.000Z</time>
      </trkpt>
      <trkpt lat="48.50945" lon="7.43078">
        <ele>332.88873291016</ele>
        <time>2017-06-04T07:48:15.000Z</time>
      </trkpt>
      <trkpt lat="48.5094" lon="7.43082">
        <ele>333.26489257812</ele>
        <time>2017-06-04T07:48:17.000Z</time>
      </trkpt>
      <trkpt lat="48.50933" lon="7.43088">
        <ele>333.69351196289</ele>
        <time>2017-06-04T07:48:20.000Z</time>
      </trkpt>
      <trkpt lat="48.50928" lon="7.43091">
        <ele>334.08428955078</ele>
        <time>2017-06-04T07:48:22.000Z</time>
      </trkpt>
      <trkpt lat="48.50919" lon="7.43094">
        <ele>334.45156860352</ele>
        <time>2017-06-04T07:48:25.000Z</time>
      </trkpt>
      <trkpt lat="48.50914" lon="7.43097">
        <ele>334.76565551758</ele>
        <time>2017-06-04T07:48:27.000Z</time>
      </trkpt>
      <trkpt lat="48.50905" lon="7.43102">
        <ele>334.978515625</ele>
        <time>2017-06-04T07:48:30.000Z</time>
      </trkpt>
      <trkpt lat="48.50899" lon="7.43103">
        <ele>335.07806396484</ele>
        <time>2017-06-04T07:48:32.000Z</time>
      </trkpt>
      <trkpt lat="48.5089" lon="7.43102">
        <ele>335.08099365234</ele>
        <time>2017-06-04T07:48:35.000Z</time>
      </trkpt>
      <trkpt lat="48.50884" lon="7.43103">
        <ele>334.97998046875</ele>
        <time>2017-06-04T07:48:37.000Z</time>
      </trkpt>
      <trkpt lat="48.50874" lon="7.43104">
        <ele>334.82598876953</ele>
        <time>2017-06-04T07:48:40.000Z</time>
      </trkpt>
      <trkpt lat="48.50864" lon="7.43108">
        <ele>334.68902587891</ele>
        <time>2017-06-04T07:48:43.000Z</time>
      </trkpt>
      <trkpt lat="48.50858" lon="7.43111">
        <ele>334.58633422852</ele>
        <time>2017-06-04T07:48:45.000Z</time>
      </trkpt>
      <trkpt lat="48.50849" lon="7.43115">
        <ele>334.5400390625</ele>
        <time>2017-06-04T07:48:48.000Z</time>
      </trkpt>
      <trkpt lat="48.5084" lon="7.43118">
        <ele>334.52557373047</ele>
        <time>2017-06-04T07:48:51.000Z</time>
      </trkpt>
      <trkpt lat="48.50834" lon="7.4312">
        <ele>334.55282592773</ele>
        <time>2017-06-04T07:48:53.000Z</time>
      </trkpt>
      <trkpt lat="48.50827" lon="7.43122">
        <ele>334.62603759766</ele>
        <time>2017-06-04T07:48:55.000Z</time>
      </trkpt>
      <trkpt lat="48.50817" lon="7.43123">
        <ele>334.73791503906</ele>
        <time>2017-06-04T07:48:58.000Z</time>
      </trkpt>
      <trkpt lat="48.50808" lon="7.43123">
        <ele>334.86175537109</ele>
        <time>2017-06-04T07:49:01.000Z</time>
      </trkpt>
      <trkpt lat="48.50798" lon="7.43125">
        <ele>335.02526855469</ele>
        <time>2017-06-04T07:49:04.000Z</time>
      </trkpt>
      <trkpt lat="48.50792" lon="7.43126">
        <ele>335.21395874023</ele>
        <time>2017-06-04T07:49:06.000Z</time>
      </trkpt>
      <trkpt lat="48.50784" lon="7.43128">
        <ele>335.41009521484</ele>
        <time>2017-06-04T07:49:09.000Z</time>
      </trkpt>
      <trkpt lat="48.50779" lon="7.43129">
        <ele>335.60095214844</ele>
        <time>2017-06-04T07:49:11.000Z</time>
      </trkpt>
      <trkpt lat="48.50769" lon="7.43129">
        <ele>335.79840087891</ele>
        <time>2017-06-04T07:49:14.000Z</time>
      </trkpt>
      <trkpt lat="48.50763" lon="7.43128">
        <ele>335.95056152344</ele>
        <time>2017-06-04T07:49:16.000Z</time>
      </trkpt>
      <trkpt lat="48.50756" lon="7.43121">
        <ele>335.95101928711</ele>
        <time>2017-06-04T07:49:19.000Z</time>
      </trkpt>
      <trkpt lat="48.50757" lon="7.43105">
        <ele>335.59790039062</ele>
        <time>2017-06-04T07:49:22.000Z</time>
      </trkpt>
      <trkpt lat="48.50759" lon="7.43088">
        <ele>334.88647460938</ele>
        <time>2017-06-04T07:49:24.000Z</time>
      </trkpt>
      <trkpt lat="48.50761" lon="7.43069">
        <ele>333.84646606445</ele>
        <time>2017-06-04T07:49:26.000Z</time>
      </trkpt>
      <trkpt lat="48.50763" lon="7.43052">
        <ele>332.56912231445</ele>
        <time>2017-06-04T07:49:28.000Z</time>
      </trkpt>
      <trkpt lat="48.50764" lon="7.43041">
        <ele>331.26638793945</ele>
        <time>2017-06-04T07:49:30.000Z</time>
      </trkpt>
      <trkpt lat="48.50764" lon="7.43034">
        <ele>330.17245483398</ele>
        <time>2017-06-04T07:49:32.000Z</time>
      </trkpt>
      <trkpt lat="48.50764" lon="7.43026">
        <ele>329.27496337891</ele>
        <time>2017-06-04T07:49:34.000Z</time>
      </trkpt>
      <trkpt lat="48.50761" lon="7.43011">
        <ele>328.46258544922</ele>
        <time>2017-06-04T07:49:37.000Z</time>
      </trkpt>
      <trkpt lat="48.50751" lon="7.43003">
        <ele>327.75457763672</ele>
        <time>2017-06-04T07:49:39.000Z</time>
      </trkpt>
      <trkpt lat="48.50732" lon="7.42997">
        <ele>327.20394897461</ele>
        <time>2017-06-04T07:49:42.000Z</time>
      </trkpt>
      <trkpt lat="48.50721" lon="7.4299">
        <ele>326.75088500977</ele>
        <time>2017-06-04T07:49:44.000Z</time>
      </trkpt>
      <trkpt lat="48.50707" lon="7.42995">
        <ele>326.50921630859</ele>
        <time>2017-06-04T07:49:47.000Z</time>
      </trkpt>
      <trkpt lat="48.50699" lon="7.42995">
        <ele>326.51745605469</ele>
        <time>2017-06-04T07:49:49.000Z</time>
      </trkpt>
      <trkpt lat="48.50682" lon="7.42989">
        <ele>326.6549987793</ele>
        <time>2017-06-04T07:49:52.000Z</time>
      </trkpt>
      <trkpt lat="48.50669" lon="7.4299">
        <ele>326.83895874023</ele>
        <time>2017-06-04T07:49:54.000Z</time>
      </trkpt>
      <trkpt lat="48.50658" lon="7.42984">
        <ele>326.82748413086</ele>
        <time>2017-06-04T07:49:56.000Z</time>
      </trkpt>
      <trkpt lat="48.50646" lon="7.42982">
        <ele>326.53686523438</ele>
        <time>2017-06-04T07:49:59.000Z</time>
      </trkpt>
      <trkpt lat="48.50634" lon="7.42974">
        <ele>325.95336914062</ele>
        <time>2017-06-04T07:50:02.000Z</time>
      </trkpt>
      <trkpt lat="48.50624" lon="7.42973">
        <ele>325.22735595703</ele>
        <time>2017-06-04T07:50:05.000Z</time>
      </trkpt>
      <trkpt lat="48.50619" lon="7.42978">
        <ele>324.43914794922</ele>
        <time>2017-06-04T07:50:08.000Z</time>
      </trkpt>
      <trkpt lat="48.50612" lon="7.42982">
        <ele>323.80490112305</ele>
        <time>2017-06-04T07:50:11.000Z</time>
      </trkpt>
      <trkpt lat="48.506" lon="7.42982">
        <ele>323.1953125</ele>
        <time>2017-06-04T07:50:14.000Z</time>
      </trkpt>
      <trkpt lat="48.50566" lon="7.42984">
        <ele>322.25738525391</ele>
        <time>2017-06-04T07:50:18.000Z</time>
      </trkpt>
      <trkpt lat="48.50547" lon="7.42988">
        <ele>321.0632019043</ele>
        <time>2017-06-04T07:50:20.000Z</time>
      </trkpt>
      <trkpt lat="48.50529" lon="7.42992">
        <ele>319.47357177734</ele>
        <time>2017-06-04T07:50:22.000Z</time>
      </trkpt>
      <trkpt lat="48.50516" lon="7.42992">
        <ele>317.62493896484</ele>
        <time>2017-06-04T07:50:25.000Z</time>
      </trkpt>
      <trkpt lat="48.50502" lon="7.42997">
        <ele>315.62014770508</ele>
        <time>2017-06-04T07:50:28.000Z</time>
      </trkpt>
      <trkpt lat="48.50488" lon="7.43005">
        <ele>313.82049560547</ele>
        <time>2017-06-04T07:50:31.000Z</time>
      </trkpt>
      <trkpt lat="48.50477" lon="7.43011">
        <ele>312.12173461914</ele>
        <time>2017-06-04T07:50:33.000Z</time>
      </trkpt>
      <trkpt lat="48.50456" lon="7.43022">
        <ele>310.21328735352</ele>
        <time>2017-06-04T07:50:36.000Z</time>
      </trkpt>
      <trkpt lat="48.50435" lon="7.43037">
        <ele>307.98004150391</ele>
        <time>2017-06-04T07:50:39.000Z</time>
      </trkpt>
      <trkpt lat="48.50423" lon="7.43047">
        <ele>305.6828918457</ele>
        <time>2017-06-04T07:50:42.000Z</time>
      </trkpt>
      <trkpt lat="48.50415" lon="7.43042">
        <ele>303.60113525391</ele>
        <time>2017-06-04T07:50:45.000Z</time>
      </trkpt>
      <trkpt lat="48.50412" lon="7.43036">
        <ele>301.79437255859</ele>
        <time>2017-06-04T07:50:47.000Z</time>
      </trkpt>
      <trkpt lat="48.50411" lon="7.43035">
        <ele>300.58810424805</ele>
        <time>2017-06-04T07:50:50.000Z</time>
      </trkpt>
      <trkpt lat="48.50409" lon="7.43036">
        <ele>299.98141479492</ele>
        <time>2017-06-04T07:50:59.000Z</time>
      </trkpt>
      <trkpt lat="48.50407" lon="7.43029">
        <ele>299.74566650391</ele>
        <time>2017-06-04T07:51:02.000Z</time>
      </trkpt>
      <trkpt lat="48.50403" lon="7.43021">
        <ele>299.65161132812</ele>
        <time>2017-06-04T07:51:04.000Z</time>
      </trkpt>
      <trkpt lat="48.50398" lon="7.43004">
        <ele>299.56951904297</ele>
        <time>2017-06-04T07:51:07.000Z</time>
      </trkpt>
      <trkpt lat="48.50397" lon="7.42979">
        <ele>299.35116577148</ele>
        <time>2017-06-04T07:51:10.000Z</time>
      </trkpt>
      <trkpt lat="48.50397" lon="7.42961">
        <ele>299.02667236328</ele>
        <time>2017-06-04T07:51:12.000Z</time>
      </trkpt>
      <trkpt lat="48.50398" lon="7.42931">
        <ele>298.53353881836</ele>
        <time>2017-06-04T07:51:15.000Z</time>
      </trkpt>
      <trkpt lat="48.504" lon="7.4291">
        <ele>297.96411132812</ele>
        <time>2017-06-04T07:51:17.000Z</time>
      </trkpt>
      <trkpt lat="48.50403" lon="7.42875">
        <ele>297.21865844727</ele>
        <time>2017-06-04T07:51:20.000Z</time>
      </trkpt>
      <trkpt lat="48.50406" lon="7.42848">
        <ele>296.47634887695</ele>
        <time>2017-06-04T07:51:22.000Z</time>
      </trkpt>
      <trkpt lat="48.50408" lon="7.42808">
        <ele>295.56585693359</ele>
        <time>2017-06-04T07:51:25.000Z</time>
      </trkpt>
      <trkpt lat="48.50407" lon="7.4277">
        <ele>294.49328613281</ele>
        <time>2017-06-04T07:51:28.000Z</time>
      </trkpt>
      <trkpt lat="48.50404" lon="7.42747">
        <ele>293.32452392578</ele>
        <time>2017-06-04T07:51:30.000Z</time>
      </trkpt>
      <trkpt lat="48.50399" lon="7.42728">
        <ele>292.20904541016</ele>
        <time>2017-06-04T07:51:32.000Z</time>
      </trkpt>
      <trkpt lat="48.50394" lon="7.42708">
        <ele>291.11459350586</ele>
        <time>2017-06-04T07:51:34.000Z</time>
      </trkpt>
      <trkpt lat="48.50388" lon="7.42684">
        <ele>290.18789672852</ele>
        <time>2017-06-04T07:51:37.000Z</time>
      </trkpt>
      <trkpt lat="48.50384" lon="7.4267">
        <ele>289.5334777832</ele>
        <time>2017-06-04T07:51:39.000Z</time>
      </trkpt>
      <trkpt lat="48.5038" lon="7.42649">
        <ele>289.23706054688</ele>
        <time>2017-06-04T07:51:42.000Z</time>
      </trkpt>
      <trkpt lat="48.50378" lon="7.42633">
        <ele>289.22711181641</ele>
        <time>2017-06-04T07:51:44.000Z</time>
      </trkpt>
      <trkpt lat="48.50376" lon="7.42619">
        <ele>289.47717285156</ele>
        <time>2017-06-04T07:51:46.000Z</time>
      </trkpt>
      <trkpt lat="48.50376" lon="7.42608">
        <ele>289.97509765625</ele>
        <time>2017-06-04T07:51:48.000Z</time>
      </trkpt>
      <trkpt lat="48.50376" lon="7.42591">
        <ele>290.70095825195</ele>
        <time>2017-06-04T07:51:51.000Z</time>
      </trkpt>
      <trkpt lat="48.50375" lon="7.42575">
        <ele>291.46441650391</ele>
        <time>2017-06-04T07:51:54.000Z</time>
      </trkpt>
      <trkpt lat="48.50373" lon="7.42568">
        <ele>292.1953125</ele>
        <time>2017-06-04T07:51:56.000Z</time>
      </trkpt>
      <trkpt lat="48.50373" lon="7.42556">
        <ele>292.95297241211</ele>
        <time>2017-06-04T07:51:59.000Z</time>
      </trkpt>
      <trkpt lat="48.50373" lon="7.42546">
        <ele>293.74615478516</ele>
        <time>2017-06-04T07:52:02.000Z</time>
      </trkpt>
      <trkpt lat="48.50373" lon="7.4254">
        <ele>294.46881103516</ele>
        <time>2017-06-04T07:52:04.000Z</time>
      </trkpt>
      <trkpt lat="48.50373" lon="7.42533">
        <ele>295.08636474609</ele>
        <time>2017-06-04T07:52:06.000Z</time>
      </trkpt>
      <trkpt lat="48.50375" lon="7.42524">
        <ele>295.69891357422</ele>
        <time>2017-06-04T07:52:09.000Z</time>
      </trkpt>
      <trkpt lat="48.50376" lon="7.42519">
        <ele>296.20858764648</ele>
        <time>2017-06-04T07:52:11.000Z</time>
      </trkpt>
      <trkpt lat="48.50378" lon="7.42511">
        <ele>296.66897583008</ele>
        <time>2017-06-04T07:52:14.000Z</time>
      </trkpt>
      <trkpt lat="48.50379" lon="7.42502">
        <ele>297.14950561523</ele>
        <time>2017-06-04T07:52:17.000Z</time>
      </trkpt>
      <trkpt lat="48.5038" lon="7.42497">
        <ele>297.60171508789</ele>
        <time>2017-06-04T07:52:19.000Z</time>
      </trkpt>
      <trkpt lat="48.50381" lon="7.42489">
        <ele>298.02514648438</ele>
        <time>2017-06-04T07:52:22.000Z</time>
      </trkpt>
      <trkpt lat="48.50382" lon="7.42483">
        <ele>298.44955444336</ele>
        <time>2017-06-04T07:52:24.000Z</time>
      </trkpt>
      <trkpt lat="48.50383" lon="7.42476">
        <ele>298.85650634766</ele>
        <time>2017-06-04T07:52:27.000Z</time>
      </trkpt>
      <trkpt lat="48.50385" lon="7.42469">
        <ele>299.23565673828</ele>
        <time>2017-06-04T07:52:30.000Z</time>
      </trkpt>
      <trkpt lat="48.50385" lon="7.42463">
        <ele>299.61547851562</ele>
        <time>2017-06-04T07:52:32.000Z</time>
      </trkpt>
      <trkpt lat="48.50386" lon="7.42455">
        <ele>300.00521850586</ele>
        <time>2017-06-04T07:52:35.000Z</time>
      </trkpt>
      <trkpt lat="48.50387" lon="7.4245">
        <ele>300.392578125</ele>
        <time>2017-06-04T07:52:37.000Z</time>
      </trkpt>
      <trkpt lat="48.50388" lon="7.42444">
        <ele>300.77215576172</ele>
        <time>2017-06-04T07:52:39.000Z</time>
      </trkpt>
      <trkpt lat="48.50389" lon="7.42436">
        <ele>301.16802978516</ele>
        <time>2017-06-04T07:52:42.000Z</time>
      </trkpt>
      <trkpt lat="48.50391" lon="7.42426">
        <ele>301.61221313477</ele>
        <time>2017-06-04T07:52:45.000Z</time>
      </trkpt>
      <trkpt lat="48.50392" lon="7.4242">
        <ele>302.03051757812</ele>
        <time>2017-06-04T07:52:47.000Z</time>
      </trkpt>
      <trkpt lat="48.50394" lon="7.42412">
        <ele>302.52560424805</ele>
        <time>2017-06-04T07:52:50.000Z</time>
      </trkpt>
      <trkpt lat="48.50395" lon="7.42406">
        <ele>303.05902099609</ele>
        <time>2017-06-04T07:52:52.000Z</time>
      </trkpt>
      <trkpt lat="48.50396" lon="7.42397">
        <ele>303.65704345703</ele>
        <time>2017-06-04T07:52:55.000Z</time>
      </trkpt>
      <trkpt lat="48.50397" lon="7.42392">
        <ele>304.22973632812</ele>
        <time>2017-06-04T07:52:57.000Z</time>
      </trkpt>
      <trkpt lat="48.50398" lon="7.42388">
        <ele>304.80252075195</ele>
        <time>2017-06-04T07:52:59.000Z</time>
      </trkpt>
      <trkpt lat="48.50399" lon="7.42383">
        <ele>305.31777954102</ele>
        <time>2017-06-04T07:53:01.000Z</time>
      </trkpt>
      <trkpt lat="48.504" lon="7.42376">
        <ele>305.83929443359</ele>
        <time>2017-06-04T07:53:04.000Z</time>
      </trkpt>
      <trkpt lat="48.50401" lon="7.42369">
        <ele>306.32656860352</ele>
        <time>2017-06-04T07:53:07.000Z</time>
      </trkpt>
      <trkpt lat="48.50401" lon="7.42364">
        <ele>306.80694580078</ele>
        <time>2017-06-04T07:53:09.000Z</time>
      </trkpt>
      <trkpt lat="48.50402" lon="7.42357">
        <ele>307.34939575195</ele>
        <time>2017-06-04T07:53:12.000Z</time>
      </trkpt>
      <trkpt lat="48.50402" lon="7.42349">
        <ele>307.95840454102</ele>
        <time>2017-06-04T07:53:15.000Z</time>
      </trkpt>
      <trkpt lat="48.50402" lon="7.4234">
        <ele>308.62396240234</ele>
        <time>2017-06-04T07:53:18.000Z</time>
      </trkpt>
      <trkpt lat="48.50401" lon="7.42331">
        <ele>309.37451171875</ele>
        <time>2017-06-04T07:53:21.000Z</time>
      </trkpt>
      <trkpt lat="48.50401" lon="7.42323">
        <ele>310.34417724609</ele>
        <time>2017-06-04T07:53:24.000Z</time>
      </trkpt>
      <trkpt lat="48.504" lon="7.42315">
        <ele>311.45291137695</ele>
        <time>2017-06-04T07:53:27.000Z</time>
      </trkpt>
      <trkpt lat="48.50401" lon="7.42307">
        <ele>312.64688110352</ele>
        <time>2017-06-04T07:53:30.000Z</time>
      </trkpt>
      <trkpt lat="48.50406" lon="7.42301">
        <ele>313.73150634766</ele>
        <time>2017-06-04T07:53:32.000Z</time>
      </trkpt>
      <trkpt lat="48.50408" lon="7.42293">
        <ele>314.78833007812</ele>
        <time>2017-06-04T07:53:35.000Z</time>
      </trkpt>
      <trkpt lat="48.50409" lon="7.42287">
        <ele>315.74053955078</ele>
        <time>2017-06-04T07:53:38.000Z</time>
      </trkpt>
      <trkpt lat="48.50409" lon="7.42283">
        <ele>316.54974365234</ele>
        <time>2017-06-04T07:53:40.000Z</time>
      </trkpt>
      <trkpt lat="48.5041" lon="7.42276">
        <ele>317.28759765625</ele>
        <time>2017-06-04T07:53:43.000Z</time>
      </trkpt>
      <trkpt lat="48.50411" lon="7.42272">
        <ele>318.05816650391</ele>
        <time>2017-06-04T07:53:45.000Z</time>
      </trkpt>
      <trkpt lat="48.50412" lon="7.42266">
        <ele>318.79830932617</ele>
        <time>2017-06-04T07:53:48.000Z</time>
      </trkpt>
      <trkpt lat="48.50414" lon="7.42264">
        <ele>319.36630249023</ele>
        <time>2017-06-04T07:53:50.000Z</time>
      </trkpt>
      <trkpt lat="48.50415" lon="7.42261">
        <ele>319.84463500977</ele>
        <time>2017-06-04T07:53:52.000Z</time>
      </trkpt>
      <trkpt lat="48.50418" lon="7.42256">
        <ele>320.25576782227</ele>
        <time>2017-06-04T07:53:55.000Z</time>
      </trkpt>
      <trkpt lat="48.5042" lon="7.42249">
        <ele>320.75326538086</ele>
        <time>2017-06-04T07:53:58.000Z</time>
      </trkpt>
      <trkpt lat="48.50422" lon="7.42245">
        <ele>321.24200439453</ele>
        <time>2017-06-04T07:54:00.000Z</time>
      </trkpt>
      <trkpt lat="48.50425" lon="7.42239">
        <ele>321.88879394531</ele>
        <time>2017-06-04T07:54:03.000Z</time>
      </trkpt>
      <trkpt lat="48.50427" lon="7.42233">
        <ele>322.69012451172</ele>
        <time>2017-06-04T07:54:06.000Z</time>
      </trkpt>
      <trkpt lat="48.5043" lon="7.42227">
        <ele>323.60620117188</ele>
        <time>2017-06-04T07:54:09.000Z</time>
      </trkpt>
      <trkpt lat="48.50432" lon="7.42222">
        <ele>324.51147460938</ele>
        <time>2017-06-04T07:54:11.000Z</time>
      </trkpt>
      <trkpt lat="48.50435" lon="7.42216">
        <ele>325.47607421875</ele>
        <time>2017-06-04T07:54:14.000Z</time>
      </trkpt>
      <trkpt lat="48.50438" lon="7.42209">
        <ele>326.50439453125</ele>
        <time>2017-06-04T07:54:17.000Z</time>
      </trkpt>
      <trkpt lat="48.5044" lon="7.42204">
        <ele>327.49096679688</ele>
        <time>2017-06-04T07:54:19.000Z</time>
      </trkpt>
      <trkpt lat="48.50441" lon="7.422">
        <ele>328.40283203125</ele>
        <time>2017-06-04T07:54:21.000Z</time>
      </trkpt>
      <trkpt lat="48.50444" lon="7.42194">
        <ele>329.34106445312</ele>
        <time>2017-06-04T07:54:24.000Z</time>
      </trkpt>
      <trkpt lat="48.5045" lon="7.42187">
        <ele>330.27490234375</ele>
        <time>2017-06-04T07:54:27.000Z</time>
      </trkpt>
      <trkpt lat="48.50452" lon="7.42183">
        <ele>331.05493164062</ele>
        <time>2017-06-04T07:54:29.000Z</time>
      </trkpt>
      <trkpt lat="48.50455" lon="7.42182">
        <ele>331.703125</ele>
        <time>2017-06-04T07:54:31.000Z</time>
      </trkpt>
      <trkpt lat="48.50458" lon="7.42181">
        <ele>332.1865234375</ele>
        <time>2017-06-04T07:54:33.000Z</time>
      </trkpt>
      <trkpt lat="48.50461" lon="7.42177">
        <ele>332.564453125</ele>
        <time>2017-06-04T07:54:35.000Z</time>
      </trkpt>
      <trkpt lat="48.50465" lon="7.42174">
        <ele>332.79077148438</ele>
        <time>2017-06-04T07:54:38.000Z</time>
      </trkpt>
      <trkpt lat="48.50468" lon="7.42173">
        <ele>332.92041015625</ele>
        <time>2017-06-04T07:54:41.000Z</time>
      </trkpt>
      <trkpt lat="48.5047" lon="7.42172">
        <ele>332.99072265625</ele>
        <time>2017-06-04T07:54:43.000Z</time>
      </trkpt>
      <trkpt lat="48.50472" lon="7.42173">
        <ele>333.021484375</ele>
        <time>2017-06-04T07:54:45.000Z</time>
      </trkpt>
      <trkpt lat="48.50475" lon="7.42174">
        <ele>332.84130859375</ele>
        <time>2017-06-04T07:54:48.000Z</time>
      </trkpt>
      <trkpt lat="48.50478" lon="7.42174">
        <ele>332.55126953125</ele>
        <time>2017-06-04T07:54:50.000Z</time>
      </trkpt>
      <trkpt lat="48.50481" lon="7.42172">
        <ele>332.28100585938</ele>
        <time>2017-06-04T07:54:52.000Z</time>
      </trkpt>
      <trkpt lat="48.50484" lon="7.42168">
        <ele>332.14477539062</ele>
        <time>2017-06-04T07:54:55.000Z</time>
      </trkpt>
      <trkpt lat="48.50487" lon="7.42166">
        <ele>332.10736083984</ele>
        <time>2017-06-04T07:54:57.000Z</time>
      </trkpt>
      <trkpt lat="48.50491" lon="7.42164">
        <ele>332.15093994141</ele>
        <time>2017-06-04T07:55:00.000Z</time>
      </trkpt>
      <trkpt lat="48.50494" lon="7.42163">
        <ele>332.21621704102</ele>
        <time>2017-06-04T07:55:02.000Z</time>
      </trkpt>
      <trkpt lat="48.50497" lon="7.42162">
        <ele>332.21676635742</ele>
        <time>2017-06-04T07:55:04.000Z</time>
      </trkpt>
      <trkpt lat="48.50501" lon="7.42161">
        <ele>332.09332275391</ele>
        <time>2017-06-04T07:55:07.000Z</time>
      </trkpt>
      <trkpt lat="48.50504" lon="7.42159">
        <ele>331.96429443359</ele>
        <time>2017-06-04T07:55:09.000Z</time>
      </trkpt>
      <trkpt lat="48.50511" lon="7.42154">
        <ele>331.93313598633</ele>
        <time>2017-06-04T07:55:12.000Z</time>
      </trkpt>
      <trkpt lat="48.50515" lon="7.42151">
        <ele>331.99575805664</ele>
        <time>2017-06-04T07:55:14.000Z</time>
      </trkpt>
      <trkpt lat="48.50519" lon="7.42147">
        <ele>332.18511962891</ele>
        <time>2017-06-04T07:55:16.000Z</time>
      </trkpt>
      <trkpt lat="48.50523" lon="7.42143">
        <ele>332.47448730469</ele>
        <time>2017-06-04T07:55:18.000Z</time>
      </trkpt>
      <trkpt lat="48.50527" lon="7.42141">
        <ele>332.76065063477</ele>
        <time>2017-06-04T07:55:20.000Z</time>
      </trkpt>
      <trkpt lat="48.50531" lon="7.42137">
        <ele>333.07382202148</ele>
        <time>2017-06-04T07:55:23.000Z</time>
      </trkpt>
      <trkpt lat="48.50534" lon="7.4213">
        <ele>333.51681518555</ele>
        <time>2017-06-04T07:55:26.000Z</time>
      </trkpt>
      <trkpt lat="48.50537" lon="7.42124">
        <ele>334.02871704102</ele>
        <time>2017-06-04T07:55:28.000Z</time>
      </trkpt>
      <trkpt lat="48.50541" lon="7.42116">
        <ele>334.66766357422</ele>
        <time>2017-06-04T07:55:31.000Z</time>
      </trkpt>
      <trkpt lat="48.50543" lon="7.42111">
        <ele>335.41400146484</ele>
        <time>2017-06-04T07:55:33.000Z</time>
      </trkpt>
      <trkpt lat="48.50545" lon="7.42106">
        <ele>336.20614624023</ele>
        <time>2017-06-04T07:55:35.000Z</time>
      </trkpt>
      <trkpt lat="48.50549" lon="7.42096">
        <ele>337.06207275391</ele>
        <time>2017-06-04T07:55:38.000Z</time>
      </trkpt>
      <trkpt lat="48.50552" lon="7.42089">
        <ele>337.96884155273</ele>
        <time>2017-06-04T07:55:41.000Z</time>
      </trkpt>
      <trkpt lat="48.50552" lon="7.42084">
        <ele>338.81365966797</ele>
        <time>2017-06-04T07:55:43.000Z</time>
      </trkpt>
      <trkpt lat="48.50552" lon="7.42077">
        <ele>339.68524169922</ele>
        <time>2017-06-04T07:55:46.000Z</time>
      </trkpt>
      <trkpt lat="48.50554" lon="7.42072">
        <ele>340.51208496094</ele>
        <time>2017-06-04T07:55:48.000Z</time>
      </trkpt>
      <trkpt lat="48.50555" lon="7.42069">
        <ele>341.15802001953</ele>
        <time>2017-06-04T07:55:50.000Z</time>
      </trkpt>
      <trkpt lat="48.50556" lon="7.42062">
        <ele>341.74362182617</ele>
        <time>2017-06-04T07:55:53.000Z</time>
      </trkpt>
      <trkpt lat="48.50557" lon="7.42055">
        <ele>342.31796264648</ele>
        <time>2017-06-04T07:55:55.000Z</time>
      </trkpt>
      <trkpt lat="48.50557" lon="7.4205">
        <ele>342.84963989258</ele>
        <time>2017-06-04T07:55:57.000Z</time>
      </trkpt>
      <trkpt lat="48.50558" lon="7.42041">
        <ele>343.45025634766</ele>
        <time>2017-06-04T07:56:00.000Z</time>
      </trkpt>
      <trkpt lat="48.5056" lon="7.42037">
        <ele>344.07595825195</ele>
        <time>2017-06-04T07:56:02.000Z</time>
      </trkpt>
      <trkpt lat="48.50562" lon="7.42029">
        <ele>344.72415161133</ele>
        <time>2017-06-04T07:56:05.000Z</time>
      </trkpt>
      <trkpt lat="48.50562" lon="7.42022">
        <ele>345.37725830078</ele>
        <time>2017-06-04T07:56:07.000Z</time>
      </trkpt>
      <trkpt lat="48.50563" lon="7.42017">
        <ele>346.03524780273</ele>
        <time>2017-06-04T07:56:09.000Z</time>
      </trkpt>
      <trkpt lat="48.50564" lon="7.42011">
        <ele>346.64260864258</ele>
        <time>2017-06-04T07:56:11.000Z</time>
      </trkpt>
      <trkpt lat="48.50565" lon="7.42003">
        <ele>347.32690429688</ele>
        <time>2017-06-04T07:56:14.000Z</time>
      </trkpt>
      <trkpt lat="48.50566" lon="7.41994">
        <ele>348.01321411133</ele>
        <time>2017-06-04T07:56:17.000Z</time>
      </trkpt>
      <trkpt lat="48.50567" lon="7.41986">
        <ele>348.72796630859</ele>
        <time>2017-06-04T07:56:20.000Z</time>
      </trkpt>
      <trkpt lat="48.50567" lon="7.4198">
        <ele>349.43115234375</ele>
        <time>2017-06-04T07:56:22.000Z</time>
      </trkpt>
      <trkpt lat="48.50566" lon="7.4197">
        <ele>350.18829345703</ele>
        <time>2017-06-04T07:56:25.000Z</time>
      </trkpt>
      <trkpt lat="48.50567" lon="7.41961">
        <ele>350.93585205078</ele>
        <time>2017-06-04T07:56:28.000Z</time>
      </trkpt>
      <trkpt lat="48.50567" lon="7.41951">
        <ele>351.69940185547</ele>
        <time>2017-06-04T07:56:31.000Z</time>
      </trkpt>
      <trkpt lat="48.50567" lon="7.41941">
        <ele>352.49530029297</ele>
        <time>2017-06-04T07:56:34.000Z</time>
      </trkpt>
      <trkpt lat="48.50567" lon="7.4193">
        <ele>353.37939453125</ele>
        <time>2017-06-04T07:56:37.000Z</time>
      </trkpt>
      <trkpt lat="48.50568" lon="7.41922">
        <ele>354.22830200195</ele>
        <time>2017-06-04T07:56:39.000Z</time>
      </trkpt>
      <trkpt lat="48.50568" lon="7.41911">
        <ele>355.06643676758</ele>
        <time>2017-06-04T07:56:42.000Z</time>
      </trkpt>
      <trkpt lat="48.50568" lon="7.41904">
        <ele>355.79971313477</ele>
        <time>2017-06-04T07:56:44.000Z</time>
      </trkpt>
      <trkpt lat="48.5057" lon="7.41893">
        <ele>356.43524169922</ele>
        <time>2017-06-04T07:56:47.000Z</time>
      </trkpt>
      <trkpt lat="48.50572" lon="7.41886">
        <ele>356.93707275391</ele>
        <time>2017-06-04T07:56:49.000Z</time>
      </trkpt>
      <trkpt lat="48.50574" lon="7.41875">
        <ele>357.40234375</ele>
        <time>2017-06-04T07:56:52.000Z</time>
      </trkpt>
      <trkpt lat="48.50574" lon="7.41865">
        <ele>357.8115234375</ele>
        <time>2017-06-04T07:56:55.000Z</time>
      </trkpt>
      <trkpt lat="48.50576" lon="7.41859">
        <ele>358.203125</ele>
        <time>2017-06-04T07:56:57.000Z</time>
      </trkpt>
      <trkpt lat="48.50578" lon="7.4185">
        <ele>358.58056640625</ele>
        <time>2017-06-04T07:57:00.000Z</time>
      </trkpt>
      <trkpt lat="48.5058" lon="7.41845">
        <ele>358.9404296875</ele>
        <time>2017-06-04T07:57:02.000Z</time>
      </trkpt>
      <trkpt lat="48.50581" lon="7.41836">
        <ele>359.2783203125</ele>
        <time>2017-06-04T07:57:05.000Z</time>
      </trkpt>
      <trkpt lat="48.50583" lon="7.4183">
        <ele>359.56976318359</ele>
        <time>2017-06-04T07:57:07.000Z</time>
      </trkpt>
      <trkpt lat="48.50584" lon="7.41822">
        <ele>359.86468505859</ele>
        <time>2017-06-04T07:57:10.000Z</time>
      </trkpt>
      <trkpt lat="48.50586" lon="7.41814">
        <ele>360.13507080078</ele>
        <time>2017-06-04T07:57:13.000Z</time>
      </trkpt>
      <trkpt lat="48.50586" lon="7.41807">
        <ele>360.40505981445</ele>
        <time>2017-06-04T07:57:15.000Z</time>
      </trkpt>
      <trkpt lat="48.50586" lon="7.418">
        <ele>360.65435791016</ele>
        <time>2017-06-04T07:57:17.000Z</time>
      </trkpt>
      <trkpt lat="48.50588" lon="7.41791">
        <ele>360.91427612305</ele>
        <time>2017-06-04T07:57:20.000Z</time>
      </trkpt>
      <trkpt lat="48.50592" lon="7.41781">
        <ele>361.17120361328</ele>
        <time>2017-06-04T07:57:23.000Z</time>
      </trkpt>
      <trkpt lat="48.50595" lon="7.4177">
        <ele>361.44207763672</ele>
        <time>2017-06-04T07:57:26.000Z</time>
      </trkpt>
      <trkpt lat="48.50597" lon="7.41759">
        <ele>361.73455810547</ele>
        <time>2017-06-04T07:57:29.000Z</time>
      </trkpt>
      <trkpt lat="48.506" lon="7.41747">
        <ele>362.03701782227</ele>
        <time>2017-06-04T07:57:32.000Z</time>
      </trkpt>
      <trkpt lat="48.50601" lon="7.41734">
        <ele>362.32574462891</ele>
        <time>2017-06-04T07:57:35.000Z</time>
      </trkpt>
      <trkpt lat="48.50602" lon="7.4172">
        <ele>362.60781860352</ele>
        <time>2017-06-04T07:57:38.000Z</time>
      </trkpt>
      <trkpt lat="48.50602" lon="7.41714">
        <ele>362.84948730469</ele>
        <time>2017-06-04T07:57:40.000Z</time>
      </trkpt>
      <trkpt lat="48.506" lon="7.41704">
        <ele>363.07647705078</ele>
        <time>2017-06-04T07:57:43.000Z</time>
      </trkpt>
      <trkpt lat="48.50596" lon="7.41693">
        <ele>363.31323242188</ele>
        <time>2017-06-04T07:57:46.000Z</time>
      </trkpt>
      <trkpt lat="48.50595" lon="7.41685">
        <ele>363.55212402344</ele>
        <time>2017-06-04T07:57:48.000Z</time>
      </trkpt>
      <trkpt lat="48.50594" lon="7.41673">
        <ele>363.80142211914</ele>
        <time>2017-06-04T07:57:51.000Z</time>
      </trkpt>
      <trkpt lat="48.50592" lon="7.41661">
        <ele>364.07046508789</ele>
        <time>2017-06-04T07:57:54.000Z</time>
      </trkpt>
      <trkpt lat="48.5059" lon="7.41653">
        <ele>364.31024169922</ele>
        <time>2017-06-04T07:57:56.000Z</time>
      </trkpt>
      <trkpt lat="48.50586" lon="7.41642">
        <ele>364.51440429688</ele>
        <time>2017-06-04T07:57:59.000Z</time>
      </trkpt>
      <trkpt lat="48.50584" lon="7.41633">
        <ele>364.69549560547</ele>
        <time>2017-06-04T07:58:01.000Z</time>
      </trkpt>
      <trkpt lat="48.50581" lon="7.4162">
        <ele>364.82708740234</ele>
        <time>2017-06-04T07:58:04.000Z</time>
      </trkpt>
      <trkpt lat="48.5058" lon="7.4161">
        <ele>364.91497802734</ele>
        <time>2017-06-04T07:58:06.000Z</time>
      </trkpt>
      <trkpt lat="48.50578" lon="7.41597">
        <ele>364.98754882812</ele>
        <time>2017-06-04T07:58:09.000Z</time>
      </trkpt>
      <trkpt lat="48.50574" lon="7.41583">
        <ele>365.03634643555</ele>
        <time>2017-06-04T07:58:12.000Z</time>
      </trkpt>
      <trkpt lat="48.50573" lon="7.41571">
        <ele>365.0065612793</ele>
        <time>2017-06-04T07:58:15.000Z</time>
      </trkpt>
      <trkpt lat="48.50572" lon="7.41562">
        <ele>364.93170166016</ele>
        <time>2017-06-04T07:58:17.000Z</time>
      </trkpt>
      <trkpt lat="48.50568" lon="7.41554">
        <ele>364.8229675293</ele>
        <time>2017-06-04T07:58:19.000Z</time>
      </trkpt>
      <trkpt lat="48.50565" lon="7.41545">
        <ele>364.67102050781</ele>
        <time>2017-06-04T07:58:22.000Z</time>
      </trkpt>
      <trkpt lat="48.50562" lon="7.41532">
        <ele>364.45385742188</ele>
        <time>2017-06-04T07:58:25.000Z</time>
      </trkpt>
      <trkpt lat="48.50559" lon="7.41523">
        <ele>364.25634765625</ele>
        <time>2017-06-04T07:58:27.000Z</time>
      </trkpt>
      <trkpt lat="48.50555" lon="7.41507">
        <ele>364.0322265625</ele>
        <time>2017-06-04T07:58:30.000Z</time>
      </trkpt>
      <trkpt lat="48.50552" lon="7.41496">
        <ele>363.78759765625</ele>
        <time>2017-06-04T07:58:32.000Z</time>
      </trkpt>
      <trkpt lat="48.50549" lon="7.41485">
        <ele>363.5185546875</ele>
        <time>2017-06-04T07:58:34.000Z</time>
      </trkpt>
      <trkpt lat="48.50543" lon="7.41469">
        <ele>363.22094726562</ele>
        <time>2017-06-04T07:58:37.000Z</time>
      </trkpt>
      <trkpt lat="48.50538" lon="7.41455">
        <ele>362.89898681641</ele>
        <time>2017-06-04T07:58:39.000Z</time>
      </trkpt>
      <trkpt lat="48.50531" lon="7.41435">
        <ele>362.55377197266</ele>
        <time>2017-06-04T07:58:42.000Z</time>
      </trkpt>
      <trkpt lat="48.50525" lon="7.41423">
        <ele>362.21575927734</ele>
        <time>2017-06-04T07:58:44.000Z</time>
      </trkpt>
      <trkpt lat="48.50518" lon="7.41408">
        <ele>361.87640380859</ele>
        <time>2017-06-04T07:58:47.000Z</time>
      </trkpt>
      <trkpt lat="48.50508" lon="7.4138">
        <ele>361.4743347168</ele>
        <time>2017-06-04T07:58:50.000Z</time>
      </trkpt>
      <trkpt lat="48.50499" lon="7.41349">
        <ele>360.94818115234</ele>
        <time>2017-06-04T07:58:53.000Z</time>
      </trkpt>
      <trkpt lat="48.50492" lon="7.41325">
        <ele>360.24652099609</ele>
        <time>2017-06-04T07:58:55.000Z</time>
      </trkpt>
      <trkpt lat="48.50484" lon="7.41296">
        <ele>359.09341430664</ele>
        <time>2017-06-04T07:58:58.000Z</time>
      </trkpt>
      <trkpt lat="48.50477" lon="7.41276">
        <ele>357.67755126953</ele>
        <time>2017-06-04T07:59:00.000Z</time>
      </trkpt>
      <trkpt lat="48.50469" lon="7.41259">
        <ele>356.14868164062</ele>
        <time>2017-06-04T07:59:02.000Z</time>
      </trkpt>
      <trkpt lat="48.50463" lon="7.4124">
        <ele>354.4775390625</ele>
        <time>2017-06-04T07:59:04.000Z</time>
      </trkpt>
      <trkpt lat="48.50457" lon="7.41222">
        <ele>352.72875976562</ele>
        <time>2017-06-04T07:59:07.000Z</time>
      </trkpt>
      <trkpt lat="48.50451" lon="7.41213">
        <ele>351.31484985352</ele>
        <time>2017-06-04T07:59:09.000Z</time>
      </trkpt>
      <trkpt lat="48.50433" lon="7.41204">
        <ele>350.10638427734</ele>
        <time>2017-06-04T07:59:12.000Z</time>
      </trkpt>
      <trkpt lat="48.50424" lon="7.41197">
        <ele>349.02658081055</ele>
        <time>2017-06-04T07:59:14.000Z</time>
      </trkpt>
      <trkpt lat="48.50418" lon="7.4119">
        <ele>348.14526367188</ele>
        <time>2017-06-04T07:59:16.000Z</time>
      </trkpt>
      <trkpt lat="48.50404" lon="7.41179">
        <ele>347.56079101562</ele>
        <time>2017-06-04T07:59:19.000Z</time>
      </trkpt>
      <trkpt lat="48.50395" lon="7.41172">
        <ele>347.15191650391</ele>
        <time>2017-06-04T07:59:21.000Z</time>
      </trkpt>
      <trkpt lat="48.5039" lon="7.41165">
        <ele>346.79888916016</ele>
        <time>2017-06-04T07:59:23.000Z</time>
      </trkpt>
      <trkpt lat="48.50384" lon="7.41157">
        <ele>346.45788574219</ele>
        <time>2017-06-04T07:59:25.000Z</time>
      </trkpt>
      <trkpt lat="48.50372" lon="7.41143">
        <ele>346.17352294922</ele>
        <time>2017-06-04T07:59:28.000Z</time>
      </trkpt>
      <trkpt lat="48.50362" lon="7.41129">
        <ele>345.87100219727</ele>
        <time>2017-06-04T07:59:31.000Z</time>
      </trkpt>
      <trkpt lat="48.50348" lon="7.41113">
        <ele>345.66638183594</ele>
        <time>2017-06-04T07:59:34.000Z</time>
      </trkpt>
      <trkpt lat="48.50342" lon="7.411">
        <ele>345.52096557617</ele>
        <time>2017-06-04T07:59:37.000Z</time>
      </trkpt>
      <trkpt lat="48.50335" lon="7.41085">
        <ele>345.51675415039</ele>
        <time>2017-06-04T07:59:40.000Z</time>
      </trkpt>
      <trkpt lat="48.50331" lon="7.41073">
        <ele>345.67260742188</ele>
        <time>2017-06-04T07:59:43.000Z</time>
      </trkpt>
      <trkpt lat="48.50328" lon="7.41065">
        <ele>345.94909667969</ele>
        <time>2017-06-04T07:59:45.000Z</time>
      </trkpt>
      <trkpt lat="48.5033" lon="7.41048">
        <ele>345.97378540039</ele>
        <time>2017-06-04T07:59:48.000Z</time>
      </trkpt>
      <trkpt lat="48.50336" lon="7.41028">
        <ele>345.65966796875</ele>
        <time>2017-06-04T07:59:51.000Z</time>
      </trkpt>
      <trkpt lat="48.50341" lon="7.41012">
        <ele>345.00454711914</ele>
        <time>2017-06-04T07:59:53.000Z</time>
      </trkpt>
      <trkpt lat="48.50348" lon="7.40986">
        <ele>343.95318603516</ele>
        <time>2017-06-04T07:59:56.000Z</time>
      </trkpt>
      <trkpt lat="48.50349" lon="7.40962">
        <ele>342.81454467773</ele>
        <time>2017-06-04T07:59:59.000Z</time>
      </trkpt>
      <trkpt lat="48.50348" lon="7.40944">
        <ele>341.89785766602</ele>
        <time>2017-06-04T08:00:02.000Z</time>
      </trkpt>
      <trkpt lat="48.50348" lon="7.40933">
        <ele>341.39489746094</ele>
        <time>2017-06-04T08:00:04.000Z</time>
      </trkpt>
      <trkpt lat="48.50346" lon="7.40919">
        <ele>341.31747436523</ele>
        <time>2017-06-04T08:00:07.000Z</time>
      </trkpt>
      <trkpt lat="48.50346" lon="7.40908">
        <ele>341.46450805664</ele>
        <time>2017-06-04T08:00:09.000Z</time>
      </trkpt>
      <trkpt lat="48.50345" lon="7.40895">
        <ele>341.45620727539</ele>
        <time>2017-06-04T08:00:11.000Z</time>
      </trkpt>
      <trkpt lat="48.50344" lon="7.40884">
        <ele>341.26528930664</ele>
        <time>2017-06-04T08:00:13.000Z</time>
      </trkpt>
      <trkpt lat="48.50342" lon="7.40873">
        <ele>340.91717529297</ele>
        <time>2017-06-04T08:00:15.000Z</time>
      </trkpt>
      <trkpt lat="48.50339" lon="7.40853">
        <ele>340.3239440918</ele>
        <time>2017-06-04T08:00:18.000Z</time>
      </trkpt>
      <trkpt lat="48.50334" lon="7.4084">
        <ele>339.89273071289</ele>
        <time>2017-06-04T08:00:20.000Z</time>
      </trkpt>
      <trkpt lat="48.50327" lon="7.40824">
        <ele>339.64346313477</ele>
        <time>2017-06-04T08:00:23.000Z</time>
      </trkpt>
      <trkpt lat="48.50326" lon="7.40815">
        <ele>339.43746948242</ele>
        <time>2017-06-04T08:00:25.000Z</time>
      </trkpt>
      <trkpt lat="48.50324" lon="7.40801">
        <ele>339.23785400391</ele>
        <time>2017-06-04T08:00:28.000Z</time>
      </trkpt>
      <trkpt lat="48.5032" lon="7.40784">
        <ele>339.15600585938</ele>
        <time>2017-06-04T08:00:31.000Z</time>
      </trkpt>
      <trkpt lat="48.50315" lon="7.40765">
        <ele>339.00946044922</ele>
        <time>2017-06-04T08:00:34.000Z</time>
      </trkpt>
      <trkpt lat="48.50312" lon="7.40754">
        <ele>338.85278320312</ele>
        <time>2017-06-04T08:00:36.000Z</time>
      </trkpt>
      <trkpt lat="48.50309" lon="7.40741">
        <ele>338.71450805664</ele>
        <time>2017-06-04T08:00:38.000Z</time>
      </trkpt>
      <trkpt lat="48.50303" lon="7.40721">
        <ele>338.61782836914</ele>
        <time>2017-06-04T08:00:41.000Z</time>
      </trkpt>
      <trkpt lat="48.50296" lon="7.40699">
        <ele>338.53915405273</ele>
        <time>2017-06-04T08:00:44.000Z</time>
      </trkpt>
      <trkpt lat="48.50292" lon="7.40686">
        <ele>338.49102783203</ele>
        <time>2017-06-04T08:00:46.000Z</time>
      </trkpt>
      <trkpt lat="48.50284" lon="7.40665">
        <ele>338.56951904297</ele>
        <time>2017-06-04T08:00:49.000Z</time>
      </trkpt>
      <trkpt lat="48.50278" lon="7.40653">
        <ele>338.76724243164</ele>
        <time>2017-06-04T08:00:51.000Z</time>
      </trkpt>
      <trkpt lat="48.50272" lon="7.40641">
        <ele>339.072265625</ele>
        <time>2017-06-04T08:00:53.000Z</time>
      </trkpt>
      <trkpt lat="48.50261" lon="7.40621">
        <ele>339.4990234375</ele>
        <time>2017-06-04T08:00:56.000Z</time>
      </trkpt>
      <trkpt lat="48.50256" lon="7.40608">
        <ele>339.85699462891</ele>
        <time>2017-06-04T08:00:58.000Z</time>
      </trkpt>
      <trkpt lat="48.50246" lon="7.40592">
        <ele>340.04736328125</ele>
        <time>2017-06-04T08:01:01.000Z</time>
      </trkpt>
      <trkpt lat="48.50238" lon="7.40584">
        <ele>340.10498046875</ele>
        <time>2017-06-04T08:01:03.000Z</time>
      </trkpt>
      <trkpt lat="48.5023" lon="7.40575">
        <ele>339.98291015625</ele>
        <time>2017-06-04T08:01:06.000Z</time>
      </trkpt>
      <trkpt lat="48.50222" lon="7.40562">
        <ele>339.56576538086</ele>
        <time>2017-06-04T08:01:09.000Z</time>
      </trkpt>
      <trkpt lat="48.50208" lon="7.40546">
        <ele>339.10083007812</ele>
        <time>2017-06-04T08:01:12.000Z</time>
      </trkpt>
      <trkpt lat="48.50195" lon="7.40538">
        <ele>338.74160766602</ele>
        <time>2017-06-04T08:01:14.000Z</time>
      </trkpt>
      <trkpt lat="48.50187" lon="7.40535">
        <ele>338.53353881836</ele>
        <time>2017-06-04T08:01:16.000Z</time>
      </trkpt>
      <trkpt lat="48.50173" lon="7.40537">
        <ele>338.70123291016</ele>
        <time>2017-06-04T08:01:19.000Z</time>
      </trkpt>
      <trkpt lat="48.50163" lon="7.4054">
        <ele>339.21441650391</ele>
        <time>2017-06-04T08:01:21.000Z</time>
      </trkpt>
      <trkpt lat="48.50147" lon="7.40543">
        <ele>339.90798950195</ele>
        <time>2017-06-04T08:01:24.000Z</time>
      </trkpt>
      <trkpt lat="48.50129" lon="7.40545">
        <ele>340.64495849609</ele>
        <time>2017-06-04T08:01:27.000Z</time>
      </trkpt>
      <trkpt lat="48.50111" lon="7.40548">
        <ele>341.38671875</ele>
        <time>2017-06-04T08:01:30.000Z</time>
      </trkpt>
      <trkpt lat="48.50093" lon="7.40547">
        <ele>341.91854858398</ele>
        <time>2017-06-04T08:01:33.000Z</time>
      </trkpt>
      <trkpt lat="48.50079" lon="7.40541">
        <ele>342.28726196289</ele>
        <time>2017-06-04T08:01:36.000Z</time>
      </trkpt>
      <trkpt lat="48.50071" lon="7.40535">
        <ele>342.57510375977</ele>
        <time>2017-06-04T08:01:38.000Z</time>
      </trkpt>
      <trkpt lat="48.50058" lon="7.40519">
        <ele>342.77505493164</ele>
        <time>2017-06-04T08:01:41.000Z</time>
      </trkpt>
      <trkpt lat="48.50048" lon="7.40511">
        <ele>342.96405029297</ele>
        <time>2017-06-04T08:01:43.000Z</time>
      </trkpt>
      <trkpt lat="48.50038" lon="7.40503">
        <ele>343.22152709961</ele>
        <time>2017-06-04T08:01:46.000Z</time>
      </trkpt>
      <trkpt lat="48.5003" lon="7.40497">
        <ele>343.58471679688</ele>
        <time>2017-06-04T08:01:48.000Z</time>
      </trkpt>
      <trkpt lat="48.50021" lon="7.40489">
        <ele>344.04034423828</ele>
        <time>2017-06-04T08:01:50.000Z</time>
      </trkpt>
      <trkpt lat="48.50014" lon="7.40471">
        <ele>344.48052978516</ele>
        <time>2017-06-04T08:01:53.000Z</time>
      </trkpt>
      <trkpt lat="48.50011" lon="7.40458">
        <ele>344.79986572266</ele>
        <time>2017-06-04T08:01:55.000Z</time>
      </trkpt>
      <trkpt lat="48.50004" lon="7.4044">
        <ele>345.03802490234</ele>
        <time>2017-06-04T08:01:58.000Z</time>
      </trkpt>
      <trkpt lat="48.5" lon="7.40426">
        <ele>345.17227172852</ele>
        <time>2017-06-04T08:02:00.000Z</time>
      </trkpt>
      <trkpt lat="48.49997" lon="7.40404">
        <ele>344.83325195312</ele>
        <time>2017-06-04T08:02:03.000Z</time>
      </trkpt>
      <trkpt lat="48.49993" lon="7.40391">
        <ele>344.19317626953</ele>
        <time>2017-06-04T08:02:05.000Z</time>
      </trkpt>
      <trkpt lat="48.49987" lon="7.4038">
        <ele>343.36898803711</ele>
        <time>2017-06-04T08:02:07.000Z</time>
      </trkpt>
      <trkpt lat="48.49978" lon="7.40365">
        <ele>342.31072998047</ele>
        <time>2017-06-04T08:02:10.000Z</time>
      </trkpt>
      <trkpt lat="48.49965" lon="7.40349">
        <ele>341.16204833984</ele>
        <time>2017-06-04T08:02:13.000Z</time>
      </trkpt>
      <trkpt lat="48.49955" lon="7.40341">
        <ele>340.43115234375</ele>
        <time>2017-06-04T08:02:15.000Z</time>
      </trkpt>
      <trkpt lat="48.49939" lon="7.40329">
        <ele>340.13180541992</ele>
        <time>2017-06-04T08:02:18.000Z</time>
      </trkpt>
      <trkpt lat="48.49923" lon="7.40318">
        <ele>340.12158203125</ele>
        <time>2017-06-04T08:02:21.000Z</time>
      </trkpt>
      <trkpt lat="48.49912" lon="7.40311">
        <ele>340.28842163086</ele>
        <time>2017-06-04T08:02:23.000Z</time>
      </trkpt>
      <trkpt lat="48.49897" lon="7.40301">
        <ele>340.37646484375</ele>
        <time>2017-06-04T08:02:26.000Z</time>
      </trkpt>
      <trkpt lat="48.49889" lon="7.40295">
        <ele>340.32098388672</ele>
        <time>2017-06-04T08:02:28.000Z</time>
      </trkpt>
      <trkpt lat="48.49876" lon="7.40292">
        <ele>340.18133544922</ele>
        <time>2017-06-04T08:02:31.000Z</time>
      </trkpt>
      <trkpt lat="48.49866" lon="7.4029">
        <ele>339.99209594727</ele>
        <time>2017-06-04T08:02:34.000Z</time>
      </trkpt>
      <trkpt lat="48.49856" lon="7.40284">
        <ele>339.76019287109</ele>
        <time>2017-06-04T08:02:37.000Z</time>
      </trkpt>
      <trkpt lat="48.49844" lon="7.40278">
        <ele>339.65267944336</ele>
        <time>2017-06-04T08:02:40.000Z</time>
      </trkpt>
      <trkpt lat="48.49837" lon="7.40276">
        <ele>339.64965820312</ele>
        <time>2017-06-04T08:02:42.000Z</time>
      </trkpt>
      <trkpt lat="48.49826" lon="7.40275">
        <ele>339.69784545898</ele>
        <time>2017-06-04T08:02:45.000Z</time>
      </trkpt>
      <trkpt lat="48.49818" lon="7.40274">
        <ele>339.7880859375</ele>
        <time>2017-06-04T08:02:48.000Z</time>
      </trkpt>
      <trkpt lat="48.49815" lon="7.40276">
        <ele>340.03958129883</ele>
        <time>2017-06-04T08:02:51.000Z</time>
      </trkpt>
      <trkpt lat="48.49812" lon="7.40279">
        <ele>340.42495727539</ele>
        <time>2017-06-04T08:02:54.000Z</time>
      </trkpt>
      <trkpt lat="48.49812" lon="7.4028">
        <ele>340.8212890625</ele>
        <time>2017-06-04T08:02:56.000Z</time>
      </trkpt>
      <trkpt lat="48.4981" lon="7.40279">
        <ele>341.14840698242</ele>
        <time>2017-06-04T08:02:58.000Z</time>
      </trkpt>
      <trkpt lat="48.49807" lon="7.40279">
        <ele>341.41412353516</ele>
        <time>2017-06-04T08:03:01.000Z</time>
      </trkpt>
      <trkpt lat="48.49804" lon="7.40278">
        <ele>341.6064453125</ele>
        <time>2017-06-04T08:03:03.000Z</time>
      </trkpt>
      <trkpt lat="48.49801" lon="7.40277">
        <ele>341.70004272461</ele>
        <time>2017-06-04T08:03:06.000Z</time>
      </trkpt>
      <trkpt lat="48.49798" lon="7.40277">
        <ele>341.80377197266</ele>
        <time>2017-06-04T08:03:09.000Z</time>
      </trkpt>
      <trkpt lat="48.49792" lon="7.40277">
        <ele>341.95294189453</ele>
        <time>2017-06-04T08:03:12.000Z</time>
      </trkpt>
      <trkpt lat="48.49786" lon="7.40278">
        <ele>342.19790649414</ele>
        <time>2017-06-04T08:03:15.000Z</time>
      </trkpt>
      <trkpt lat="48.49781" lon="7.40279">
        <ele>342.47467041016</ele>
        <time>2017-06-04T08:03:17.000Z</time>
      </trkpt>
      <trkpt lat="48.49777" lon="7.40283">
        <ele>342.87857055664</ele>
        <time>2017-06-04T08:03:20.000Z</time>
      </trkpt>
      <trkpt lat="48.49773" lon="7.40286">
        <ele>343.35382080078</ele>
        <time>2017-06-04T08:03:22.000Z</time>
      </trkpt>
      <trkpt lat="48.49768" lon="7.40289">
        <ele>343.8642578125</ele>
        <time>2017-06-04T08:03:25.000Z</time>
      </trkpt>
      <trkpt lat="48.49762" lon="7.40293">
        <ele>344.38323974609</ele>
        <time>2017-06-04T08:03:28.000Z</time>
      </trkpt>
      <trkpt lat="48.49756" lon="7.40296">
        <ele>344.94540405273</ele>
        <time>2017-06-04T08:03:31.000Z</time>
      </trkpt>
      <trkpt lat="48.49751" lon="7.403">
        <ele>345.48910522461</ele>
        <time>2017-06-04T08:03:34.000Z</time>
      </trkpt>
      <trkpt lat="48.49747" lon="7.40306">
        <ele>345.97760009766</ele>
        <time>2017-06-04T08:03:37.000Z</time>
      </trkpt>
      <trkpt lat="48.49745" lon="7.40308">
        <ele>346.36074829102</ele>
        <time>2017-06-04T08:03:39.000Z</time>
      </trkpt>
      <trkpt lat="48.4974" lon="7.40309">
        <ele>346.57843017578</ele>
        <time>2017-06-04T08:03:42.000Z</time>
      </trkpt>
      <trkpt lat="48.49735" lon="7.40312">
        <ele>346.66275024414</ele>
        <time>2017-06-04T08:03:44.000Z</time>
      </trkpt>
      <trkpt lat="48.49727" lon="7.40315">
        <ele>346.58584594727</ele>
        <time>2017-06-04T08:03:47.000Z</time>
      </trkpt>
      <trkpt lat="48.49723" lon="7.40317">
        <ele>346.40615844727</ele>
        <time>2017-06-04T08:03:49.000Z</time>
      </trkpt>
      <trkpt lat="48.49716" lon="7.40321">
        <ele>346.19390869141</ele>
        <time>2017-06-04T08:03:52.000Z</time>
      </trkpt>
      <trkpt lat="48.49712" lon="7.40329">
        <ele>346.06982421875</ele>
        <time>2017-06-04T08:03:55.000Z</time>
      </trkpt>
      <trkpt lat="48.49709" lon="7.40333">
        <ele>345.99685668945</ele>
        <time>2017-06-04T08:03:57.000Z</time>
      </trkpt>
      <trkpt lat="48.49706" lon="7.40336">
        <ele>345.94732666016</ele>
        <time>2017-06-04T08:03:59.000Z</time>
      </trkpt>
      <trkpt lat="48.49699" lon="7.40343">
        <ele>345.89157104492</ele>
        <time>2017-06-04T08:04:02.000Z</time>
      </trkpt>
      <trkpt lat="48.49693" lon="7.40355">
        <ele>345.86306762695</ele>
        <time>2017-06-04T08:04:05.000Z</time>
      </trkpt>
      <trkpt lat="48.49688" lon="7.40366">
        <ele>345.80075073242</ele>
        <time>2017-06-04T08:04:07.000Z</time>
      </trkpt>
      <trkpt lat="48.49683" lon="7.40387">
        <ele>345.80334472656</ele>
        <time>2017-06-04T08:04:10.000Z</time>
      </trkpt>
      <trkpt lat="48.49673" lon="7.40403">
        <ele>345.82238769531</ele>
        <time>2017-06-04T08:04:13.000Z</time>
      </trkpt>
      <trkpt lat="48.49667" lon="7.40409">
        <ele>345.83703613281</ele>
        <time>2017-06-04T08:04:16.000Z</time>
      </trkpt>
      <trkpt lat="48.49661" lon="7.40415">
        <ele>345.71099853516</ele>
        <time>2017-06-04T08:04:18.000Z</time>
      </trkpt>
      <trkpt lat="48.49656" lon="7.40422">
        <ele>345.44366455078</ele>
        <time>2017-06-04T08:04:20.000Z</time>
      </trkpt>
      <trkpt lat="48.49647" lon="7.4044">
        <ele>344.99981689453</ele>
        <time>2017-06-04T08:04:23.000Z</time>
      </trkpt>
      <trkpt lat="48.49642" lon="7.40453">
        <ele>344.56085205078</ele>
        <time>2017-06-04T08:04:25.000Z</time>
      </trkpt>
      <trkpt lat="48.49635" lon="7.4047">
        <ele>344.16830444336</ele>
        <time>2017-06-04T08:04:28.000Z</time>
      </trkpt>
      <trkpt lat="48.4963" lon="7.40488">
        <ele>343.96978759766</ele>
        <time>2017-06-04T08:04:31.000Z</time>
      </trkpt>
      <trkpt lat="48.49627" lon="7.40497">
        <ele>343.92535400391</ele>
        <time>2017-06-04T08:04:33.000Z</time>
      </trkpt>
      <trkpt lat="48.49624" lon="7.40508">
        <ele>344.04336547852</ele>
        <time>2017-06-04T08:04:35.000Z</time>
      </trkpt>
      <trkpt lat="48.4962" lon="7.40527">
        <ele>344.2568359375</ele>
        <time>2017-06-04T08:04:38.000Z</time>
      </trkpt>
      <trkpt lat="48.49618" lon="7.40536">
        <ele>344.54611206055</ele>
        <time>2017-06-04T08:04:40.000Z</time>
      </trkpt>
      <trkpt lat="48.49615" lon="7.40547">
        <ele>344.83428955078</ele>
        <time>2017-06-04T08:04:42.000Z</time>
      </trkpt>
      <trkpt lat="48.49611" lon="7.40559">
        <ele>345.14437866211</ele>
        <time>2017-06-04T08:04:44.000Z</time>
      </trkpt>
      <trkpt lat="48.49604" lon="7.40577">
        <ele>345.41345214844</ele>
        <time>2017-06-04T08:04:47.000Z</time>
      </trkpt>
      <trkpt lat="48.49593" lon="7.40594">
        <ele>345.55679321289</ele>
        <time>2017-06-04T08:04:50.000Z</time>
      </trkpt>
      <trkpt lat="48.49583" lon="7.40601">
        <ele>345.49530029297</ele>
        <time>2017-06-04T08:04:52.000Z</time>
      </trkpt>
      <trkpt lat="48.49567" lon="7.40599">
        <ele>345.62646484375</ele>
        <time>2017-06-04T08:04:55.000Z</time>
      </trkpt>
      <trkpt lat="48.49558" lon="7.40592">
        <ele>345.73828125</ele>
        <time>2017-06-04T08:04:57.000Z</time>
      </trkpt>
      <trkpt lat="48.49551" lon="7.40581">
        <ele>345.74990844727</ele>
        <time>2017-06-04T08:04:59.000Z</time>
      </trkpt>
      <trkpt lat="48.49546" lon="7.40571">
        <ele>345.71478271484</ele>
        <time>2017-06-04T08:05:01.000Z</time>
      </trkpt>
      <trkpt lat="48.4954" lon="7.40562">
        <ele>345.72485351562</ele>
        <time>2017-06-04T08:05:03.000Z</time>
      </trkpt>
      <trkpt lat="48.49531" lon="7.40549">
        <ele>345.35794067383</ele>
        <time>2017-06-04T08:05:06.000Z</time>
      </trkpt>
      <trkpt lat="48.49524" lon="7.40542">
        <ele>344.90502929688</ele>
        <time>2017-06-04T08:05:08.000Z</time>
      </trkpt>
      <trkpt lat="48.49516" lon="7.40534">
        <ele>344.4462890625</ele>
        <time>2017-06-04T08:05:10.000Z</time>
      </trkpt>
      <trkpt lat="48.49504" lon="7.40521">
        <ele>343.85873413086</ele>
        <time>2017-06-04T08:05:13.000Z</time>
      </trkpt>
      <trkpt lat="48.49497" lon="7.40504">
        <ele>343.08840942383</ele>
        <time>2017-06-04T08:05:16.000Z</time>
      </trkpt>
      <trkpt lat="48.4949" lon="7.40487">
        <ele>342.27362060547</ele>
        <time>2017-06-04T08:05:19.000Z</time>
      </trkpt>
      <trkpt lat="48.49485" lon="7.40476">
        <ele>341.45455932617</ele>
        <time>2017-06-04T08:05:21.000Z</time>
      </trkpt>
      <trkpt lat="48.49477" lon="7.40459">
        <ele>340.63208007812</ele>
        <time>2017-06-04T08:05:24.000Z</time>
      </trkpt>
      <trkpt lat="48.4947" lon="7.40448">
        <ele>340.00570678711</ele>
        <time>2017-06-04T08:05:26.000Z</time>
      </trkpt>
      <trkpt lat="48.49461" lon="7.40432">
        <ele>339.65087890625</ele>
        <time>2017-06-04T08:05:29.000Z</time>
      </trkpt>
      <trkpt lat="48.49451" lon="7.40416">
        <ele>339.46432495117</ele>
        <time>2017-06-04T08:05:32.000Z</time>
      </trkpt>
      <trkpt lat="48.49445" lon="7.40405">
        <ele>339.44262695312</ele>
        <time>2017-06-04T08:05:34.000Z</time>
      </trkpt>
      <trkpt lat="48.4944" lon="7.40394">
        <ele>339.54638671875</ele>
        <time>2017-06-04T08:05:36.000Z</time>
      </trkpt>
      <trkpt lat="48.49431" lon="7.40377">
        <ele>339.73135375977</ele>
        <time>2017-06-04T08:05:39.000Z</time>
      </trkpt>
      <trkpt lat="48.49426" lon="7.40365">
        <ele>339.91848754883</ele>
        <time>2017-06-04T08:05:41.000Z</time>
      </trkpt>
      <trkpt lat="48.49418" lon="7.40347">
        <ele>340.05938720703</ele>
        <time>2017-06-04T08:05:44.000Z</time>
      </trkpt>
      <trkpt lat="48.49413" lon="7.40336">
        <ele>340.11148071289</ele>
        <time>2017-06-04T08:05:46.000Z</time>
      </trkpt>
      <trkpt lat="48.49405" lon="7.40319">
        <ele>340.09155273438</ele>
        <time>2017-06-04T08:05:49.000Z</time>
      </trkpt>
      <trkpt lat="48.494" lon="7.40308">
        <ele>340.00549316406</ele>
        <time>2017-06-04T08:05:51.000Z</time>
      </trkpt>
      <trkpt lat="48.49394" lon="7.40297">
        <ele>339.88403320312</ele>
        <time>2017-06-04T08:05:53.000Z</time>
      </trkpt>
      <trkpt lat="48.49385" lon="7.40282">
        <ele>339.80102539062</ele>
        <time>2017-06-04T08:05:56.000Z</time>
      </trkpt>
      <trkpt lat="48.49379" lon="7.40273">
        <ele>339.72393798828</ele>
        <time>2017-06-04T08:05:58.000Z</time>
      </trkpt>
      <trkpt lat="48.49371" lon="7.40266">
        <ele>339.71502685547</ele>
        <time>2017-06-04T08:06:00.000Z</time>
      </trkpt>
      <trkpt lat="48.49361" lon="7.40257">
        <ele>339.77020263672</ele>
        <time>2017-06-04T08:06:03.000Z</time>
      </trkpt>
      <trkpt lat="48.49355" lon="7.40251">
        <ele>339.90069580078</ele>
        <time>2017-06-04T08:06:05.000Z</time>
      </trkpt>
      <trkpt lat="48.49349" lon="7.40246">
        <ele>340.09378051758</ele>
        <time>2017-06-04T08:06:07.000Z</time>
      </trkpt>
      <trkpt lat="48.49345" lon="7.40238">
        <ele>340.25625610352</ele>
        <time>2017-06-04T08:06:09.000Z</time>
      </trkpt>
      <trkpt lat="48.49346" lon="7.40222">
        <ele>340.03750610352</ele>
        <time>2017-06-04T08:06:11.000Z</time>
      </trkpt>
      <trkpt lat="48.49344" lon="7.40205">
        <ele>339.48867797852</ele>
        <time>2017-06-04T08:06:13.000Z</time>
      </trkpt>
      <trkpt lat="48.4934" lon="7.40178">
        <ele>338.48336791992</ele>
        <time>2017-06-04T08:06:16.000Z</time>
      </trkpt>
      <trkpt lat="48.49337" lon="7.40158">
        <ele>337.21392822266</ele>
        <time>2017-06-04T08:06:18.000Z</time>
      </trkpt>
      <trkpt lat="48.49331" lon="7.40139">
        <ele>335.89624023438</ele>
        <time>2017-06-04T08:06:20.000Z</time>
      </trkpt>
      <trkpt lat="48.49323" lon="7.40113">
        <ele>334.79574584961</ele>
        <time>2017-06-04T08:06:23.000Z</time>
      </trkpt>
      <trkpt lat="48.49317" lon="7.40097">
        <ele>333.88833618164</ele>
        <time>2017-06-04T08:06:25.000Z</time>
      </trkpt>
      <trkpt lat="48.49311" lon="7.40075">
        <ele>333.27667236328</ele>
        <time>2017-06-04T08:06:28.000Z</time>
      </trkpt>
      <trkpt lat="48.49305" lon="7.40055">
        <ele>332.84033203125</ele>
        <time>2017-06-04T08:06:31.000Z</time>
      </trkpt>
      <trkpt lat="48.49299" lon="7.40035">
        <ele>332.44338989258</ele>
        <time>2017-06-04T08:06:34.000Z</time>
      </trkpt>
      <trkpt lat="48.49292" lon="7.40014">
        <ele>332.16409301758</ele>
        <time>2017-06-04T08:06:37.000Z</time>
      </trkpt>
      <trkpt lat="48.49286" lon="7.39991">
        <ele>331.91696166992</ele>
        <time>2017-06-04T08:06:40.000Z</time>
      </trkpt>
      <trkpt lat="48.49279" lon="7.3997">
        <ele>331.68243408203</ele>
        <time>2017-06-04T08:06:43.000Z</time>
      </trkpt>
      <trkpt lat="48.49274" lon="7.39958">
        <ele>331.45806884766</ele>
        <time>2017-06-04T08:06:45.000Z</time>
      </trkpt>
      <trkpt lat="48.49268" lon="7.39939">
        <ele>331.17568969727</ele>
        <time>2017-06-04T08:06:48.000Z</time>
      </trkpt>
      <trkpt lat="48.49258" lon="7.39924">
        <ele>330.91003417969</ele>
        <time>2017-06-04T08:06:51.000Z</time>
      </trkpt>
      <trkpt lat="48.49252" lon="7.39915">
        <ele>330.7253112793</ele>
        <time>2017-06-04T08:06:53.000Z</time>
      </trkpt>
      <trkpt lat="48.4924" lon="7.39902">
        <ele>330.67767333984</ele>
        <time>2017-06-04T08:06:56.000Z</time>
      </trkpt>
      <trkpt lat="48.49232" lon="7.39895">
        <ele>330.72332763672</ele>
        <time>2017-06-04T08:06:58.000Z</time>
      </trkpt>
      <trkpt lat="48.4922" lon="7.39883">
        <ele>330.97903442383</ele>
        <time>2017-06-04T08:07:01.000Z</time>
      </trkpt>
      <trkpt lat="48.49208" lon="7.39871">
        <ele>331.34432983398</ele>
        <time>2017-06-04T08:07:04.000Z</time>
      </trkpt>
      <trkpt lat="48.49198" lon="7.39861">
        <ele>331.81964111328</ele>
        <time>2017-06-04T08:07:07.000Z</time>
      </trkpt>
      <trkpt lat="48.49191" lon="7.39854">
        <ele>332.36929321289</ele>
        <time>2017-06-04T08:07:09.000Z</time>
      </trkpt>
      <trkpt lat="48.49181" lon="7.3984">
        <ele>333.01538085938</ele>
        <time>2017-06-04T08:07:12.000Z</time>
      </trkpt>
      <trkpt lat="48.49175" lon="7.39832">
        <ele>333.63534545898</ele>
        <time>2017-06-04T08:07:16.000Z</time>
      </trkpt>
      <trkpt lat="48.49165" lon="7.39827">
        <ele>334.33053588867</ele>
        <time>2017-06-04T08:07:17.000Z</time>
      </trkpt>
      <trkpt lat="48.49157" lon="7.39827">
        <ele>335.02731323242</ele>
        <time>2017-06-04T08:07:20.000Z</time>
      </trkpt>
      <trkpt lat="48.49149" lon="7.39827">
        <ele>335.7578125</ele>
        <time>2017-06-04T08:07:23.000Z</time>
      </trkpt>
      <trkpt lat="48.49143" lon="7.39829">
        <ele>336.45617675781</ele>
        <time>2017-06-04T08:07:26.000Z</time>
      </trkpt>
      <trkpt lat="48.49138" lon="7.3983">
        <ele>337.15313720703</ele>
        <time>2017-06-04T08:07:29.000Z</time>
      </trkpt>
      <trkpt lat="48.49131" lon="7.39834">
        <ele>337.78726196289</ele>
        <time>2017-06-04T08:07:32.000Z</time>
      </trkpt>
      <trkpt lat="48.49128" lon="7.39836">
        <ele>338.34722900391</ele>
        <time>2017-06-04T08:07:34.000Z</time>
      </trkpt>
      <trkpt lat="48.49123" lon="7.39838">
        <ele>338.85601806641</ele>
        <time>2017-06-04T08:07:36.000Z</time>
      </trkpt>
      <trkpt lat="48.49117" lon="7.39842">
        <ele>339.38848876953</ele>
        <time>2017-06-04T08:07:40.000Z</time>
      </trkpt>
      <trkpt lat="48.49112" lon="7.39844">
        <ele>339.92733764648</ele>
        <time>2017-06-04T08:07:41.000Z</time>
      </trkpt>
      <trkpt lat="48.49106" lon="7.39848">
        <ele>340.47821044922</ele>
        <time>2017-06-04T08:07:44.000Z</time>
      </trkpt>
      <trkpt lat="48.49099" lon="7.39852">
        <ele>341.09579467773</ele>
        <time>2017-06-04T08:07:47.000Z</time>
      </trkpt>
      <trkpt lat="48.49095" lon="7.39855">
        <ele>341.73974609375</ele>
        <time>2017-06-04T08:07:49.000Z</time>
      </trkpt>
      <trkpt lat="48.49088" lon="7.3986">
        <ele>342.41558837891</ele>
        <time>2017-06-04T08:07:52.000Z</time>
      </trkpt>
      <trkpt lat="48.49084" lon="7.39862">
        <ele>343.08786010742</ele>
        <time>2017-06-04T08:07:54.000Z</time>
      </trkpt>
      <trkpt lat="48.49077" lon="7.39864">
        <ele>343.83917236328</ele>
        <time>2017-06-04T08:07:57.000Z</time>
      </trkpt>
      <trkpt lat="48.49073" lon="7.39866">
        <ele>344.56192016602</ele>
        <time>2017-06-04T08:07:59.000Z</time>
      </trkpt>
      <trkpt lat="48.4907" lon="7.3987">
        <ele>345.32302856445</ele>
        <time>2017-06-04T08:08:02.000Z</time>
      </trkpt>
      <trkpt lat="48.49066" lon="7.39872">
        <ele>346.02301025391</ele>
        <time>2017-06-04T08:08:04.000Z</time>
      </trkpt>
      <trkpt lat="48.4906" lon="7.39876">
        <ele>346.82382202148</ele>
        <time>2017-06-04T08:08:07.000Z</time>
      </trkpt>
      <trkpt lat="48.49053" lon="7.39878">
        <ele>347.62057495117</ele>
        <time>2017-06-04T08:08:10.000Z</time>
      </trkpt>
      <trkpt lat="48.49047" lon="7.39879">
        <ele>348.46780395508</ele>
        <time>2017-06-04T08:08:12.000Z</time>
      </trkpt>
      <trkpt lat="48.4904" lon="7.39881">
        <ele>349.37167358398</ele>
        <time>2017-06-04T08:08:15.000Z</time>
      </trkpt>
      <trkpt lat="48.49033" lon="7.39886">
        <ele>350.35034179688</ele>
        <time>2017-06-04T08:08:18.000Z</time>
      </trkpt>
      <trkpt lat="48.49027" lon="7.39891">
        <ele>351.29498291016</ele>
        <time>2017-06-04T08:08:21.000Z</time>
      </trkpt>
      <trkpt lat="48.49023" lon="7.39889">
        <ele>352.13446044922</ele>
        <time>2017-06-04T08:08:24.000Z</time>
      </trkpt>
      <trkpt lat="48.49021" lon="7.3988">
        <ele>352.86456298828</ele>
        <time>2017-06-04T08:08:27.000Z</time>
      </trkpt>
      <trkpt lat="48.49023" lon="7.39869">
        <ele>353.34979248047</ele>
        <time>2017-06-04T08:08:30.000Z</time>
      </trkpt>
      <trkpt lat="48.49023" lon="7.39864">
        <ele>353.64196777344</ele>
        <time>2017-06-04T08:08:32.000Z</time>
      </trkpt>
      <trkpt lat="48.49022" lon="7.39855">
        <ele>353.81723022461</ele>
        <time>2017-06-04T08:08:35.000Z</time>
      </trkpt>
      <trkpt lat="48.49022" lon="7.39843">
        <ele>353.90014648438</ele>
        <time>2017-06-04T08:08:38.000Z</time>
      </trkpt>
      <trkpt lat="48.49021" lon="7.39834">
        <ele>353.96868896484</ele>
        <time>2017-06-04T08:08:41.000Z</time>
      </trkpt>
      <trkpt lat="48.49018" lon="7.39825">
        <ele>354.16836547852</ele>
        <time>2017-06-04T08:08:44.000Z</time>
      </trkpt>
      <trkpt lat="48.49018" lon="7.39815">
        <ele>354.41830444336</ele>
        <time>2017-06-04T08:08:47.000Z</time>
      </trkpt>
      <trkpt lat="48.49017" lon="7.39802">
        <ele>354.68975830078</ele>
        <time>2017-06-04T08:08:50.000Z</time>
      </trkpt>
      <trkpt lat="48.49018" lon="7.39795">
        <ele>354.93835449219</ele>
        <time>2017-06-04T08:08:52.000Z</time>
      </trkpt>
      <trkpt lat="48.49018" lon="7.39787">
        <ele>355.16961669922</ele>
        <time>2017-06-04T08:08:54.000Z</time>
      </trkpt>
      <trkpt lat="48.4902" lon="7.39774">
        <ele>355.23593139648</ele>
        <time>2017-06-04T08:08:57.000Z</time>
      </trkpt>
      <trkpt lat="48.49022" lon="7.39764">
        <ele>355.19537353516</ele>
        <time>2017-06-04T08:08:59.000Z</time>
      </trkpt>
      <trkpt lat="48.49022" lon="7.39746">
        <ele>355.12036132812</ele>
        <time>2017-06-04T08:09:02.000Z</time>
      </trkpt>
      <trkpt lat="48.49023" lon="7.39726">
        <ele>355.01907348633</ele>
        <time>2017-06-04T08:09:05.000Z</time>
      </trkpt>
      <trkpt lat="48.49022" lon="7.39717">
        <ele>354.93789672852</ele>
        <time>2017-06-04T08:09:07.000Z</time>
      </trkpt>
      <trkpt lat="48.49022" lon="7.39706">
        <ele>354.96978759766</ele>
        <time>2017-06-04T08:09:09.000Z</time>
      </trkpt>
      <trkpt lat="48.49027" lon="7.39691">
        <ele>354.82479858398</ele>
        <time>2017-06-04T08:09:12.000Z</time>
      </trkpt>
      <trkpt lat="48.49031" lon="7.39684">
        <ele>354.45556640625</ele>
        <time>2017-06-04T08:09:14.000Z</time>
      </trkpt>
      <trkpt lat="48.49036" lon="7.39675">
        <ele>353.94158935547</ele>
        <time>2017-06-04T08:09:16.000Z</time>
      </trkpt>
      <trkpt lat="48.49035" lon="7.39661">
        <ele>353.42010498047</ele>
        <time>2017-06-04T08:09:19.000Z</time>
      </trkpt>
      <trkpt lat="48.49036" lon="7.39647">
        <ele>352.84594726562</ele>
        <time>2017-06-04T08:09:22.000Z</time>
      </trkpt>
      <trkpt lat="48.49039" lon="7.39637">
        <ele>352.41650390625</ele>
        <time>2017-06-04T08:09:25.000Z</time>
      </trkpt>
      <trkpt lat="48.49039" lon="7.39633">
        <ele>352.17047119141</ele>
        <time>2017-06-04T08:09:27.000Z</time>
      </trkpt>
      <trkpt lat="48.49041" lon="7.39626">
        <ele>352.06045532227</ele>
        <time>2017-06-04T08:09:29.000Z</time>
      </trkpt>
      <trkpt lat="48.49043" lon="7.39613">
        <ele>351.84057617188</ele>
        <time>2017-06-04T08:09:32.000Z</time>
      </trkpt>
      <trkpt lat="48.49046" lon="7.39599">
        <ele>351.56307983398</ele>
        <time>2017-06-04T08:09:34.000Z</time>
      </trkpt>
      <trkpt lat="48.4905" lon="7.39581">
        <ele>351.31893920898</ele>
        <time>2017-06-04T08:09:37.000Z</time>
      </trkpt>
      <trkpt lat="48.49055" lon="7.39565">
        <ele>350.98233032227</ele>
        <time>2017-06-04T08:09:40.000Z</time>
      </trkpt>
      <trkpt lat="48.49066" lon="7.3955">
        <ele>350.45275878906</ele>
        <time>2017-06-04T08:09:43.000Z</time>
      </trkpt>
      <trkpt lat="48.49075" lon="7.39538">
        <ele>349.85485839844</ele>
        <time>2017-06-04T08:09:45.000Z</time>
      </trkpt>
      <trkpt lat="48.49083" lon="7.39523">
        <ele>349.25799560547</ele>
        <time>2017-06-04T08:09:47.000Z</time>
      </trkpt>
      <trkpt lat="48.49089" lon="7.39507">
        <ele>348.63778686523</ele>
        <time>2017-06-04T08:09:49.000Z</time>
      </trkpt>
      <trkpt lat="48.49096" lon="7.39488">
        <ele>347.93872070312</ele>
        <time>2017-06-04T08:09:52.000Z</time>
      </trkpt>
      <trkpt lat="48.491" lon="7.39478">
        <ele>347.32131958008</ele>
        <time>2017-06-04T08:09:54.000Z</time>
      </trkpt>
      <trkpt lat="48.49105" lon="7.3946">
        <ele>346.64108276367</ele>
        <time>2017-06-04T08:09:57.000Z</time>
      </trkpt>
      <trkpt lat="48.49109" lon="7.39444">
        <ele>345.90887451172</ele>
        <time>2017-06-04T08:10:00.000Z</time>
      </trkpt>
      <trkpt lat="48.49113" lon="7.39435">
        <ele>345.11685180664</ele>
        <time>2017-06-04T08:10:02.000Z</time>
      </trkpt>
      <trkpt lat="48.49114" lon="7.39428">
        <ele>344.43865966797</ele>
        <time>2017-06-04T08:10:04.000Z</time>
      </trkpt>
      <trkpt lat="48.49111" lon="7.39419">
        <ele>344.03302001953</ele>
        <time>2017-06-04T08:10:07.000Z</time>
      </trkpt>
      <trkpt lat="48.49109" lon="7.39406">
        <ele>343.79663085938</ele>
        <time>2017-06-04T08:10:10.000Z</time>
      </trkpt>
      <trkpt lat="48.49107" lon="7.39395">
        <ele>343.64923095703</ele>
        <time>2017-06-04T08:10:13.000Z</time>
      </trkpt>
      <trkpt lat="48.49103" lon="7.39386">
        <ele>343.69393920898</ele>
        <time>2017-06-04T08:10:16.000Z</time>
      </trkpt>
      <trkpt lat="48.49101" lon="7.39379">
        <ele>343.82458496094</ele>
        <time>2017-06-04T08:10:18.000Z</time>
      </trkpt>
      <trkpt lat="48.49099" lon="7.39369">
        <ele>343.80139160156</ele>
        <time>2017-06-04T08:10:20.000Z</time>
      </trkpt>
      <trkpt lat="48.49095" lon="7.39355">
        <ele>343.82568359375</ele>
        <time>2017-06-04T08:10:23.000Z</time>
      </trkpt>
      <trkpt lat="48.4909" lon="7.39347">
        <ele>343.98474121094</ele>
        <time>2017-06-04T08:10:25.000Z</time>
      </trkpt>
      <trkpt lat="48.49083" lon="7.39335">
        <ele>344.24481201172</ele>
        <time>2017-06-04T08:10:28.000Z</time>
      </trkpt>
      <trkpt lat="48.49076" lon="7.39319">
        <ele>344.21560668945</ele>
        <time>2017-06-04T08:10:31.000Z</time>
      </trkpt>
      <trkpt lat="48.4907" lon="7.39302">
        <ele>343.91827392578</ele>
        <time>2017-06-04T08:10:34.000Z</time>
      </trkpt>
      <trkpt lat="48.49065" lon="7.39287">
        <ele>343.38967895508</ele>
        <time>2017-06-04T08:10:36.000Z</time>
      </trkpt>
      <trkpt lat="48.49058" lon="7.39267">
        <ele>342.55288696289</ele>
        <time>2017-06-04T08:10:39.000Z</time>
      </trkpt>
      <trkpt lat="48.4905" lon="7.39256">
        <ele>341.57403564453</ele>
        <time>2017-06-04T08:10:41.000Z</time>
      </trkpt>
      <trkpt lat="48.49045" lon="7.39249">
        <ele>340.90585327148</ele>
        <time>2017-06-04T08:10:43.000Z</time>
      </trkpt>
      <trkpt lat="48.49041" lon="7.39243">
        <ele>340.54507446289</ele>
        <time>2017-06-04T08:10:45.000Z</time>
      </trkpt>
      <trkpt lat="48.49036" lon="7.39235">
        <ele>340.46408081055</ele>
        <time>2017-06-04T08:10:47.000Z</time>
      </trkpt>
      <trkpt lat="48.4903" lon="7.39228">
        <ele>340.69638061523</ele>
        <time>2017-06-04T08:10:50.000Z</time>
      </trkpt>
      <trkpt lat="48.49024" lon="7.39221">
        <ele>341.04351806641</ele>
        <time>2017-06-04T08:10:52.000Z</time>
      </trkpt>
      <trkpt lat="48.49019" lon="7.39211">
        <ele>341.42828369141</ele>
        <time>2017-06-04T08:10:54.000Z</time>
      </trkpt>
      <trkpt lat="48.49011" lon="7.39194">
        <ele>341.99975585938</ele>
        <time>2017-06-04T08:10:57.000Z</time>
      </trkpt>
      <trkpt lat="48.49004" lon="7.39182">
        <ele>342.74853515625</ele>
        <time>2017-06-04T08:11:00.000Z</time>
      </trkpt>
      <trkpt lat="48.48997" lon="7.39173">
        <ele>343.60803222656</ele>
        <time>2017-06-04T08:11:02.000Z</time>
      </trkpt>
      <trkpt lat="48.48989" lon="7.39163">
        <ele>344.48284912109</ele>
        <time>2017-06-04T08:11:04.000Z</time>
      </trkpt>
      <trkpt lat="48.4898" lon="7.39155">
        <ele>345.39129638672</ele>
        <time>2017-06-04T08:11:06.000Z</time>
      </trkpt>
      <trkpt lat="48.48966" lon="7.39139">
        <ele>346.22381591797</ele>
        <time>2017-06-04T08:11:09.000Z</time>
      </trkpt>
      <trkpt lat="48.48955" lon="7.39126">
        <ele>346.88320922852</ele>
        <time>2017-06-04T08:11:12.000Z</time>
      </trkpt>
      <trkpt lat="48.48953" lon="7.39123">
        <ele>347.29663085938</ele>
        <time>2017-06-04T08:11:14.000Z</time>
      </trkpt>
      <trkpt lat="48.48949" lon="7.39119">
        <ele>347.62384033203</ele>
        <time>2017-06-04T08:11:17.000Z</time>
      </trkpt>
      <trkpt lat="48.48944" lon="7.39112">
        <ele>347.84103393555</ele>
        <time>2017-06-04T08:11:20.000Z</time>
      </trkpt>
      <trkpt lat="48.48941" lon="7.39105">
        <ele>347.87768554688</ele>
        <time>2017-06-04T08:11:22.000Z</time>
      </trkpt>
      <trkpt lat="48.48937" lon="7.39094">
        <ele>347.74237060547</ele>
        <time>2017-06-04T08:11:25.000Z</time>
      </trkpt>
      <trkpt lat="48.48936" lon="7.39082">
        <ele>347.43478393555</ele>
        <time>2017-06-04T08:11:28.000Z</time>
      </trkpt>
      <trkpt lat="48.48938" lon="7.39071">
        <ele>347.13970947266</ele>
        <time>2017-06-04T08:11:31.000Z</time>
      </trkpt>
      <trkpt lat="48.48941" lon="7.3906">
        <ele>346.82946777344</ele>
        <time>2017-06-04T08:11:33.000Z</time>
      </trkpt>
      <trkpt lat="48.48946" lon="7.39043">
        <ele>346.53793334961</ele>
        <time>2017-06-04T08:11:36.000Z</time>
      </trkpt>
      <trkpt lat="48.48951" lon="7.39027">
        <ele>346.27603149414</ele>
        <time>2017-06-04T08:11:39.000Z</time>
      </trkpt>
      <trkpt lat="48.48954" lon="7.39013">
        <ele>346.15090942383</ele>
        <time>2017-06-04T08:11:41.000Z</time>
      </trkpt>
      <trkpt lat="48.4896" lon="7.38992">
        <ele>345.81930541992</ele>
        <time>2017-06-04T08:11:44.000Z</time>
      </trkpt>
      <trkpt lat="48.48965" lon="7.38978">
        <ele>345.39273071289</ele>
        <time>2017-06-04T08:11:46.000Z</time>
      </trkpt>
      <trkpt lat="48.48969" lon="7.38957">
        <ele>344.97769165039</ele>
        <time>2017-06-04T08:11:49.000Z</time>
      </trkpt>
      <trkpt lat="48.4897" lon="7.38934">
        <ele>344.76617431641</ele>
        <time>2017-06-04T08:11:52.000Z</time>
      </trkpt>
      <trkpt lat="48.48971" lon="7.38921">
        <ele>344.67837524414</ele>
        <time>2017-06-04T08:11:54.000Z</time>
      </trkpt>
      <trkpt lat="48.48971" lon="7.38908">
        <ele>344.80218505859</ele>
        <time>2017-06-04T08:11:56.000Z</time>
      </trkpt>
      <trkpt lat="48.4897" lon="7.38889">
        <ele>345.14782714844</ele>
        <time>2017-06-04T08:11:59.000Z</time>
      </trkpt>
      <trkpt lat="48.4897" lon="7.38874">
        <ele>345.59875488281</ele>
        <time>2017-06-04T08:12:01.000Z</time>
      </trkpt>
      <trkpt lat="48.4897" lon="7.3886">
        <ele>345.94195556641</ele>
        <time>2017-06-04T08:12:03.000Z</time>
      </trkpt>
      <trkpt lat="48.48973" lon="7.38845">
        <ele>346.18209838867</ele>
        <time>2017-06-04T08:12:06.000Z</time>
      </trkpt>
      <trkpt lat="48.48975" lon="7.38827">
        <ele>346.21249389648</ele>
        <time>2017-06-04T08:12:09.000Z</time>
      </trkpt>
      <trkpt lat="48.48973" lon="7.38803">
        <ele>345.83786010742</ele>
        <time>2017-06-04T08:12:12.000Z</time>
      </trkpt>
      <trkpt lat="48.48971" lon="7.38789">
        <ele>345.30191040039</ele>
        <time>2017-06-04T08:12:14.000Z</time>
      </trkpt>
      <trkpt lat="48.48967" lon="7.38774">
        <ele>344.77914428711</ele>
        <time>2017-06-04T08:12:16.000Z</time>
      </trkpt>
      <trkpt lat="48.48963" lon="7.38755">
        <ele>344.20434570312</ele>
        <time>2017-06-04T08:12:19.000Z</time>
      </trkpt>
      <trkpt lat="48.48962" lon="7.38742">
        <ele>343.77337646484</ele>
        <time>2017-06-04T08:12:21.000Z</time>
      </trkpt>
      <trkpt lat="48.48962" lon="7.38727">
        <ele>343.60513305664</ele>
        <time>2017-06-04T08:12:24.000Z</time>
      </trkpt>
      <trkpt lat="48.4896" lon="7.38713">
        <ele>343.63174438477</ele>
        <time>2017-06-04T08:12:27.000Z</time>
      </trkpt>
      <trkpt lat="48.48958" lon="7.38702">
        <ele>343.74505615234</ele>
        <time>2017-06-04T08:12:30.000Z</time>
      </trkpt>
      <trkpt lat="48.48958" lon="7.38693">
        <ele>343.97323608398</ele>
        <time>2017-06-04T08:12:32.000Z</time>
      </trkpt>
      <trkpt lat="48.4896" lon="7.38676">
        <ele>344.05618286133</ele>
        <time>2017-06-04T08:12:35.000Z</time>
      </trkpt>
      <trkpt lat="48.48972" lon="7.38656">
        <ele>343.52383422852</ele>
        <time>2017-06-04T08:12:38.000Z</time>
      </trkpt>
      <trkpt lat="48.48986" lon="7.38628">
        <ele>342.1969909668</ele>
        <time>2017-06-04T08:12:41.000Z</time>
      </trkpt>
      <trkpt lat="48.48994" lon="7.3861">
        <ele>340.41583251953</ele>
        <time>2017-06-04T08:12:43.000Z</time>
      </trkpt>
      <trkpt lat="48.48999" lon="7.38567">
        <ele>338.2815246582</ele>
        <time>2017-06-04T08:12:46.000Z</time>
      </trkpt>
      <trkpt lat="48.49004" lon="7.38544">
        <ele>335.73638916016</ele>
        <time>2017-06-04T08:12:48.000Z</time>
      </trkpt>
      <trkpt lat="48.49007" lon="7.38523">
        <ele>333.41793823242</ele>
        <time>2017-06-04T08:12:50.000Z</time>
      </trkpt>
      <trkpt lat="48.48996" lon="7.38493">
        <ele>331.73321533203</ele>
        <time>2017-06-04T08:12:53.000Z</time>
      </trkpt>
      <trkpt lat="48.48985" lon="7.38479">
        <ele>330.39236450195</ele>
        <time>2017-06-04T08:12:55.000Z</time>
      </trkpt>
      <trkpt lat="48.48966" lon="7.38462">
        <ele>329.46981811523</ele>
        <time>2017-06-04T08:12:58.000Z</time>
      </trkpt>
      <trkpt lat="48.48949" lon="7.38457">
        <ele>329.35311889648</ele>
        <time>2017-06-04T08:13:00.000Z</time>
      </trkpt>
      <trkpt lat="48.4894" lon="7.38451">
        <ele>329.72021484375</ele>
        <time>2017-06-04T08:13:02.000Z</time>
      </trkpt>
      <trkpt lat="48.48939" lon="7.38424">
        <ele>329.66461181641</ele>
        <time>2017-06-04T08:13:05.000Z</time>
      </trkpt>
      <trkpt lat="48.48941" lon="7.38393">
        <ele>329.12857055664</ele>
        <time>2017-06-04T08:13:08.000Z</time>
      </trkpt>
      <trkpt lat="48.48938" lon="7.38366">
        <ele>328.20901489258</ele>
        <time>2017-06-04T08:13:11.000Z</time>
      </trkpt>
      <trkpt lat="48.48926" lon="7.38344">
        <ele>327.01913452148</ele>
        <time>2017-06-04T08:13:14.000Z</time>
      </trkpt>
      <trkpt lat="48.48911" lon="7.38322">
        <ele>325.92059326172</ele>
        <time>2017-06-04T08:13:17.000Z</time>
      </trkpt>
      <trkpt lat="48.48906" lon="7.38306">
        <ele>325.18322753906</ele>
        <time>2017-06-04T08:13:19.000Z</time>
      </trkpt>
      <trkpt lat="48.48907" lon="7.3827">
        <ele>324.11358642578</ele>
        <time>2017-06-04T08:13:22.000Z</time>
      </trkpt>
      <trkpt lat="48.48918" lon="7.38239">
        <ele>323.06549072266</ele>
        <time>2017-06-04T08:13:25.000Z</time>
      </trkpt>
      <trkpt lat="48.48923" lon="7.3821">
        <ele>323.48727416992</ele>
        <time>2017-06-04T08:13:28.000Z</time>
      </trkpt>
      <trkpt lat="48.48923" lon="7.382">
        <ele>324.23080444336</ele>
        <time>2017-06-04T08:13:30.000Z</time>
      </trkpt>
      <trkpt lat="48.48928" lon="7.38193">
        <ele>325.64575195312</ele>
        <time>2017-06-04T08:13:33.000Z</time>
      </trkpt>
      <trkpt lat="48.48933" lon="7.38195">
        <ele>327.92108154297</ele>
        <time>2017-06-04T08:13:36.000Z</time>
      </trkpt>
      <trkpt lat="48.48942" lon="7.38194">
        <ele>330.93060302734</ele>
        <time>2017-06-04T08:13:39.000Z</time>
      </trkpt>
      <trkpt lat="48.48948" lon="7.38195">
        <ele>332.69345092773</ele>
        <time>2017-06-04T08:13:41.000Z</time>
      </trkpt>
      <trkpt lat="48.48952" lon="7.38199">
        <ele>333.93444824219</ele>
        <time>2017-06-04T08:13:44.000Z</time>
      </trkpt>
      <trkpt lat="48.48957" lon="7.38202">
        <ele>334.607421875</ele>
        <time>2017-06-04T08:13:46.000Z</time>
      </trkpt>
      <trkpt lat="48.48963" lon="7.38207">
        <ele>335.18301391602</ele>
        <time>2017-06-04T08:13:48.000Z</time>
      </trkpt>
      <trkpt lat="48.48969" lon="7.38212">
        <ele>335.20947265625</ele>
        <time>2017-06-04T08:13:50.000Z</time>
      </trkpt>
      <trkpt lat="48.4898" lon="7.38218">
        <ele>334.94818115234</ele>
        <time>2017-06-04T08:13:53.000Z</time>
      </trkpt>
      <trkpt lat="48.48985" lon="7.38223">
        <ele>334.59338378906</ele>
        <time>2017-06-04T08:13:55.000Z</time>
      </trkpt>
      <trkpt lat="48.48995" lon="7.3823">
        <ele>334.01034545898</ele>
        <time>2017-06-04T08:13:58.000Z</time>
      </trkpt>
      <trkpt lat="48.49007" lon="7.38237">
        <ele>333.20672607422</ele>
        <time>2017-06-04T08:14:01.000Z</time>
      </trkpt>
      <trkpt lat="48.4902" lon="7.38244">
        <ele>332.18670654297</ele>
        <time>2017-06-04T08:14:04.000Z</time>
      </trkpt>
      <trkpt lat="48.4903" lon="7.38249">
        <ele>331.02282714844</ele>
        <time>2017-06-04T08:14:06.000Z</time>
      </trkpt>
      <trkpt lat="48.49036" lon="7.38255">
        <ele>329.92724609375</ele>
        <time>2017-06-04T08:14:08.000Z</time>
      </trkpt>
      <trkpt lat="48.49046" lon="7.38264">
        <ele>328.93850708008</ele>
        <time>2017-06-04T08:14:11.000Z</time>
      </trkpt>
      <trkpt lat="48.49054" lon="7.38271">
        <ele>328.06695556641</ele>
        <time>2017-06-04T08:14:14.000Z</time>
      </trkpt>
      <trkpt lat="48.49065" lon="7.3828">
        <ele>327.26864624023</ele>
        <time>2017-06-04T08:14:17.000Z</time>
      </trkpt>
      <trkpt lat="48.49081" lon="7.38291">
        <ele>326.41171264648</ele>
        <time>2017-06-04T08:14:20.000Z</time>
      </trkpt>
      <trkpt lat="48.49098" lon="7.38298">
        <ele>325.96539306641</ele>
        <time>2017-06-04T08:14:23.000Z</time>
      </trkpt>
      <trkpt lat="48.49107" lon="7.38302">
        <ele>325.84945678711</ele>
        <time>2017-06-04T08:14:26.000Z</time>
      </trkpt>
      <trkpt lat="48.49114" lon="7.38304">
        <ele>326.07009887695</ele>
        <time>2017-06-04T08:14:28.000Z</time>
      </trkpt>
      <trkpt lat="48.49123" lon="7.38305">
        <ele>326.83905029297</ele>
        <time>2017-06-04T08:14:31.000Z</time>
      </trkpt>
      <trkpt lat="48.49127" lon="7.38305">
        <ele>328.12701416016</ele>
        <time>2017-06-04T08:14:33.000Z</time>
      </trkpt>
      <trkpt lat="48.49133" lon="7.38305">
        <ele>329.25311279297</ele>
        <time>2017-06-04T08:14:36.000Z</time>
      </trkpt>
      <trkpt lat="48.49135" lon="7.38307">
        <ele>330.22061157227</ele>
        <time>2017-06-04T08:14:38.000Z</time>
      </trkpt>
      <trkpt lat="48.49141" lon="7.38306">
        <ele>331.29339599609</ele>
        <time>2017-06-04T08:14:41.000Z</time>
      </trkpt>
      <trkpt lat="48.49145" lon="7.38305">
        <ele>332.26177978516</ele>
        <time>2017-06-04T08:14:43.000Z</time>
      </trkpt>
      <trkpt lat="48.49147" lon="7.38306">
        <ele>333.09268188477</ele>
        <time>2017-06-04T08:14:45.000Z</time>
      </trkpt>
      <trkpt lat="48.49152" lon="7.38307">
        <ele>333.85809326172</ele>
        <time>2017-06-04T08:14:47.000Z</time>
      </trkpt>
      <trkpt lat="48.49157" lon="7.38309">
        <ele>334.69760131836</ele>
        <time>2017-06-04T08:14:50.000Z</time>
      </trkpt>
      <trkpt lat="48.49162" lon="7.38309">
        <ele>335.41558837891</ele>
        <time>2017-06-04T08:14:52.000Z</time>
      </trkpt>
      <trkpt lat="48.49166" lon="7.38309">
        <ele>336.10479736328</ele>
        <time>2017-06-04T08:14:55.000Z</time>
      </trkpt>
      <trkpt lat="48.49168" lon="7.38308">
        <ele>336.81860351562</ele>
        <time>2017-06-04T08:14:57.000Z</time>
      </trkpt>
      <trkpt lat="48.49173" lon="7.38308">
        <ele>337.57623291016</ele>
        <time>2017-06-04T08:15:00.000Z</time>
      </trkpt>
      <trkpt lat="48.49176" lon="7.38308">
        <ele>338.27917480469</ele>
        <time>2017-06-04T08:15:02.000Z</time>
      </trkpt>
      <trkpt lat="48.49178" lon="7.38308">
        <ele>338.84515380859</ele>
        <time>2017-06-04T08:15:04.000Z</time>
      </trkpt>
      <trkpt lat="48.49183" lon="7.38309">
        <ele>339.30081176758</ele>
        <time>2017-06-04T08:15:07.000Z</time>
      </trkpt>
      <trkpt lat="48.49187" lon="7.38309">
        <ele>339.72439575195</ele>
        <time>2017-06-04T08:15:10.000Z</time>
      </trkpt>
      <trkpt lat="48.49191" lon="7.3831">
        <ele>340.03677368164</ele>
        <time>2017-06-04T08:15:13.000Z</time>
      </trkpt>
      <trkpt lat="48.49194" lon="7.38311">
        <ele>340.30554199219</ele>
        <time>2017-06-04T08:15:15.000Z</time>
      </trkpt>
      <trkpt lat="48.49199" lon="7.38312">
        <ele>340.59881591797</ele>
        <time>2017-06-04T08:15:18.000Z</time>
      </trkpt>
      <trkpt lat="48.49203" lon="7.38313">
        <ele>340.86538696289</ele>
        <time>2017-06-04T08:15:20.000Z</time>
      </trkpt>
      <trkpt lat="48.49207" lon="7.38315">
        <ele>341.04971313477</ele>
        <time>2017-06-04T08:15:22.000Z</time>
      </trkpt>
      <trkpt lat="48.49212" lon="7.38317">
        <ele>341.16528320312</ele>
        <time>2017-06-04T08:15:25.000Z</time>
      </trkpt>
      <trkpt lat="48.49215" lon="7.38319">
        <ele>341.24697875977</ele>
        <time>2017-06-04T08:15:27.000Z</time>
      </trkpt>
      <trkpt lat="48.49218" lon="7.38321">
        <ele>341.19708251953</ele>
        <time>2017-06-04T08:15:30.000Z</time>
      </trkpt>
      <trkpt lat="48.4922" lon="7.38322">
        <ele>341.11676025391</ele>
        <time>2017-06-04T08:15:32.000Z</time>
      </trkpt>
      <trkpt lat="48.49224" lon="7.38323">
        <ele>341.07089233398</ele>
        <time>2017-06-04T08:15:35.000Z</time>
      </trkpt>
      <trkpt lat="48.49227" lon="7.38324">
        <ele>341.11196899414</ele>
        <time>2017-06-04T08:15:38.000Z</time>
      </trkpt>
      <trkpt lat="48.49232" lon="7.38323">
        <ele>341.31683349609</ele>
        <time>2017-06-04T08:15:41.000Z</time>
      </trkpt>
      <trkpt lat="48.49237" lon="7.38323">
        <ele>341.73712158203</ele>
        <time>2017-06-04T08:15:44.000Z</time>
      </trkpt>
      <trkpt lat="48.4924" lon="7.38323">
        <ele>342.21020507812</ele>
        <time>2017-06-04T08:15:46.000Z</time>
      </trkpt>
      <trkpt lat="48.49243" lon="7.38326">
        <ele>342.58810424805</ele>
        <time>2017-06-04T08:15:48.000Z</time>
      </trkpt>
      <trkpt lat="48.49248" lon="7.38329">
        <ele>342.88055419922</ele>
        <time>2017-06-04T08:15:51.000Z</time>
      </trkpt>
      <trkpt lat="48.49252" lon="7.3833">
        <ele>343.06658935547</ele>
        <time>2017-06-04T08:15:54.000Z</time>
      </trkpt>
      <trkpt lat="48.49255" lon="7.38329">
        <ele>343.17001342773</ele>
        <time>2017-06-04T08:15:56.000Z</time>
      </trkpt>
      <trkpt lat="48.49262" lon="7.38329">
        <ele>343.37661743164</ele>
        <time>2017-06-04T08:15:59.000Z</time>
      </trkpt>
      <trkpt lat="48.49271" lon="7.38328">
        <ele>343.83139038086</ele>
        <time>2017-06-04T08:16:02.000Z</time>
      </trkpt>
      <trkpt lat="48.49277" lon="7.38328">
        <ele>344.41772460938</ele>
        <time>2017-06-04T08:16:04.000Z</time>
      </trkpt>
      <trkpt lat="48.49284" lon="7.38327">
        <ele>345.13031005859</ele>
        <time>2017-06-04T08:16:07.000Z</time>
      </trkpt>
      <trkpt lat="48.4929" lon="7.38328">
        <ele>345.81353759766</ele>
        <time>2017-06-04T08:16:10.000Z</time>
      </trkpt>
      <trkpt lat="48.49295" lon="7.38327">
        <ele>346.47393798828</ele>
        <time>2017-06-04T08:16:12.000Z</time>
      </trkpt>
      <trkpt lat="48.49303" lon="7.38327">
        <ele>347.12866210938</ele>
        <time>2017-06-04T08:16:15.000Z</time>
      </trkpt>
      <trkpt lat="48.49314" lon="7.38326">
        <ele>347.88201904297</ele>
        <time>2017-06-04T08:16:18.000Z</time>
      </trkpt>
      <trkpt lat="48.49321" lon="7.38324">
        <ele>348.76181030273</ele>
        <time>2017-06-04T08:16:21.000Z</time>
      </trkpt>
      <trkpt lat="48.49329" lon="7.38323">
        <ele>349.81634521484</ele>
        <time>2017-06-04T08:16:24.000Z</time>
      </trkpt>
      <trkpt lat="48.49332" lon="7.38323">
        <ele>350.80010986328</ele>
        <time>2017-06-04T08:16:26.000Z</time>
      </trkpt>
      <trkpt lat="48.49339" lon="7.38324">
        <ele>351.62908935547</ele>
        <time>2017-06-04T08:16:29.000Z</time>
      </trkpt>
      <trkpt lat="48.49345" lon="7.38322">
        <ele>352.44815063477</ele>
        <time>2017-06-04T08:16:32.000Z</time>
      </trkpt>
      <trkpt lat="48.49348" lon="7.38321">
        <ele>353.05587768555</ele>
        <time>2017-06-04T08:16:34.000Z</time>
      </trkpt>
      <trkpt lat="48.4935" lon="7.38323">
        <ele>353.35650634766</ele>
        <time>2017-06-04T08:16:37.000Z</time>
      </trkpt>
      <trkpt lat="48.49354" lon="7.38324">
        <ele>353.58969116211</ele>
        <time>2017-06-04T08:16:39.000Z</time>
      </trkpt>
      <trkpt lat="48.49361" lon="7.38326">
        <ele>353.70629882812</ele>
        <time>2017-06-04T08:16:42.000Z</time>
      </trkpt>
      <trkpt lat="48.49364" lon="7.38326">
        <ele>353.67413330078</ele>
        <time>2017-06-04T08:16:44.000Z</time>
      </trkpt>
      <trkpt lat="48.49371" lon="7.38327">
        <ele>353.55462646484</ele>
        <time>2017-06-04T08:16:46.000Z</time>
      </trkpt>
      <trkpt lat="48.49379" lon="7.38333">
        <ele>353.2253112793</ele>
        <time>2017-06-04T08:16:49.000Z</time>
      </trkpt>
      <trkpt lat="48.49387" lon="7.38337">
        <ele>352.74432373047</ele>
        <time>2017-06-04T08:16:52.000Z</time>
      </trkpt>
      <trkpt lat="48.49396" lon="7.38339">
        <ele>352.35699462891</ele>
        <time>2017-06-04T08:16:55.000Z</time>
      </trkpt>
      <trkpt lat="48.49403" lon="7.38341">
        <ele>351.92123413086</ele>
        <time>2017-06-04T08:16:58.000Z</time>
      </trkpt>
      <trkpt lat="48.49411" lon="7.38344">
        <ele>351.41955566406</ele>
        <time>2017-06-04T08:17:01.000Z</time>
      </trkpt>
      <trkpt lat="48.49415" lon="7.38345">
        <ele>351.2336730957</ele>
        <time>2017-06-04T08:17:03.000Z</time>
      </trkpt>
      <trkpt lat="48.49422" lon="7.38345">
        <ele>351.20465087891</ele>
        <time>2017-06-04T08:17:06.000Z</time>
      </trkpt>
      <trkpt lat="48.4943" lon="7.38345">
        <ele>351.19097900391</ele>
        <time>2017-06-04T08:17:09.000Z</time>
      </trkpt>
      <trkpt lat="48.49435" lon="7.38345">
        <ele>351.17837524414</ele>
        <time>2017-06-04T08:17:11.000Z</time>
      </trkpt>
      <trkpt lat="48.4944" lon="7.38344">
        <ele>351.25723266602</ele>
        <time>2017-06-04T08:17:13.000Z</time>
      </trkpt>
      <trkpt lat="48.49448" lon="7.38341">
        <ele>351.4775390625</ele>
        <time>2017-06-04T08:17:16.000Z</time>
      </trkpt>
      <trkpt lat="48.49454" lon="7.38342">
        <ele>351.67642211914</ele>
        <time>2017-06-04T08:17:19.000Z</time>
      </trkpt>
      <trkpt lat="48.49461" lon="7.38341">
        <ele>351.88467407227</ele>
        <time>2017-06-04T08:17:21.000Z</time>
      </trkpt>
      <trkpt lat="48.49469" lon="7.38338">
        <ele>352.23699951172</ele>
        <time>2017-06-04T08:17:24.000Z</time>
      </trkpt>
      <trkpt lat="48.49483" lon="7.38334">
        <ele>352.70361328125</ele>
        <time>2017-06-04T08:17:27.000Z</time>
      </trkpt>
      <trkpt lat="48.49493" lon="7.38332">
        <ele>353.11883544922</ele>
        <time>2017-06-04T08:17:29.000Z</time>
      </trkpt>
      <trkpt lat="48.49499" lon="7.38332">
        <ele>353.56390380859</ele>
        <time>2017-06-04T08:17:31.000Z</time>
      </trkpt>
      <trkpt lat="48.49507" lon="7.38332">
        <ele>353.96856689453</ele>
        <time>2017-06-04T08:17:33.000Z</time>
      </trkpt>
      <trkpt lat="48.4952" lon="7.38332">
        <ele>354.17822265625</ele>
        <time>2017-06-04T08:17:36.000Z</time>
      </trkpt>
      <trkpt lat="48.49532" lon="7.38331">
        <ele>354.25234985352</ele>
        <time>2017-06-04T08:17:39.000Z</time>
      </trkpt>
      <trkpt lat="48.49543" lon="7.3833">
        <ele>354.26675415039</ele>
        <time>2017-06-04T08:17:42.000Z</time>
      </trkpt>
      <trkpt lat="48.49551" lon="7.3833">
        <ele>354.23950195312</ele>
        <time>2017-06-04T08:17:44.000Z</time>
      </trkpt>
      <trkpt lat="48.49558" lon="7.3833">
        <ele>354.22036743164</ele>
        <time>2017-06-04T08:17:46.000Z</time>
      </trkpt>
      <trkpt lat="48.49564" lon="7.3833">
        <ele>354.23593139648</ele>
        <time>2017-06-04T08:17:48.000Z</time>
      </trkpt>
      <trkpt lat="48.49574" lon="7.38329">
        <ele>354.25335693359</ele>
        <time>2017-06-04T08:17:51.000Z</time>
      </trkpt>
      <trkpt lat="48.49579" lon="7.38328">
        <ele>354.24917602539</ele>
        <time>2017-06-04T08:17:53.000Z</time>
      </trkpt>
      <trkpt lat="48.49583" lon="7.38328">
        <ele>354.287109375</ele>
        <time>2017-06-04T08:17:55.000Z</time>
      </trkpt>
      <trkpt lat="48.49588" lon="7.38326">
        <ele>354.46893310547</ele>
        <time>2017-06-04T08:17:58.000Z</time>
      </trkpt>
      <trkpt lat="48.4959" lon="7.38326">
        <ele>354.71957397461</ele>
        <time>2017-06-04T08:18:00.000Z</time>
      </trkpt>
      <trkpt lat="48.49593" lon="7.38324">
        <ele>355.10278320312</ele>
        <time>2017-06-04T08:18:02.000Z</time>
      </trkpt>
      <trkpt lat="48.496" lon="7.38322">
        <ele>355.68792724609</ele>
        <time>2017-06-04T08:18:05.000Z</time>
      </trkpt>
      <trkpt lat="48.49604" lon="7.38322">
        <ele>356.31597900391</ele>
        <time>2017-06-04T08:18:07.000Z</time>
      </trkpt>
      <trkpt lat="48.4961" lon="7.38321">
        <ele>356.96594238281</ele>
        <time>2017-06-04T08:18:10.000Z</time>
      </trkpt>
      <trkpt lat="48.49617" lon="7.38319">
        <ele>357.73382568359</ele>
        <time>2017-06-04T08:18:13.000Z</time>
      </trkpt>
      <trkpt lat="48.49622" lon="7.38319">
        <ele>358.48724365234</ele>
        <time>2017-06-04T08:18:15.000Z</time>
      </trkpt>
      <trkpt lat="48.49627" lon="7.38317">
        <ele>359.15878295898</ele>
        <time>2017-06-04T08:18:17.000Z</time>
      </trkpt>
      <trkpt lat="48.49631" lon="7.38316">
        <ele>359.88970947266</ele>
        <time>2017-06-04T08:18:20.000Z</time>
      </trkpt>
      <trkpt lat="48.49635" lon="7.38314">
        <ele>360.59945678711</ele>
        <time>2017-06-04T08:18:22.000Z</time>
      </trkpt>
      <trkpt lat="48.49639" lon="7.38314">
        <ele>361.23608398438</ele>
        <time>2017-06-04T08:18:24.000Z</time>
      </trkpt>
      <trkpt lat="48.49646" lon="7.38313">
        <ele>361.91003417969</ele>
        <time>2017-06-04T08:18:27.000Z</time>
      </trkpt>
      <trkpt lat="48.49651" lon="7.38311">
        <ele>362.61206054688</ele>
        <time>2017-06-04T08:18:30.000Z</time>
      </trkpt>
      <trkpt lat="48.49654" lon="7.38311">
        <ele>363.23449707031</ele>
        <time>2017-06-04T08:18:32.000Z</time>
      </trkpt>
      <trkpt lat="48.49657" lon="7.38312">
        <ele>363.69317626953</ele>
        <time>2017-06-04T08:18:34.000Z</time>
      </trkpt>
      <trkpt lat="48.49661" lon="7.38313">
        <ele>364.11038208008</ele>
        <time>2017-06-04T08:18:36.000Z</time>
      </trkpt>
      <trkpt lat="48.49669" lon="7.3831">
        <ele>364.54388427734</ele>
        <time>2017-06-04T08:18:39.000Z</time>
      </trkpt>
      <trkpt lat="48.49674" lon="7.38311">
        <ele>364.73123168945</ele>
        <time>2017-06-04T08:18:42.000Z</time>
      </trkpt>
      <trkpt lat="48.4968" lon="7.3831">
        <ele>364.89080810547</ele>
        <time>2017-06-04T08:18:44.000Z</time>
      </trkpt>
      <trkpt lat="48.4969" lon="7.38313">
        <ele>364.88003540039</ele>
        <time>2017-06-04T08:18:47.000Z</time>
      </trkpt>
      <trkpt lat="48.497" lon="7.38318">
        <ele>364.50366210938</ele>
        <time>2017-06-04T08:18:50.000Z</time>
      </trkpt>
      <trkpt lat="48.4971" lon="7.38321">
        <ele>363.76824951172</ele>
        <time>2017-06-04T08:18:53.000Z</time>
      </trkpt>
      <trkpt lat="48.49717" lon="7.38322">
        <ele>363.05264282227</ele>
        <time>2017-06-04T08:18:55.000Z</time>
      </trkpt>
      <trkpt lat="48.49726" lon="7.38324">
        <ele>362.16735839844</ele>
        <time>2017-06-04T08:18:58.000Z</time>
      </trkpt>
      <trkpt lat="48.49731" lon="7.38325">
        <ele>361.40161132812</ele>
        <time>2017-06-04T08:19:00.000Z</time>
      </trkpt>
      <trkpt lat="48.4974" lon="7.38326">
        <ele>360.84359741211</ele>
        <time>2017-06-04T08:19:03.000Z</time>
      </trkpt>
      <trkpt lat="48.49749" lon="7.38328">
        <ele>360.31356811523</ele>
        <time>2017-06-04T08:19:06.000Z</time>
      </trkpt>
      <trkpt lat="48.49756" lon="7.38332">
        <ele>359.71984863281</ele>
        <time>2017-06-04T08:19:08.000Z</time>
      </trkpt>
      <trkpt lat="48.49765" lon="7.38337">
        <ele>359.20867919922</ele>
        <time>2017-06-04T08:19:11.000Z</time>
      </trkpt>
      <trkpt lat="48.49774" lon="7.38344">
        <ele>358.68695068359</ele>
        <time>2017-06-04T08:19:14.000Z</time>
      </trkpt>
      <trkpt lat="48.49782" lon="7.38349">
        <ele>358.21624755859</ele>
        <time>2017-06-04T08:19:16.000Z</time>
      </trkpt>
      <trkpt lat="48.4979" lon="7.38353">
        <ele>357.88226318359</ele>
        <time>2017-06-04T08:19:18.000Z</time>
      </trkpt>
      <trkpt lat="48.49802" lon="7.38358">
        <ele>357.64126586914</ele>
        <time>2017-06-04T08:19:21.000Z</time>
      </trkpt>
      <trkpt lat="48.49816" lon="7.38362">
        <ele>357.47250366211</ele>
        <time>2017-06-04T08:19:24.000Z</time>
      </trkpt>
      <trkpt lat="48.49827" lon="7.38363">
        <ele>357.44161987305</ele>
        <time>2017-06-04T08:19:26.000Z</time>
      </trkpt>
      <trkpt lat="48.49842" lon="7.38361">
        <ele>357.45068359375</ele>
        <time>2017-06-04T08:19:29.000Z</time>
      </trkpt>
      <trkpt lat="48.49852" lon="7.38359">
        <ele>357.43563842773</ele>
        <time>2017-06-04T08:19:31.000Z</time>
      </trkpt>
      <trkpt lat="48.49862" lon="7.38356">
        <ele>357.42318725586</ele>
        <time>2017-06-04T08:19:33.000Z</time>
      </trkpt>
      <trkpt lat="48.4987" lon="7.38353">
        <ele>357.39953613281</ele>
        <time>2017-06-04T08:19:35.000Z</time>
      </trkpt>
      <trkpt lat="48.49878" lon="7.38349">
        <ele>357.33267211914</ele>
        <time>2017-06-04T08:19:37.000Z</time>
      </trkpt>
      <trkpt lat="48.49885" lon="7.38344">
        <ele>357.31231689453</ele>
        <time>2017-06-04T08:19:39.000Z</time>
      </trkpt>
      <trkpt lat="48.49895" lon="7.38336">
        <ele>357.39862060547</ele>
        <time>2017-06-04T08:19:42.000Z</time>
      </trkpt>
      <trkpt lat="48.49902" lon="7.3833">
        <ele>357.60961914062</ele>
        <time>2017-06-04T08:19:44.000Z</time>
      </trkpt>
      <trkpt lat="48.49909" lon="7.38325">
        <ele>357.96823120117</ele>
        <time>2017-06-04T08:19:46.000Z</time>
      </trkpt>
      <trkpt lat="48.49919" lon="7.38321">
        <ele>358.41864013672</ele>
        <time>2017-06-04T08:19:49.000Z</time>
      </trkpt>
      <trkpt lat="48.49931" lon="7.38319">
        <ele>358.85400390625</ele>
        <time>2017-06-04T08:19:52.000Z</time>
      </trkpt>
      <trkpt lat="48.4994" lon="7.38317">
        <ele>359.25839233398</ele>
        <time>2017-06-04T08:19:54.000Z</time>
      </trkpt>
      <trkpt lat="48.49949" lon="7.38315">
        <ele>359.64569091797</ele>
        <time>2017-06-04T08:19:56.000Z</time>
      </trkpt>
      <trkpt lat="48.49963" lon="7.38313">
        <ele>359.90252685547</ele>
        <time>2017-06-04T08:19:59.000Z</time>
      </trkpt>
      <trkpt lat="48.49973" lon="7.38311">
        <ele>360.11288452148</ele>
        <time>2017-06-04T08:20:01.000Z</time>
      </trkpt>
      <trkpt lat="48.49988" lon="7.38309">
        <ele>360.31936645508</ele>
        <time>2017-06-04T08:20:04.000Z</time>
      </trkpt>
      <trkpt lat="48.49999" lon="7.38309">
        <ele>360.48388671875</ele>
        <time>2017-06-04T08:20:06.000Z</time>
      </trkpt>
      <trkpt lat="48.50012" lon="7.38307">
        <ele>360.6383972168</ele>
        <time>2017-06-04T08:20:08.000Z</time>
      </trkpt>
      <trkpt lat="48.5003" lon="7.38303">
        <ele>360.91967773438</ele>
        <time>2017-06-04T08:20:11.000Z</time>
      </trkpt>
      <trkpt lat="48.50045" lon="7.38301">
        <ele>361.25372314453</ele>
        <time>2017-06-04T08:20:14.000Z</time>
      </trkpt>
      <trkpt lat="48.50061" lon="7.38298">
        <ele>361.67657470703</ele>
        <time>2017-06-04T08:20:17.000Z</time>
      </trkpt>
      <trkpt lat="48.50077" lon="7.38297">
        <ele>362.15960693359</ele>
        <time>2017-06-04T08:20:20.000Z</time>
      </trkpt>
      <trkpt lat="48.50087" lon="7.38296">
        <ele>362.59426879883</ele>
        <time>2017-06-04T08:20:22.000Z</time>
      </trkpt>
      <trkpt lat="48.50103" lon="7.38298">
        <ele>362.75897216797</ele>
        <time>2017-06-04T08:20:25.000Z</time>
      </trkpt>
      <trkpt lat="48.50114" lon="7.38299">
        <ele>362.68780517578</ele>
        <time>2017-06-04T08:20:27.000Z</time>
      </trkpt>
      <trkpt lat="48.50125" lon="7.38299">
        <ele>362.47747802734</ele>
        <time>2017-06-04T08:20:29.000Z</time>
      </trkpt>
      <trkpt lat="48.50134" lon="7.38294">
        <ele>362.51971435547</ele>
        <time>2017-06-04T08:20:31.000Z</time>
      </trkpt>
      <trkpt lat="48.50147" lon="7.38287">
        <ele>362.94085693359</ele>
        <time>2017-06-04T08:20:34.000Z</time>
      </trkpt>
      <trkpt lat="48.50155" lon="7.38282">
        <ele>363.78964233398</ele>
        <time>2017-06-04T08:20:36.000Z</time>
      </trkpt>
      <trkpt lat="48.50167" lon="7.38278">
        <ele>365.04495239258</ele>
        <time>2017-06-04T08:20:39.000Z</time>
      </trkpt>
      <trkpt lat="48.50177" lon="7.38275">
        <ele>366.77691650391</ele>
        <time>2017-06-04T08:20:42.000Z</time>
      </trkpt>
      <trkpt lat="48.50185" lon="7.38274">
        <ele>368.45736694336</ele>
        <time>2017-06-04T08:20:45.000Z</time>
      </trkpt>
      <trkpt lat="48.50189" lon="7.38273">
        <ele>369.8381652832</ele>
        <time>2017-06-04T08:20:47.000Z</time>
      </trkpt>
      <trkpt lat="48.50192" lon="7.38274">
        <ele>370.95855712891</ele>
        <time>2017-06-04T08:20:49.000Z</time>
      </trkpt>
      <trkpt lat="48.50194" lon="7.38273">
        <ele>371.86865234375</ele>
        <time>2017-06-04T08:20:51.000Z</time>
      </trkpt>
      <trkpt lat="48.50199" lon="7.38276">
        <ele>372.18634033203</ele>
        <time>2017-06-04T08:20:54.000Z</time>
      </trkpt>
      <trkpt lat="48.50207" lon="7.38279">
        <ele>372.24337768555</ele>
        <time>2017-06-04T08:20:57.000Z</time>
      </trkpt>
      <trkpt lat="48.50224" lon="7.38285">
        <ele>372.08071899414</ele>
        <time>2017-06-04T08:21:00.000Z</time>
      </trkpt>
      <trkpt lat="48.50244" lon="7.38289">
        <ele>372.00067138672</ele>
        <time>2017-06-04T08:21:03.000Z</time>
      </trkpt>
      <trkpt lat="48.50266" lon="7.38299">
        <ele>371.35174560547</ele>
        <time>2017-06-04T08:21:06.000Z</time>
      </trkpt>
      <trkpt lat="48.50282" lon="7.38305">
        <ele>370.46905517578</ele>
        <time>2017-06-04T08:21:08.000Z</time>
      </trkpt>
      <trkpt lat="48.50298" lon="7.38313">
        <ele>369.1549987793</ele>
        <time>2017-06-04T08:21:10.000Z</time>
      </trkpt>
      <trkpt lat="48.50323" lon="7.38325">
        <ele>367.20867919922</ele>
        <time>2017-06-04T08:21:13.000Z</time>
      </trkpt>
      <trkpt lat="48.5034" lon="7.38333">
        <ele>364.64474487305</ele>
        <time>2017-06-04T08:21:15.000Z</time>
      </trkpt>
      <trkpt lat="48.50352" lon="7.38341">
        <ele>362.23187255859</ele>
        <time>2017-06-04T08:21:17.000Z</time>
      </trkpt>
      <trkpt lat="48.50369" lon="7.3835">
        <ele>359.83953857422</ele>
        <time>2017-06-04T08:21:20.000Z</time>
      </trkpt>
      <trkpt lat="48.50385" lon="7.38355">
        <ele>357.66143798828</ele>
        <time>2017-06-04T08:21:23.000Z</time>
      </trkpt>
      <trkpt lat="48.50397" lon="7.38355">
        <ele>356.23693847656</ele>
        <time>2017-06-04T08:21:25.000Z</time>
      </trkpt>
      <trkpt lat="48.50415" lon="7.38353">
        <ele>355.44860839844</ele>
        <time>2017-06-04T08:21:28.000Z</time>
      </trkpt>
      <trkpt lat="48.50425" lon="7.3835">
        <ele>355.25500488281</ele>
        <time>2017-06-04T08:21:30.000Z</time>
      </trkpt>
      <trkpt lat="48.50432" lon="7.38344">
        <ele>355.78729248047</ele>
        <time>2017-06-04T08:21:33.000Z</time>
      </trkpt>
      <trkpt lat="48.50436" lon="7.38338">
        <ele>356.87710571289</ele>
        <time>2017-06-04T08:21:36.000Z</time>
      </trkpt>
      <trkpt lat="48.50436" lon="7.38336">
        <ele>358.09225463867</ele>
        <time>2017-06-04T08:21:39.000Z</time>
      </trkpt>
      <trkpt lat="48.50437" lon="7.38335">
        <ele>359.23809814453</ele>
        <time>2017-06-04T08:21:43.000Z</time>
      </trkpt>
      <trkpt lat="48.50438" lon="7.38332">
        <ele>360.30679321289</ele>
        <time>2017-06-04T08:21:46.000Z</time>
      </trkpt>
      <trkpt lat="48.50436" lon="7.38333">
        <ele>360.87445068359</ele>
        <time>2017-06-04T08:21:48.000Z</time>
      </trkpt>
      <trkpt lat="48.50436" lon="7.38332">
        <ele>361.22500610352</ele>
        <time>2017-06-04T08:21:51.000Z</time>
      </trkpt>
      <trkpt lat="48.50434" lon="7.38328">
        <ele>361.76837158203</ele>
        <time>2017-06-04T08:21:54.000Z</time>
      </trkpt>
      <trkpt lat="48.50431" lon="7.38326">
        <ele>362.32861328125</ele>
        <time>2017-06-04T08:21:56.000Z</time>
      </trkpt>
      <trkpt lat="48.50425" lon="7.38324">
        <ele>362.81298828125</ele>
        <time>2017-06-04T08:21:59.000Z</time>
      </trkpt>
      <trkpt lat="48.50422" lon="7.38319">
        <ele>363.78198242188</ele>
        <time>2017-06-04T08:22:02.000Z</time>
      </trkpt>
      <trkpt lat="48.50417" lon="7.38317">
        <ele>364.81494140625</ele>
        <time>2017-06-04T08:22:05.000Z</time>
      </trkpt>
      <trkpt lat="48.50411" lon="7.38316">
        <ele>365.58367919922</ele>
        <time>2017-06-04T08:22:08.000Z</time>
      </trkpt>
      <trkpt lat="48.50403" lon="7.38315">
        <ele>366.31182861328</ele>
        <time>2017-06-04T08:22:11.000Z</time>
      </trkpt>
      <trkpt lat="48.50397" lon="7.38312">
        <ele>367.12432861328</ele>
        <time>2017-06-04T08:22:14.000Z</time>
      </trkpt>
      <trkpt lat="48.50394" lon="7.3831">
        <ele>367.69647216797</ele>
        <time>2017-06-04T08:22:17.000Z</time>
      </trkpt>
      <trkpt lat="48.50389" lon="7.38307">
        <ele>368.30328369141</ele>
        <time>2017-06-04T08:22:20.000Z</time>
      </trkpt>
      <trkpt lat="48.50386" lon="7.38305">
        <ele>369.07357788086</ele>
        <time>2017-06-04T08:22:23.000Z</time>
      </trkpt>
      <trkpt lat="48.50385" lon="7.38302">
        <ele>370.01031494141</ele>
        <time>2017-06-04T08:22:25.000Z</time>
      </trkpt>
      <trkpt lat="48.5038" lon="7.38299">
        <ele>370.92956542969</ele>
        <time>2017-06-04T08:22:28.000Z</time>
      </trkpt>
      <trkpt lat="48.50375" lon="7.38297">
        <ele>371.88500976562</ele>
        <time>2017-06-04T08:22:31.000Z</time>
      </trkpt>
      <trkpt lat="48.50372" lon="7.38295">
        <ele>372.74493408203</ele>
        <time>2017-06-04T08:22:33.000Z</time>
      </trkpt>
      <trkpt lat="48.50367" lon="7.38291">
        <ele>373.67440795898</ele>
        <time>2017-06-04T08:22:36.000Z</time>
      </trkpt>
      <trkpt lat="48.50362" lon="7.38288">
        <ele>374.62991333008</ele>
        <time>2017-06-04T08:22:39.000Z</time>
      </trkpt>
      <trkpt lat="48.50359" lon="7.38286">
        <ele>375.5080871582</ele>
        <time>2017-06-04T08:22:41.000Z</time>
      </trkpt>
      <trkpt lat="48.50354" lon="7.38284">
        <ele>376.35433959961</ele>
        <time>2017-06-04T08:22:44.000Z</time>
      </trkpt>
      <trkpt lat="48.50351" lon="7.3828">
        <ele>377.41174316406</ele>
        <time>2017-06-04T08:22:47.000Z</time>
      </trkpt>
      <trkpt lat="48.50346" lon="7.38276">
        <ele>378.41351318359</ele>
        <time>2017-06-04T08:22:50.000Z</time>
      </trkpt>
      <trkpt lat="48.50343" lon="7.38274">
        <ele>379.34234619141</ele>
        <time>2017-06-04T08:22:52.000Z</time>
      </trkpt>
      <trkpt lat="48.50337" lon="7.3827">
        <ele>380.44519042969</ele>
        <time>2017-06-04T08:22:55.000Z</time>
      </trkpt>
      <trkpt lat="48.50335" lon="7.38268">
        <ele>381.52035522461</ele>
        <time>2017-06-04T08:22:57.000Z</time>
      </trkpt>
      <trkpt lat="48.5033" lon="7.38267">
        <ele>382.36175537109</ele>
        <time>2017-06-04T08:23:00.000Z</time>
      </trkpt>
      <trkpt lat="48.50327" lon="7.38265">
        <ele>383.05212402344</ele>
        <time>2017-06-04T08:23:02.000Z</time>
      </trkpt>
      <trkpt lat="48.50324" lon="7.38264">
        <ele>383.66046142578</ele>
        <time>2017-06-04T08:23:04.000Z</time>
      </trkpt>
      <trkpt lat="48.50321" lon="7.38263">
        <ele>384.07415771484</ele>
        <time>2017-06-04T08:23:06.000Z</time>
      </trkpt>
      <trkpt lat="48.50319" lon="7.38261">
        <ele>384.47033691406</ele>
        <time>2017-06-04T08:23:09.000Z</time>
      </trkpt>
      <trkpt lat="48.50317" lon="7.3826">
        <ele>384.86389160156</ele>
        <time>2017-06-04T08:23:11.000Z</time>
      </trkpt>
      <trkpt lat="48.50315" lon="7.38258">
        <ele>385.32849121094</ele>
        <time>2017-06-04T08:23:14.000Z</time>
      </trkpt>
      <trkpt lat="48.50313" lon="7.38254">
        <ele>386.00537109375</ele>
        <time>2017-06-04T08:23:17.000Z</time>
      </trkpt>
      <trkpt lat="48.50311" lon="7.38252">
        <ele>386.71459960938</ele>
        <time>2017-06-04T08:23:19.000Z</time>
      </trkpt>
      <trkpt lat="48.50309" lon="7.3825">
        <ele>387.51751708984</ele>
        <time>2017-06-04T08:23:21.000Z</time>
      </trkpt>
      <trkpt lat="48.50304" lon="7.38246">
        <ele>388.40536499023</ele>
        <time>2017-06-04T08:23:24.000Z</time>
      </trkpt>
      <trkpt lat="48.50301" lon="7.38244">
        <ele>389.23281860352</ele>
        <time>2017-06-04T08:23:26.000Z</time>
      </trkpt>
      <trkpt lat="48.50298" lon="7.38242">
        <ele>389.88311767578</ele>
        <time>2017-06-04T08:23:29.000Z</time>
      </trkpt>
      <trkpt lat="48.50298" lon="7.3824">
        <ele>390.52319335938</ele>
        <time>2017-06-04T08:23:31.000Z</time>
      </trkpt>
      <trkpt lat="48.50297" lon="7.3824">
        <ele>391.03332519531</ele>
        <time>2017-06-04T08:23:35.000Z</time>
      </trkpt>
      <trkpt lat="48.50295" lon="7.38238">
        <ele>391.478515625</ele>
        <time>2017-06-04T08:23:38.000Z</time>
      </trkpt>
      <trkpt lat="48.50292" lon="7.38235">
        <ele>391.96044921875</ele>
        <time>2017-06-04T08:23:40.000Z</time>
      </trkpt>
      <trkpt lat="48.50287" lon="7.38234">
        <ele>392.33911132812</ele>
        <time>2017-06-04T08:23:43.000Z</time>
      </trkpt>
      <trkpt lat="48.50284" lon="7.38234">
        <ele>392.62707519531</ele>
        <time>2017-06-04T08:23:45.000Z</time>
      </trkpt>
      <trkpt lat="48.50278" lon="7.38232">
        <ele>392.95910644531</ele>
        <time>2017-06-04T08:23:48.000Z</time>
      </trkpt>
      <trkpt lat="48.50275" lon="7.3823">
        <ele>393.25207519531</ele>
        <time>2017-06-04T08:23:50.000Z</time>
      </trkpt>
      <trkpt lat="48.50272" lon="7.38229">
        <ele>393.46252441406</ele>
        <time>2017-06-04T08:23:52.000Z</time>
      </trkpt>
      <trkpt lat="48.50266" lon="7.38228">
        <ele>393.71008300781</ele>
        <time>2017-06-04T08:23:55.000Z</time>
      </trkpt>
      <trkpt lat="48.50263" lon="7.38226">
        <ele>394.02160644531</ele>
        <time>2017-06-04T08:23:57.000Z</time>
      </trkpt>
      <trkpt lat="48.50257" lon="7.38223">
        <ele>394.39721679688</ele>
        <time>2017-06-04T08:24:00.000Z</time>
      </trkpt>
      <trkpt lat="48.50252" lon="7.3822">
        <ele>394.86181640625</ele>
        <time>2017-06-04T08:24:03.000Z</time>
      </trkpt>
      <trkpt lat="48.50248" lon="7.38216">
        <ele>395.43884277344</ele>
        <time>2017-06-04T08:24:06.000Z</time>
      </trkpt>
      <trkpt lat="48.50244" lon="7.38214">
        <ele>396.04107666016</ele>
        <time>2017-06-04T08:24:08.000Z</time>
      </trkpt>
      <trkpt lat="48.5024" lon="7.38212">
        <ele>396.66326904297</ele>
        <time>2017-06-04T08:24:11.000Z</time>
      </trkpt>
      <trkpt lat="48.50235" lon="7.38208">
        <ele>397.30551147461</ele>
        <time>2017-06-04T08:24:14.000Z</time>
      </trkpt>
      <trkpt lat="48.50232" lon="7.38205">
        <ele>397.91995239258</ele>
        <time>2017-06-04T08:24:16.000Z</time>
      </trkpt>
      <trkpt lat="48.50228" lon="7.38201">
        <ele>398.55648803711</ele>
        <time>2017-06-04T08:24:19.000Z</time>
      </trkpt>
      <trkpt lat="48.50225" lon="7.382">
        <ele>399.17764282227</ele>
        <time>2017-06-04T08:24:21.000Z</time>
      </trkpt>
      <trkpt lat="48.5022" lon="7.382">
        <ele>399.67358398438</ele>
        <time>2017-06-04T08:24:24.000Z</time>
      </trkpt>
      <trkpt lat="48.50217" lon="7.38199">
        <ele>399.98431396484</ele>
        <time>2017-06-04T08:24:26.000Z</time>
      </trkpt>
      <trkpt lat="48.50214" lon="7.38197">
        <ele>400.29278564453</ele>
        <time>2017-06-04T08:24:29.000Z</time>
      </trkpt>
      <trkpt lat="48.5021" lon="7.38195">
        <ele>400.47134399414</ele>
        <time>2017-06-04T08:24:32.000Z</time>
      </trkpt>
      <trkpt lat="48.50208" lon="7.38194">
        <ele>400.66738891602</ele>
        <time>2017-06-04T08:24:34.000Z</time>
      </trkpt>
      <trkpt lat="48.50206" lon="7.38191">
        <ele>401.09585571289</ele>
        <time>2017-06-04T08:24:37.000Z</time>
      </trkpt>
      <trkpt lat="48.50203" lon="7.3819">
        <ele>401.55947875977</ele>
        <time>2017-06-04T08:24:39.000Z</time>
      </trkpt>
      <trkpt lat="48.50198" lon="7.38189">
        <ele>401.93182373047</ele>
        <time>2017-06-04T08:24:42.000Z</time>
      </trkpt>
      <trkpt lat="48.50194" lon="7.38186">
        <ele>402.40447998047</ele>
        <time>2017-06-04T08:24:45.000Z</time>
      </trkpt>
      <trkpt lat="48.5019" lon="7.38183">
        <ele>402.94741821289</ele>
        <time>2017-06-04T08:24:48.000Z</time>
      </trkpt>
      <trkpt lat="48.50185" lon="7.38181">
        <ele>403.36407470703</ele>
        <time>2017-06-04T08:24:51.000Z</time>
      </trkpt>
      <trkpt lat="48.50181" lon="7.38181">
        <ele>403.78805541992</ele>
        <time>2017-06-04T08:24:53.000Z</time>
      </trkpt>
      <trkpt lat="48.50177" lon="7.38178">
        <ele>404.34887695312</ele>
        <time>2017-06-04T08:24:56.000Z</time>
      </trkpt>
      <trkpt lat="48.50173" lon="7.38175">
        <ele>404.94024658203</ele>
        <time>2017-06-04T08:24:59.000Z</time>
      </trkpt>
      <trkpt lat="48.50169" lon="7.38174">
        <ele>405.39739990234</ele>
        <time>2017-06-04T08:25:02.000Z</time>
      </trkpt>
      <trkpt lat="48.50168" lon="7.38173">
        <ele>405.83456420898</ele>
        <time>2017-06-04T08:25:04.000Z</time>
      </trkpt>
      <trkpt lat="48.50165" lon="7.38171">
        <ele>406.40243530273</ele>
        <time>2017-06-04T08:25:06.000Z</time>
      </trkpt>
      <trkpt lat="48.50162" lon="7.38169">
        <ele>406.92156982422</ele>
        <time>2017-06-04T08:25:08.000Z</time>
      </trkpt>
      <trkpt lat="48.50158" lon="7.38167">
        <ele>407.38031005859</ele>
        <time>2017-06-04T08:25:11.000Z</time>
      </trkpt>
      <trkpt lat="48.50156" lon="7.38165">
        <ele>408.00009155273</ele>
        <time>2017-06-04T08:25:14.000Z</time>
      </trkpt>
      <trkpt lat="48.50153" lon="7.3816">
        <ele>408.85171508789</ele>
        <time>2017-06-04T08:25:17.000Z</time>
      </trkpt>
      <trkpt lat="48.50148" lon="7.38158">
        <ele>409.68441772461</ele>
        <time>2017-06-04T08:25:20.000Z</time>
      </trkpt>
      <trkpt lat="48.50143" lon="7.38156">
        <ele>410.52801513672</ele>
        <time>2017-06-04T08:25:23.000Z</time>
      </trkpt>
      <trkpt lat="48.50137" lon="7.38154">
        <ele>411.34399414062</ele>
        <time>2017-06-04T08:25:26.000Z</time>
      </trkpt>
      <trkpt lat="48.50132" lon="7.38152">
        <ele>412.11221313477</ele>
        <time>2017-06-04T08:25:29.000Z</time>
      </trkpt>
      <trkpt lat="48.5013" lon="7.3815">
        <ele>412.74307250977</ele>
        <time>2017-06-04T08:25:31.000Z</time>
      </trkpt>
      <trkpt lat="48.50126" lon="7.38148">
        <ele>413.37002563477</ele>
        <time>2017-06-04T08:25:34.000Z</time>
      </trkpt>
      <trkpt lat="48.50122" lon="7.38145">
        <ele>414.00122070312</ele>
        <time>2017-06-04T08:25:37.000Z</time>
      </trkpt>
      <trkpt lat="48.50117" lon="7.38144">
        <ele>414.62100219727</ele>
        <time>2017-06-04T08:25:40.000Z</time>
      </trkpt>
      <trkpt lat="48.50114" lon="7.38144">
        <ele>415.08374023438</ele>
        <time>2017-06-04T08:25:42.000Z</time>
      </trkpt>
      <trkpt lat="48.50109" lon="7.38142">
        <ele>415.50610351562</ele>
        <time>2017-06-04T08:25:45.000Z</time>
      </trkpt>
      <trkpt lat="48.50105" lon="7.38137">
        <ele>416.14315795898</ele>
        <time>2017-06-04T08:25:48.000Z</time>
      </trkpt>
      <trkpt lat="48.50102" lon="7.38135">
        <ele>416.73071289062</ele>
        <time>2017-06-04T08:25:50.000Z</time>
      </trkpt>
      <trkpt lat="48.50101" lon="7.38133">
        <ele>417.42944335938</ele>
        <time>2017-06-04T08:25:53.000Z</time>
      </trkpt>
      <trkpt lat="48.50101" lon="7.3813">
        <ele>418.35620117188</ele>
        <time>2017-06-04T08:25:55.000Z</time>
      </trkpt>
      <trkpt lat="48.501" lon="7.38128">
        <ele>419.32885742188</ele>
        <time>2017-06-04T08:25:58.000Z</time>
      </trkpt>
      <trkpt lat="48.50097" lon="7.38128">
        <ele>419.94979858398</ele>
        <time>2017-06-04T08:26:01.000Z</time>
      </trkpt>
      <trkpt lat="48.50093" lon="7.38127">
        <ele>420.51766967773</ele>
        <time>2017-06-04T08:26:04.000Z</time>
      </trkpt>
      <trkpt lat="48.5009" lon="7.38126">
        <ele>420.90390014648</ele>
        <time>2017-06-04T08:26:06.000Z</time>
      </trkpt>
      <trkpt lat="48.50086" lon="7.38125">
        <ele>421.14672851562</ele>
        <time>2017-06-04T08:26:09.000Z</time>
      </trkpt>
      <trkpt lat="48.50083" lon="7.38125">
        <ele>421.28506469727</ele>
        <time>2017-06-04T08:26:11.000Z</time>
      </trkpt>
      <trkpt lat="48.50077" lon="7.38123">
        <ele>421.52557373047</ele>
        <time>2017-06-04T08:26:14.000Z</time>
      </trkpt>
      <trkpt lat="48.50071" lon="7.38121">
        <ele>421.89077758789</ele>
        <time>2017-06-04T08:26:16.000Z</time>
      </trkpt>
      <trkpt lat="48.50065" lon="7.38118">
        <ele>422.49380493164</ele>
        <time>2017-06-04T08:26:19.000Z</time>
      </trkpt>
      <trkpt lat="48.50062" lon="7.38117">
        <ele>423.09301757812</ele>
        <time>2017-06-04T08:26:21.000Z</time>
      </trkpt>
      <trkpt lat="48.50059" lon="7.38116">
        <ele>423.69024658203</ele>
        <time>2017-06-04T08:26:23.000Z</time>
      </trkpt>
      <trkpt lat="48.50056" lon="7.38116">
        <ele>424.22744750977</ele>
        <time>2017-06-04T08:26:25.000Z</time>
      </trkpt>
      <trkpt lat="48.50052" lon="7.38115">
        <ele>424.66137695312</ele>
        <time>2017-06-04T08:26:28.000Z</time>
      </trkpt>
      <trkpt lat="48.50048" lon="7.38116">
        <ele>424.796875</ele>
        <time>2017-06-04T08:26:31.000Z</time>
      </trkpt>
      <trkpt lat="48.50046" lon="7.38116">
        <ele>424.86636352539</ele>
        <time>2017-06-04T08:26:33.000Z</time>
      </trkpt>
      <trkpt lat="48.50043" lon="7.38116">
        <ele>424.95053100586</ele>
        <time>2017-06-04T08:26:35.000Z</time>
      </trkpt>
      <trkpt lat="48.5004" lon="7.38115">
        <ele>425.07574462891</ele>
        <time>2017-06-04T08:26:37.000Z</time>
      </trkpt>
      <trkpt lat="48.50035" lon="7.38114">
        <ele>425.19857788086</ele>
        <time>2017-06-04T08:26:40.000Z</time>
      </trkpt>
      <trkpt lat="48.50032" lon="7.38113">
        <ele>425.40313720703</ele>
        <time>2017-06-04T08:26:42.000Z</time>
      </trkpt>
      <trkpt lat="48.50029" lon="7.38113">
        <ele>425.69281005859</ele>
        <time>2017-06-04T08:26:44.000Z</time>
      </trkpt>
      <trkpt lat="48.50025" lon="7.38113">
        <ele>425.90765380859</ele>
        <time>2017-06-04T08:26:46.000Z</time>
      </trkpt>
      <trkpt lat="48.50021" lon="7.38111">
        <ele>426.15789794922</ele>
        <time>2017-06-04T08:26:49.000Z</time>
      </trkpt>
      <trkpt lat="48.50016" lon="7.38109">
        <ele>426.55883789062</ele>
        <time>2017-06-04T08:26:52.000Z</time>
      </trkpt>
      <trkpt lat="48.5001" lon="7.38107">
        <ele>427.05874633789</ele>
        <time>2017-06-04T08:26:55.000Z</time>
      </trkpt>
      <trkpt lat="48.50007" lon="7.38105">
        <ele>427.61456298828</ele>
        <time>2017-06-04T08:26:57.000Z</time>
      </trkpt>
      <trkpt lat="48.50004" lon="7.38104">
        <ele>428.30615234375</ele>
        <time>2017-06-04T08:26:59.000Z</time>
      </trkpt>
      <trkpt lat="48.50001" lon="7.38102">
        <ele>429.01147460938</ele>
        <time>2017-06-04T08:27:01.000Z</time>
      </trkpt>
      <trkpt lat="48.49995" lon="7.381">
        <ele>429.66717529297</ele>
        <time>2017-06-04T08:27:04.000Z</time>
      </trkpt>
      <trkpt lat="48.49993" lon="7.38099">
        <ele>430.23037719727</ele>
        <time>2017-06-04T08:27:06.000Z</time>
      </trkpt>
      <trkpt lat="48.4999" lon="7.38098">
        <ele>430.75894165039</ele>
        <time>2017-06-04T08:27:09.000Z</time>
      </trkpt>
      <trkpt lat="48.49986" lon="7.38097">
        <ele>431.22332763672</ele>
        <time>2017-06-04T08:27:11.000Z</time>
      </trkpt>
      <trkpt lat="48.49981" lon="7.38097">
        <ele>431.59838867188</ele>
        <time>2017-06-04T08:27:14.000Z</time>
      </trkpt>
      <trkpt lat="48.49977" lon="7.38097">
        <ele>431.83276367188</ele>
        <time>2017-06-04T08:27:17.000Z</time>
      </trkpt>
      <trkpt lat="48.49973" lon="7.38095">
        <ele>432.14038085938</ele>
        <time>2017-06-04T08:27:20.000Z</time>
      </trkpt>
      <trkpt lat="48.49971" lon="7.38092">
        <ele>432.55419921875</ele>
        <time>2017-06-04T08:27:23.000Z</time>
      </trkpt>
      <trkpt lat="48.49968" lon="7.3809">
        <ele>433.06323242188</ele>
        <time>2017-06-04T08:27:26.000Z</time>
      </trkpt>
      <trkpt lat="48.49965" lon="7.38089">
        <ele>433.66748046875</ele>
        <time>2017-06-04T08:27:29.000Z</time>
      </trkpt>
      <trkpt lat="48.49961" lon="7.38087">
        <ele>434.39624023438</ele>
        <time>2017-06-04T08:27:32.000Z</time>
      </trkpt>
      <trkpt lat="48.4996" lon="7.38086">
        <ele>435.0810546875</ele>
        <time>2017-06-04T08:27:34.000Z</time>
      </trkpt>
      <trkpt lat="48.49957" lon="7.38084">
        <ele>435.6669921875</ele>
        <time>2017-06-04T08:27:37.000Z</time>
      </trkpt>
      <trkpt lat="48.49954" lon="7.38083">
        <ele>436.18902587891</ele>
        <time>2017-06-04T08:27:39.000Z</time>
      </trkpt>
      <trkpt lat="48.49951" lon="7.38082">
        <ele>436.62274169922</ele>
        <time>2017-06-04T08:27:41.000Z</time>
      </trkpt>
      <trkpt lat="48.49949" lon="7.38082">
        <ele>436.92694091797</ele>
        <time>2017-06-04T08:27:44.000Z</time>
      </trkpt>
      <trkpt lat="48.49948" lon="7.38081">
        <ele>437.22241210938</ele>
        <time>2017-06-04T08:27:46.000Z</time>
      </trkpt>
      <trkpt lat="48.49947" lon="7.38081">
        <ele>437.439453125</ele>
        <time>2017-06-04T08:27:49.000Z</time>
      </trkpt>
      <trkpt lat="48.49945" lon="7.38081">
        <ele>437.59155273438</ele>
        <time>2017-06-04T08:27:53.000Z</time>
      </trkpt>
      <trkpt lat="48.49942" lon="7.38079">
        <ele>437.80606079102</ele>
        <time>2017-06-04T08:27:56.000Z</time>
      </trkpt>
      <trkpt lat="48.49942" lon="7.38075">
        <ele>438.28158569336</ele>
        <time>2017-06-04T08:27:59.000Z</time>
      </trkpt>
      <trkpt lat="48.49943" lon="7.38074">
        <ele>438.79095458984</ele>
        <time>2017-06-04T08:28:02.000Z</time>
      </trkpt>
      <trkpt lat="48.4994" lon="7.38074">
        <ele>439.24819946289</ele>
        <time>2017-06-04T08:28:07.000Z</time>
      </trkpt>
      <trkpt lat="48.49939" lon="7.38076">
        <ele>439.59091186523</ele>
        <time>2017-06-04T08:28:14.000Z</time>
      </trkpt>
      <trkpt lat="48.49935" lon="7.38077">
        <ele>439.73828125</ele>
        <time>2017-06-04T08:28:17.000Z</time>
      </trkpt>
      <trkpt lat="48.49932" lon="7.38078">
        <ele>439.52352905273</ele>
        <time>2017-06-04T08:28:19.000Z</time>
      </trkpt>
      <trkpt lat="48.49931" lon="7.38079">
        <ele>439.14599609375</ele>
        <time>2017-06-04T08:28:22.000Z</time>
      </trkpt>
      <trkpt lat="48.49929" lon="7.38077">
        <ele>438.94305419922</ele>
        <time>2017-06-04T08:28:28.000Z</time>
      </trkpt>
      <trkpt lat="48.49934" lon="7.38077">
        <ele>438.84423828125</ele>
        <time>2017-06-04T08:28:39.000Z</time>
      </trkpt>
      <trkpt lat="48.49934" lon="7.38077">
        <ele>438.84423828125</ele>
        <time>2017-06-04T08:28:59.000Z</time>
      </trkpt>
      <trkpt lat="48.49933" lon="7.38076">
        <ele>438.92178344727</ele>
        <time>2017-06-04T08:29:07.000Z</time>
      </trkpt>
      <trkpt lat="48.49927" lon="7.38074">
        <ele>439.234375</ele>
        <time>2017-06-04T08:29:10.000Z</time>
      </trkpt>
      <trkpt lat="48.49921" lon="7.38073">
        <ele>439.66705322266</ele>
        <time>2017-06-04T08:29:13.000Z</time>
      </trkpt>
      <trkpt lat="48.49917" lon="7.38073">
        <ele>440.00048828125</ele>
        <time>2017-06-04T08:29:16.000Z</time>
      </trkpt>
      <trkpt lat="48.49914" lon="7.38072">
        <ele>440.37490844727</ele>
        <time>2017-06-04T08:29:19.000Z</time>
      </trkpt>
      <trkpt lat="48.4991" lon="7.38069">
        <ele>440.79418945312</ele>
        <time>2017-06-04T08:29:21.000Z</time>
      </trkpt>
      <trkpt lat="48.49906" lon="7.38069">
        <ele>441.06964111328</ele>
        <time>2017-06-04T08:29:24.000Z</time>
      </trkpt>
      <trkpt lat="48.49905" lon="7.38069">
        <ele>441.27416992188</ele>
        <time>2017-06-04T08:29:26.000Z</time>
      </trkpt>
      <trkpt lat="48.49903" lon="7.38069">
        <ele>441.41333007812</ele>
        <time>2017-06-04T08:29:28.000Z</time>
      </trkpt>
      <trkpt lat="48.49899" lon="7.38068">
        <ele>441.59091186523</ele>
        <time>2017-06-04T08:29:31.000Z</time>
      </trkpt>
      <trkpt lat="48.49895" lon="7.38064">
        <ele>441.90289306641</ele>
        <time>2017-06-04T08:29:34.000Z</time>
      </trkpt>
      <trkpt lat="48.49892" lon="7.38061">
        <ele>442.38385009766</ele>
        <time>2017-06-04T08:29:36.000Z</time>
      </trkpt>
      <trkpt lat="48.49887" lon="7.38058">
        <ele>443.02456665039</ele>
        <time>2017-06-04T08:29:39.000Z</time>
      </trkpt>
      <trkpt lat="48.49884" lon="7.38057">
        <ele>443.75830078125</ele>
        <time>2017-06-04T08:29:41.000Z</time>
      </trkpt>
      <trkpt lat="48.49882" lon="7.38055">
        <ele>444.54522705078</ele>
        <time>2017-06-04T08:29:43.000Z</time>
      </trkpt>
      <trkpt lat="48.49877" lon="7.38052">
        <ele>445.23870849609</ele>
        <time>2017-06-04T08:29:46.000Z</time>
      </trkpt>
      <trkpt lat="48.4987" lon="7.3805">
        <ele>445.83535766602</ele>
        <time>2017-06-04T08:29:49.000Z</time>
      </trkpt>
      <trkpt lat="48.49865" lon="7.38053">
        <ele>446.07461547852</ele>
        <time>2017-06-04T08:29:51.000Z</time>
      </trkpt>
      <trkpt lat="48.4986" lon="7.38053">
        <ele>446.23861694336</ele>
        <time>2017-06-04T08:29:54.000Z</time>
      </trkpt>
      <trkpt lat="48.49858" lon="7.38051">
        <ele>446.37442016602</ele>
        <time>2017-06-04T08:29:56.000Z</time>
      </trkpt>
      <trkpt lat="48.49855" lon="7.38048">
        <ele>446.50350952148</ele>
        <time>2017-06-04T08:29:59.000Z</time>
      </trkpt>
      <trkpt lat="48.49854" lon="7.38047">
        <ele>446.66323852539</ele>
        <time>2017-06-04T08:30:01.000Z</time>
      </trkpt>
      <trkpt lat="48.49852" lon="7.38045">
        <ele>447.18936157227</ele>
        <time>2017-06-04T08:30:04.000Z</time>
      </trkpt>
      <trkpt lat="48.49851" lon="7.38044">
        <ele>447.77743530273</ele>
        <time>2017-06-04T08:30:06.000Z</time>
      </trkpt>
      <trkpt lat="48.49848" lon="7.38043">
        <ele>448.31323242188</ele>
        <time>2017-06-04T08:30:09.000Z</time>
      </trkpt>
      <trkpt lat="48.49844" lon="7.38043">
        <ele>448.60977172852</ele>
        <time>2017-06-04T08:30:11.000Z</time>
      </trkpt>
      <trkpt lat="48.49842" lon="7.38042">
        <ele>448.86932373047</ele>
        <time>2017-06-04T08:30:13.000Z</time>
      </trkpt>
      <trkpt lat="48.49842" lon="7.3804">
        <ele>449.14443969727</ele>
        <time>2017-06-04T08:30:15.000Z</time>
      </trkpt>
      <trkpt lat="48.49839" lon="7.38038">
        <ele>449.47479248047</ele>
        <time>2017-06-04T08:30:18.000Z</time>
      </trkpt>
      <trkpt lat="48.49838" lon="7.38037">
        <ele>449.79364013672</ele>
        <time>2017-06-04T08:30:21.000Z</time>
      </trkpt>
      <trkpt lat="48.49833" lon="7.38039">
        <ele>450.05126953125</ele>
        <time>2017-06-04T08:30:24.000Z</time>
      </trkpt>
      <trkpt lat="48.49828" lon="7.3804">
        <ele>450.13232421875</ele>
        <time>2017-06-04T08:30:27.000Z</time>
      </trkpt>
      <trkpt lat="48.49827" lon="7.38037">
        <ele>450.24163818359</ele>
        <time>2017-06-04T08:30:30.000Z</time>
      </trkpt>
      <trkpt lat="48.49825" lon="7.38033">
        <ele>450.56085205078</ele>
        <time>2017-06-04T08:30:33.000Z</time>
      </trkpt>
      <trkpt lat="48.49822" lon="7.38033">
        <ele>450.83990478516</ele>
        <time>2017-06-04T08:30:36.000Z</time>
      </trkpt>
      <trkpt lat="48.49819" lon="7.38032">
        <ele>451.255859375</ele>
        <time>2017-06-04T08:30:39.000Z</time>
      </trkpt>
      <trkpt lat="48.49814" lon="7.38032">
        <ele>451.82489013672</ele>
        <time>2017-06-04T08:30:42.000Z</time>
      </trkpt>
      <trkpt lat="48.4981" lon="7.38031">
        <ele>452.21087646484</ele>
        <time>2017-06-04T08:30:45.000Z</time>
      </trkpt>
      <trkpt lat="48.49809" lon="7.3803">
        <ele>452.37286376953</ele>
        <time>2017-06-04T08:30:48.000Z</time>
      </trkpt>
      <trkpt lat="48.49807" lon="7.38028">
        <ele>452.6240234375</ele>
        <time>2017-06-04T08:30:51.000Z</time>
      </trkpt>
      <trkpt lat="48.49805" lon="7.38028">
        <ele>452.87109375</ele>
        <time>2017-06-04T08:30:53.000Z</time>
      </trkpt>
      <trkpt lat="48.49803" lon="7.38028">
        <ele>453.07177734375</ele>
        <time>2017-06-04T08:30:55.000Z</time>
      </trkpt>
      <trkpt lat="48.49802" lon="7.38026">
        <ele>453.42440795898</ele>
        <time>2017-06-04T08:30:57.000Z</time>
      </trkpt>
      <trkpt lat="48.498" lon="7.3802">
        <ele>454.05535888672</ele>
        <time>2017-06-04T08:31:00.000Z</time>
      </trkpt>
      <trkpt lat="48.49797" lon="7.38019">
        <ele>454.67739868164</ele>
        <time>2017-06-04T08:31:02.000Z</time>
      </trkpt>
      <trkpt lat="48.49791" lon="7.38019">
        <ele>455.26425170898</ele>
        <time>2017-06-04T08:31:05.000Z</time>
      </trkpt>
      <trkpt lat="48.49785" lon="7.38022">
        <ele>455.64398193359</ele>
        <time>2017-06-04T08:31:07.000Z</time>
      </trkpt>
      <trkpt lat="48.49781" lon="7.38021">
        <ele>455.88751220703</ele>
        <time>2017-06-04T08:31:10.000Z</time>
      </trkpt>
      <trkpt lat="48.49776" lon="7.38019">
        <ele>455.86889648438</ele>
        <time>2017-06-04T08:31:13.000Z</time>
      </trkpt>
      <trkpt lat="48.49771" lon="7.38018">
        <ele>455.82470703125</ele>
        <time>2017-06-04T08:31:16.000Z</time>
      </trkpt>
      <trkpt lat="48.49768" lon="7.38017">
        <ele>455.87249755859</ele>
        <time>2017-06-04T08:31:18.000Z</time>
      </trkpt>
      <trkpt lat="48.49765" lon="7.38017">
        <ele>456.130859375</ele>
        <time>2017-06-04T08:31:20.000Z</time>
      </trkpt>
      <trkpt lat="48.49763" lon="7.38017">
        <ele>456.35028076172</ele>
        <time>2017-06-04T08:31:22.000Z</time>
      </trkpt>
      <trkpt lat="48.49758" lon="7.38017">
        <ele>456.45794677734</ele>
        <time>2017-06-04T08:31:25.000Z</time>
      </trkpt>
      <trkpt lat="48.49754" lon="7.38017">
        <ele>456.50366210938</ele>
        <time>2017-06-04T08:31:28.000Z</time>
      </trkpt>
      <trkpt lat="48.49749" lon="7.38017">
        <ele>456.47036743164</ele>
        <time>2017-06-04T08:31:31.000Z</time>
      </trkpt>
      <trkpt lat="48.49746" lon="7.38017">
        <ele>456.41616821289</ele>
        <time>2017-06-04T08:31:33.000Z</time>
      </trkpt>
      <trkpt lat="48.49742" lon="7.38016">
        <ele>456.36944580078</ele>
        <time>2017-06-04T08:31:36.000Z</time>
      </trkpt>
      <trkpt lat="48.49739" lon="7.38015">
        <ele>456.36328125</ele>
        <time>2017-06-04T08:31:39.000Z</time>
      </trkpt>
      <trkpt lat="48.49737" lon="7.38015">
        <ele>456.32290649414</ele>
        <time>2017-06-04T08:31:41.000Z</time>
      </trkpt>
      <trkpt lat="48.49734" lon="7.38014">
        <ele>456.37860107422</ele>
        <time>2017-06-04T08:31:44.000Z</time>
      </trkpt>
      <trkpt lat="48.49732" lon="7.38011">
        <ele>456.58145141602</ele>
        <time>2017-06-04T08:31:46.000Z</time>
      </trkpt>
      <trkpt lat="48.49729" lon="7.38009">
        <ele>456.90203857422</ele>
        <time>2017-06-04T08:31:49.000Z</time>
      </trkpt>
      <trkpt lat="48.49726" lon="7.38008">
        <ele>457.23626708984</ele>
        <time>2017-06-04T08:31:52.000Z</time>
      </trkpt>
      <trkpt lat="48.49722" lon="7.38007">
        <ele>457.60321044922</ele>
        <time>2017-06-04T08:31:55.000Z</time>
      </trkpt>
      <trkpt lat="48.49719" lon="7.38004">
        <ele>458.03848266602</ele>
        <time>2017-06-04T08:31:58.000Z</time>
      </trkpt>
      <trkpt lat="48.49718" lon="7.38002">
        <ele>458.48510742188</ele>
        <time>2017-06-04T08:32:00.000Z</time>
      </trkpt>
      <trkpt lat="48.49717" lon="7.37999">
        <ele>458.93731689453</ele>
        <time>2017-06-04T08:32:02.000Z</time>
      </trkpt>
      <trkpt lat="48.49714" lon="7.37995">
        <ele>459.44961547852</ele>
        <time>2017-06-04T08:32:05.000Z</time>
      </trkpt>
      <trkpt lat="48.49713" lon="7.37992">
        <ele>460.04940795898</ele>
        <time>2017-06-04T08:32:07.000Z</time>
      </trkpt>
      <trkpt lat="48.4971" lon="7.37988">
        <ele>460.60140991211</ele>
        <time>2017-06-04T08:32:10.000Z</time>
      </trkpt>
      <trkpt lat="48.49708" lon="7.37986">
        <ele>461.07406616211</ele>
        <time>2017-06-04T08:32:13.000Z</time>
      </trkpt>
      <trkpt lat="48.49707" lon="7.37984">
        <ele>461.47711181641</ele>
        <time>2017-06-04T08:32:15.000Z</time>
      </trkpt>
      <trkpt lat="48.49705" lon="7.37982">
        <ele>461.82299804688</ele>
        <time>2017-06-04T08:32:17.000Z</time>
      </trkpt>
      <trkpt lat="48.497" lon="7.3798">
        <ele>462.06640625</ele>
        <time>2017-06-04T08:32:20.000Z</time>
      </trkpt>
      <trkpt lat="48.49697" lon="7.37978">
        <ele>462.27679443359</ele>
        <time>2017-06-04T08:32:23.000Z</time>
      </trkpt>
      <trkpt lat="48.49697" lon="7.37973">
        <ele>462.59649658203</ele>
        <time>2017-06-04T08:32:26.000Z</time>
      </trkpt>
      <trkpt lat="48.49699" lon="7.37968">
        <ele>463.05682373047</ele>
        <time>2017-06-04T08:32:28.000Z</time>
      </trkpt>
      <trkpt lat="48.49699" lon="7.37963">
        <ele>463.62451171875</ele>
        <time>2017-06-04T08:32:30.000Z</time>
      </trkpt>
      <trkpt lat="48.49697" lon="7.3796">
        <ele>464.30023193359</ele>
        <time>2017-06-04T08:32:32.000Z</time>
      </trkpt>
      <trkpt lat="48.49696" lon="7.37958">
        <ele>464.96893310547</ele>
        <time>2017-06-04T08:32:34.000Z</time>
      </trkpt>
      <trkpt lat="48.49695" lon="7.37954">
        <ele>465.60748291016</ele>
        <time>2017-06-04T08:32:37.000Z</time>
      </trkpt>
      <trkpt lat="48.49694" lon="7.37951">
        <ele>466.14184570312</ele>
        <time>2017-06-04T08:32:39.000Z</time>
      </trkpt>
      <trkpt lat="48.49693" lon="7.3795">
        <ele>466.54095458984</ele>
        <time>2017-06-04T08:32:41.000Z</time>
      </trkpt>
      <trkpt lat="48.49691" lon="7.37947">
        <ele>466.92987060547</ele>
        <time>2017-06-04T08:32:44.000Z</time>
      </trkpt>
      <trkpt lat="48.49692" lon="7.37943">
        <ele>467.41754150391</ele>
        <time>2017-06-04T08:32:47.000Z</time>
      </trkpt>
      <trkpt lat="48.49691" lon="7.3794">
        <ele>467.84936523438</ele>
        <time>2017-06-04T08:32:49.000Z</time>
      </trkpt>
      <trkpt lat="48.49688" lon="7.37938">
        <ele>468.24942016602</ele>
        <time>2017-06-04T08:32:51.000Z</time>
      </trkpt>
      <trkpt lat="48.49684" lon="7.37933">
        <ele>468.76049804688</ele>
        <time>2017-06-04T08:32:54.000Z</time>
      </trkpt>
      <trkpt lat="48.49681" lon="7.37929">
        <ele>469.28686523438</ele>
        <time>2017-06-04T08:32:57.000Z</time>
      </trkpt>
      <trkpt lat="48.49679" lon="7.37923">
        <ele>469.86416625977</ele>
        <time>2017-06-04T08:33:00.000Z</time>
      </trkpt>
      <trkpt lat="48.49678" lon="7.3792">
        <ele>470.47662353516</ele>
        <time>2017-06-04T08:33:02.000Z</time>
      </trkpt>
      <trkpt lat="48.49677" lon="7.37917">
        <ele>471.12091064453</ele>
        <time>2017-06-04T08:33:04.000Z</time>
      </trkpt>
      <trkpt lat="48.49675" lon="7.37911">
        <ele>471.75714111328</ele>
        <time>2017-06-04T08:33:07.000Z</time>
      </trkpt>
      <trkpt lat="48.49673" lon="7.37909">
        <ele>472.34799194336</ele>
        <time>2017-06-04T08:33:09.000Z</time>
      </trkpt>
      <trkpt lat="48.49672" lon="7.37905">
        <ele>472.81259155273</ele>
        <time>2017-06-04T08:33:11.000Z</time>
      </trkpt>
      <trkpt lat="48.49672" lon="7.379">
        <ele>473.29217529297</ele>
        <time>2017-06-04T08:33:14.000Z</time>
      </trkpt>
      <trkpt lat="48.49675" lon="7.37895">
        <ele>473.80484008789</ele>
        <time>2017-06-04T08:33:17.000Z</time>
      </trkpt>
      <trkpt lat="48.49676" lon="7.37891">
        <ele>474.28573608398</ele>
        <time>2017-06-04T08:33:19.000Z</time>
      </trkpt>
      <trkpt lat="48.49676" lon="7.37883">
        <ele>474.92025756836</ele>
        <time>2017-06-04T08:33:22.000Z</time>
      </trkpt>
      <trkpt lat="48.49677" lon="7.37878">
        <ele>475.59024047852</ele>
        <time>2017-06-04T08:33:25.000Z</time>
      </trkpt>
      <trkpt lat="48.49678" lon="7.37875">
        <ele>476.19375610352</ele>
        <time>2017-06-04T08:33:27.000Z</time>
      </trkpt>
      <trkpt lat="48.49679" lon="7.37872">
        <ele>476.74496459961</ele>
        <time>2017-06-04T08:33:29.000Z</time>
      </trkpt>
      <trkpt lat="48.49682" lon="7.37865">
        <ele>477.32788085938</ele>
        <time>2017-06-04T08:33:32.000Z</time>
      </trkpt>
      <trkpt lat="48.49683" lon="7.37861">
        <ele>477.79565429688</ele>
        <time>2017-06-04T08:33:34.000Z</time>
      </trkpt>
      <trkpt lat="48.49686" lon="7.37857">
        <ele>478.21597290039</ele>
        <time>2017-06-04T08:33:36.000Z</time>
      </trkpt>
      <trkpt lat="48.49688" lon="7.37851">
        <ele>478.68496704102</ele>
        <time>2017-06-04T08:33:39.000Z</time>
      </trkpt>
      <trkpt lat="48.4969" lon="7.37844">
        <ele>479.20742797852</ele>
        <time>2017-06-04T08:33:42.000Z</time>
      </trkpt>
      <trkpt lat="48.49691" lon="7.3784">
        <ele>479.65606689453</ele>
        <time>2017-06-04T08:33:44.000Z</time>
      </trkpt>
      <trkpt lat="48.49693" lon="7.37832">
        <ele>480.12713623047</ele>
        <time>2017-06-04T08:33:47.000Z</time>
      </trkpt>
      <trkpt lat="48.49696" lon="7.37828">
        <ele>480.49667358398</ele>
        <time>2017-06-04T08:33:49.000Z</time>
      </trkpt>
      <trkpt lat="48.49701" lon="7.37825">
        <ele>480.67449951172</ele>
        <time>2017-06-04T08:33:52.000Z</time>
      </trkpt>
      <trkpt lat="48.49706" lon="7.37825">
        <ele>480.65371704102</ele>
        <time>2017-06-04T08:33:55.000Z</time>
      </trkpt>
      <trkpt lat="48.49712" lon="7.37829">
        <ele>480.46844482422</ele>
        <time>2017-06-04T08:33:58.000Z</time>
      </trkpt>
      <trkpt lat="48.49717" lon="7.37834">
        <ele>480.12075805664</ele>
        <time>2017-06-04T08:34:00.000Z</time>
      </trkpt>
      <trkpt lat="48.49722" lon="7.37838">
        <ele>479.67861938477</ele>
        <time>2017-06-04T08:34:03.000Z</time>
      </trkpt>
      <trkpt lat="48.49729" lon="7.37842">
        <ele>479.18246459961</ele>
        <time>2017-06-04T08:34:06.000Z</time>
      </trkpt>
      <trkpt lat="48.49732" lon="7.37842">
        <ele>478.72695922852</ele>
        <time>2017-06-04T08:34:09.000Z</time>
      </trkpt>
      <trkpt lat="48.49733" lon="7.37842">
        <ele>478.35748291016</ele>
        <time>2017-06-04T08:34:12.000Z</time>
      </trkpt>
      <trkpt lat="48.49733" lon="7.37844">
        <ele>478.02532958984</ele>
        <time>2017-06-04T08:34:19.000Z</time>
      </trkpt>
      <trkpt lat="48.49734" lon="7.37844">
        <ele>477.81518554688</ele>
        <time>2017-06-04T08:34:22.000Z</time>
      </trkpt>
      <trkpt lat="48.49735" lon="7.37845">
        <ele>477.71762084961</ele>
        <time>2017-06-04T08:34:28.000Z</time>
      </trkpt>
      <trkpt lat="48.49737" lon="7.37845">
        <ele>477.63607788086</ele>
        <time>2017-06-04T08:34:38.000Z</time>
      </trkpt>
      <trkpt lat="48.49737" lon="7.37845">
        <ele>477.63607788086</ele>
        <time>2017-06-04T08:34:58.000Z</time>
      </trkpt>
      <trkpt lat="48.49738" lon="7.37843">
        <ele>477.57998657227</ele>
        <time>2017-06-04T08:36:51.000Z</time>
      </trkpt>
      <trkpt lat="48.49739" lon="7.37843">
        <ele>477.52914428711</ele>
        <time>2017-06-04T08:36:54.000Z</time>
      </trkpt>
      <trkpt lat="48.49743" lon="7.37841">
        <ele>477.45135498047</ele>
        <time>2017-06-04T08:36:57.000Z</time>
      </trkpt>
      <trkpt lat="48.49747" lon="7.37839">
        <ele>477.34658813477</ele>
        <time>2017-06-04T08:36:59.000Z</time>
      </trkpt>
      <trkpt lat="48.49754" lon="7.37833">
        <ele>477.21508789062</ele>
        <time>2017-06-04T08:37:02.000Z</time>
      </trkpt>
      <trkpt lat="48.4976" lon="7.37828">
        <ele>476.95501708984</ele>
        <time>2017-06-04T08:37:04.000Z</time>
      </trkpt>
      <trkpt lat="48.49768" lon="7.37822">
        <ele>476.55059814453</ele>
        <time>2017-06-04T08:37:07.000Z</time>
      </trkpt>
      <trkpt lat="48.49778" lon="7.37815">
        <ele>475.97564697266</ele>
        <time>2017-06-04T08:37:10.000Z</time>
      </trkpt>
      <trkpt lat="48.49786" lon="7.3781">
        <ele>475.27416992188</ele>
        <time>2017-06-04T08:37:12.000Z</time>
      </trkpt>
      <trkpt lat="48.49801" lon="7.37809">
        <ele>474.45623779297</ele>
        <time>2017-06-04T08:37:15.000Z</time>
      </trkpt>
      <trkpt lat="48.49812" lon="7.37813">
        <ele>473.74145507812</ele>
        <time>2017-06-04T08:37:17.000Z</time>
      </trkpt>
      <trkpt lat="48.49831" lon="7.37821">
        <ele>473.1865234375</ele>
        <time>2017-06-04T08:37:20.000Z</time>
      </trkpt>
      <trkpt lat="48.49847" lon="7.37824">
        <ele>473.02139282227</ele>
        <time>2017-06-04T08:37:23.000Z</time>
      </trkpt>
      <trkpt lat="48.4986" lon="7.37815">
        <ele>472.94204711914</ele>
        <time>2017-06-04T08:37:25.000Z</time>
      </trkpt>
      <trkpt lat="48.49866" lon="7.37814">
        <ele>473.06314086914</ele>
        <time>2017-06-04T08:37:27.000Z</time>
      </trkpt>
      <trkpt lat="48.49879" lon="7.37814">
        <ele>473.33383178711</ele>
        <time>2017-06-04T08:37:30.000Z</time>
      </trkpt>
      <trkpt lat="48.49887" lon="7.37814">
        <ele>473.6865234375</ele>
        <time>2017-06-04T08:37:32.000Z</time>
      </trkpt>
      <trkpt lat="48.49897" lon="7.37814">
        <ele>473.94692993164</ele>
        <time>2017-06-04T08:37:34.000Z</time>
      </trkpt>
      <trkpt lat="48.49909" lon="7.37809">
        <ele>474.31094360352</ele>
        <time>2017-06-04T08:37:37.000Z</time>
      </trkpt>
      <trkpt lat="48.49918" lon="7.37803">
        <ele>474.62469482422</ele>
        <time>2017-06-04T08:37:40.000Z</time>
      </trkpt>
      <trkpt lat="48.49928" lon="7.37802">
        <ele>474.927734375</ele>
        <time>2017-06-04T08:37:43.000Z</time>
      </trkpt>
      <trkpt lat="48.49935" lon="7.37801">
        <ele>475.22235107422</ele>
        <time>2017-06-04T08:37:45.000Z</time>
      </trkpt>
      <trkpt lat="48.49944" lon="7.37798">
        <ele>475.50942993164</ele>
        <time>2017-06-04T08:37:48.000Z</time>
      </trkpt>
      <trkpt lat="48.49953" lon="7.37796">
        <ele>475.86605834961</ele>
        <time>2017-06-04T08:37:51.000Z</time>
      </trkpt>
      <trkpt lat="48.49959" lon="7.37794">
        <ele>476.29238891602</ele>
        <time>2017-06-04T08:37:54.000Z</time>
      </trkpt>
      <trkpt lat="48.49966" lon="7.37789">
        <ele>476.63543701172</ele>
        <time>2017-06-04T08:37:57.000Z</time>
      </trkpt>
      <trkpt lat="48.49976" lon="7.37784">
        <ele>476.94833374023</ele>
        <time>2017-06-04T08:38:00.000Z</time>
      </trkpt>
      <trkpt lat="48.49981" lon="7.37779">
        <ele>477.197265625</ele>
        <time>2017-06-04T08:38:02.000Z</time>
      </trkpt>
      <trkpt lat="48.49986" lon="7.37777">
        <ele>477.38165283203</ele>
        <time>2017-06-04T08:38:04.000Z</time>
      </trkpt>
      <trkpt lat="48.49991" lon="7.37774">
        <ele>477.564453125</ele>
        <time>2017-06-04T08:38:06.000Z</time>
      </trkpt>
      <trkpt lat="48.49997" lon="7.3777">
        <ele>477.74627685547</ele>
        <time>2017-06-04T08:38:09.000Z</time>
      </trkpt>
      <trkpt lat="48.50003" lon="7.37766">
        <ele>477.96954345703</ele>
        <time>2017-06-04T08:38:12.000Z</time>
      </trkpt>
      <trkpt lat="48.50009" lon="7.37762">
        <ele>478.26895141602</ele>
        <time>2017-06-04T08:38:15.000Z</time>
      </trkpt>
      <trkpt lat="48.50013" lon="7.37761">
        <ele>478.62017822266</ele>
        <time>2017-06-04T08:38:17.000Z</time>
      </trkpt>
      <trkpt lat="48.50018" lon="7.37757">
        <ele>479.00399780273</ele>
        <time>2017-06-04T08:38:20.000Z</time>
      </trkpt>
      <trkpt lat="48.50021" lon="7.37755">
        <ele>479.40795898438</ele>
        <time>2017-06-04T08:38:22.000Z</time>
      </trkpt>
      <trkpt lat="48.50024" lon="7.37752">
        <ele>479.77465820312</ele>
        <time>2017-06-04T08:38:24.000Z</time>
      </trkpt>
      <trkpt lat="48.50032" lon="7.37746">
        <ele>480.12646484375</ele>
        <time>2017-06-04T08:38:27.000Z</time>
      </trkpt>
      <trkpt lat="48.50037" lon="7.3774">
        <ele>480.39541625977</ele>
        <time>2017-06-04T08:38:29.000Z</time>
      </trkpt>
      <trkpt lat="48.50043" lon="7.37736">
        <ele>480.66860961914</ele>
        <time>2017-06-04T08:38:32.000Z</time>
      </trkpt>
      <trkpt lat="48.50047" lon="7.37734">
        <ele>480.93685913086</ele>
        <time>2017-06-04T08:38:34.000Z</time>
      </trkpt>
      <trkpt lat="48.50053" lon="7.37726">
        <ele>481.15411376953</ele>
        <time>2017-06-04T08:38:37.000Z</time>
      </trkpt>
      <trkpt lat="48.50058" lon="7.3772">
        <ele>481.30303955078</ele>
        <time>2017-06-04T08:38:39.000Z</time>
      </trkpt>
      <trkpt lat="48.50068" lon="7.37713">
        <ele>481.58941650391</ele>
        <time>2017-06-04T08:38:42.000Z</time>
      </trkpt>
      <trkpt lat="48.50075" lon="7.37709">
        <ele>481.91055297852</ele>
        <time>2017-06-04T08:38:44.000Z</time>
      </trkpt>
      <trkpt lat="48.50087" lon="7.37706">
        <ele>482.3857421875</ele>
        <time>2017-06-04T08:38:47.000Z</time>
      </trkpt>
      <trkpt lat="48.50094" lon="7.37708">
        <ele>482.94122314453</ele>
        <time>2017-06-04T08:38:49.000Z</time>
      </trkpt>
      <trkpt lat="48.501" lon="7.37708">
        <ele>483.52801513672</ele>
        <time>2017-06-04T08:38:51.000Z</time>
      </trkpt>
      <trkpt lat="48.50109" lon="7.37707">
        <ele>484.00595092773</ele>
        <time>2017-06-04T08:38:54.000Z</time>
      </trkpt>
      <trkpt lat="48.50114" lon="7.37706">
        <ele>484.39227294922</ele>
        <time>2017-06-04T08:38:56.000Z</time>
      </trkpt>
      <trkpt lat="48.50119" lon="7.37705">
        <ele>484.58013916016</ele>
        <time>2017-06-04T08:38:58.000Z</time>
      </trkpt>
      <trkpt lat="48.50126" lon="7.37705">
        <ele>484.72827148438</ele>
        <time>2017-06-04T08:39:01.000Z</time>
      </trkpt>
      <trkpt lat="48.50132" lon="7.37706">
        <ele>484.87905883789</ele>
        <time>2017-06-04T08:39:03.000Z</time>
      </trkpt>
      <trkpt lat="48.5014" lon="7.37708">
        <ele>485.09414672852</ele>
        <time>2017-06-04T08:39:05.000Z</time>
      </trkpt>
      <trkpt lat="48.50152" lon="7.37711">
        <ele>485.39184570312</ele>
        <time>2017-06-04T08:39:08.000Z</time>
      </trkpt>
      <trkpt lat="48.50163" lon="7.37712">
        <ele>485.77172851562</ele>
        <time>2017-06-04T08:39:11.000Z</time>
      </trkpt>
      <trkpt lat="48.50175" lon="7.37715">
        <ele>486.19653320312</ele>
        <time>2017-06-04T08:39:14.000Z</time>
      </trkpt>
      <trkpt lat="48.50186" lon="7.3772">
        <ele>486.67684936523</ele>
        <time>2017-06-04T08:39:17.000Z</time>
      </trkpt>
      <trkpt lat="48.50191" lon="7.37723">
        <ele>487.12759399414</ele>
        <time>2017-06-04T08:39:19.000Z</time>
      </trkpt>
      <trkpt lat="48.50201" lon="7.37722">
        <ele>487.46997070312</ele>
        <time>2017-06-04T08:39:22.000Z</time>
      </trkpt>
      <trkpt lat="48.50206" lon="7.37722">
        <ele>487.72314453125</ele>
        <time>2017-06-04T08:39:24.000Z</time>
      </trkpt>
      <trkpt lat="48.50216" lon="7.37722">
        <ele>487.90447998047</ele>
        <time>2017-06-04T08:39:27.000Z</time>
      </trkpt>
      <trkpt lat="48.50229" lon="7.37724">
        <ele>488.04776000977</ele>
        <time>2017-06-04T08:39:30.000Z</time>
      </trkpt>
      <trkpt lat="48.50235" lon="7.37724">
        <ele>488.15234375</ele>
        <time>2017-06-04T08:39:32.000Z</time>
      </trkpt>
      <trkpt lat="48.50243" lon="7.37725">
        <ele>488.28198242188</ele>
        <time>2017-06-04T08:39:34.000Z</time>
      </trkpt>
      <trkpt lat="48.50257" lon="7.3772">
        <ele>488.35513305664</ele>
        <time>2017-06-04T08:39:37.000Z</time>
      </trkpt>
      <trkpt lat="48.50275" lon="7.37716">
        <ele>488.49398803711</ele>
        <time>2017-06-04T08:39:40.000Z</time>
      </trkpt>
      <trkpt lat="48.50286" lon="7.37715">
        <ele>488.65234375</ele>
        <time>2017-06-04T08:39:43.000Z</time>
      </trkpt>
      <trkpt lat="48.50297" lon="7.37711">
        <ele>488.7685546875</ele>
        <time>2017-06-04T08:39:45.000Z</time>
      </trkpt>
      <trkpt lat="48.5031" lon="7.37708">
        <ele>488.91690063477</ele>
        <time>2017-06-04T08:39:48.000Z</time>
      </trkpt>
      <trkpt lat="48.50321" lon="7.37709">
        <ele>489.24551391602</ele>
        <time>2017-06-04T08:39:50.000Z</time>
      </trkpt>
      <trkpt lat="48.50336" lon="7.377">
        <ele>489.42913818359</ele>
        <time>2017-06-04T08:39:53.000Z</time>
      </trkpt>
      <trkpt lat="48.50344" lon="7.37704">
        <ele>489.74624633789</ele>
        <time>2017-06-04T08:39:55.000Z</time>
      </trkpt>
      <trkpt lat="48.50353" lon="7.37704">
        <ele>490.21783447266</ele>
        <time>2017-06-04T08:39:58.000Z</time>
      </trkpt>
      <trkpt lat="48.50362" lon="7.37698">
        <ele>490.59002685547</ele>
        <time>2017-06-04T08:40:00.000Z</time>
      </trkpt>
      <trkpt lat="48.50372" lon="7.37696">
        <ele>490.92276000977</ele>
        <time>2017-06-04T08:40:02.000Z</time>
      </trkpt>
      <trkpt lat="48.50384" lon="7.3769">
        <ele>491.32989501953</ele>
        <time>2017-06-04T08:40:05.000Z</time>
      </trkpt>
      <trkpt lat="48.50392" lon="7.37692">
        <ele>491.6875</ele>
        <time>2017-06-04T08:40:07.000Z</time>
      </trkpt>
      <trkpt lat="48.50402" lon="7.37692">
        <ele>492.06137084961</ele>
        <time>2017-06-04T08:40:10.000Z</time>
      </trkpt>
      <trkpt lat="48.50408" lon="7.37687">
        <ele>492.37518310547</ele>
        <time>2017-06-04T08:40:12.000Z</time>
      </trkpt>
      <trkpt lat="48.50417" lon="7.37678">
        <ele>492.42807006836</ele>
        <time>2017-06-04T08:40:15.000Z</time>
      </trkpt>
      <trkpt lat="48.50423" lon="7.37673">
        <ele>492.37377929688</ele>
        <time>2017-06-04T08:40:17.000Z</time>
      </trkpt>
      <trkpt lat="48.50432" lon="7.37666">
        <ele>492.04412841797</ele>
        <time>2017-06-04T08:40:20.000Z</time>
      </trkpt>
      <trkpt lat="48.50439" lon="7.37663">
        <ele>491.53997802734</ele>
        <time>2017-06-04T08:40:22.000Z</time>
      </trkpt>
      <trkpt lat="48.50445" lon="7.37661">
        <ele>491.16317749023</ele>
        <time>2017-06-04T08:40:24.000Z</time>
      </trkpt>
      <trkpt lat="48.50451" lon="7.37661">
        <ele>491.02481079102</ele>
        <time>2017-06-04T08:40:26.000Z</time>
      </trkpt>
      <trkpt lat="48.50461" lon="7.37662">
        <ele>491.10903930664</ele>
        <time>2017-06-04T08:40:29.000Z</time>
      </trkpt>
      <trkpt lat="48.50471" lon="7.37661">
        <ele>491.41128540039</ele>
        <time>2017-06-04T08:40:32.000Z</time>
      </trkpt>
      <trkpt lat="48.50481" lon="7.37659">
        <ele>491.77618408203</ele>
        <time>2017-06-04T08:40:35.000Z</time>
      </trkpt>
      <trkpt lat="48.50491" lon="7.37657">
        <ele>492.18887329102</ele>
        <time>2017-06-04T08:40:38.000Z</time>
      </trkpt>
      <trkpt lat="48.505" lon="7.37658">
        <ele>492.65966796875</ele>
        <time>2017-06-04T08:40:40.000Z</time>
      </trkpt>
      <trkpt lat="48.50508" lon="7.37658">
        <ele>493.10791015625</ele>
        <time>2017-06-04T08:40:42.000Z</time>
      </trkpt>
      <trkpt lat="48.50518" lon="7.37658">
        <ele>493.53784179688</ele>
        <time>2017-06-04T08:40:45.000Z</time>
      </trkpt>
      <trkpt lat="48.50523" lon="7.37656">
        <ele>493.95468139648</ele>
        <time>2017-06-04T08:40:47.000Z</time>
      </trkpt>
      <trkpt lat="48.50532" lon="7.37657">
        <ele>494.40753173828</ele>
        <time>2017-06-04T08:40:50.000Z</time>
      </trkpt>
      <trkpt lat="48.50543" lon="7.37655">
        <ele>494.8125</ele>
        <time>2017-06-04T08:40:53.000Z</time>
      </trkpt>
      <trkpt lat="48.50555" lon="7.37651">
        <ele>495.12295532227</ele>
        <time>2017-06-04T08:40:56.000Z</time>
      </trkpt>
      <trkpt lat="48.50567" lon="7.37646">
        <ele>495.27206420898</ele>
        <time>2017-06-04T08:40:59.000Z</time>
      </trkpt>
      <trkpt lat="48.50577" lon="7.37641">
        <ele>495.35073852539</ele>
        <time>2017-06-04T08:41:02.000Z</time>
      </trkpt>
      <trkpt lat="48.50581" lon="7.3764">
        <ele>495.31259155273</ele>
        <time>2017-06-04T08:41:05.000Z</time>
      </trkpt>
      <trkpt lat="48.50583" lon="7.37637">
        <ele>495.12655639648</ele>
        <time>2017-06-04T08:41:07.000Z</time>
      </trkpt>
      <trkpt lat="48.50586" lon="7.37632">
        <ele>494.82476806641</ele>
        <time>2017-06-04T08:41:09.000Z</time>
      </trkpt>
      <trkpt lat="48.50594" lon="7.37619">
        <ele>494.31845092773</ele>
        <time>2017-06-04T08:41:12.000Z</time>
      </trkpt>
      <trkpt lat="48.50601" lon="7.37609">
        <ele>493.73202514648</ele>
        <time>2017-06-04T08:41:14.000Z</time>
      </trkpt>
      <trkpt lat="48.50611" lon="7.37597">
        <ele>493.05712890625</ele>
        <time>2017-06-04T08:41:17.000Z</time>
      </trkpt>
      <trkpt lat="48.50616" lon="7.37585">
        <ele>492.21759033203</ele>
        <time>2017-06-04T08:41:19.000Z</time>
      </trkpt>
      <trkpt lat="48.50621" lon="7.37572">
        <ele>491.24969482422</ele>
        <time>2017-06-04T08:41:21.000Z</time>
      </trkpt>
      <trkpt lat="48.50636" lon="7.37553">
        <ele>490.54248046875</ele>
        <time>2017-06-04T08:41:24.000Z</time>
      </trkpt>
      <trkpt lat="48.50644" lon="7.3753">
        <ele>489.66152954102</ele>
        <time>2017-06-04T08:41:27.000Z</time>
      </trkpt>
      <trkpt lat="48.50662" lon="7.37481">
        <ele>488.51690673828</ele>
        <time>2017-06-04T08:41:31.000Z</time>
      </trkpt>
      <trkpt lat="48.50673" lon="7.3746">
        <ele>487.51797485352</ele>
        <time>2017-06-04T08:41:33.000Z</time>
      </trkpt>
      <trkpt lat="48.50691" lon="7.3742">
        <ele>486.54840087891</ele>
        <time>2017-06-04T08:41:36.000Z</time>
      </trkpt>
      <trkpt lat="48.50702" lon="7.37403">
        <ele>485.60556030273</ele>
        <time>2017-06-04T08:41:38.000Z</time>
      </trkpt>
      <trkpt lat="48.50717" lon="7.37375">
        <ele>484.90032958984</ele>
        <time>2017-06-04T08:41:41.000Z</time>
      </trkpt>
      <trkpt lat="48.50727" lon="7.3736">
        <ele>484.65893554688</ele>
        <time>2017-06-04T08:41:44.000Z</time>
      </trkpt>
      <trkpt lat="48.50741" lon="7.37346">
        <ele>484.81430053711</ele>
        <time>2017-06-04T08:41:47.000Z</time>
      </trkpt>
      <trkpt lat="48.50755" lon="7.37331">
        <ele>485.24325561523</ele>
        <time>2017-06-04T08:41:50.000Z</time>
      </trkpt>
      <trkpt lat="48.50768" lon="7.37323">
        <ele>485.35040283203</ele>
        <time>2017-06-04T08:41:53.000Z</time>
      </trkpt>
      <trkpt lat="48.50781" lon="7.37314">
        <ele>485.22152709961</ele>
        <time>2017-06-04T08:41:56.000Z</time>
      </trkpt>
      <trkpt lat="48.5079" lon="7.37308">
        <ele>484.79727172852</ele>
        <time>2017-06-04T08:41:58.000Z</time>
      </trkpt>
      <trkpt lat="48.50808" lon="7.37302">
        <ele>483.85504150391</ele>
        <time>2017-06-04T08:42:01.000Z</time>
      </trkpt>
      <trkpt lat="48.50821" lon="7.37303">
        <ele>482.80841064453</ele>
        <time>2017-06-04T08:42:03.000Z</time>
      </trkpt>
      <trkpt lat="48.50849" lon="7.37311">
        <ele>481.64175415039</ele>
        <time>2017-06-04T08:42:06.000Z</time>
      </trkpt>
      <trkpt lat="48.50866" lon="7.3732">
        <ele>480.46508789062</ele>
        <time>2017-06-04T08:42:08.000Z</time>
      </trkpt>
      <trkpt lat="48.50888" lon="7.37341">
        <ele>479.31616210938</ele>
        <time>2017-06-04T08:42:11.000Z</time>
      </trkpt>
      <trkpt lat="48.50911" lon="7.37373">
        <ele>478.44345092773</ele>
        <time>2017-06-04T08:42:14.000Z</time>
      </trkpt>
      <trkpt lat="48.50924" lon="7.37403">
        <ele>477.65435791016</ele>
        <time>2017-06-04T08:42:17.000Z</time>
      </trkpt>
      <trkpt lat="48.50932" lon="7.3742">
        <ele>477.26611328125</ele>
        <time>2017-06-04T08:42:19.000Z</time>
      </trkpt>
      <trkpt lat="48.50944" lon="7.37447">
        <ele>477.08966064453</ele>
        <time>2017-06-04T08:42:22.000Z</time>
      </trkpt>
      <trkpt lat="48.50956" lon="7.37461">
        <ele>476.86587524414</ele>
        <time>2017-06-04T08:42:24.000Z</time>
      </trkpt>
      <trkpt lat="48.5098" lon="7.37489">
        <ele>476.46704101562</ele>
        <time>2017-06-04T08:42:27.000Z</time>
      </trkpt>
      <trkpt lat="48.50999" lon="7.37495">
        <ele>475.65649414062</ele>
        <time>2017-06-04T08:42:29.000Z</time>
      </trkpt>
      <trkpt lat="48.5103" lon="7.37504">
        <ele>474.38485717773</ele>
        <time>2017-06-04T08:42:32.000Z</time>
      </trkpt>
      <trkpt lat="48.51065" lon="7.37502">
        <ele>472.20147705078</ele>
        <time>2017-06-04T08:42:35.000Z</time>
      </trkpt>
      <trkpt lat="48.51088" lon="7.37499">
        <ele>469.68377685547</ele>
        <time>2017-06-04T08:42:37.000Z</time>
      </trkpt>
      <trkpt lat="48.51115" lon="7.37496">
        <ele>467.78256225586</ele>
        <time>2017-06-04T08:42:40.000Z</time>
      </trkpt>
      <trkpt lat="48.51131" lon="7.37483">
        <ele>465.74664306641</ele>
        <time>2017-06-04T08:42:42.000Z</time>
      </trkpt>
      <trkpt lat="48.51154" lon="7.37463">
        <ele>463.52938842773</ele>
        <time>2017-06-04T08:42:45.000Z</time>
      </trkpt>
      <trkpt lat="48.51175" lon="7.37451">
        <ele>462.26092529297</ele>
        <time>2017-06-04T08:42:48.000Z</time>
      </trkpt>
      <trkpt lat="48.51198" lon="7.37432">
        <ele>461.34100341797</ele>
        <time>2017-06-04T08:42:51.000Z</time>
      </trkpt>
      <trkpt lat="48.51213" lon="7.37419">
        <ele>459.8525390625</ele>
        <time>2017-06-04T08:42:53.000Z</time>
      </trkpt>
      <trkpt lat="48.51225" lon="7.37406">
        <ele>458.74462890625</ele>
        <time>2017-06-04T08:42:55.000Z</time>
      </trkpt>
      <trkpt lat="48.51239" lon="7.37392">
        <ele>458.33941650391</ele>
        <time>2017-06-04T08:42:57.000Z</time>
      </trkpt>
      <trkpt lat="48.51253" lon="7.3738">
        <ele>458.15185546875</ele>
        <time>2017-06-04T08:43:00.000Z</time>
      </trkpt>
      <trkpt lat="48.5127" lon="7.37361">
        <ele>458.01229858398</ele>
        <time>2017-06-04T08:43:03.000Z</time>
      </trkpt>
      <trkpt lat="48.51279" lon="7.37345">
        <ele>457.68792724609</ele>
        <time>2017-06-04T08:43:05.000Z</time>
      </trkpt>
      <trkpt lat="48.51284" lon="7.37338">
        <ele>457.43280029297</ele>
        <time>2017-06-04T08:43:07.000Z</time>
      </trkpt>
      <trkpt lat="48.51297" lon="7.3732">
        <ele>456.9599609375</ele>
        <time>2017-06-04T08:43:10.000Z</time>
      </trkpt>
      <trkpt lat="48.51307" lon="7.37304">
        <ele>456.18017578125</ele>
        <time>2017-06-04T08:43:13.000Z</time>
      </trkpt>
      <trkpt lat="48.51311" lon="7.37299">
        <ele>455.51776123047</ele>
        <time>2017-06-04T08:43:15.000Z</time>
      </trkpt>
      <trkpt lat="48.51325" lon="7.37285">
        <ele>455.39434814453</ele>
        <time>2017-06-04T08:43:18.000Z</time>
      </trkpt>
      <trkpt lat="48.51337" lon="7.37276">
        <ele>455.51245117188</ele>
        <time>2017-06-04T08:43:20.000Z</time>
      </trkpt>
      <trkpt lat="48.51349" lon="7.3727">
        <ele>455.52783203125</ele>
        <time>2017-06-04T08:43:23.000Z</time>
      </trkpt>
      <trkpt lat="48.51358" lon="7.37273">
        <ele>455.67739868164</ele>
        <time>2017-06-04T08:43:26.000Z</time>
      </trkpt>
      <trkpt lat="48.51364" lon="7.3728">
        <ele>456.00592041016</ele>
        <time>2017-06-04T08:43:29.000Z</time>
      </trkpt>
      <trkpt lat="48.51366" lon="7.37283">
        <ele>456.08975219727</ele>
        <time>2017-06-04T08:43:31.000Z</time>
      </trkpt>
      <trkpt lat="48.51369" lon="7.37286">
        <ele>456.02481079102</ele>
        <time>2017-06-04T08:43:34.000Z</time>
      </trkpt>
      <trkpt lat="48.51374" lon="7.37294">
        <ele>456.39996337891</ele>
        <time>2017-06-04T08:43:37.000Z</time>
      </trkpt>
      <trkpt lat="48.51381" lon="7.37301">
        <ele>456.86386108398</ele>
        <time>2017-06-04T08:43:40.000Z</time>
      </trkpt>
      <trkpt lat="48.51387" lon="7.37312">
        <ele>457.32586669922</ele>
        <time>2017-06-04T08:43:43.000Z</time>
      </trkpt>
      <trkpt lat="48.51395" lon="7.3732">
        <ele>457.78247070312</ele>
        <time>2017-06-04T08:43:45.000Z</time>
      </trkpt>
      <trkpt lat="48.51409" lon="7.3733">
        <ele>458.13906860352</ele>
        <time>2017-06-04T08:43:48.000Z</time>
      </trkpt>
      <trkpt lat="48.51456" lon="7.37376">
        <ele>457.12670898438</ele>
        <time>2017-06-04T08:43:53.000Z</time>
      </trkpt>
      <trkpt lat="48.51475" lon="7.37388">
        <ele>455.27450561523</ele>
        <time>2017-06-04T08:43:55.000Z</time>
      </trkpt>
      <trkpt lat="48.5151" lon="7.37409">
        <ele>452.06060791016</ele>
        <time>2017-06-04T08:43:58.000Z</time>
      </trkpt>
      <trkpt lat="48.51531" lon="7.3742">
        <ele>448.29388427734</ele>
        <time>2017-06-04T08:44:00.000Z</time>
      </trkpt>
      <trkpt lat="48.51554" lon="7.37423">
        <ele>443.58358764648</ele>
        <time>2017-06-04T08:44:02.000Z</time>
      </trkpt>
      <trkpt lat="48.5158" lon="7.37418">
        <ele>438.38409423828</ele>
        <time>2017-06-04T08:44:04.000Z</time>
      </trkpt>
      <trkpt lat="48.51619" lon="7.37413">
        <ele>432.25552368164</ele>
        <time>2017-06-04T08:44:07.000Z</time>
      </trkpt>
      <trkpt lat="48.51645" lon="7.37417">
        <ele>426.73379516602</ele>
        <time>2017-06-04T08:44:09.000Z</time>
      </trkpt>
      <trkpt lat="48.51669" lon="7.37422">
        <ele>421.18905639648</ele>
        <time>2017-06-04T08:44:11.000Z</time>
      </trkpt>
      <trkpt lat="48.51703" lon="7.37438">
        <ele>415.89251708984</ele>
        <time>2017-06-04T08:44:14.000Z</time>
      </trkpt>
      <trkpt lat="48.51719" lon="7.37444">
        <ele>411.82144165039</ele>
        <time>2017-06-04T08:44:16.000Z</time>
      </trkpt>
      <trkpt lat="48.51729" lon="7.37452">
        <ele>409.31503295898</ele>
        <time>2017-06-04T08:44:18.000Z</time>
      </trkpt>
      <trkpt lat="48.51742" lon="7.37461">
        <ele>407.16189575195</ele>
        <time>2017-06-04T08:44:20.000Z</time>
      </trkpt>
      <trkpt lat="48.51756" lon="7.37479">
        <ele>405.39147949219</ele>
        <time>2017-06-04T08:44:23.000Z</time>
      </trkpt>
      <trkpt lat="48.51769" lon="7.37511">
        <ele>404.51684570312</ele>
        <time>2017-06-04T08:44:26.000Z</time>
      </trkpt>
      <trkpt lat="48.51782" lon="7.37553">
        <ele>404.18798828125</ele>
        <time>2017-06-04T08:44:29.000Z</time>
      </trkpt>
      <trkpt lat="48.51794" lon="7.37572">
        <ele>403.46099853516</ele>
        <time>2017-06-04T08:44:31.000Z</time>
      </trkpt>
      <trkpt lat="48.51813" lon="7.37586">
        <ele>401.63092041016</ele>
        <time>2017-06-04T08:44:33.000Z</time>
      </trkpt>
      <trkpt lat="48.51828" lon="7.376">
        <ele>399.21148681641</ele>
        <time>2017-06-04T08:44:36.000Z</time>
      </trkpt>
      <trkpt lat="48.51833" lon="7.37604">
        <ele>396.43817138672</ele>
        <time>2017-06-04T08:44:38.000Z</time>
      </trkpt>
      <trkpt lat="48.51832" lon="7.37609">
        <ele>393.94061279297</ele>
        <time>2017-06-04T08:44:40.000Z</time>
      </trkpt>
      <trkpt lat="48.51832" lon="7.37611">
        <ele>392.04754638672</ele>
        <time>2017-06-04T08:44:43.000Z</time>
      </trkpt>
      <trkpt lat="48.51833" lon="7.37613">
        <ele>391.51614379883</ele>
        <time>2017-06-04T08:44:46.000Z</time>
      </trkpt>
      <trkpt lat="48.51833" lon="7.37615">
        <ele>391.77044677734</ele>
        <time>2017-06-04T08:44:49.000Z</time>
      </trkpt>
      <trkpt lat="48.51833" lon="7.37616">
        <ele>392.34716796875</ele>
        <time>2017-06-04T08:44:52.000Z</time>
      </trkpt>
      <trkpt lat="48.51832" lon="7.37619">
        <ele>392.77398681641</ele>
        <time>2017-06-04T08:44:59.000Z</time>
      </trkpt>
      <trkpt lat="48.51833" lon="7.37618">
        <ele>393.03118896484</ele>
        <time>2017-06-04T08:45:04.000Z</time>
      </trkpt>
      <trkpt lat="48.51833" lon="7.37617">
        <ele>393.20681762695</ele>
        <time>2017-06-04T08:45:06.000Z</time>
      </trkpt>
      <trkpt lat="48.51834" lon="7.37615">
        <ele>393.18338012695</ele>
        <time>2017-06-04T08:45:09.000Z</time>
      </trkpt>
      <trkpt lat="48.51838" lon="7.37612">
        <ele>392.67984008789</ele>
        <time>2017-06-04T08:45:16.000Z</time>
      </trkpt>
      <trkpt lat="48.51839" lon="7.37612">
        <ele>391.90795898438</ele>
        <time>2017-06-04T08:45:19.000Z</time>
      </trkpt>
      <trkpt lat="48.51839" lon="7.37612">
        <ele>391.18673706055</ele>
        <time>2017-06-04T08:45:22.000Z</time>
      </trkpt>
      <trkpt lat="48.51841" lon="7.37613">
        <ele>390.51898193359</ele>
        <time>2017-06-04T08:45:25.000Z</time>
      </trkpt>
      <trkpt lat="48.51841" lon="7.37613">
        <ele>389.98352050781</ele>
        <time>2017-06-04T08:45:28.000Z</time>
      </trkpt>
      <trkpt lat="48.51843" lon="7.37612">
        <ele>389.64788818359</ele>
        <time>2017-06-04T08:45:31.000Z</time>
      </trkpt>
      <trkpt lat="48.51841" lon="7.3761">
        <ele>389.44580078125</ele>
        <time>2017-06-04T08:45:35.000Z</time>
      </trkpt>
      <trkpt lat="48.51839" lon="7.37608">
        <ele>389.29107666016</ele>
        <time>2017-06-04T08:45:38.000Z</time>
      </trkpt>
      <trkpt lat="48.51842" lon="7.37608">
        <ele>388.97662353516</ele>
        <time>2017-06-04T08:45:40.000Z</time>
      </trkpt>
      <trkpt lat="48.51851" lon="7.37611">
        <ele>388.21343994141</ele>
        <time>2017-06-04T08:45:43.000Z</time>
      </trkpt>
      <trkpt lat="48.51878" lon="7.3762">
        <ele>386.41070556641</ele>
        <time>2017-06-04T08:45:47.000Z</time>
      </trkpt>
      <trkpt lat="48.5189" lon="7.37622">
        <ele>383.91342163086</ele>
        <time>2017-06-04T08:45:49.000Z</time>
      </trkpt>
      <trkpt lat="48.51906" lon="7.37625">
        <ele>380.54434204102</ele>
        <time>2017-06-04T08:45:52.000Z</time>
      </trkpt>
      <trkpt lat="48.51921" lon="7.37626">
        <ele>376.46270751953</ele>
        <time>2017-06-04T08:45:54.000Z</time>
      </trkpt>
      <trkpt lat="48.5194" lon="7.37629">
        <ele>371.73822021484</ele>
        <time>2017-06-04T08:45:57.000Z</time>
      </trkpt>
      <trkpt lat="48.51954" lon="7.37637">
        <ele>367.74270629883</ele>
        <time>2017-06-04T08:45:59.000Z</time>
      </trkpt>
      <trkpt lat="48.51972" lon="7.37658">
        <ele>364.31719970703</ele>
        <time>2017-06-04T08:46:02.000Z</time>
      </trkpt>
      <trkpt lat="48.51983" lon="7.37663">
        <ele>361.24160766602</ele>
        <time>2017-06-04T08:46:04.000Z</time>
      </trkpt>
      <trkpt lat="48.52001" lon="7.37689">
        <ele>358.8720703125</ele>
        <time>2017-06-04T08:46:07.000Z</time>
      </trkpt>
      <trkpt lat="48.52014" lon="7.37699">
        <ele>356.93511962891</ele>
        <time>2017-06-04T08:46:10.000Z</time>
      </trkpt>
      <trkpt lat="48.52032" lon="7.3772">
        <ele>354.81533813477</ele>
        <time>2017-06-04T08:46:13.000Z</time>
      </trkpt>
      <trkpt lat="48.52047" lon="7.37745">
        <ele>352.45989990234</ele>
        <time>2017-06-04T08:46:16.000Z</time>
      </trkpt>
      <trkpt lat="48.52057" lon="7.37758">
        <ele>350.40618896484</ele>
        <time>2017-06-04T08:46:19.000Z</time>
      </trkpt>
      <trkpt lat="48.5207" lon="7.37767">
        <ele>347.94955444336</ele>
        <time>2017-06-04T08:46:22.000Z</time>
      </trkpt>
      <trkpt lat="48.52077" lon="7.37776">
        <ele>346.04339599609</ele>
        <time>2017-06-04T08:46:24.000Z</time>
      </trkpt>
      <trkpt lat="48.52094" lon="7.3779">
        <ele>344.42340087891</ele>
        <time>2017-06-04T08:46:27.000Z</time>
      </trkpt>
      <trkpt lat="48.52112" lon="7.37802">
        <ele>342.61639404297</ele>
        <time>2017-06-04T08:46:30.000Z</time>
      </trkpt>
      <trkpt lat="48.52121" lon="7.37807">
        <ele>340.72067260742</ele>
        <time>2017-06-04T08:46:32.000Z</time>
      </trkpt>
      <trkpt lat="48.52137" lon="7.37813">
        <ele>338.72467041016</ele>
        <time>2017-06-04T08:46:35.000Z</time>
      </trkpt>
      <trkpt lat="48.52147" lon="7.37817">
        <ele>336.47796630859</ele>
        <time>2017-06-04T08:46:37.000Z</time>
      </trkpt>
      <trkpt lat="48.52157" lon="7.37821">
        <ele>334.16287231445</ele>
        <time>2017-06-04T08:46:40.000Z</time>
      </trkpt>
      <trkpt lat="48.52169" lon="7.37825">
        <ele>331.76605224609</ele>
        <time>2017-06-04T08:46:43.000Z</time>
      </trkpt>
      <trkpt lat="48.52176" lon="7.37827">
        <ele>329.26934814453</ele>
        <time>2017-06-04T08:46:45.000Z</time>
      </trkpt>
      <trkpt lat="48.52183" lon="7.37827">
        <ele>326.98770141602</ele>
        <time>2017-06-04T08:46:47.000Z</time>
      </trkpt>
      <trkpt lat="48.52196" lon="7.37832">
        <ele>324.34359741211</ele>
        <time>2017-06-04T08:46:50.000Z</time>
      </trkpt>
      <trkpt lat="48.52203" lon="7.37837">
        <ele>321.81866455078</ele>
        <time>2017-06-04T08:46:52.000Z</time>
      </trkpt>
      <trkpt lat="48.52209" lon="7.3784">
        <ele>319.49987792969</ele>
        <time>2017-06-04T08:46:54.000Z</time>
      </trkpt>
      <trkpt lat="48.52217" lon="7.37849">
        <ele>317.33978271484</ele>
        <time>2017-06-04T08:46:57.000Z</time>
      </trkpt>
      <trkpt lat="48.52222" lon="7.37853">
        <ele>315.49395751953</ele>
        <time>2017-06-04T08:46:59.000Z</time>
      </trkpt>
      <trkpt lat="48.52229" lon="7.3786">
        <ele>314.15118408203</ele>
        <time>2017-06-04T08:47:02.000Z</time>
      </trkpt>
      <trkpt lat="48.52234" lon="7.37864">
        <ele>312.95971679688</ele>
        <time>2017-06-04T08:47:04.000Z</time>
      </trkpt>
      <trkpt lat="48.5224" lon="7.37866">
        <ele>311.78338623047</ele>
        <time>2017-06-04T08:47:07.000Z</time>
      </trkpt>
      <trkpt lat="48.52245" lon="7.37868">
        <ele>310.60473632812</ele>
        <time>2017-06-04T08:47:09.000Z</time>
      </trkpt>
      <trkpt lat="48.52251" lon="7.37876">
        <ele>309.41595458984</ele>
        <time>2017-06-04T08:47:12.000Z</time>
      </trkpt>
      <trkpt lat="48.52259" lon="7.37882">
        <ele>308.1276550293</ele>
        <time>2017-06-04T08:47:15.000Z</time>
      </trkpt>
      <trkpt lat="48.52263" lon="7.37886">
        <ele>306.85473632812</ele>
        <time>2017-06-04T08:47:17.000Z</time>
      </trkpt>
      <trkpt lat="48.52268" lon="7.37892">
        <ele>305.79052734375</ele>
        <time>2017-06-04T08:47:20.000Z</time>
      </trkpt>
      <trkpt lat="48.52273" lon="7.379">
        <ele>304.86849975586</ele>
        <time>2017-06-04T08:47:23.000Z</time>
      </trkpt>
      <trkpt lat="48.52277" lon="7.37903">
        <ele>303.93609619141</ele>
        <time>2017-06-04T08:47:25.000Z</time>
      </trkpt>
      <trkpt lat="48.5228" lon="7.37906">
        <ele>303.21496582031</ele>
        <time>2017-06-04T08:47:27.000Z</time>
      </trkpt>
      <trkpt lat="48.52284" lon="7.37912">
        <ele>302.54751586914</ele>
        <time>2017-06-04T08:47:30.000Z</time>
      </trkpt>
      <trkpt lat="48.52289" lon="7.37916">
        <ele>301.73101806641</ele>
        <time>2017-06-04T08:47:32.000Z</time>
      </trkpt>
      <trkpt lat="48.52298" lon="7.37922">
        <ele>300.52972412109</ele>
        <time>2017-06-04T08:47:35.000Z</time>
      </trkpt>
      <trkpt lat="48.52305" lon="7.37924">
        <ele>299.06649780273</ele>
        <time>2017-06-04T08:47:38.000Z</time>
      </trkpt>
      <trkpt lat="48.52313" lon="7.37932">
        <ele>297.35125732422</ele>
        <time>2017-06-04T08:47:41.000Z</time>
      </trkpt>
      <trkpt lat="48.5232" lon="7.37937">
        <ele>295.43676757812</ele>
        <time>2017-06-04T08:47:43.000Z</time>
      </trkpt>
      <trkpt lat="48.5233" lon="7.37939">
        <ele>293.13018798828</ele>
        <time>2017-06-04T08:47:46.000Z</time>
      </trkpt>
      <trkpt lat="48.52339" lon="7.37942">
        <ele>290.72039794922</ele>
        <time>2017-06-04T08:47:49.000Z</time>
      </trkpt>
      <trkpt lat="48.52343" lon="7.37946">
        <ele>288.62857055664</ele>
        <time>2017-06-04T08:47:51.000Z</time>
      </trkpt>
      <trkpt lat="48.52351" lon="7.37954">
        <ele>286.78509521484</ele>
        <time>2017-06-04T08:47:54.000Z</time>
      </trkpt>
      <trkpt lat="48.52359" lon="7.37961">
        <ele>284.97280883789</ele>
        <time>2017-06-04T08:47:57.000Z</time>
      </trkpt>
      <trkpt lat="48.52364" lon="7.37964">
        <ele>283.58645629883</ele>
        <time>2017-06-04T08:47:59.000Z</time>
      </trkpt>
      <trkpt lat="48.52373" lon="7.3797">
        <ele>282.4836730957</ele>
        <time>2017-06-04T08:48:02.000Z</time>
      </trkpt>
      <trkpt lat="48.52381" lon="7.37975">
        <ele>281.13162231445</ele>
        <time>2017-06-04T08:48:04.000Z</time>
      </trkpt>
      <trkpt lat="48.52394" lon="7.37986">
        <ele>279.41516113281</ele>
        <time>2017-06-04T08:48:07.000Z</time>
      </trkpt>
      <trkpt lat="48.52398" lon="7.37991">
        <ele>277.85943603516</ele>
        <time>2017-06-04T08:48:10.000Z</time>
      </trkpt>
      <trkpt lat="48.52398" lon="7.37996">
        <ele>276.83749389648</ele>
        <time>2017-06-04T08:48:18.000Z</time>
      </trkpt>
      <trkpt lat="48.524" lon="7.37996">
        <ele>275.98864746094</ele>
        <time>2017-06-04T08:48:22.000Z</time>
      </trkpt>
      <trkpt lat="48.52401" lon="7.37996">
        <ele>275.39385986328</ele>
        <time>2017-06-04T08:48:24.000Z</time>
      </trkpt>
      <trkpt lat="48.52401" lon="7.37996">
        <ele>275.39385986328</ele>
        <time>2017-06-04T08:48:44.000Z</time>
      </trkpt>
      <trkpt lat="48.52402" lon="7.37997">
        <ele>275.27362060547</ele>
        <time>2017-06-04T08:48:57.000Z</time>
      </trkpt>
      <trkpt lat="48.52402" lon="7.37998">
        <ele>275.34170532227</ele>
        <time>2017-06-04T08:49:07.000Z</time>
      </trkpt>
      <trkpt lat="48.52403" lon="7.37998">
        <ele>275.05783081055</ele>
        <time>2017-06-04T08:49:15.000Z</time>
      </trkpt>
      <trkpt lat="48.52403" lon="7.37998">
        <ele>275.05783081055</ele>
        <time>2017-06-04T08:49:35.000Z</time>
      </trkpt>
      <trkpt lat="48.52403" lon="7.37999">
        <ele>274.95953369141</ele>
        <time>2017-06-04T08:49:42.000Z</time>
      </trkpt>
      <trkpt lat="48.52401" lon="7.37999">
        <ele>275.08438110352</ele>
        <time>2017-06-04T08:50:01.000Z</time>
      </trkpt>
      <trkpt lat="48.52401" lon="7.37997">
        <ele>275.19924926758</ele>
        <time>2017-06-04T08:50:19.000Z</time>
      </trkpt>
      <trkpt lat="48.52402" lon="7.37996">
        <ele>275.15008544922</ele>
        <time>2017-06-04T08:50:34.000Z</time>
      </trkpt>
      <trkpt lat="48.52402" lon="7.37996">
        <ele>275.15008544922</ele>
        <time>2017-06-04T08:50:54.000Z</time>
      </trkpt>
      <trkpt lat="48.52404" lon="7.37997">
        <ele>275.00698852539</ele>
        <time>2017-06-04T08:51:26.000Z</time>
      </trkpt>
      <trkpt lat="48.52412" lon="7.38002">
        <ele>274.44854736328</ele>
        <time>2017-06-04T08:51:29.000Z</time>
      </trkpt>
      <trkpt lat="48.52422" lon="7.38009">
        <ele>273.35388183594</ele>
        <time>2017-06-04T08:51:32.000Z</time>
      </trkpt>
      <trkpt lat="48.5243" lon="7.38014">
        <ele>271.92858886719</ele>
        <time>2017-06-04T08:51:34.000Z</time>
      </trkpt>
      <trkpt lat="48.5244" lon="7.38021">
        <ele>270.16763305664</ele>
        <time>2017-06-04T08:51:37.000Z</time>
      </trkpt>
      <trkpt lat="48.52449" lon="7.38028">
        <ele>268.15615844727</ele>
        <time>2017-06-04T08:51:39.000Z</time>
      </trkpt>
      <trkpt lat="48.52458" lon="7.38033">
        <ele>265.98736572266</ele>
        <time>2017-06-04T08:51:42.000Z</time>
      </trkpt>
      <trkpt lat="48.52464" lon="7.38036">
        <ele>263.89923095703</ele>
        <time>2017-06-04T08:51:44.000Z</time>
      </trkpt>
      <trkpt lat="48.52473" lon="7.3804">
        <ele>261.53887939453</ele>
        <time>2017-06-04T08:51:47.000Z</time>
      </trkpt>
      <trkpt lat="48.5248" lon="7.38044">
        <ele>259.09899902344</ele>
        <time>2017-06-04T08:51:50.000Z</time>
      </trkpt>
      <trkpt lat="48.52487" lon="7.38049">
        <ele>256.66873168945</ele>
        <time>2017-06-04T08:51:53.000Z</time>
      </trkpt>
      <trkpt lat="48.52492" lon="7.38053">
        <ele>254.39424133301</ele>
        <time>2017-06-04T08:51:55.000Z</time>
      </trkpt>
      <trkpt lat="48.52497" lon="7.38058">
        <ele>252.13442993164</ele>
        <time>2017-06-04T08:51:57.000Z</time>
      </trkpt>
      <trkpt lat="48.52501" lon="7.3806">
        <ele>250.28884887695</ele>
        <time>2017-06-04T08:51:59.000Z</time>
      </trkpt>
      <trkpt lat="48.52505" lon="7.38064">
        <ele>248.74490356445</ele>
        <time>2017-06-04T08:52:02.000Z</time>
      </trkpt>
      <trkpt lat="48.52509" lon="7.3807">
        <ele>247.53271484375</ele>
        <time>2017-06-04T08:52:04.000Z</time>
      </trkpt>
      <trkpt lat="48.52514" lon="7.38075">
        <ele>246.53608703613</ele>
        <time>2017-06-04T08:52:06.000Z</time>
      </trkpt>
      <trkpt lat="48.52522" lon="7.38084">
        <ele>245.57707214355</ele>
        <time>2017-06-04T08:52:09.000Z</time>
      </trkpt>
      <trkpt lat="48.52529" lon="7.38091">
        <ele>244.42263793945</ele>
        <time>2017-06-04T08:52:12.000Z</time>
      </trkpt>
      <trkpt lat="48.52534" lon="7.38094">
        <ele>243.18371582031</ele>
        <time>2017-06-04T08:52:14.000Z</time>
      </trkpt>
      <trkpt lat="48.52543" lon="7.38095">
        <ele>241.57783508301</ele>
        <time>2017-06-04T08:52:17.000Z</time>
      </trkpt>
      <trkpt lat="48.52549" lon="7.38096">
        <ele>239.82583618164</ele>
        <time>2017-06-04T08:52:19.000Z</time>
      </trkpt>
      <trkpt lat="48.52558" lon="7.38099">
        <ele>237.87979125977</ele>
        <time>2017-06-04T08:52:22.000Z</time>
      </trkpt>
      <trkpt lat="48.52568" lon="7.38101">
        <ele>235.83340454102</ele>
        <time>2017-06-04T08:52:24.000Z</time>
      </trkpt>
      <trkpt lat="48.52576" lon="7.38102">
        <ele>233.59786987305</ele>
        <time>2017-06-04T08:52:27.000Z</time>
      </trkpt>
      <trkpt lat="48.52582" lon="7.38103">
        <ele>231.50444030762</ele>
        <time>2017-06-04T08:52:29.000Z</time>
      </trkpt>
      <trkpt lat="48.5259" lon="7.38108">
        <ele>229.4771270752</ele>
        <time>2017-06-04T08:52:32.000Z</time>
      </trkpt>
      <trkpt lat="48.52595" lon="7.38107">
        <ele>227.84884643555</ele>
        <time>2017-06-04T08:52:34.000Z</time>
      </trkpt>
      <trkpt lat="48.52601" lon="7.38091">
        <ele>226.72207641602</ele>
        <time>2017-06-04T08:52:37.000Z</time>
      </trkpt>
      <trkpt lat="48.52609" lon="7.38075">
        <ele>225.89233398438</ele>
        <time>2017-06-04T08:52:40.000Z</time>
      </trkpt>
      <trkpt lat="48.52616" lon="7.3807">
        <ele>225.1939239502</ele>
        <time>2017-06-04T08:52:42.000Z</time>
      </trkpt>
      <trkpt lat="48.52629" lon="7.3807">
        <ele>224.41259765625</ele>
        <time>2017-06-04T08:52:45.000Z</time>
      </trkpt>
      <trkpt lat="48.52645" lon="7.38077">
        <ele>223.3695526123</ele>
        <time>2017-06-04T08:52:48.000Z</time>
      </trkpt>
      <trkpt lat="48.52654" lon="7.38081">
        <ele>222.16743469238</ele>
        <time>2017-06-04T08:52:50.000Z</time>
      </trkpt>
      <trkpt lat="48.52665" lon="7.38088">
        <ele>220.884765625</ele>
        <time>2017-06-04T08:52:53.000Z</time>
      </trkpt>
      <trkpt lat="48.52676" lon="7.38097">
        <ele>219.75015258789</ele>
        <time>2017-06-04T08:52:56.000Z</time>
      </trkpt>
      <trkpt lat="48.52681" lon="7.38103">
        <ele>218.93669128418</ele>
        <time>2017-06-04T08:52:58.000Z</time>
      </trkpt>
      <trkpt lat="48.52683" lon="7.38107">
        <ele>218.48384094238</ele>
        <time>2017-06-04T08:53:00.000Z</time>
      </trkpt>
      <trkpt lat="48.52684" lon="7.38108">
        <ele>218.2066192627</ele>
        <time>2017-06-04T08:53:03.000Z</time>
      </trkpt>
      <trkpt lat="48.52685" lon="7.3811">
        <ele>218.19107055664</ele>
        <time>2017-06-04T08:53:06.000Z</time>
      </trkpt>
      <trkpt lat="48.52685" lon="7.38111">
        <ele>218.20510864258</ele>
        <time>2017-06-04T08:53:08.000Z</time>
      </trkpt>
      <trkpt lat="48.52685" lon="7.38112">
        <ele>218.21762084961</ele>
        <time>2017-06-04T08:53:19.000Z</time>
      </trkpt>
      <trkpt lat="48.52686" lon="7.38115">
        <ele>218.2311706543</ele>
        <time>2017-06-04T08:53:55.000Z</time>
      </trkpt>
      <trkpt lat="48.5269" lon="7.38119">
        <ele>218.23612976074</ele>
        <time>2017-06-04T08:53:58.000Z</time>
      </trkpt>
      <trkpt lat="48.52694" lon="7.38122">
        <ele>218.2239074707</ele>
        <time>2017-06-04T08:54:00.000Z</time>
      </trkpt>
      <trkpt lat="48.52703" lon="7.38133">
        <ele>218.17471313477</ele>
        <time>2017-06-04T08:54:03.000Z</time>
      </trkpt>
      <trkpt lat="48.52711" lon="7.38144">
        <ele>218.07514953613</ele>
        <time>2017-06-04T08:54:06.000Z</time>
      </trkpt>
      <trkpt lat="48.52717" lon="7.38151">
        <ele>217.9289855957</ele>
        <time>2017-06-04T08:54:08.000Z</time>
      </trkpt>
      <trkpt lat="48.52723" lon="7.38157">
        <ele>217.74165344238</ele>
        <time>2017-06-04T08:54:10.000Z</time>
      </trkpt>
      <trkpt lat="48.52729" lon="7.38164">
        <ele>217.51029968262</ele>
        <time>2017-06-04T08:54:12.000Z</time>
      </trkpt>
      <trkpt lat="48.52739" lon="7.38177">
        <ele>217.24179077148</ele>
        <time>2017-06-04T08:54:15.000Z</time>
      </trkpt>
      <trkpt lat="48.52748" lon="7.3819">
        <ele>216.95942687988</ele>
        <time>2017-06-04T08:54:18.000Z</time>
      </trkpt>
      <trkpt lat="48.52756" lon="7.38205">
        <ele>216.74446105957</ele>
        <time>2017-06-04T08:54:21.000Z</time>
      </trkpt>
      <trkpt lat="48.5276" lon="7.38215">
        <ele>216.60458374023</ele>
        <time>2017-06-04T08:54:23.000Z</time>
      </trkpt>
      <trkpt lat="48.52765" lon="7.38229">
        <ele>216.55708312988</ele>
        <time>2017-06-04T08:54:26.000Z</time>
      </trkpt>
      <trkpt lat="48.52769" lon="7.38239">
        <ele>216.60317993164</ele>
        <time>2017-06-04T08:54:28.000Z</time>
      </trkpt>
      <trkpt lat="48.52773" lon="7.38253">
        <ele>216.77001953125</ele>
        <time>2017-06-04T08:54:31.000Z</time>
      </trkpt>
      <trkpt lat="48.52768" lon="7.38264">
        <ele>217.01773071289</ele>
        <time>2017-06-04T08:54:34.000Z</time>
      </trkpt>
      <trkpt lat="48.52758" lon="7.38268">
        <ele>217.28115844727</ele>
        <time>2017-06-04T08:54:37.000Z</time>
      </trkpt>
      <trkpt lat="48.52752" lon="7.38272">
        <ele>217.53979492188</ele>
        <time>2017-06-04T08:54:39.000Z</time>
      </trkpt>
      <trkpt lat="48.52744" lon="7.3828">
        <ele>217.89904785156</ele>
        <time>2017-06-04T08:54:42.000Z</time>
      </trkpt>
      <trkpt lat="48.52738" lon="7.38287">
        <ele>218.29472351074</ele>
        <time>2017-06-04T08:54:44.000Z</time>
      </trkpt>
      <trkpt lat="48.52731" lon="7.38296">
        <ele>218.70761108398</ele>
        <time>2017-06-04T08:54:47.000Z</time>
      </trkpt>
      <trkpt lat="48.52726" lon="7.38301">
        <ele>219.15791320801</ele>
        <time>2017-06-04T08:54:49.000Z</time>
      </trkpt>
      <trkpt lat="48.52721" lon="7.38306">
        <ele>219.65132141113</ele>
        <time>2017-06-04T08:54:51.000Z</time>
      </trkpt>
      <trkpt lat="48.52716" lon="7.38312">
        <ele>220.09346008301</ele>
        <time>2017-06-04T08:54:53.000Z</time>
      </trkpt>
      <trkpt lat="48.52708" lon="7.38321">
        <ele>220.55989074707</ele>
        <time>2017-06-04T08:54:56.000Z</time>
      </trkpt>
      <trkpt lat="48.52702" lon="7.38326">
        <ele>220.97680664062</ele>
        <time>2017-06-04T08:54:58.000Z</time>
      </trkpt>
      <trkpt lat="48.52694" lon="7.38331">
        <ele>221.3938293457</ele>
        <time>2017-06-04T08:55:01.000Z</time>
      </trkpt>
      <trkpt lat="48.52684" lon="7.38337">
        <ele>221.95381164551</ele>
        <time>2017-06-04T08:55:04.000Z</time>
      </trkpt>
      <trkpt lat="48.52677" lon="7.38345">
        <ele>222.74626159668</ele>
        <time>2017-06-04T08:55:07.000Z</time>
      </trkpt>
      <trkpt lat="48.52672" lon="7.3835">
        <ele>223.5966796875</ele>
        <time>2017-06-04T08:55:09.000Z</time>
      </trkpt>
      <trkpt lat="48.52666" lon="7.38355">
        <ele>224.5696105957</ele>
        <time>2017-06-04T08:55:12.000Z</time>
      </trkpt>
      <trkpt lat="48.52661" lon="7.38357">
        <ele>225.52108764648</ele>
        <time>2017-06-04T08:55:14.000Z</time>
      </trkpt>
      <trkpt lat="48.52653" lon="7.38357">
        <ele>226.24703979492</ele>
        <time>2017-06-04T08:55:17.000Z</time>
      </trkpt>
      <trkpt lat="48.52648" lon="7.38359">
        <ele>226.71948242188</ele>
        <time>2017-06-04T08:55:19.000Z</time>
      </trkpt>
      <trkpt lat="48.5264" lon="7.38364">
        <ele>227.12309265137</ele>
        <time>2017-06-04T08:55:22.000Z</time>
      </trkpt>
      <trkpt lat="48.52632" lon="7.38373">
        <ele>227.5248260498</ele>
        <time>2017-06-04T08:55:25.000Z</time>
      </trkpt>
      <trkpt lat="48.52628" lon="7.38381">
        <ele>228.03475952148</ele>
        <time>2017-06-04T08:55:27.000Z</time>
      </trkpt>
      <trkpt lat="48.52621" lon="7.38392">
        <ele>228.7399597168</ele>
        <time>2017-06-04T08:55:30.000Z</time>
      </trkpt>
      <trkpt lat="48.52615" lon="7.38399">
        <ele>229.46965026855</ele>
        <time>2017-06-04T08:55:32.000Z</time>
      </trkpt>
      <trkpt lat="48.52605" lon="7.38408">
        <ele>230.13565063477</ele>
        <time>2017-06-04T08:55:35.000Z</time>
      </trkpt>
      <trkpt lat="48.52599" lon="7.38413">
        <ele>230.60131835938</ele>
        <time>2017-06-04T08:55:37.000Z</time>
      </trkpt>
      <trkpt lat="48.52591" lon="7.38418">
        <ele>230.86479187012</ele>
        <time>2017-06-04T08:55:40.000Z</time>
      </trkpt>
      <trkpt lat="48.52584" lon="7.38424">
        <ele>231.02096557617</ele>
        <time>2017-06-04T08:55:43.000Z</time>
      </trkpt>
      <trkpt lat="48.52573" lon="7.38429">
        <ele>231.11996459961</ele>
        <time>2017-06-04T08:55:46.000Z</time>
      </trkpt>
      <trkpt lat="48.52563" lon="7.38433">
        <ele>231.1774597168</ele>
        <time>2017-06-04T08:55:49.000Z</time>
      </trkpt>
      <trkpt lat="48.52557" lon="7.38439">
        <ele>231.30490112305</ele>
        <time>2017-06-04T08:55:51.000Z</time>
      </trkpt>
      <trkpt lat="48.52546" lon="7.38448">
        <ele>231.49858093262</ele>
        <time>2017-06-04T08:55:54.000Z</time>
      </trkpt>
      <trkpt lat="48.52536" lon="7.38455">
        <ele>231.5595703125</ele>
        <time>2017-06-04T08:55:57.000Z</time>
      </trkpt>
      <trkpt lat="48.5253" lon="7.38457">
        <ele>231.51345825195</ele>
        <time>2017-06-04T08:55:59.000Z</time>
      </trkpt>
      <trkpt lat="48.52518" lon="7.38459">
        <ele>231.2490234375</ele>
        <time>2017-06-04T08:56:02.000Z</time>
      </trkpt>
      <trkpt lat="48.52511" lon="7.38462">
        <ele>230.80297851562</ele>
        <time>2017-06-04T08:56:04.000Z</time>
      </trkpt>
      <trkpt lat="48.525" lon="7.38469">
        <ele>230.13491821289</ele>
        <time>2017-06-04T08:56:07.000Z</time>
      </trkpt>
      <trkpt lat="48.52492" lon="7.38475">
        <ele>229.55964660645</ele>
        <time>2017-06-04T08:56:10.000Z</time>
      </trkpt>
      <trkpt lat="48.52489" lon="7.38479">
        <ele>229.0888671875</ele>
        <time>2017-06-04T08:56:12.000Z</time>
      </trkpt>
      <trkpt lat="48.52485" lon="7.38484">
        <ele>228.83882141113</ele>
        <time>2017-06-04T08:56:15.000Z</time>
      </trkpt>
      <trkpt lat="48.52478" lon="7.38486">
        <ele>228.6806640625</ele>
        <time>2017-06-04T08:56:17.000Z</time>
      </trkpt>
      <trkpt lat="48.52469" lon="7.38491">
        <ele>228.67170715332</ele>
        <time>2017-06-04T08:56:20.000Z</time>
      </trkpt>
      <trkpt lat="48.52459" lon="7.38495">
        <ele>228.54312133789</ele>
        <time>2017-06-04T08:56:23.000Z</time>
      </trkpt>
      <trkpt lat="48.52452" lon="7.38497">
        <ele>228.33911132812</ele>
        <time>2017-06-04T08:56:25.000Z</time>
      </trkpt>
      <trkpt lat="48.52444" lon="7.38503">
        <ele>228.10104370117</ele>
        <time>2017-06-04T08:56:27.000Z</time>
      </trkpt>
      <trkpt lat="48.52432" lon="7.38513">
        <ele>228.02104187012</ele>
        <time>2017-06-04T08:56:30.000Z</time>
      </trkpt>
      <trkpt lat="48.52426" lon="7.3852">
        <ele>228.07344055176</ele>
        <time>2017-06-04T08:56:32.000Z</time>
      </trkpt>
      <trkpt lat="48.52416" lon="7.38528">
        <ele>228.27314758301</ele>
        <time>2017-06-04T08:56:35.000Z</time>
      </trkpt>
      <trkpt lat="48.52409" lon="7.38531">
        <ele>228.62539672852</ele>
        <time>2017-06-04T08:56:37.000Z</time>
      </trkpt>
      <trkpt lat="48.52404" lon="7.38538">
        <ele>229.13639831543</ele>
        <time>2017-06-04T08:56:39.000Z</time>
      </trkpt>
      <trkpt lat="48.52401" lon="7.38548">
        <ele>229.68838500977</ele>
        <time>2017-06-04T08:56:41.000Z</time>
      </trkpt>
      <trkpt lat="48.52397" lon="7.38557">
        <ele>230.29598999023</ele>
        <time>2017-06-04T08:56:43.000Z</time>
      </trkpt>
      <trkpt lat="48.5239" lon="7.38571">
        <ele>230.99118041992</ele>
        <time>2017-06-04T08:56:46.000Z</time>
      </trkpt>
      <trkpt lat="48.52385" lon="7.38578">
        <ele>231.64309692383</ele>
        <time>2017-06-04T08:56:48.000Z</time>
      </trkpt>
      <trkpt lat="48.52381" lon="7.38586">
        <ele>232.2688293457</ele>
        <time>2017-06-04T08:56:50.000Z</time>
      </trkpt>
      <trkpt lat="48.52375" lon="7.38594">
        <ele>232.92391967773</ele>
        <time>2017-06-04T08:56:52.000Z</time>
      </trkpt>
      <trkpt lat="48.52366" lon="7.38604">
        <ele>233.63114929199</ele>
        <time>2017-06-04T08:56:55.000Z</time>
      </trkpt>
      <trkpt lat="48.52361" lon="7.3861">
        <ele>234.27973937988</ele>
        <time>2017-06-04T08:56:57.000Z</time>
      </trkpt>
      <trkpt lat="48.52358" lon="7.38619">
        <ele>235.07467651367</ele>
        <time>2017-06-04T08:56:59.000Z</time>
      </trkpt>
      <trkpt lat="48.52352" lon="7.38634">
        <ele>236.07946777344</ele>
        <time>2017-06-04T08:57:02.000Z</time>
      </trkpt>
      <trkpt lat="48.52346" lon="7.38644">
        <ele>237.02143859863</ele>
        <time>2017-06-04T08:57:05.000Z</time>
      </trkpt>
      <trkpt lat="48.52336" lon="7.38657">
        <ele>237.80917358398</ele>
        <time>2017-06-04T08:57:08.000Z</time>
      </trkpt>
      <trkpt lat="48.52325" lon="7.38667">
        <ele>238.55334472656</ele>
        <time>2017-06-04T08:57:11.000Z</time>
      </trkpt>
      <trkpt lat="48.52318" lon="7.38675">
        <ele>239.31645202637</ele>
        <time>2017-06-04T08:57:13.000Z</time>
      </trkpt>
      <trkpt lat="48.52311" lon="7.38681">
        <ele>239.91813659668</ele>
        <time>2017-06-04T08:57:15.000Z</time>
      </trkpt>
      <trkpt lat="48.523" lon="7.38689">
        <ele>240.56962585449</ele>
        <time>2017-06-04T08:57:18.000Z</time>
      </trkpt>
      <trkpt lat="48.52289" lon="7.38693">
        <ele>241.14212036133</ele>
        <time>2017-06-04T08:57:21.000Z</time>
      </trkpt>
      <trkpt lat="48.5228" lon="7.38696">
        <ele>241.62841796875</ele>
        <time>2017-06-04T08:57:23.000Z</time>
      </trkpt>
      <trkpt lat="48.52264" lon="7.38704">
        <ele>241.93637084961</ele>
        <time>2017-06-04T08:57:26.000Z</time>
      </trkpt>
      <trkpt lat="48.52254" lon="7.38709">
        <ele>242.09469604492</ele>
        <time>2017-06-04T08:57:28.000Z</time>
      </trkpt>
      <trkpt lat="48.52245" lon="7.38714">
        <ele>242.0708770752</ele>
        <time>2017-06-04T08:57:30.000Z</time>
      </trkpt>
      <trkpt lat="48.52232" lon="7.3872">
        <ele>242.10530090332</ele>
        <time>2017-06-04T08:57:33.000Z</time>
      </trkpt>
      <trkpt lat="48.52224" lon="7.38724">
        <ele>242.1607208252</ele>
        <time>2017-06-04T08:57:35.000Z</time>
      </trkpt>
      <trkpt lat="48.52212" lon="7.38728">
        <ele>242.05676269531</ele>
        <time>2017-06-04T08:57:38.000Z</time>
      </trkpt>
      <trkpt lat="48.52203" lon="7.38731">
        <ele>241.84782409668</ele>
        <time>2017-06-04T08:57:40.000Z</time>
      </trkpt>
      <trkpt lat="48.52194" lon="7.38735">
        <ele>241.55856323242</ele>
        <time>2017-06-04T08:57:42.000Z</time>
      </trkpt>
      <trkpt lat="48.52185" lon="7.38739">
        <ele>241.1494140625</ele>
        <time>2017-06-04T08:57:44.000Z</time>
      </trkpt>
      <trkpt lat="48.52172" lon="7.38744">
        <ele>240.53137207031</ele>
        <time>2017-06-04T08:57:47.000Z</time>
      </trkpt>
      <trkpt lat="48.52163" lon="7.38748">
        <ele>239.92309570312</ele>
        <time>2017-06-04T08:57:49.000Z</time>
      </trkpt>
      <trkpt lat="48.52155" lon="7.3875">
        <ele>239.30673217773</ele>
        <time>2017-06-04T08:57:51.000Z</time>
      </trkpt>
      <trkpt lat="48.52146" lon="7.38752">
        <ele>238.70796203613</ele>
        <time>2017-06-04T08:57:53.000Z</time>
      </trkpt>
      <trkpt lat="48.52133" lon="7.38754">
        <ele>238.10009765625</ele>
        <time>2017-06-04T08:57:56.000Z</time>
      </trkpt>
      <trkpt lat="48.52125" lon="7.38758">
        <ele>237.76664733887</ele>
        <time>2017-06-04T08:57:58.000Z</time>
      </trkpt>
      <trkpt lat="48.52115" lon="7.38765">
        <ele>237.6496887207</ele>
        <time>2017-06-04T08:58:01.000Z</time>
      </trkpt>
      <trkpt lat="48.52107" lon="7.38771">
        <ele>237.70797729492</ele>
        <time>2017-06-04T08:58:03.000Z</time>
      </trkpt>
      <trkpt lat="48.521" lon="7.38779">
        <ele>237.96939086914</ele>
        <time>2017-06-04T08:58:05.000Z</time>
      </trkpt>
      <trkpt lat="48.5209" lon="7.38793">
        <ele>238.58879089355</ele>
        <time>2017-06-04T08:58:08.000Z</time>
      </trkpt>
      <trkpt lat="48.52083" lon="7.38803">
        <ele>239.27397155762</ele>
        <time>2017-06-04T08:58:10.000Z</time>
      </trkpt>
      <trkpt lat="48.52076" lon="7.38811">
        <ele>240.04837036133</ele>
        <time>2017-06-04T08:58:12.000Z</time>
      </trkpt>
      <trkpt lat="48.52069" lon="7.3882">
        <ele>240.88265991211</ele>
        <time>2017-06-04T08:58:14.000Z</time>
      </trkpt>
      <trkpt lat="48.52063" lon="7.38829">
        <ele>241.67098999023</ele>
        <time>2017-06-04T08:58:16.000Z</time>
      </trkpt>
      <trkpt lat="48.52055" lon="7.38843">
        <ele>242.46025085449</ele>
        <time>2017-06-04T08:58:19.000Z</time>
      </trkpt>
      <trkpt lat="48.52048" lon="7.38852">
        <ele>243.26155090332</ele>
        <time>2017-06-04T08:58:22.000Z</time>
      </trkpt>
      <trkpt lat="48.52042" lon="7.38863">
        <ele>244.03100585938</ele>
        <time>2017-06-04T08:58:25.000Z</time>
      </trkpt>
      <trkpt lat="48.52037" lon="7.38876">
        <ele>244.85298156738</ele>
        <time>2017-06-04T08:58:28.000Z</time>
      </trkpt>
      <trkpt lat="48.52034" lon="7.38882">
        <ele>245.65625</ele>
        <time>2017-06-04T08:58:30.000Z</time>
      </trkpt>
      <trkpt lat="48.5203" lon="7.3889">
        <ele>246.24002075195</ele>
        <time>2017-06-04T08:58:32.000Z</time>
      </trkpt>
      <trkpt lat="48.52026" lon="7.38898">
        <ele>246.70747375488</ele>
        <time>2017-06-04T08:58:34.000Z</time>
      </trkpt>
      <trkpt lat="48.52019" lon="7.38907">
        <ele>246.85766601562</ele>
        <time>2017-06-04T08:58:37.000Z</time>
      </trkpt>
      <trkpt lat="48.52015" lon="7.38914">
        <ele>246.76098632812</ele>
        <time>2017-06-04T08:58:39.000Z</time>
      </trkpt>
      <trkpt lat="48.52011" lon="7.38922">
        <ele>246.55685424805</ele>
        <time>2017-06-04T08:58:41.000Z</time>
      </trkpt>
      <trkpt lat="48.52005" lon="7.38933">
        <ele>246.31953430176</ele>
        <time>2017-06-04T08:58:44.000Z</time>
      </trkpt>
      <trkpt lat="48.52002" lon="7.38939">
        <ele>246.09655761719</ele>
        <time>2017-06-04T08:58:46.000Z</time>
      </trkpt>
      <trkpt lat="48.51996" lon="7.38947">
        <ele>246.09313964844</ele>
        <time>2017-06-04T08:58:49.000Z</time>
      </trkpt>
      <trkpt lat="48.51993" lon="7.38952">
        <ele>246.27153015137</ele>
        <time>2017-06-04T08:58:52.000Z</time>
      </trkpt>
      <trkpt lat="48.51985" lon="7.38959">
        <ele>246.53759765625</ele>
        <time>2017-06-04T08:58:55.000Z</time>
      </trkpt>
      <trkpt lat="48.51981" lon="7.38963">
        <ele>246.86880493164</ele>
        <time>2017-06-04T08:58:57.000Z</time>
      </trkpt>
      <trkpt lat="48.51978" lon="7.38968">
        <ele>247.27670288086</ele>
        <time>2017-06-04T08:59:00.000Z</time>
      </trkpt>
      <trkpt lat="48.51976" lon="7.3897">
        <ele>247.63725280762</ele>
        <time>2017-06-04T08:59:02.000Z</time>
      </trkpt>
      <trkpt lat="48.51973" lon="7.38973">
        <ele>247.89700317383</ele>
        <time>2017-06-04T08:59:04.000Z</time>
      </trkpt>
      <trkpt lat="48.51969" lon="7.38976">
        <ele>248.10745239258</ele>
        <time>2017-06-04T08:59:07.000Z</time>
      </trkpt>
      <trkpt lat="48.51965" lon="7.38981">
        <ele>248.32766723633</ele>
        <time>2017-06-04T08:59:09.000Z</time>
      </trkpt>
      <trkpt lat="48.51961" lon="7.38988">
        <ele>248.53213500977</ele>
        <time>2017-06-04T08:59:12.000Z</time>
      </trkpt>
      <trkpt lat="48.51958" lon="7.38992">
        <ele>248.77514648438</ele>
        <time>2017-06-04T08:59:14.000Z</time>
      </trkpt>
      <trkpt lat="48.51956" lon="7.38995">
        <ele>249.04580688477</ele>
        <time>2017-06-04T08:59:16.000Z</time>
      </trkpt>
      <trkpt lat="48.51954" lon="7.38997">
        <ele>249.29150390625</ele>
        <time>2017-06-04T08:59:18.000Z</time>
      </trkpt>
      <trkpt lat="48.51948" lon="7.39002">
        <ele>249.51736450195</ele>
        <time>2017-06-04T08:59:21.000Z</time>
      </trkpt>
      <trkpt lat="48.51947" lon="7.39004">
        <ele>249.75114440918</ele>
        <time>2017-06-04T08:59:23.000Z</time>
      </trkpt>
      <trkpt lat="48.51945" lon="7.39007">
        <ele>249.99612426758</ele>
        <time>2017-06-04T08:59:25.000Z</time>
      </trkpt>
      <trkpt lat="48.51944" lon="7.39008">
        <ele>250.22525024414</ele>
        <time>2017-06-04T08:59:28.000Z</time>
      </trkpt>
      <trkpt lat="48.51942" lon="7.39012">
        <ele>250.59286499023</ele>
        <time>2017-06-04T08:59:31.000Z</time>
      </trkpt>
      <trkpt lat="48.51939" lon="7.39018">
        <ele>251.14151000977</ele>
        <time>2017-06-04T08:59:34.000Z</time>
      </trkpt>
      <trkpt lat="48.51938" lon="7.39025">
        <ele>251.90322875977</ele>
        <time>2017-06-04T08:59:37.000Z</time>
      </trkpt>
      <trkpt lat="48.51936" lon="7.39029">
        <ele>252.72909545898</ele>
        <time>2017-06-04T08:59:39.000Z</time>
      </trkpt>
      <trkpt lat="48.51934" lon="7.39032">
        <ele>253.63513183594</ele>
        <time>2017-06-04T08:59:41.000Z</time>
      </trkpt>
      <trkpt lat="48.51934" lon="7.39036">
        <ele>254.58894348145</ele>
        <time>2017-06-04T08:59:43.000Z</time>
      </trkpt>
      <trkpt lat="48.51933" lon="7.3904">
        <ele>255.48617553711</ele>
        <time>2017-06-04T08:59:45.000Z</time>
      </trkpt>
      <trkpt lat="48.51931" lon="7.39045">
        <ele>256.29348754883</ele>
        <time>2017-06-04T08:59:48.000Z</time>
      </trkpt>
      <trkpt lat="48.5193" lon="7.39049">
        <ele>257.14807128906</ele>
        <time>2017-06-04T08:59:51.000Z</time>
      </trkpt>
      <trkpt lat="48.51928" lon="7.39052">
        <ele>258.00073242188</ele>
        <time>2017-06-04T08:59:53.000Z</time>
      </trkpt>
      <trkpt lat="48.51926" lon="7.39055">
        <ele>258.79092407227</ele>
        <time>2017-06-04T08:59:56.000Z</time>
      </trkpt>
      <trkpt lat="48.51923" lon="7.3906">
        <ele>259.58428955078</ele>
        <time>2017-06-04T08:59:59.000Z</time>
      </trkpt>
      <trkpt lat="48.51922" lon="7.39064">
        <ele>260.29873657227</ele>
        <time>2017-06-04T09:00:01.000Z</time>
      </trkpt>
      <trkpt lat="48.5192" lon="7.39069">
        <ele>261.04901123047</ele>
        <time>2017-06-04T09:00:04.000Z</time>
      </trkpt>
      <trkpt lat="48.5192" lon="7.39072">
        <ele>261.85079956055</ele>
        <time>2017-06-04T09:00:06.000Z</time>
      </trkpt>
      <trkpt lat="48.5192" lon="7.39077">
        <ele>262.77972412109</ele>
        <time>2017-06-04T09:00:09.000Z</time>
      </trkpt>
      <trkpt lat="48.51921" lon="7.3908">
        <ele>263.70245361328</ele>
        <time>2017-06-04T09:00:12.000Z</time>
      </trkpt>
      <trkpt lat="48.51921" lon="7.39082">
        <ele>264.57879638672</ele>
        <time>2017-06-04T09:00:14.000Z</time>
      </trkpt>
      <trkpt lat="48.51921" lon="7.39084">
        <ele>265.30023193359</ele>
        <time>2017-06-04T09:00:17.000Z</time>
      </trkpt>
      <trkpt lat="48.51922" lon="7.39089">
        <ele>266.04620361328</ele>
        <time>2017-06-04T09:00:20.000Z</time>
      </trkpt>
      <trkpt lat="48.51922" lon="7.3909">
        <ele>266.59979248047</ele>
        <time>2017-06-04T09:00:22.000Z</time>
      </trkpt>
      <trkpt lat="48.51923" lon="7.39093">
        <ele>267.07305908203</ele>
        <time>2017-06-04T09:00:25.000Z</time>
      </trkpt>
      <trkpt lat="48.51925" lon="7.39094">
        <ele>267.52893066406</ele>
        <time>2017-06-04T09:00:27.000Z</time>
      </trkpt>
      <trkpt lat="48.51927" lon="7.39098">
        <ele>268.09008789062</ele>
        <time>2017-06-04T09:00:30.000Z</time>
      </trkpt>
      <trkpt lat="48.51929" lon="7.391">
        <ele>268.5458984375</ele>
        <time>2017-06-04T09:00:32.000Z</time>
      </trkpt>
      <trkpt lat="48.51931" lon="7.39102">
        <ele>269.06176757812</ele>
        <time>2017-06-04T09:00:35.000Z</time>
      </trkpt>
      <trkpt lat="48.51935" lon="7.39104">
        <ele>269.61181640625</ele>
        <time>2017-06-04T09:00:38.000Z</time>
      </trkpt>
      <trkpt lat="48.51939" lon="7.39107">
        <ele>270.23937988281</ele>
        <time>2017-06-04T09:00:41.000Z</time>
      </trkpt>
      <trkpt lat="48.51941" lon="7.39109">
        <ele>270.80871582031</ele>
        <time>2017-06-04T09:00:43.000Z</time>
      </trkpt>
      <trkpt lat="48.51945" lon="7.39112">
        <ele>271.44189453125</ele>
        <time>2017-06-04T09:00:46.000Z</time>
      </trkpt>
      <trkpt lat="48.51947" lon="7.39116">
        <ele>272.13647460938</ele>
        <time>2017-06-04T09:00:49.000Z</time>
      </trkpt>
      <trkpt lat="48.51948" lon="7.39118">
        <ele>272.78527832031</ele>
        <time>2017-06-04T09:00:52.000Z</time>
      </trkpt>
      <trkpt lat="48.51949" lon="7.39118">
        <ele>273.30053710938</ele>
        <time>2017-06-04T09:00:55.000Z</time>
      </trkpt>
      <trkpt lat="48.5195" lon="7.39118">
        <ele>273.73291015625</ele>
        <time>2017-06-04T09:00:57.000Z</time>
      </trkpt>
      <trkpt lat="48.51951" lon="7.39118">
        <ele>274.0390625</ele>
        <time>2017-06-04T09:00:59.000Z</time>
      </trkpt>
      <trkpt lat="48.51954" lon="7.39118">
        <ele>274.22399902344</ele>
        <time>2017-06-04T09:01:02.000Z</time>
      </trkpt>
      <trkpt lat="48.51955" lon="7.39118">
        <ele>274.35388183594</ele>
        <time>2017-06-04T09:01:04.000Z</time>
      </trkpt>
      <trkpt lat="48.51958" lon="7.39118">
        <ele>274.50537109375</ele>
        <time>2017-06-04T09:01:07.000Z</time>
      </trkpt>
      <trkpt lat="48.5196" lon="7.39116">
        <ele>274.61120605469</ele>
        <time>2017-06-04T09:01:10.000Z</time>
      </trkpt>
      <trkpt lat="48.51963" lon="7.39117">
        <ele>274.76135253906</ele>
        <time>2017-06-04T09:01:13.000Z</time>
      </trkpt>
      <trkpt lat="48.51964" lon="7.39118">
        <ele>274.93176269531</ele>
        <time>2017-06-04T09:01:17.000Z</time>
      </trkpt>
      <trkpt lat="48.51966" lon="7.3912">
        <ele>275.17138671875</ele>
        <time>2017-06-04T09:01:19.000Z</time>
      </trkpt>
      <trkpt lat="48.51968" lon="7.39122">
        <ele>275.46813964844</ele>
        <time>2017-06-04T09:01:22.000Z</time>
      </trkpt>
      <trkpt lat="48.51968" lon="7.39124">
        <ele>275.85766601562</ele>
        <time>2017-06-04T09:01:24.000Z</time>
      </trkpt>
      <trkpt lat="48.5197" lon="7.39126">
        <ele>276.27380371094</ele>
        <time>2017-06-04T09:01:26.000Z</time>
      </trkpt>
      <trkpt lat="48.51972" lon="7.39131">
        <ele>276.81567382812</ele>
        <time>2017-06-04T09:01:29.000Z</time>
      </trkpt>
      <trkpt lat="48.51974" lon="7.39133">
        <ele>277.36450195312</ele>
        <time>2017-06-04T09:01:31.000Z</time>
      </trkpt>
      <trkpt lat="48.51976" lon="7.39135">
        <ele>277.89697265625</ele>
        <time>2017-06-04T09:01:33.000Z</time>
      </trkpt>
      <trkpt lat="48.51978" lon="7.39137">
        <ele>278.47045898438</ele>
        <time>2017-06-04T09:01:36.000Z</time>
      </trkpt>
      <trkpt lat="48.51981" lon="7.39139">
        <ele>279.05541992188</ele>
        <time>2017-06-04T09:01:38.000Z</time>
      </trkpt>
      <trkpt lat="48.51984" lon="7.39142">
        <ele>279.61279296875</ele>
        <time>2017-06-04T09:01:41.000Z</time>
      </trkpt>
      <trkpt lat="48.51986" lon="7.39143">
        <ele>280.11828613281</ele>
        <time>2017-06-04T09:01:43.000Z</time>
      </trkpt>
      <trkpt lat="48.51989" lon="7.39142">
        <ele>280.56494140625</ele>
        <time>2017-06-04T09:01:46.000Z</time>
      </trkpt>
      <trkpt lat="48.51993" lon="7.39142">
        <ele>280.96813964844</ele>
        <time>2017-06-04T09:01:49.000Z</time>
      </trkpt>
      <trkpt lat="48.51995" lon="7.39141">
        <ele>281.2783203125</ele>
        <time>2017-06-04T09:01:52.000Z</time>
      </trkpt>
      <trkpt lat="48.51997" lon="7.39141">
        <ele>281.45104980469</ele>
        <time>2017-06-04T09:01:55.000Z</time>
      </trkpt>
      <trkpt lat="48.51999" lon="7.39141">
        <ele>281.60852050781</ele>
        <time>2017-06-04T09:01:57.000Z</time>
      </trkpt>
      <trkpt lat="48.52001" lon="7.39141">
        <ele>281.76693725586</ele>
        <time>2017-06-04T09:02:00.000Z</time>
      </trkpt>
      <trkpt lat="48.52003" lon="7.39142">
        <ele>281.91812133789</ele>
        <time>2017-06-04T09:02:02.000Z</time>
      </trkpt>
      <trkpt lat="48.52004" lon="7.39142">
        <ele>282.08218383789</ele>
        <time>2017-06-04T09:02:05.000Z</time>
      </trkpt>
      <trkpt lat="48.52007" lon="7.39142">
        <ele>282.24453735352</ele>
        <time>2017-06-04T09:02:07.000Z</time>
      </trkpt>
      <trkpt lat="48.52011" lon="7.39146">
        <ele>282.53018188477</ele>
        <time>2017-06-04T09:02:10.000Z</time>
      </trkpt>
      <trkpt lat="48.52013" lon="7.39148">
        <ele>282.8883972168</ele>
        <time>2017-06-04T09:02:12.000Z</time>
      </trkpt>
      <trkpt lat="48.52017" lon="7.3915">
        <ele>283.29544067383</ele>
        <time>2017-06-04T09:02:15.000Z</time>
      </trkpt>
      <trkpt lat="48.52021" lon="7.39151">
        <ele>283.74612426758</ele>
        <time>2017-06-04T09:02:18.000Z</time>
      </trkpt>
      <trkpt lat="48.52023" lon="7.39151">
        <ele>284.19561767578</ele>
        <time>2017-06-04T09:02:20.000Z</time>
      </trkpt>
      <trkpt lat="48.52024" lon="7.39152">
        <ele>284.52557373047</ele>
        <time>2017-06-04T09:02:23.000Z</time>
      </trkpt>
      <trkpt lat="48.52028" lon="7.39152">
        <ele>284.79922485352</ele>
        <time>2017-06-04T09:02:26.000Z</time>
      </trkpt>
      <trkpt lat="48.52031" lon="7.39154">
        <ele>285.04254150391</ele>
        <time>2017-06-04T09:02:28.000Z</time>
      </trkpt>
      <trkpt lat="48.52036" lon="7.39154">
        <ele>285.27514648438</ele>
        <time>2017-06-04T09:02:31.000Z</time>
      </trkpt>
      <trkpt lat="48.52039" lon="7.39154">
        <ele>285.52252197266</ele>
        <time>2017-06-04T09:02:34.000Z</time>
      </trkpt>
      <trkpt lat="48.52043" lon="7.39154">
        <ele>285.77786254883</ele>
        <time>2017-06-04T09:02:37.000Z</time>
      </trkpt>
      <trkpt lat="48.52047" lon="7.39155">
        <ele>286.06585693359</ele>
        <time>2017-06-04T09:02:39.000Z</time>
      </trkpt>
      <trkpt lat="48.52051" lon="7.39157">
        <ele>286.35406494141</ele>
        <time>2017-06-04T09:02:41.000Z</time>
      </trkpt>
      <trkpt lat="48.52054" lon="7.39157">
        <ele>286.64471435547</ele>
        <time>2017-06-04T09:02:43.000Z</time>
      </trkpt>
      <trkpt lat="48.52056" lon="7.39158">
        <ele>286.92413330078</ele>
        <time>2017-06-04T09:02:45.000Z</time>
      </trkpt>
      <trkpt lat="48.52061" lon="7.3916">
        <ele>287.27935791016</ele>
        <time>2017-06-04T09:02:48.000Z</time>
      </trkpt>
      <trkpt lat="48.52065" lon="7.3916">
        <ele>287.58871459961</ele>
        <time>2017-06-04T09:02:50.000Z</time>
      </trkpt>
      <trkpt lat="48.52071" lon="7.3916">
        <ele>287.89361572266</ele>
        <time>2017-06-04T09:02:53.000Z</time>
      </trkpt>
      <trkpt lat="48.52079" lon="7.39158">
        <ele>288.17105102539</ele>
        <time>2017-06-04T09:02:56.000Z</time>
      </trkpt>
      <trkpt lat="48.52085" lon="7.39158">
        <ele>288.47567749023</ele>
        <time>2017-06-04T09:02:59.000Z</time>
      </trkpt>
      <trkpt lat="48.52089" lon="7.39161">
        <ele>288.75744628906</ele>
        <time>2017-06-04T09:03:02.000Z</time>
      </trkpt>
      <trkpt lat="48.52094" lon="7.39165">
        <ele>289.13250732422</ele>
        <time>2017-06-04T09:03:05.000Z</time>
      </trkpt>
      <trkpt lat="48.521" lon="7.39169">
        <ele>289.57119750977</ele>
        <time>2017-06-04T09:03:08.000Z</time>
      </trkpt>
      <trkpt lat="48.52106" lon="7.3917">
        <ele>290.03082275391</ele>
        <time>2017-06-04T09:03:11.000Z</time>
      </trkpt>
      <trkpt lat="48.52111" lon="7.3917">
        <ele>290.45721435547</ele>
        <time>2017-06-04T09:03:13.000Z</time>
      </trkpt>
      <trkpt lat="48.52115" lon="7.39173">
        <ele>290.86758422852</ele>
        <time>2017-06-04T09:03:15.000Z</time>
      </trkpt>
      <trkpt lat="48.5212" lon="7.39175">
        <ele>291.24557495117</ele>
        <time>2017-06-04T09:03:17.000Z</time>
      </trkpt>
      <trkpt lat="48.52126" lon="7.39175">
        <ele>291.49447631836</ele>
        <time>2017-06-04T09:03:20.000Z</time>
      </trkpt>
      <trkpt lat="48.52129" lon="7.39177">
        <ele>291.75610351562</ele>
        <time>2017-06-04T09:03:22.000Z</time>
      </trkpt>
      <trkpt lat="48.52133" lon="7.3918">
        <ele>292.10287475586</ele>
        <time>2017-06-04T09:03:24.000Z</time>
      </trkpt>
      <trkpt lat="48.5214" lon="7.39189">
        <ele>292.59243774414</ele>
        <time>2017-06-04T09:03:27.000Z</time>
      </trkpt>
      <trkpt lat="48.52145" lon="7.39198">
        <ele>293.21249389648</ele>
        <time>2017-06-04T09:03:30.000Z</time>
      </trkpt>
      <trkpt lat="48.52148" lon="7.39201">
        <ele>293.91030883789</ele>
        <time>2017-06-04T09:03:32.000Z</time>
      </trkpt>
      <trkpt lat="48.52151" lon="7.39205">
        <ele>294.63842773438</ele>
        <time>2017-06-04T09:03:35.000Z</time>
      </trkpt>
      <trkpt lat="48.52157" lon="7.39204">
        <ele>295.26553344727</ele>
        <time>2017-06-04T09:03:38.000Z</time>
      </trkpt>
      <trkpt lat="48.52162" lon="7.39206">
        <ele>295.71209716797</ele>
        <time>2017-06-04T09:03:41.000Z</time>
      </trkpt>
      <trkpt lat="48.52167" lon="7.39208">
        <ele>295.98602294922</ele>
        <time>2017-06-04T09:03:44.000Z</time>
      </trkpt>
      <trkpt lat="48.52169" lon="7.39208">
        <ele>296.21420288086</ele>
        <time>2017-06-04T09:03:46.000Z</time>
      </trkpt>
      <trkpt lat="48.52172" lon="7.39209">
        <ele>296.39022827148</ele>
        <time>2017-06-04T09:03:49.000Z</time>
      </trkpt>
      <trkpt lat="48.52176" lon="7.39212">
        <ele>296.63442993164</ele>
        <time>2017-06-04T09:03:51.000Z</time>
      </trkpt>
      <trkpt lat="48.52181" lon="7.39214">
        <ele>296.91400146484</ele>
        <time>2017-06-04T09:03:54.000Z</time>
      </trkpt>
      <trkpt lat="48.52187" lon="7.39214">
        <ele>297.19390869141</ele>
        <time>2017-06-04T09:03:57.000Z</time>
      </trkpt>
      <trkpt lat="48.52193" lon="7.39215">
        <ele>297.49359130859</ele>
        <time>2017-06-04T09:04:00.000Z</time>
      </trkpt>
      <trkpt lat="48.52199" lon="7.39215">
        <ele>297.79409790039</ele>
        <time>2017-06-04T09:04:03.000Z</time>
      </trkpt>
      <trkpt lat="48.52202" lon="7.39217">
        <ele>298.06549072266</ele>
        <time>2017-06-04T09:04:05.000Z</time>
      </trkpt>
      <trkpt lat="48.52207" lon="7.3922">
        <ele>298.33950805664</ele>
        <time>2017-06-04T09:04:08.000Z</time>
      </trkpt>
      <trkpt lat="48.52211" lon="7.39221">
        <ele>298.59707641602</ele>
        <time>2017-06-04T09:04:10.000Z</time>
      </trkpt>
      <trkpt lat="48.52216" lon="7.39222">
        <ele>298.8469543457</ele>
        <time>2017-06-04T09:04:13.000Z</time>
      </trkpt>
      <trkpt lat="48.52223" lon="7.39221">
        <ele>299.09088134766</ele>
        <time>2017-06-04T09:04:16.000Z</time>
      </trkpt>
      <trkpt lat="48.52228" lon="7.39223">
        <ele>299.34805297852</ele>
        <time>2017-06-04T09:04:19.000Z</time>
      </trkpt>
      <trkpt lat="48.52232" lon="7.39225">
        <ele>299.55624389648</ele>
        <time>2017-06-04T09:04:21.000Z</time>
      </trkpt>
      <trkpt lat="48.52236" lon="7.39225">
        <ele>299.76657104492</ele>
        <time>2017-06-04T09:04:23.000Z</time>
      </trkpt>
      <trkpt lat="48.52242" lon="7.39228">
        <ele>299.99423217773</ele>
        <time>2017-06-04T09:04:26.000Z</time>
      </trkpt>
      <trkpt lat="48.52247" lon="7.39234">
        <ele>300.28338623047</ele>
        <time>2017-06-04T09:04:29.000Z</time>
      </trkpt>
      <trkpt lat="48.52251" lon="7.39236">
        <ele>300.55337524414</ele>
        <time>2017-06-04T09:04:31.000Z</time>
      </trkpt>
      <trkpt lat="48.52255" lon="7.3924">
        <ele>300.80169677734</ele>
        <time>2017-06-04T09:04:33.000Z</time>
      </trkpt>
      <trkpt lat="48.5226" lon="7.39246">
        <ele>301.04916381836</ele>
        <time>2017-06-04T09:04:36.000Z</time>
      </trkpt>
      <trkpt lat="48.52266" lon="7.39254">
        <ele>301.3112487793</ele>
        <time>2017-06-04T09:04:39.000Z</time>
      </trkpt>
      <trkpt lat="48.52271" lon="7.3926">
        <ele>301.55258178711</ele>
        <time>2017-06-04T09:04:41.000Z</time>
      </trkpt>
      <trkpt lat="48.52278" lon="7.39268">
        <ele>301.82794189453</ele>
        <time>2017-06-04T09:04:44.000Z</time>
      </trkpt>
      <trkpt lat="48.52282" lon="7.39271">
        <ele>302.11349487305</ele>
        <time>2017-06-04T09:04:46.000Z</time>
      </trkpt>
      <trkpt lat="48.52286" lon="7.39275">
        <ele>302.38949584961</ele>
        <time>2017-06-04T09:04:48.000Z</time>
      </trkpt>
      <trkpt lat="48.52292" lon="7.39278">
        <ele>302.55999755859</ele>
        <time>2017-06-04T09:04:51.000Z</time>
      </trkpt>
      <trkpt lat="48.52296" lon="7.39279">
        <ele>302.62197875977</ele>
        <time>2017-06-04T09:04:53.000Z</time>
      </trkpt>
      <trkpt lat="48.52302" lon="7.3928">
        <ele>302.56558227539</ele>
        <time>2017-06-04T09:04:56.000Z</time>
      </trkpt>
      <trkpt lat="48.52308" lon="7.39286">
        <ele>302.49884033203</ele>
        <time>2017-06-04T09:04:59.000Z</time>
      </trkpt>
      <trkpt lat="48.52311" lon="7.39296">
        <ele>302.48663330078</ele>
        <time>2017-06-04T09:05:02.000Z</time>
      </trkpt>
      <trkpt lat="48.52316" lon="7.39302">
        <ele>302.50714111328</ele>
        <time>2017-06-04T09:05:04.000Z</time>
      </trkpt>
      <trkpt lat="48.52322" lon="7.39306">
        <ele>302.52697753906</ele>
        <time>2017-06-04T09:05:07.000Z</time>
      </trkpt>
      <trkpt lat="48.52328" lon="7.39314">
        <ele>302.57040405273</ele>
        <time>2017-06-04T09:05:10.000Z</time>
      </trkpt>
      <trkpt lat="48.52335" lon="7.39321">
        <ele>302.58355712891</ele>
        <time>2017-06-04T09:05:13.000Z</time>
      </trkpt>
      <trkpt lat="48.52342" lon="7.39326">
        <ele>302.55798339844</ele>
        <time>2017-06-04T09:05:16.000Z</time>
      </trkpt>
      <trkpt lat="48.52349" lon="7.39331">
        <ele>302.54370117188</ele>
        <time>2017-06-04T09:05:19.000Z</time>
      </trkpt>
      <trkpt lat="48.52354" lon="7.39333">
        <ele>302.57540893555</ele>
        <time>2017-06-04T09:05:21.000Z</time>
      </trkpt>
      <trkpt lat="48.52359" lon="7.39336">
        <ele>302.66592407227</ele>
        <time>2017-06-04T09:05:24.000Z</time>
      </trkpt>
      <trkpt lat="48.52364" lon="7.39339">
        <ele>302.80133056641</ele>
        <time>2017-06-04T09:05:26.000Z</time>
      </trkpt>
      <trkpt lat="48.5237" lon="7.39346">
        <ele>303.0026550293</ele>
        <time>2017-06-04T09:05:29.000Z</time>
      </trkpt>
      <trkpt lat="48.52374" lon="7.3935">
        <ele>303.25241088867</ele>
        <time>2017-06-04T09:05:31.000Z</time>
      </trkpt>
      <trkpt lat="48.5238" lon="7.39356">
        <ele>303.56787109375</ele>
        <time>2017-06-04T09:05:34.000Z</time>
      </trkpt>
      <trkpt lat="48.52386" lon="7.39361">
        <ele>303.92309570312</ele>
        <time>2017-06-04T09:05:37.000Z</time>
      </trkpt>
      <trkpt lat="48.52391" lon="7.39365">
        <ele>304.30480957031</ele>
        <time>2017-06-04T09:05:40.000Z</time>
      </trkpt>
      <trkpt lat="48.52396" lon="7.39373">
        <ele>304.69958496094</ele>
        <time>2017-06-04T09:05:43.000Z</time>
      </trkpt>
      <trkpt lat="48.52401" lon="7.39379">
        <ele>305.11950683594</ele>
        <time>2017-06-04T09:05:46.000Z</time>
      </trkpt>
      <trkpt lat="48.52405" lon="7.39384">
        <ele>305.53051757812</ele>
        <time>2017-06-04T09:05:48.000Z</time>
      </trkpt>
      <trkpt lat="48.5241" lon="7.3939">
        <ele>305.95983886719</ele>
        <time>2017-06-04T09:05:51.000Z</time>
      </trkpt>
      <trkpt lat="48.52414" lon="7.39396">
        <ele>306.42785644531</ele>
        <time>2017-06-04T09:05:53.000Z</time>
      </trkpt>
      <trkpt lat="48.52421" lon="7.39404">
        <ele>306.88137817383</ele>
        <time>2017-06-04T09:05:56.000Z</time>
      </trkpt>
      <trkpt lat="48.52426" lon="7.39412">
        <ele>307.33853149414</ele>
        <time>2017-06-04T09:05:58.000Z</time>
      </trkpt>
      <trkpt lat="48.52431" lon="7.3942">
        <ele>307.79550170898</ele>
        <time>2017-06-04T09:06:00.000Z</time>
      </trkpt>
      <trkpt lat="48.52436" lon="7.39426">
        <ele>308.18194580078</ele>
        <time>2017-06-04T09:06:03.000Z</time>
      </trkpt>
      <trkpt lat="48.52441" lon="7.39435">
        <ele>308.51080322266</ele>
        <time>2017-06-04T09:06:06.000Z</time>
      </trkpt>
      <trkpt lat="48.52446" lon="7.39439">
        <ele>308.72546386719</ele>
        <time>2017-06-04T09:06:09.000Z</time>
      </trkpt>
      <trkpt lat="48.5245" lon="7.39443">
        <ele>308.82974243164</ele>
        <time>2017-06-04T09:06:12.000Z</time>
      </trkpt>
      <trkpt lat="48.52453" lon="7.39446">
        <ele>308.86535644531</ele>
        <time>2017-06-04T09:06:14.000Z</time>
      </trkpt>
      <trkpt lat="48.52458" lon="7.39452">
        <ele>308.86773681641</ele>
        <time>2017-06-04T09:06:17.000Z</time>
      </trkpt>
      <trkpt lat="48.52463" lon="7.39458">
        <ele>308.82232666016</ele>
        <time>2017-06-04T09:06:19.000Z</time>
      </trkpt>
      <trkpt lat="48.52469" lon="7.39468">
        <ele>308.76821899414</ele>
        <time>2017-06-04T09:06:22.000Z</time>
      </trkpt>
      <trkpt lat="48.52472" lon="7.39474">
        <ele>308.71444702148</ele>
        <time>2017-06-04T09:06:24.000Z</time>
      </trkpt>
      <trkpt lat="48.52475" lon="7.3948">
        <ele>308.66067504883</ele>
        <time>2017-06-04T09:06:26.000Z</time>
      </trkpt>
      <trkpt lat="48.52479" lon="7.39486">
        <ele>308.59225463867</ele>
        <time>2017-06-04T09:06:29.000Z</time>
      </trkpt>
      <trkpt lat="48.52481" lon="7.39492">
        <ele>308.52236938477</ele>
        <time>2017-06-04T09:06:31.000Z</time>
      </trkpt>
      <trkpt lat="48.52486" lon="7.395">
        <ele>308.42373657227</ele>
        <time>2017-06-04T09:06:34.000Z</time>
      </trkpt>
      <trkpt lat="48.52491" lon="7.39508">
        <ele>308.29989624023</ele>
        <time>2017-06-04T09:06:37.000Z</time>
      </trkpt>
      <trkpt lat="48.52496" lon="7.39516">
        <ele>308.16561889648</ele>
        <time>2017-06-04T09:06:40.000Z</time>
      </trkpt>
      <trkpt lat="48.52502" lon="7.39522">
        <ele>308.03216552734</ele>
        <time>2017-06-04T09:06:43.000Z</time>
      </trkpt>
      <trkpt lat="48.52506" lon="7.39526">
        <ele>307.92523193359</ele>
        <time>2017-06-04T09:06:45.000Z</time>
      </trkpt>
      <trkpt lat="48.5251" lon="7.39532">
        <ele>307.88912963867</ele>
        <time>2017-06-04T09:06:47.000Z</time>
      </trkpt>
      <trkpt lat="48.52517" lon="7.3954">
        <ele>307.90661621094</ele>
        <time>2017-06-04T09:06:50.000Z</time>
      </trkpt>
      <trkpt lat="48.52527" lon="7.3955">
        <ele>307.93502807617</ele>
        <time>2017-06-04T09:06:53.000Z</time>
      </trkpt>
      <trkpt lat="48.52534" lon="7.39556">
        <ele>307.96627807617</ele>
        <time>2017-06-04T09:06:55.000Z</time>
      </trkpt>
      <trkpt lat="48.52541" lon="7.39564">
        <ele>307.9541015625</ele>
        <time>2017-06-04T09:06:57.000Z</time>
      </trkpt>
      <trkpt lat="48.52548" lon="7.39573">
        <ele>307.88348388672</ele>
        <time>2017-06-04T09:07:00.000Z</time>
      </trkpt>
      <trkpt lat="48.52554" lon="7.39581">
        <ele>307.75018310547</ele>
        <time>2017-06-04T09:07:02.000Z</time>
      </trkpt>
      <trkpt lat="48.52565" lon="7.39603">
        <ele>307.70162963867</ele>
        <time>2017-06-04T09:07:05.000Z</time>
      </trkpt>
      <trkpt lat="48.52571" lon="7.39613">
        <ele>307.71237182617</ele>
        <time>2017-06-04T09:07:07.000Z</time>
      </trkpt>
      <trkpt lat="48.52584" lon="7.39629">
        <ele>307.78057861328</ele>
        <time>2017-06-04T09:07:10.000Z</time>
      </trkpt>
      <trkpt lat="48.52591" lon="7.39636">
        <ele>307.88177490234</ele>
        <time>2017-06-04T09:07:12.000Z</time>
      </trkpt>
      <trkpt lat="48.52597" lon="7.39644">
        <ele>308.01022338867</ele>
        <time>2017-06-04T09:07:14.000Z</time>
      </trkpt>
      <trkpt lat="48.52612" lon="7.39663">
        <ele>307.95971679688</ele>
        <time>2017-06-04T09:07:17.000Z</time>
      </trkpt>
      <trkpt lat="48.52622" lon="7.39676">
        <ele>307.74029541016</ele>
        <time>2017-06-04T09:07:19.000Z</time>
      </trkpt>
      <trkpt lat="48.52636" lon="7.39699">
        <ele>307.31500244141</ele>
        <time>2017-06-04T09:07:22.000Z</time>
      </trkpt>
      <trkpt lat="48.52644" lon="7.39715">
        <ele>306.78082275391</ele>
        <time>2017-06-04T09:07:24.000Z</time>
      </trkpt>
      <trkpt lat="48.52658" lon="7.39757">
        <ele>306.16757202148</ele>
        <time>2017-06-04T09:07:27.000Z</time>
      </trkpt>
      <trkpt lat="48.52669" lon="7.39787">
        <ele>305.65954589844</ele>
        <time>2017-06-04T09:07:30.000Z</time>
      </trkpt>
      <trkpt lat="48.52677" lon="7.39805">
        <ele>305.21697998047</ele>
        <time>2017-06-04T09:07:32.000Z</time>
      </trkpt>
      <trkpt lat="48.52683" lon="7.3982">
        <ele>304.92303466797</ele>
        <time>2017-06-04T09:07:34.000Z</time>
      </trkpt>
      <trkpt lat="48.52686" lon="7.3985">
        <ele>304.85809326172</ele>
        <time>2017-06-04T09:07:37.000Z</time>
      </trkpt>
      <trkpt lat="48.52691" lon="7.39867">
        <ele>304.892578125</ele>
        <time>2017-06-04T09:07:39.000Z</time>
      </trkpt>
      <trkpt lat="48.52695" lon="7.39888">
        <ele>304.97439575195</ele>
        <time>2017-06-04T09:07:42.000Z</time>
      </trkpt>
      <trkpt lat="48.527" lon="7.39906">
        <ele>305.13095092773</ele>
        <time>2017-06-04T09:07:44.000Z</time>
      </trkpt>
      <trkpt lat="48.52703" lon="7.39923">
        <ele>305.32333374023</ele>
        <time>2017-06-04T09:07:47.000Z</time>
      </trkpt>
      <trkpt lat="48.52706" lon="7.39933">
        <ele>305.36276245117</ele>
        <time>2017-06-04T09:07:49.000Z</time>
      </trkpt>
      <trkpt lat="48.5271" lon="7.3997">
        <ele>305.38119506836</ele>
        <time>2017-06-04T09:07:53.000Z</time>
      </trkpt>
      <trkpt lat="48.52711" lon="7.39977">
        <ele>305.33279418945</ele>
        <time>2017-06-04T09:07:55.000Z</time>
      </trkpt>
      <trkpt lat="48.52715" lon="7.40001">
        <ele>305.26300048828</ele>
        <time>2017-06-04T09:07:58.000Z</time>
      </trkpt>
      <trkpt lat="48.52718" lon="7.40015">
        <ele>305.15509033203</ele>
        <time>2017-06-04T09:08:01.000Z</time>
      </trkpt>
      <trkpt lat="48.52719" lon="7.40026">
        <ele>305.08142089844</ele>
        <time>2017-06-04T09:08:03.000Z</time>
      </trkpt>
      <trkpt lat="48.5272" lon="7.40035">
        <ele>305.01788330078</ele>
        <time>2017-06-04T09:08:05.000Z</time>
      </trkpt>
      <trkpt lat="48.52723" lon="7.40049">
        <ele>304.94653320312</ele>
        <time>2017-06-04T09:08:07.000Z</time>
      </trkpt>
      <trkpt lat="48.52726" lon="7.40059">
        <ele>304.87689208984</ele>
        <time>2017-06-04T09:08:09.000Z</time>
      </trkpt>
      <trkpt lat="48.52729" lon="7.40075">
        <ele>304.82641601562</ele>
        <time>2017-06-04T09:08:12.000Z</time>
      </trkpt>
      <trkpt lat="48.52733" lon="7.40091">
        <ele>304.79766845703</ele>
        <time>2017-06-04T09:08:15.000Z</time>
      </trkpt>
      <trkpt lat="48.52735" lon="7.40101">
        <ele>304.80706787109</ele>
        <time>2017-06-04T09:08:17.000Z</time>
      </trkpt>
      <trkpt lat="48.52739" lon="7.40117">
        <ele>304.88305664062</ele>
        <time>2017-06-04T09:08:20.000Z</time>
      </trkpt>
      <trkpt lat="48.52741" lon="7.40125">
        <ele>304.99407958984</ele>
        <time>2017-06-04T09:08:22.000Z</time>
      </trkpt>
      <trkpt lat="48.52742" lon="7.40132">
        <ele>305.14892578125</ele>
        <time>2017-06-04T09:08:24.000Z</time>
      </trkpt>
      <trkpt lat="48.52742" lon="7.40141">
        <ele>305.32177734375</ele>
        <time>2017-06-04T09:08:26.000Z</time>
      </trkpt>
      <trkpt lat="48.52744" lon="7.40152">
        <ele>305.50952148438</ele>
        <time>2017-06-04T09:08:29.000Z</time>
      </trkpt>
      <trkpt lat="48.52744" lon="7.40161">
        <ele>305.6875</ele>
        <time>2017-06-04T09:08:31.000Z</time>
      </trkpt>
      <trkpt lat="48.52743" lon="7.40173">
        <ele>305.84292602539</ele>
        <time>2017-06-04T09:08:34.000Z</time>
      </trkpt>
      <trkpt lat="48.52745" lon="7.40186">
        <ele>305.8923034668</ele>
        <time>2017-06-04T09:08:37.000Z</time>
      </trkpt>
      <trkpt lat="48.52747" lon="7.40199">
        <ele>305.83117675781</ele>
        <time>2017-06-04T09:08:39.000Z</time>
      </trkpt>
      <trkpt lat="48.52753" lon="7.40229">
        <ele>305.55093383789</ele>
        <time>2017-06-04T09:08:42.000Z</time>
      </trkpt>
      <trkpt lat="48.52756" lon="7.4025">
        <ele>305.13314819336</ele>
        <time>2017-06-04T09:08:45.000Z</time>
      </trkpt>
      <trkpt lat="48.5276" lon="7.40264">
        <ele>304.64785766602</ele>
        <time>2017-06-04T09:08:47.000Z</time>
      </trkpt>
      <trkpt lat="48.52769" lon="7.40292">
        <ele>304.10186767578</ele>
        <time>2017-06-04T09:08:50.000Z</time>
      </trkpt>
      <trkpt lat="48.52774" lon="7.40324">
        <ele>303.47467041016</ele>
        <time>2017-06-04T09:08:53.000Z</time>
      </trkpt>
      <trkpt lat="48.5278" lon="7.40348">
        <ele>302.94989013672</ele>
        <time>2017-06-04T09:08:56.000Z</time>
      </trkpt>
      <trkpt lat="48.52784" lon="7.40373">
        <ele>302.47402954102</ele>
        <time>2017-06-04T09:08:59.000Z</time>
      </trkpt>
      <trkpt lat="48.52785" lon="7.40388">
        <ele>302.02792358398</ele>
        <time>2017-06-04T09:09:01.000Z</time>
      </trkpt>
      <trkpt lat="48.52794" lon="7.40417">
        <ele>301.62124633789</ele>
        <time>2017-06-04T09:09:04.000Z</time>
      </trkpt>
      <trkpt lat="48.52803" lon="7.40454">
        <ele>301.18200683594</ele>
        <time>2017-06-04T09:09:07.000Z</time>
      </trkpt>
      <trkpt lat="48.5281" lon="7.40489">
        <ele>300.58572387695</ele>
        <time>2017-06-04T09:09:10.000Z</time>
      </trkpt>
      <trkpt lat="48.52817" lon="7.4051">
        <ele>299.89501953125</ele>
        <time>2017-06-04T09:09:12.000Z</time>
      </trkpt>
      <trkpt lat="48.52823" lon="7.4055">
        <ele>299.12548828125</ele>
        <time>2017-06-04T09:09:15.000Z</time>
      </trkpt>
      <trkpt lat="48.52832" lon="7.40589">
        <ele>298.2809753418</ele>
        <time>2017-06-04T09:09:18.000Z</time>
      </trkpt>
      <trkpt lat="48.52836" lon="7.40616">
        <ele>297.24563598633</ele>
        <time>2017-06-04T09:09:20.000Z</time>
      </trkpt>
      <trkpt lat="48.52846" lon="7.40652">
        <ele>295.83087158203</ele>
        <time>2017-06-04T09:09:23.000Z</time>
      </trkpt>
      <trkpt lat="48.52853" lon="7.40693">
        <ele>294.03231811523</ele>
        <time>2017-06-04T09:09:26.000Z</time>
      </trkpt>
      <trkpt lat="48.52861" lon="7.40732">
        <ele>291.87854003906</ele>
        <time>2017-06-04T09:09:29.000Z</time>
      </trkpt>
      <trkpt lat="48.52872" lon="7.40772">
        <ele>289.47787475586</ele>
        <time>2017-06-04T09:09:32.000Z</time>
      </trkpt>
      <trkpt lat="48.52882" lon="7.40808">
        <ele>287.06939697266</ele>
        <time>2017-06-04T09:09:35.000Z</time>
      </trkpt>
      <trkpt lat="48.52892" lon="7.40832">
        <ele>284.91998291016</ele>
        <time>2017-06-04T09:09:37.000Z</time>
      </trkpt>
      <trkpt lat="48.52903" lon="7.40873">
        <ele>282.65557861328</ele>
        <time>2017-06-04T09:09:40.000Z</time>
      </trkpt>
      <trkpt lat="48.52916" lon="7.40913">
        <ele>280.14642333984</ele>
        <time>2017-06-04T09:09:43.000Z</time>
      </trkpt>
      <trkpt lat="48.52924" lon="7.4096">
        <ele>277.31585693359</ele>
        <time>2017-06-04T09:09:46.000Z</time>
      </trkpt>
      <trkpt lat="48.52925" lon="7.41005">
        <ele>274.27056884766</ele>
        <time>2017-06-04T09:09:49.000Z</time>
      </trkpt>
      <trkpt lat="48.52929" lon="7.4103">
        <ele>270.44683837891</ele>
        <time>2017-06-04T09:09:52.000Z</time>
      </trkpt>
      <trkpt lat="48.52913" lon="7.41051">
        <ele>266.89215087891</ele>
        <time>2017-06-04T09:09:55.000Z</time>
      </trkpt>
      <trkpt lat="48.52893" lon="7.41078">
        <ele>263.39422607422</ele>
        <time>2017-06-04T09:09:58.000Z</time>
      </trkpt>
      <trkpt lat="48.52878" lon="7.41096">
        <ele>260.4123840332</ele>
        <time>2017-06-04T09:10:00.000Z</time>
      </trkpt>
      <trkpt lat="48.52869" lon="7.41106">
        <ele>257.8759765625</ele>
        <time>2017-06-04T09:10:02.000Z</time>
      </trkpt>
      <trkpt lat="48.52849" lon="7.4117">
        <ele>254.65209960938</ele>
        <time>2017-06-04T09:10:07.000Z</time>
      </trkpt>
      <trkpt lat="48.52851" lon="7.41193">
        <ele>251.47004699707</ele>
        <time>2017-06-04T09:10:09.000Z</time>
      </trkpt>
      <trkpt lat="48.52845" lon="7.41234">
        <ele>248.45027160645</ele>
        <time>2017-06-04T09:10:12.000Z</time>
      </trkpt>
      <trkpt lat="48.52848" lon="7.41261">
        <ele>245.24450683594</ele>
        <time>2017-06-04T09:10:14.000Z</time>
      </trkpt>
      <trkpt lat="48.52843" lon="7.41303">
        <ele>241.59455871582</ele>
        <time>2017-06-04T09:10:17.000Z</time>
      </trkpt>
      <trkpt lat="48.52844" lon="7.41329">
        <ele>239.36811828613</ele>
        <time>2017-06-04T09:10:19.000Z</time>
      </trkpt>
      <trkpt lat="48.5285" lon="7.41356">
        <ele>237.12826538086</ele>
        <time>2017-06-04T09:10:21.000Z</time>
      </trkpt>
      <trkpt lat="48.52855" lon="7.41378">
        <ele>235.06645202637</ele>
        <time>2017-06-04T09:10:24.000Z</time>
      </trkpt>
      <trkpt lat="48.52842" lon="7.41405">
        <ele>232.95150756836</ele>
        <time>2017-06-04T09:10:27.000Z</time>
      </trkpt>
      <trkpt lat="48.52824" lon="7.41427">
        <ele>231.03237915039</ele>
        <time>2017-06-04T09:10:30.000Z</time>
      </trkpt>
      <trkpt lat="48.52821" lon="7.41445">
        <ele>229.20967102051</ele>
        <time>2017-06-04T09:10:32.000Z</time>
      </trkpt>
      <trkpt lat="48.52819" lon="7.41476">
        <ele>227.22859191895</ele>
        <time>2017-06-04T09:10:35.000Z</time>
      </trkpt>
      <trkpt lat="48.52818" lon="7.41494">
        <ele>225.29220581055</ele>
        <time>2017-06-04T09:10:38.000Z</time>
      </trkpt>
      <trkpt lat="48.52818" lon="7.41498">
        <ele>223.73913574219</ele>
        <time>2017-06-04T09:10:41.000Z</time>
      </trkpt>
      <trkpt lat="48.52817" lon="7.41498">
        <ele>222.59255981445</ele>
        <time>2017-06-04T09:11:10.000Z</time>
      </trkpt>
      <trkpt lat="48.52819" lon="7.41498">
        <ele>221.73994445801</ele>
        <time>2017-06-04T09:11:18.000Z</time>
      </trkpt>
      <trkpt lat="48.52819" lon="7.415">
        <ele>221.36601257324</ele>
        <time>2017-06-04T09:11:32.000Z</time>
      </trkpt>
      <trkpt lat="48.5282" lon="7.41506">
        <ele>221.20919799805</ele>
        <time>2017-06-04T09:11:34.000Z</time>
      </trkpt>
      <trkpt lat="48.52822" lon="7.41514">
        <ele>221.07217407227</ele>
        <time>2017-06-04T09:11:36.000Z</time>
      </trkpt>
      <trkpt lat="48.52823" lon="7.41521">
        <ele>220.87271118164</ele>
        <time>2017-06-04T09:11:38.000Z</time>
      </trkpt>
      <trkpt lat="48.5282" lon="7.41532">
        <ele>220.59915161133</ele>
        <time>2017-06-04T09:11:41.000Z</time>
      </trkpt>
      <trkpt lat="48.52819" lon="7.41543">
        <ele>220.26689147949</ele>
        <time>2017-06-04T09:11:43.000Z</time>
      </trkpt>
      <trkpt lat="48.52818" lon="7.41565">
        <ele>219.82397460938</ele>
        <time>2017-06-04T09:11:46.000Z</time>
      </trkpt>
      <trkpt lat="48.52818" lon="7.41592">
        <ele>219.23751831055</ele>
        <time>2017-06-04T09:11:49.000Z</time>
      </trkpt>
      <trkpt lat="48.52819" lon="7.41609">
        <ele>218.57563781738</ele>
        <time>2017-06-04T09:11:51.000Z</time>
      </trkpt>
      <trkpt lat="48.52821" lon="7.4163">
        <ele>217.83427429199</ele>
        <time>2017-06-04T09:11:53.000Z</time>
      </trkpt>
      <trkpt lat="48.52823" lon="7.41658">
        <ele>216.97221374512</ele>
        <time>2017-06-04T09:11:56.000Z</time>
      </trkpt>
      <trkpt lat="48.52817" lon="7.41672">
        <ele>216.12380981445</ele>
        <time>2017-06-04T09:11:59.000Z</time>
      </trkpt>
      <trkpt lat="48.5281" lon="7.41675">
        <ele>215.42471313477</ele>
        <time>2017-06-04T09:12:01.000Z</time>
      </trkpt>
      <trkpt lat="48.52803" lon="7.41676">
        <ele>214.8441619873</ele>
        <time>2017-06-04T09:12:03.000Z</time>
      </trkpt>
      <trkpt lat="48.52795" lon="7.41675">
        <ele>214.40673828125</ele>
        <time>2017-06-04T09:12:05.000Z</time>
      </trkpt>
      <trkpt lat="48.52784" lon="7.41676">
        <ele>214.15007019043</ele>
        <time>2017-06-04T09:12:08.000Z</time>
      </trkpt>
      <trkpt lat="48.52777" lon="7.41677">
        <ele>214.02680969238</ele>
        <time>2017-06-04T09:12:10.000Z</time>
      </trkpt>
      <trkpt lat="48.52766" lon="7.41676">
        <ele>213.94400024414</ele>
        <time>2017-06-04T09:12:13.000Z</time>
      </trkpt>
      <trkpt lat="48.52758" lon="7.41677">
        <ele>213.86056518555</ele>
        <time>2017-06-04T09:12:15.000Z</time>
      </trkpt>
      <trkpt lat="48.52747" lon="7.41678">
        <ele>213.77563476562</ele>
        <time>2017-06-04T09:12:18.000Z</time>
      </trkpt>
      <trkpt lat="48.52739" lon="7.41679">
        <ele>213.7308807373</ele>
        <time>2017-06-04T09:12:20.000Z</time>
      </trkpt>
      <trkpt lat="48.52726" lon="7.41682">
        <ele>213.72250366211</ele>
        <time>2017-06-04T09:12:23.000Z</time>
      </trkpt>
      <trkpt lat="48.52713" lon="7.41684">
        <ele>213.74731445312</ele>
        <time>2017-06-04T09:12:26.000Z</time>
      </trkpt>
      <trkpt lat="48.52704" lon="7.41687">
        <ele>213.80068969727</ele>
        <time>2017-06-04T09:12:28.000Z</time>
      </trkpt>
      <trkpt lat="48.52695" lon="7.41688">
        <ele>213.88569641113</ele>
        <time>2017-06-04T09:12:30.000Z</time>
      </trkpt>
      <trkpt lat="48.52686" lon="7.41689">
        <ele>213.98010253906</ele>
        <time>2017-06-04T09:12:32.000Z</time>
      </trkpt>
      <trkpt lat="48.52672" lon="7.41691">
        <ele>214.08590698242</ele>
        <time>2017-06-04T09:12:35.000Z</time>
      </trkpt>
      <trkpt lat="48.52663" lon="7.41693">
        <ele>214.20234680176</ele>
        <time>2017-06-04T09:12:37.000Z</time>
      </trkpt>
      <trkpt lat="48.52654" lon="7.41694">
        <ele>214.34786987305</ele>
        <time>2017-06-04T09:12:39.000Z</time>
      </trkpt>
      <trkpt lat="48.52645" lon="7.41696">
        <ele>214.51345825195</ele>
        <time>2017-06-04T09:12:41.000Z</time>
      </trkpt>
      <trkpt lat="48.52632" lon="7.41697">
        <ele>214.72924804688</ele>
        <time>2017-06-04T09:12:44.000Z</time>
      </trkpt>
      <trkpt lat="48.52618" lon="7.41698">
        <ele>214.99227905273</ele>
        <time>2017-06-04T09:12:47.000Z</time>
      </trkpt>
      <trkpt lat="48.52608" lon="7.41699">
        <ele>215.27444458008</ele>
        <time>2017-06-04T09:12:49.000Z</time>
      </trkpt>
      <trkpt lat="48.52592" lon="7.41701">
        <ele>215.60119628906</ele>
        <time>2017-06-04T09:12:52.000Z</time>
      </trkpt>
      <trkpt lat="48.52579" lon="7.41702">
        <ele>215.95027160645</ele>
        <time>2017-06-04T09:12:55.000Z</time>
      </trkpt>
      <trkpt lat="48.52571" lon="7.41703">
        <ele>216.23941040039</ele>
        <time>2017-06-04T09:12:57.000Z</time>
      </trkpt>
      <trkpt lat="48.52558" lon="7.41709">
        <ele>216.47016906738</ele>
        <time>2017-06-04T09:13:00.000Z</time>
      </trkpt>
      <trkpt lat="48.52551" lon="7.41725">
        <ele>216.62911987305</ele>
        <time>2017-06-04T09:13:03.000Z</time>
      </trkpt>
      <trkpt lat="48.52547" lon="7.41744">
        <ele>216.66418457031</ele>
        <time>2017-06-04T09:13:06.000Z</time>
      </trkpt>
      <trkpt lat="48.52547" lon="7.41757">
        <ele>216.67680358887</ele>
        <time>2017-06-04T09:13:09.000Z</time>
      </trkpt>
      <trkpt lat="48.52551" lon="7.41767">
        <ele>216.73432922363</ele>
        <time>2017-06-04T09:13:12.000Z</time>
      </trkpt>
      <trkpt lat="48.52554" lon="7.41776">
        <ele>216.82241821289</ele>
        <time>2017-06-04T09:13:14.000Z</time>
      </trkpt>
      <trkpt lat="48.5256" lon="7.41793">
        <ele>216.990234375</ele>
        <time>2017-06-04T09:13:17.000Z</time>
      </trkpt>
      <trkpt lat="48.52567" lon="7.4181">
        <ele>217.2124786377</ele>
        <time>2017-06-04T09:13:20.000Z</time>
      </trkpt>
      <trkpt lat="48.52571" lon="7.4182">
        <ele>217.38766479492</ele>
        <time>2017-06-04T09:13:30.000Z</time>
      </trkpt>
      <trkpt lat="48.52578" lon="7.41839">
        <ele>217.47692871094</ele>
        <time>2017-06-04T09:13:32.000Z</time>
      </trkpt>
      <trkpt lat="48.52586" lon="7.41852">
        <ele>217.45492553711</ele>
        <time>2017-06-04T09:13:32.000Z</time>
      </trkpt>
      <trkpt lat="48.52595" lon="7.41868">
        <ele>217.32327270508</ele>
        <time>2017-06-04T09:13:33.000Z</time>
      </trkpt>
      <trkpt lat="48.526" lon="7.41877">
        <ele>217.14517211914</ele>
        <time>2017-06-04T09:13:33.000Z</time>
      </trkpt>
      <trkpt lat="48.5261" lon="7.41891">
        <ele>216.90930175781</ele>
        <time>2017-06-04T09:13:35.000Z</time>
      </trkpt>
      <trkpt lat="48.52617" lon="7.41901">
        <ele>216.66223144531</ele>
        <time>2017-06-04T09:13:37.000Z</time>
      </trkpt>
      <trkpt lat="48.52623" lon="7.41911">
        <ele>216.439453125</ele>
        <time>2017-06-04T09:13:39.000Z</time>
      </trkpt>
      <trkpt lat="48.52633" lon="7.41927">
        <ele>216.22236633301</ele>
        <time>2017-06-04T09:13:42.000Z</time>
      </trkpt>
      <trkpt lat="48.52641" lon="7.41945">
        <ele>215.98904418945</ele>
        <time>2017-06-04T09:13:45.000Z</time>
      </trkpt>
      <trkpt lat="48.52647" lon="7.41955">
        <ele>215.76489257812</ele>
        <time>2017-06-04T09:13:47.000Z</time>
      </trkpt>
      <trkpt lat="48.52654" lon="7.41972">
        <ele>215.51582336426</ele>
        <time>2017-06-04T09:13:50.000Z</time>
      </trkpt>
      <trkpt lat="48.52658" lon="7.41985">
        <ele>215.24992370605</ele>
        <time>2017-06-04T09:13:52.000Z</time>
      </trkpt>
      <trkpt lat="48.52663" lon="7.42006">
        <ele>215.00263977051</ele>
        <time>2017-06-04T09:13:55.000Z</time>
      </trkpt>
      <trkpt lat="48.52665" lon="7.42019">
        <ele>214.86410522461</ele>
        <time>2017-06-04T09:13:57.000Z</time>
      </trkpt>
      <trkpt lat="48.52665" lon="7.42039">
        <ele>214.91682434082</ele>
        <time>2017-06-04T09:14:00.000Z</time>
      </trkpt>
      <trkpt lat="48.52665" lon="7.42059">
        <ele>215.18807983398</ele>
        <time>2017-06-04T09:14:03.000Z</time>
      </trkpt>
      <trkpt lat="48.52665" lon="7.42079">
        <ele>215.65998840332</ele>
        <time>2017-06-04T09:14:06.000Z</time>
      </trkpt>
      <trkpt lat="48.52666" lon="7.42091">
        <ele>216.19375610352</ele>
        <time>2017-06-04T09:14:08.000Z</time>
      </trkpt>
      <trkpt lat="48.52668" lon="7.42103">
        <ele>216.68307495117</ele>
        <time>2017-06-04T09:14:10.000Z</time>
      </trkpt>
      <trkpt lat="48.52673" lon="7.42123">
        <ele>217.05241394043</ele>
        <time>2017-06-04T09:14:13.000Z</time>
      </trkpt>
      <trkpt lat="48.52676" lon="7.42142">
        <ele>217.27099609375</ele>
        <time>2017-06-04T09:14:16.000Z</time>
      </trkpt>
      <trkpt lat="48.52679" lon="7.42163">
        <ele>217.37985229492</ele>
        <time>2017-06-04T09:14:19.000Z</time>
      </trkpt>
      <trkpt lat="48.52681" lon="7.42176">
        <ele>217.45195007324</ele>
        <time>2017-06-04T09:14:21.000Z</time>
      </trkpt>
      <trkpt lat="48.52683" lon="7.42189">
        <ele>217.50863647461</ele>
        <time>2017-06-04T09:14:23.000Z</time>
      </trkpt>
      <trkpt lat="48.52686" lon="7.42209">
        <ele>217.54057312012</ele>
        <time>2017-06-04T09:14:26.000Z</time>
      </trkpt>
      <trkpt lat="48.52687" lon="7.42222">
        <ele>217.58346557617</ele>
        <time>2017-06-04T09:14:28.000Z</time>
      </trkpt>
      <trkpt lat="48.52689" lon="7.42242">
        <ele>217.61689758301</ele>
        <time>2017-06-04T09:14:31.000Z</time>
      </trkpt>
      <trkpt lat="48.5269" lon="7.42261">
        <ele>217.73403930664</ele>
        <time>2017-06-04T09:14:34.000Z</time>
      </trkpt>
      <trkpt lat="48.52691" lon="7.42275">
        <ele>217.93354797363</ele>
        <time>2017-06-04T09:14:36.000Z</time>
      </trkpt>
      <trkpt lat="48.52692" lon="7.42289">
        <ele>218.21572875977</ele>
        <time>2017-06-04T09:14:38.000Z</time>
      </trkpt>
      <trkpt lat="48.52693" lon="7.42303">
        <ele>218.55969238281</ele>
        <time>2017-06-04T09:14:40.000Z</time>
      </trkpt>
      <trkpt lat="48.52693" lon="7.42325">
        <ele>219.037109375</ele>
        <time>2017-06-04T09:14:43.000Z</time>
      </trkpt>
      <trkpt lat="48.52694" lon="7.42344">
        <ele>219.51205444336</ele>
        <time>2017-06-04T09:14:46.000Z</time>
      </trkpt>
      <trkpt lat="48.52697" lon="7.42357">
        <ele>219.91860961914</ele>
        <time>2017-06-04T09:14:48.000Z</time>
      </trkpt>
      <trkpt lat="48.52698" lon="7.4237">
        <ele>220.27880859375</ele>
        <time>2017-06-04T09:14:50.000Z</time>
      </trkpt>
      <trkpt lat="48.52701" lon="7.42391">
        <ele>220.60343933105</ele>
        <time>2017-06-04T09:14:53.000Z</time>
      </trkpt>
      <trkpt lat="48.52703" lon="7.42408">
        <ele>220.81147766113</ele>
        <time>2017-06-04T09:14:56.000Z</time>
      </trkpt>
      <trkpt lat="48.52704" lon="7.4242">
        <ele>220.97103881836</ele>
        <time>2017-06-04T09:14:58.000Z</time>
      </trkpt>
      <trkpt lat="48.52707" lon="7.42438">
        <ele>221.11726379395</ele>
        <time>2017-06-04T09:15:01.000Z</time>
      </trkpt>
      <trkpt lat="48.52709" lon="7.4245">
        <ele>221.2386932373</ele>
        <time>2017-06-04T09:15:03.000Z</time>
      </trkpt>
      <trkpt lat="48.52711" lon="7.42462">
        <ele>221.31352233887</ele>
        <time>2017-06-04T09:15:05.000Z</time>
      </trkpt>
      <trkpt lat="48.52716" lon="7.4248">
        <ele>221.29763793945</ele>
        <time>2017-06-04T09:15:08.000Z</time>
      </trkpt>
      <trkpt lat="48.52719" lon="7.42492">
        <ele>221.20486450195</ele>
        <time>2017-06-04T09:15:10.000Z</time>
      </trkpt>
      <trkpt lat="48.52724" lon="7.42501">
        <ele>221.03881835938</ele>
        <time>2017-06-04T09:15:12.000Z</time>
      </trkpt>
      <trkpt lat="48.52726" lon="7.42508">
        <ele>220.85153198242</ele>
        <time>2017-06-04T09:15:14.000Z</time>
      </trkpt>
      <trkpt lat="48.52723" lon="7.42513">
        <ele>220.7318572998</ele>
        <time>2017-06-04T09:15:17.000Z</time>
      </trkpt>
      <trkpt lat="48.52719" lon="7.42514">
        <ele>220.72891235352</ele>
        <time>2017-06-04T09:15:19.000Z</time>
      </trkpt>
      <trkpt lat="48.52715" lon="7.42513">
        <ele>220.84028625488</ele>
        <time>2017-06-04T09:15:21.000Z</time>
      </trkpt>
      <trkpt lat="48.52711" lon="7.42513">
        <ele>221.09057617188</ele>
        <time>2017-06-04T09:15:24.000Z</time>
      </trkpt>
      <trkpt lat="48.52708" lon="7.42514">
        <ele>221.42178344727</ele>
        <time>2017-06-04T09:15:26.000Z</time>
      </trkpt>
      <trkpt lat="48.52703" lon="7.42514">
        <ele>221.79086303711</ele>
        <time>2017-06-04T09:15:29.000Z</time>
      </trkpt>
      <trkpt lat="48.527" lon="7.42515">
        <ele>222.15180969238</ele>
        <time>2017-06-04T09:15:31.000Z</time>
      </trkpt>
      <trkpt lat="48.52694" lon="7.42516">
        <ele>222.5442199707</ele>
        <time>2017-06-04T09:15:34.000Z</time>
      </trkpt>
      <trkpt lat="48.52691" lon="7.42516">
        <ele>222.94418334961</ele>
        <time>2017-06-04T09:15:36.000Z</time>
      </trkpt>
      <trkpt lat="48.52686" lon="7.42517">
        <ele>223.37446594238</ele>
        <time>2017-06-04T09:15:39.000Z</time>
      </trkpt>
      <trkpt lat="48.5268" lon="7.42518">
        <ele>223.80400085449</ele>
        <time>2017-06-04T09:15:42.000Z</time>
      </trkpt>
      <trkpt lat="48.52677" lon="7.42519">
        <ele>224.24040222168</ele>
        <time>2017-06-04T09:15:44.000Z</time>
      </trkpt>
      <trkpt lat="48.52673" lon="7.42519">
        <ele>224.64543151855</ele>
        <time>2017-06-04T09:15:46.000Z</time>
      </trkpt>
      <trkpt lat="48.52668" lon="7.42519">
        <ele>225.07260131836</ele>
        <time>2017-06-04T09:15:49.000Z</time>
      </trkpt>
      <trkpt lat="48.52662" lon="7.4252">
        <ele>225.48051452637</ele>
        <time>2017-06-04T09:15:52.000Z</time>
      </trkpt>
      <trkpt lat="48.52658" lon="7.42521">
        <ele>225.84008789062</ele>
        <time>2017-06-04T09:15:54.000Z</time>
      </trkpt>
      <trkpt lat="48.52653" lon="7.42521">
        <ele>226.20222473145</ele>
        <time>2017-06-04T09:15:57.000Z</time>
      </trkpt>
      <trkpt lat="48.52648" lon="7.42522">
        <ele>226.556640625</ele>
        <time>2017-06-04T09:16:00.000Z</time>
      </trkpt>
      <trkpt lat="48.52642" lon="7.42522">
        <ele>226.87789916992</ele>
        <time>2017-06-04T09:16:03.000Z</time>
      </trkpt>
      <trkpt lat="48.52639" lon="7.42522">
        <ele>227.16621398926</ele>
        <time>2017-06-04T09:16:05.000Z</time>
      </trkpt>
      <trkpt lat="48.52633" lon="7.42523">
        <ele>227.47285461426</ele>
        <time>2017-06-04T09:16:08.000Z</time>
      </trkpt>
      <trkpt lat="48.52628" lon="7.42523">
        <ele>227.77767944336</ele>
        <time>2017-06-04T09:16:11.000Z</time>
      </trkpt>
      <trkpt lat="48.52624" lon="7.42523">
        <ele>228.07429504395</ele>
        <time>2017-06-04T09:16:14.000Z</time>
      </trkpt>
      <trkpt lat="48.52621" lon="7.42523">
        <ele>228.34118652344</ele>
        <time>2017-06-04T09:16:16.000Z</time>
      </trkpt>
      <trkpt lat="48.52616" lon="7.42523">
        <ele>228.63359069824</ele>
        <time>2017-06-04T09:16:19.000Z</time>
      </trkpt>
      <trkpt lat="48.52611" lon="7.42523">
        <ele>228.91567993164</ele>
        <time>2017-06-04T09:16:22.000Z</time>
      </trkpt>
      <trkpt lat="48.52607" lon="7.42523">
        <ele>229.17073059082</ele>
        <time>2017-06-04T09:16:24.000Z</time>
      </trkpt>
      <trkpt lat="48.52602" lon="7.42523">
        <ele>229.43795776367</ele>
        <time>2017-06-04T09:16:27.000Z</time>
      </trkpt>
      <trkpt lat="48.52599" lon="7.42523">
        <ele>229.71395874023</ele>
        <time>2017-06-04T09:16:29.000Z</time>
      </trkpt>
      <trkpt lat="48.52596" lon="7.42523">
        <ele>229.95901489258</ele>
        <time>2017-06-04T09:16:31.000Z</time>
      </trkpt>
      <trkpt lat="48.52592" lon="7.42523">
        <ele>230.19055175781</ele>
        <time>2017-06-04T09:16:33.000Z</time>
      </trkpt>
      <trkpt lat="48.52587" lon="7.42523">
        <ele>230.44369506836</ele>
        <time>2017-06-04T09:16:36.000Z</time>
      </trkpt>
      <trkpt lat="48.52581" lon="7.42524">
        <ele>230.68901062012</ele>
        <time>2017-06-04T09:16:39.000Z</time>
      </trkpt>
      <trkpt lat="48.52578" lon="7.42524">
        <ele>230.91450500488</ele>
        <time>2017-06-04T09:16:41.000Z</time>
      </trkpt>
      <trkpt lat="48.52573" lon="7.42524">
        <ele>231.15617370605</ele>
        <time>2017-06-04T09:16:44.000Z</time>
      </trkpt>
      <trkpt lat="48.52569" lon="7.42524">
        <ele>231.39311218262</ele>
        <time>2017-06-04T09:16:46.000Z</time>
      </trkpt>
      <trkpt lat="48.52563" lon="7.42524">
        <ele>231.62516784668</ele>
        <time>2017-06-04T09:16:49.000Z</time>
      </trkpt>
      <trkpt lat="48.52556" lon="7.42521">
        <ele>231.88288879395</ele>
        <time>2017-06-04T09:16:52.000Z</time>
      </trkpt>
      <trkpt lat="48.52552" lon="7.42519">
        <ele>232.17765808105</ele>
        <time>2017-06-04T09:16:54.000Z</time>
      </trkpt>
      <trkpt lat="48.52548" lon="7.42516">
        <ele>232.50119018555</ele>
        <time>2017-06-04T09:16:56.000Z</time>
      </trkpt>
      <trkpt lat="48.52545" lon="7.42511">
        <ele>232.87019348145</ele>
        <time>2017-06-04T09:16:58.000Z</time>
      </trkpt>
      <trkpt lat="48.52541" lon="7.42504">
        <ele>233.29704284668</ele>
        <time>2017-06-04T09:17:01.000Z</time>
      </trkpt>
      <trkpt lat="48.52537" lon="7.42497">
        <ele>233.78230285645</ele>
        <time>2017-06-04T09:17:04.000Z</time>
      </trkpt>
      <trkpt lat="48.52532" lon="7.42492">
        <ele>234.31735229492</ele>
        <time>2017-06-04T09:17:07.000Z</time>
      </trkpt>
      <trkpt lat="48.52528" lon="7.4249">
        <ele>234.84252929688</ele>
        <time>2017-06-04T09:17:09.000Z</time>
      </trkpt>
      <trkpt lat="48.52524" lon="7.42489">
        <ele>235.34553527832</ele>
        <time>2017-06-04T09:17:11.000Z</time>
      </trkpt>
      <trkpt lat="48.52518" lon="7.42488">
        <ele>235.82954406738</ele>
        <time>2017-06-04T09:17:14.000Z</time>
      </trkpt>
      <trkpt lat="48.52515" lon="7.42487">
        <ele>236.21992492676</ele>
        <time>2017-06-04T09:17:16.000Z</time>
      </trkpt>
      <trkpt lat="48.52513" lon="7.42487">
        <ele>236.53909301758</ele>
        <time>2017-06-04T09:17:18.000Z</time>
      </trkpt>
      <trkpt lat="48.52508" lon="7.42485">
        <ele>236.87338256836</ele>
        <time>2017-06-04T09:17:21.000Z</time>
      </trkpt>
      <trkpt lat="48.52504" lon="7.42484">
        <ele>237.21772766113</ele>
        <time>2017-06-04T09:17:24.000Z</time>
      </trkpt>
      <trkpt lat="48.52497" lon="7.42482">
        <ele>237.54838562012</ele>
        <time>2017-06-04T09:17:27.000Z</time>
      </trkpt>
      <trkpt lat="48.52489" lon="7.42481">
        <ele>237.89797973633</ele>
        <time>2017-06-04T09:17:30.000Z</time>
      </trkpt>
      <trkpt lat="48.52483" lon="7.42477">
        <ele>238.29232788086</ele>
        <time>2017-06-04T09:17:33.000Z</time>
      </trkpt>
      <trkpt lat="48.52479" lon="7.42475">
        <ele>238.66369628906</ele>
        <time>2017-06-04T09:17:35.000Z</time>
      </trkpt>
      <trkpt lat="48.52475" lon="7.42473">
        <ele>239.01937866211</ele>
        <time>2017-06-04T09:17:37.000Z</time>
      </trkpt>
      <trkpt lat="48.52469" lon="7.4247">
        <ele>239.37826538086</ele>
        <time>2017-06-04T09:17:40.000Z</time>
      </trkpt>
      <trkpt lat="48.52465" lon="7.42468">
        <ele>239.7269744873</ele>
        <time>2017-06-04T09:17:42.000Z</time>
      </trkpt>
      <trkpt lat="48.52461" lon="7.42466">
        <ele>240.04801940918</ele>
        <time>2017-06-04T09:17:44.000Z</time>
      </trkpt>
      <trkpt lat="48.52456" lon="7.42463">
        <ele>240.38784790039</ele>
        <time>2017-06-04T09:17:47.000Z</time>
      </trkpt>
      <trkpt lat="48.52452" lon="7.42462">
        <ele>240.72158813477</ele>
        <time>2017-06-04T09:17:49.000Z</time>
      </trkpt>
      <trkpt lat="48.52446" lon="7.42458">
        <ele>241.08256530762</ele>
        <time>2017-06-04T09:17:52.000Z</time>
      </trkpt>
      <trkpt lat="48.52442" lon="7.42456">
        <ele>241.46719360352</ele>
        <time>2017-06-04T09:17:54.000Z</time>
      </trkpt>
      <trkpt lat="48.52438" lon="7.42454">
        <ele>241.8617401123</ele>
        <time>2017-06-04T09:17:56.000Z</time>
      </trkpt>
      <trkpt lat="48.52433" lon="7.42452">
        <ele>242.27377319336</ele>
        <time>2017-06-04T09:17:59.000Z</time>
      </trkpt>
      <trkpt lat="48.52427" lon="7.42449">
        <ele>242.73208618164</ele>
        <time>2017-06-04T09:18:02.000Z</time>
      </trkpt>
      <trkpt lat="48.5242" lon="7.42446">
        <ele>243.20584106445</ele>
        <time>2017-06-04T09:18:05.000Z</time>
      </trkpt>
      <trkpt lat="48.52416" lon="7.42445">
        <ele>243.65835571289</ele>
        <time>2017-06-04T09:18:07.000Z</time>
      </trkpt>
      <trkpt lat="48.52412" lon="7.42442">
        <ele>244.02792358398</ele>
        <time>2017-06-04T09:18:09.000Z</time>
      </trkpt>
      <trkpt lat="48.52404" lon="7.42439">
        <ele>244.27047729492</ele>
        <time>2017-06-04T09:18:12.000Z</time>
      </trkpt>
      <trkpt lat="48.52399" lon="7.42436">
        <ele>244.39082336426</ele>
        <time>2017-06-04T09:18:14.000Z</time>
      </trkpt>
      <trkpt lat="48.5239" lon="7.42431">
        <ele>244.3187713623</ele>
        <time>2017-06-04T09:18:17.000Z</time>
      </trkpt>
      <trkpt lat="48.52382" lon="7.42427">
        <ele>244.14416503906</ele>
        <time>2017-06-04T09:18:19.000Z</time>
      </trkpt>
      <trkpt lat="48.52371" lon="7.42422">
        <ele>243.87368774414</ele>
        <time>2017-06-04T09:18:22.000Z</time>
      </trkpt>
      <trkpt lat="48.52365" lon="7.42419">
        <ele>243.57205200195</ele>
        <time>2017-06-04T09:18:24.000Z</time>
      </trkpt>
      <trkpt lat="48.52354" lon="7.42414">
        <ele>243.18395996094</ele>
        <time>2017-06-04T09:18:27.000Z</time>
      </trkpt>
      <trkpt lat="48.52346" lon="7.42408">
        <ele>242.82038879395</ele>
        <time>2017-06-04T09:18:29.000Z</time>
      </trkpt>
      <trkpt lat="48.52339" lon="7.42401">
        <ele>242.51657104492</ele>
        <time>2017-06-04T09:18:31.000Z</time>
      </trkpt>
      <trkpt lat="48.52334" lon="7.4239">
        <ele>242.48422241211</ele>
        <time>2017-06-04T09:18:34.000Z</time>
      </trkpt>
      <trkpt lat="48.52336" lon="7.42383">
        <ele>242.68171691895</ele>
        <time>2017-06-04T09:18:37.000Z</time>
      </trkpt>
      <trkpt lat="48.52337" lon="7.42379">
        <ele>243.08589172363</ele>
        <time>2017-06-04T09:18:39.000Z</time>
      </trkpt>
      <trkpt lat="48.52339" lon="7.42374">
        <ele>243.68807983398</ele>
        <time>2017-06-04T09:18:42.000Z</time>
      </trkpt>
      <trkpt lat="48.5234" lon="7.42369">
        <ele>244.39872741699</ele>
        <time>2017-06-04T09:18:44.000Z</time>
      </trkpt>
      <trkpt lat="48.5234" lon="7.42364">
        <ele>245.05610656738</ele>
        <time>2017-06-04T09:18:46.000Z</time>
      </trkpt>
      <trkpt lat="48.52338" lon="7.4236">
        <ele>245.59565734863</ele>
        <time>2017-06-04T09:18:48.000Z</time>
      </trkpt>
      <trkpt lat="48.52336" lon="7.42356">
        <ele>246.06840515137</ele>
        <time>2017-06-04T09:18:50.000Z</time>
      </trkpt>
      <trkpt lat="48.5233" lon="7.42352">
        <ele>246.38345336914</ele>
        <time>2017-06-04T09:18:53.000Z</time>
      </trkpt>
      <trkpt lat="48.52327" lon="7.42348">
        <ele>246.59953308105</ele>
        <time>2017-06-04T09:18:55.000Z</time>
      </trkpt>
      <trkpt lat="48.52323" lon="7.42344">
        <ele>246.72660827637</ele>
        <time>2017-06-04T09:18:57.000Z</time>
      </trkpt>
      <trkpt lat="48.52319" lon="7.42338">
        <ele>246.83908081055</ele>
        <time>2017-06-04T09:18:59.000Z</time>
      </trkpt>
      <trkpt lat="48.52312" lon="7.4233">
        <ele>246.95541381836</ele>
        <time>2017-06-04T09:19:02.000Z</time>
      </trkpt>
      <trkpt lat="48.52308" lon="7.42322">
        <ele>247.11450195312</ele>
        <time>2017-06-04T09:19:04.000Z</time>
      </trkpt>
      <trkpt lat="48.52299" lon="7.42313">
        <ele>247.18103027344</ele>
        <time>2017-06-04T09:19:07.000Z</time>
      </trkpt>
      <trkpt lat="48.52292" lon="7.42302">
        <ele>247.25723266602</ele>
        <time>2017-06-04T09:19:10.000Z</time>
      </trkpt>
      <trkpt lat="48.52288" lon="7.42292">
        <ele>247.35810852051</ele>
        <time>2017-06-04T09:19:12.000Z</time>
      </trkpt>
      <trkpt lat="48.52282" lon="7.4228">
        <ele>247.46841430664</ele>
        <time>2017-06-04T09:19:15.000Z</time>
      </trkpt>
      <trkpt lat="48.52273" lon="7.42271">
        <ele>247.45608520508</ele>
        <time>2017-06-04T09:19:18.000Z</time>
      </trkpt>
      <trkpt lat="48.52267" lon="7.42265">
        <ele>247.44194030762</ele>
        <time>2017-06-04T09:19:20.000Z</time>
      </trkpt>
      <trkpt lat="48.52257" lon="7.42256">
        <ele>247.26786804199</ele>
        <time>2017-06-04T09:19:23.000Z</time>
      </trkpt>
      <trkpt lat="48.52252" lon="7.42251">
        <ele>246.98300170898</ele>
        <time>2017-06-04T09:19:25.000Z</time>
      </trkpt>
      <trkpt lat="48.52247" lon="7.42246">
        <ele>246.6187286377</ele>
        <time>2017-06-04T09:19:27.000Z</time>
      </trkpt>
      <trkpt lat="48.52241" lon="7.42238">
        <ele>246.30229187012</ele>
        <time>2017-06-04T09:19:30.000Z</time>
      </trkpt>
      <trkpt lat="48.52237" lon="7.42231">
        <ele>246.04360961914</ele>
        <time>2017-06-04T09:19:33.000Z</time>
      </trkpt>
      <trkpt lat="48.5223" lon="7.42231">
        <ele>245.8310546875</ele>
        <time>2017-06-04T09:19:36.000Z</time>
      </trkpt>
      <trkpt lat="48.52221" lon="7.42242">
        <ele>245.48872375488</ele>
        <time>2017-06-04T09:19:39.000Z</time>
      </trkpt>
      <trkpt lat="48.52215" lon="7.42251">
        <ele>245.06094360352</ele>
        <time>2017-06-04T09:19:41.000Z</time>
      </trkpt>
      <trkpt lat="48.52206" lon="7.42269">
        <ele>244.38464355469</ele>
        <time>2017-06-04T09:19:44.000Z</time>
      </trkpt>
      <trkpt lat="48.52203" lon="7.42286">
        <ele>243.52995300293</ele>
        <time>2017-06-04T09:19:46.000Z</time>
      </trkpt>
      <trkpt lat="48.52206" lon="7.42315">
        <ele>242.51615905762</ele>
        <time>2017-06-04T09:19:49.000Z</time>
      </trkpt>
      <trkpt lat="48.5221" lon="7.42333">
        <ele>241.54086303711</ele>
        <time>2017-06-04T09:19:51.000Z</time>
      </trkpt>
      <trkpt lat="48.52217" lon="7.42357">
        <ele>240.47695922852</ele>
        <time>2017-06-04T09:19:54.000Z</time>
      </trkpt>
      <trkpt lat="48.52224" lon="7.42381">
        <ele>239.46684265137</ele>
        <time>2017-06-04T09:19:57.000Z</time>
      </trkpt>
      <trkpt lat="48.52229" lon="7.42397">
        <ele>238.48677062988</ele>
        <time>2017-06-04T09:19:59.000Z</time>
      </trkpt>
      <trkpt lat="48.52234" lon="7.42413">
        <ele>237.59457397461</ele>
        <time>2017-06-04T09:20:01.000Z</time>
      </trkpt>
      <trkpt lat="48.52238" lon="7.42429">
        <ele>236.68620300293</ele>
        <time>2017-06-04T09:20:03.000Z</time>
      </trkpt>
      <trkpt lat="48.52243" lon="7.42448">
        <ele>235.78988647461</ele>
        <time>2017-06-04T09:20:06.000Z</time>
      </trkpt>
      <trkpt lat="48.52241" lon="7.42456">
        <ele>235.02632141113</ele>
        <time>2017-06-04T09:20:09.000Z</time>
      </trkpt>
      <trkpt lat="48.52236" lon="7.42456">
        <ele>234.40689086914</ele>
        <time>2017-06-04T09:20:11.000Z</time>
      </trkpt>
      <trkpt lat="48.52226" lon="7.42454">
        <ele>233.95336914062</ele>
        <time>2017-06-04T09:20:14.000Z</time>
      </trkpt>
      <trkpt lat="48.52216" lon="7.42452">
        <ele>233.65922546387</ele>
        <time>2017-06-04T09:20:17.000Z</time>
      </trkpt>
      <trkpt lat="48.52209" lon="7.42451">
        <ele>233.55986022949</ele>
        <time>2017-06-04T09:20:19.000Z</time>
      </trkpt>
      <trkpt lat="48.52199" lon="7.4245">
        <ele>233.54150390625</ele>
        <time>2017-06-04T09:20:28.000Z</time>
      </trkpt>
      <trkpt lat="48.52189" lon="7.4245">
        <ele>233.52224731445</ele>
        <time>2017-06-04T09:20:31.000Z</time>
      </trkpt>
      <trkpt lat="48.52183" lon="7.4245">
        <ele>233.48477172852</ele>
        <time>2017-06-04T09:20:32.000Z</time>
      </trkpt>
      <trkpt lat="48.52177" lon="7.42449">
        <ele>233.43730163574</ele>
        <time>2017-06-04T09:20:34.000Z</time>
      </trkpt>
      <trkpt lat="48.52169" lon="7.42448">
        <ele>233.37777709961</ele>
        <time>2017-06-04T09:20:34.000Z</time>
      </trkpt>
      <trkpt lat="48.5216" lon="7.42449">
        <ele>233.35949707031</ele>
        <time>2017-06-04T09:20:35.000Z</time>
      </trkpt>
      <trkpt lat="48.52151" lon="7.42448">
        <ele>233.40315246582</ele>
        <time>2017-06-04T09:20:38.000Z</time>
      </trkpt>
      <trkpt lat="48.52144" lon="7.42448">
        <ele>233.50122070312</ele>
        <time>2017-06-04T09:20:41.000Z</time>
      </trkpt>
      <trkpt lat="48.52139" lon="7.42447">
        <ele>233.63757324219</ele>
        <time>2017-06-04T09:20:43.000Z</time>
      </trkpt>
      <trkpt lat="48.52132" lon="7.42446">
        <ele>233.83901977539</ele>
        <time>2017-06-04T09:20:46.000Z</time>
      </trkpt>
      <trkpt lat="48.52127" lon="7.42445">
        <ele>234.0424041748</ele>
        <time>2017-06-04T09:20:48.000Z</time>
      </trkpt>
      <trkpt lat="48.52122" lon="7.42444">
        <ele>234.24089050293</ele>
        <time>2017-06-04T09:20:50.000Z</time>
      </trkpt>
      <trkpt lat="48.52117" lon="7.42442">
        <ele>234.43374633789</ele>
        <time>2017-06-04T09:20:52.000Z</time>
      </trkpt>
      <trkpt lat="48.52111" lon="7.42441">
        <ele>234.63748168945</ele>
        <time>2017-06-04T09:20:54.000Z</time>
      </trkpt>
      <trkpt lat="48.52104" lon="7.42438">
        <ele>234.85983276367</ele>
        <time>2017-06-04T09:20:57.000Z</time>
      </trkpt>
      <trkpt lat="48.52096" lon="7.42434">
        <ele>235.12434387207</ele>
        <time>2017-06-04T09:21:00.000Z</time>
      </trkpt>
      <trkpt lat="48.52089" lon="7.4243">
        <ele>235.43148803711</ele>
        <time>2017-06-04T09:21:03.000Z</time>
      </trkpt>
      <trkpt lat="48.52082" lon="7.42426">
        <ele>235.78056335449</ele>
        <time>2017-06-04T09:21:06.000Z</time>
      </trkpt>
      <trkpt lat="48.52074" lon="7.42421">
        <ele>236.15238952637</ele>
        <time>2017-06-04T09:21:09.000Z</time>
      </trkpt>
      <trkpt lat="48.52067" lon="7.42416">
        <ele>236.52168273926</ele>
        <time>2017-06-04T09:21:12.000Z</time>
      </trkpt>
      <trkpt lat="48.52059" lon="7.42411">
        <ele>236.88053894043</ele>
        <time>2017-06-04T09:21:15.000Z</time>
      </trkpt>
      <trkpt lat="48.52054" lon="7.42408">
        <ele>237.20126342773</ele>
        <time>2017-06-04T09:21:17.000Z</time>
      </trkpt>
      <trkpt lat="48.52046" lon="7.42403">
        <ele>237.50466918945</ele>
        <time>2017-06-04T09:21:20.000Z</time>
      </trkpt>
      <trkpt lat="48.5204" lon="7.424">
        <ele>237.78466796875</ele>
        <time>2017-06-04T09:21:22.000Z</time>
      </trkpt>
      <trkpt lat="48.52032" lon="7.42396">
        <ele>238.064453125</ele>
        <time>2017-06-04T09:21:25.000Z</time>
      </trkpt>
      <trkpt lat="48.52023" lon="7.42391">
        <ele>238.3427734375</ele>
        <time>2017-06-04T09:21:28.000Z</time>
      </trkpt>
      <trkpt lat="48.52014" lon="7.42387">
        <ele>238.63720703125</ele>
        <time>2017-06-04T09:21:31.000Z</time>
      </trkpt>
      <trkpt lat="48.52008" lon="7.42384">
        <ele>238.91357421875</ele>
        <time>2017-06-04T09:21:33.000Z</time>
      </trkpt>
      <trkpt lat="48.51999" lon="7.4238">
        <ele>239.20845031738</ele>
        <time>2017-06-04T09:21:36.000Z</time>
      </trkpt>
      <trkpt lat="48.51992" lon="7.42376">
        <ele>239.45327758789</ele>
        <time>2017-06-04T09:21:38.000Z</time>
      </trkpt>
      <trkpt lat="48.51981" lon="7.42371">
        <ele>239.65548706055</ele>
        <time>2017-06-04T09:21:41.000Z</time>
      </trkpt>
      <trkpt lat="48.5197" lon="7.42365">
        <ele>239.81343078613</ele>
        <time>2017-06-04T09:21:44.000Z</time>
      </trkpt>
      <trkpt lat="48.51962" lon="7.42361">
        <ele>239.93461608887</ele>
        <time>2017-06-04T09:21:46.000Z</time>
      </trkpt>
      <trkpt lat="48.51954" lon="7.42356">
        <ele>240.0041809082</ele>
        <time>2017-06-04T09:21:48.000Z</time>
      </trkpt>
      <trkpt lat="48.51947" lon="7.42352">
        <ele>240.05883789062</ele>
        <time>2017-06-04T09:21:50.000Z</time>
      </trkpt>
      <trkpt lat="48.51939" lon="7.42347">
        <ele>240.09048461914</ele>
        <time>2017-06-04T09:21:52.000Z</time>
      </trkpt>
      <trkpt lat="48.51927" lon="7.4234">
        <ele>240.09545898438</ele>
        <time>2017-06-04T09:21:55.000Z</time>
      </trkpt>
      <trkpt lat="48.51915" lon="7.42333">
        <ele>240.08032226562</ele>
        <time>2017-06-04T09:21:58.000Z</time>
      </trkpt>
      <trkpt lat="48.51907" lon="7.42329">
        <ele>240.05424499512</ele>
        <time>2017-06-04T09:22:00.000Z</time>
      </trkpt>
      <trkpt lat="48.51899" lon="7.42324">
        <ele>240.02139282227</ele>
        <time>2017-06-04T09:22:02.000Z</time>
      </trkpt>
      <trkpt lat="48.51892" lon="7.4232">
        <ele>239.98107910156</ele>
        <time>2017-06-04T09:22:04.000Z</time>
      </trkpt>
      <trkpt lat="48.51881" lon="7.42314">
        <ele>239.92944335938</ele>
        <time>2017-06-04T09:22:07.000Z</time>
      </trkpt>
      <trkpt lat="48.5187" lon="7.42308">
        <ele>239.86196899414</ele>
        <time>2017-06-04T09:22:10.000Z</time>
      </trkpt>
      <trkpt lat="48.51863" lon="7.42304">
        <ele>239.77510070801</ele>
        <time>2017-06-04T09:22:12.000Z</time>
      </trkpt>
      <trkpt lat="48.51853" lon="7.42298">
        <ele>239.65603637695</ele>
        <time>2017-06-04T09:22:15.000Z</time>
      </trkpt>
      <trkpt lat="48.51842" lon="7.42293">
        <ele>239.5002746582</ele>
        <time>2017-06-04T09:22:18.000Z</time>
      </trkpt>
      <trkpt lat="48.5183" lon="7.42287">
        <ele>239.33389282227</ele>
        <time>2017-06-04T09:22:21.000Z</time>
      </trkpt>
      <trkpt lat="48.51822" lon="7.42283">
        <ele>239.22021484375</ele>
        <time>2017-06-04T09:22:23.000Z</time>
      </trkpt>
      <trkpt lat="48.51815" lon="7.4228">
        <ele>239.15446472168</ele>
        <time>2017-06-04T09:22:25.000Z</time>
      </trkpt>
      <trkpt lat="48.51807" lon="7.42276">
        <ele>239.15563964844</ele>
        <time>2017-06-04T09:22:27.000Z</time>
      </trkpt>
      <trkpt lat="48.51797" lon="7.42272">
        <ele>239.25288391113</ele>
        <time>2017-06-04T09:22:30.000Z</time>
      </trkpt>
      <trkpt lat="48.51789" lon="7.42269">
        <ele>239.41909790039</ele>
        <time>2017-06-04T09:22:32.000Z</time>
      </trkpt>
      <trkpt lat="48.5178" lon="7.42265">
        <ele>239.61396789551</ele>
        <time>2017-06-04T09:22:35.000Z</time>
      </trkpt>
      <trkpt lat="48.5177" lon="7.42269">
        <ele>239.84887695312</ele>
        <time>2017-06-04T09:22:38.000Z</time>
      </trkpt>
      <trkpt lat="48.51766" lon="7.42282">
        <ele>240.08828735352</ele>
        <time>2017-06-04T09:22:41.000Z</time>
      </trkpt>
      <trkpt lat="48.51768" lon="7.42294">
        <ele>240.28353881836</ele>
        <time>2017-06-04T09:22:43.000Z</time>
      </trkpt>
      <trkpt lat="48.5177" lon="7.42305">
        <ele>240.44491577148</ele>
        <time>2017-06-04T09:22:45.000Z</time>
      </trkpt>
      <trkpt lat="48.51772" lon="7.42323">
        <ele>240.56694030762</ele>
        <time>2017-06-04T09:22:48.000Z</time>
      </trkpt>
      <trkpt lat="48.51773" lon="7.42338">
        <ele>240.5941619873</ele>
        <time>2017-06-04T09:22:50.000Z</time>
      </trkpt>
      <trkpt lat="48.51777" lon="7.42364">
        <ele>240.37368774414</ele>
        <time>2017-06-04T09:22:53.000Z</time>
      </trkpt>
      <trkpt lat="48.51778" lon="7.42384">
        <ele>239.98385620117</ele>
        <time>2017-06-04T09:22:55.000Z</time>
      </trkpt>
      <trkpt lat="48.5178" lon="7.42409">
        <ele>239.37890625</ele>
        <time>2017-06-04T09:22:58.000Z</time>
      </trkpt>
      <trkpt lat="48.51778" lon="7.42434">
        <ele>238.88349914551</ele>
        <time>2017-06-04T09:23:01.000Z</time>
      </trkpt>
      <trkpt lat="48.51777" lon="7.42447">
        <ele>238.56352233887</ele>
        <time>2017-06-04T09:23:03.000Z</time>
      </trkpt>
      <trkpt lat="48.51773" lon="7.42458">
        <ele>238.5871887207</ele>
        <time>2017-06-04T09:23:05.000Z</time>
      </trkpt>
      <trkpt lat="48.51769" lon="7.42473">
        <ele>238.94174194336</ele>
        <time>2017-06-04T09:23:08.000Z</time>
      </trkpt>
      <trkpt lat="48.51764" lon="7.42484">
        <ele>239.62899780273</ele>
        <time>2017-06-04T09:23:11.000Z</time>
      </trkpt>
      <trkpt lat="48.51762" lon="7.4249">
        <ele>240.26113891602</ele>
        <time>2017-06-04T09:23:13.000Z</time>
      </trkpt>
      <trkpt lat="48.51759" lon="7.42493">
        <ele>240.78024291992</ele>
        <time>2017-06-04T09:23:15.000Z</time>
      </trkpt>
      <trkpt lat="48.51755" lon="7.42497">
        <ele>241.22285461426</ele>
        <time>2017-06-04T09:23:18.000Z</time>
      </trkpt>
      <trkpt lat="48.51752" lon="7.425">
        <ele>241.53523254395</ele>
        <time>2017-06-04T09:23:20.000Z</time>
      </trkpt>
      <trkpt lat="48.51748" lon="7.42502">
        <ele>241.8186340332</ele>
        <time>2017-06-04T09:23:22.000Z</time>
      </trkpt>
      <trkpt lat="48.51744" lon="7.42504">
        <ele>242.1565246582</ele>
        <time>2017-06-04T09:23:24.000Z</time>
      </trkpt>
      <trkpt lat="48.5174" lon="7.42507">
        <ele>242.62939453125</ele>
        <time>2017-06-04T09:23:27.000Z</time>
      </trkpt>
      <trkpt lat="48.51735" lon="7.42512">
        <ele>243.25790405273</ele>
        <time>2017-06-04T09:23:30.000Z</time>
      </trkpt>
      <trkpt lat="48.51733" lon="7.42516">
        <ele>243.97016906738</ele>
        <time>2017-06-04T09:23:32.000Z</time>
      </trkpt>
      <trkpt lat="48.51731" lon="7.42523">
        <ele>244.79121398926</ele>
        <time>2017-06-04T09:23:35.000Z</time>
      </trkpt>
      <trkpt lat="48.5173" lon="7.42528">
        <ele>245.59945678711</ele>
        <time>2017-06-04T09:23:37.000Z</time>
      </trkpt>
      <trkpt lat="48.51726" lon="7.42535">
        <ele>246.46408081055</ele>
        <time>2017-06-04T09:23:40.000Z</time>
      </trkpt>
      <trkpt lat="48.51722" lon="7.42541">
        <ele>247.33712768555</ele>
        <time>2017-06-04T09:23:43.000Z</time>
      </trkpt>
      <trkpt lat="48.51719" lon="7.42544">
        <ele>248.23547363281</ele>
        <time>2017-06-04T09:23:45.000Z</time>
      </trkpt>
      <trkpt lat="48.51715" lon="7.4255">
        <ele>249.13150024414</ele>
        <time>2017-06-04T09:23:48.000Z</time>
      </trkpt>
      <trkpt lat="48.51713" lon="7.42552">
        <ele>250.03096008301</ele>
        <time>2017-06-04T09:23:50.000Z</time>
      </trkpt>
      <trkpt lat="48.5171" lon="7.42555">
        <ele>250.8200378418</ele>
        <time>2017-06-04T09:23:53.000Z</time>
      </trkpt>
      <trkpt lat="48.51707" lon="7.42557">
        <ele>251.51472473145</ele>
        <time>2017-06-04T09:23:56.000Z</time>
      </trkpt>
      <trkpt lat="48.51706" lon="7.42558">
        <ele>252.13333129883</ele>
        <time>2017-06-04T09:23:58.000Z</time>
      </trkpt>
      <trkpt lat="48.51703" lon="7.42561">
        <ele>252.67398071289</ele>
        <time>2017-06-04T09:24:01.000Z</time>
      </trkpt>
      <trkpt lat="48.51701" lon="7.42564">
        <ele>253.21223449707</ele>
        <time>2017-06-04T09:24:03.000Z</time>
      </trkpt>
      <trkpt lat="48.51698" lon="7.42567">
        <ele>253.77206420898</ele>
        <time>2017-06-04T09:24:06.000Z</time>
      </trkpt>
      <trkpt lat="48.51694" lon="7.42572">
        <ele>254.40493774414</ele>
        <time>2017-06-04T09:24:09.000Z</time>
      </trkpt>
      <trkpt lat="48.51693" lon="7.42574">
        <ele>255.05867004395</ele>
        <time>2017-06-04T09:24:11.000Z</time>
      </trkpt>
      <trkpt lat="48.5169" lon="7.42578">
        <ele>255.75199890137</ele>
        <time>2017-06-04T09:24:14.000Z</time>
      </trkpt>
      <trkpt lat="48.51687" lon="7.42581">
        <ele>256.45318603516</ele>
        <time>2017-06-04T09:24:17.000Z</time>
      </trkpt>
      <trkpt lat="48.51683" lon="7.42585">
        <ele>257.19000244141</ele>
        <time>2017-06-04T09:24:20.000Z</time>
      </trkpt>
      <trkpt lat="48.5168" lon="7.42588">
        <ele>257.79675292969</ele>
        <time>2017-06-04T09:24:22.000Z</time>
      </trkpt>
      <trkpt lat="48.51678" lon="7.42591">
        <ele>258.37417602539</ele>
        <time>2017-06-04T09:24:25.000Z</time>
      </trkpt>
      <trkpt lat="48.51676" lon="7.42593">
        <ele>258.84045410156</ele>
        <time>2017-06-04T09:24:27.000Z</time>
      </trkpt>
      <trkpt lat="48.51674" lon="7.42597">
        <ele>259.23959350586</ele>
        <time>2017-06-04T09:24:30.000Z</time>
      </trkpt>
      <trkpt lat="48.51672" lon="7.42601">
        <ele>259.49310302734</ele>
        <time>2017-06-04T09:24:33.000Z</time>
      </trkpt>
      <trkpt lat="48.51671" lon="7.42603">
        <ele>259.70376586914</ele>
        <time>2017-06-04T09:24:35.000Z</time>
      </trkpt>
      <trkpt lat="48.51667" lon="7.42608">
        <ele>259.92050170898</ele>
        <time>2017-06-04T09:24:38.000Z</time>
      </trkpt>
      <trkpt lat="48.51664" lon="7.42611">
        <ele>260.10968017578</ele>
        <time>2017-06-04T09:24:40.000Z</time>
      </trkpt>
      <trkpt lat="48.51661" lon="7.42615">
        <ele>260.26449584961</ele>
        <time>2017-06-04T09:24:43.000Z</time>
      </trkpt>
      <trkpt lat="48.51658" lon="7.42619">
        <ele>260.41464233398</ele>
        <time>2017-06-04T09:24:46.000Z</time>
      </trkpt>
      <trkpt lat="48.51654" lon="7.42624">
        <ele>260.57189941406</ele>
        <time>2017-06-04T09:24:49.000Z</time>
      </trkpt>
      <trkpt lat="48.5165" lon="7.42628">
        <ele>260.68328857422</ele>
        <time>2017-06-04T09:24:52.000Z</time>
      </trkpt>
      <trkpt lat="48.51646" lon="7.42633">
        <ele>260.80648803711</ele>
        <time>2017-06-04T09:24:55.000Z</time>
      </trkpt>
      <trkpt lat="48.51643" lon="7.42638">
        <ele>260.94027709961</ele>
        <time>2017-06-04T09:24:58.000Z</time>
      </trkpt>
      <trkpt lat="48.51638" lon="7.42643">
        <ele>261.087890625</ele>
        <time>2017-06-04T09:25:01.000Z</time>
      </trkpt>
      <trkpt lat="48.51635" lon="7.42646">
        <ele>261.24014282227</ele>
        <time>2017-06-04T09:25:03.000Z</time>
      </trkpt>
      <trkpt lat="48.51632" lon="7.4265">
        <ele>261.40716552734</ele>
        <time>2017-06-04T09:25:06.000Z</time>
      </trkpt>
      <trkpt lat="48.51629" lon="7.42653">
        <ele>261.57122802734</ele>
        <time>2017-06-04T09:25:08.000Z</time>
      </trkpt>
      <trkpt lat="48.51625" lon="7.42657">
        <ele>261.74676513672</ele>
        <time>2017-06-04T09:25:11.000Z</time>
      </trkpt>
      <trkpt lat="48.51622" lon="7.4266">
        <ele>261.91912841797</ele>
        <time>2017-06-04T09:25:13.000Z</time>
      </trkpt>
      <trkpt lat="48.51619" lon="7.42663">
        <ele>262.09121704102</ele>
        <time>2017-06-04T09:25:15.000Z</time>
      </trkpt>
      <trkpt lat="48.51616" lon="7.42666">
        <ele>262.26766967773</ele>
        <time>2017-06-04T09:25:17.000Z</time>
      </trkpt>
      <trkpt lat="48.51614" lon="7.4267">
        <ele>262.47436523438</ele>
        <time>2017-06-04T09:25:19.000Z</time>
      </trkpt>
      <trkpt lat="48.51611" lon="7.42673">
        <ele>262.70385742188</ele>
        <time>2017-06-04T09:25:21.000Z</time>
      </trkpt>
      <trkpt lat="48.51606" lon="7.42677">
        <ele>262.9997253418</ele>
        <time>2017-06-04T09:25:24.000Z</time>
      </trkpt>
      <trkpt lat="48.51601" lon="7.42681">
        <ele>263.34704589844</ele>
        <time>2017-06-04T09:25:27.000Z</time>
      </trkpt>
      <trkpt lat="48.51596" lon="7.42685">
        <ele>263.75064086914</ele>
        <time>2017-06-04T09:25:30.000Z</time>
      </trkpt>
      <trkpt lat="48.51592" lon="7.4269">
        <ele>264.17501831055</ele>
        <time>2017-06-04T09:25:33.000Z</time>
      </trkpt>
      <trkpt lat="48.51588" lon="7.42693">
        <ele>264.59805297852</ele>
        <time>2017-06-04T09:25:36.000Z</time>
      </trkpt>
      <trkpt lat="48.51585" lon="7.42695">
        <ele>264.96997070312</ele>
        <time>2017-06-04T09:25:38.000Z</time>
      </trkpt>
      <trkpt lat="48.5158" lon="7.427">
        <ele>265.30926513672</ele>
        <time>2017-06-04T09:25:41.000Z</time>
      </trkpt>
      <trkpt lat="48.51577" lon="7.42704">
        <ele>265.58377075195</ele>
        <time>2017-06-04T09:25:43.000Z</time>
      </trkpt>
      <trkpt lat="48.51572" lon="7.42708">
        <ele>265.82705688477</ele>
        <time>2017-06-04T09:25:46.000Z</time>
      </trkpt>
      <trkpt lat="48.51569" lon="7.42712">
        <ele>266.04156494141</ele>
        <time>2017-06-04T09:25:48.000Z</time>
      </trkpt>
      <trkpt lat="48.51565" lon="7.42716">
        <ele>266.24365234375</ele>
        <time>2017-06-04T09:25:50.000Z</time>
      </trkpt>
      <trkpt lat="48.5156" lon="7.42722">
        <ele>266.447265625</ele>
        <time>2017-06-04T09:25:53.000Z</time>
      </trkpt>
      <trkpt lat="48.51555" lon="7.42728">
        <ele>266.66967773438</ele>
        <time>2017-06-04T09:25:56.000Z</time>
      </trkpt>
      <trkpt lat="48.51552" lon="7.42732">
        <ele>266.87622070312</ele>
        <time>2017-06-04T09:25:58.000Z</time>
      </trkpt>
      <trkpt lat="48.5155" lon="7.42736">
        <ele>267.08422851562</ele>
        <time>2017-06-04T09:26:00.000Z</time>
      </trkpt>
      <trkpt lat="48.51546" lon="7.4274">
        <ele>267.29150390625</ele>
        <time>2017-06-04T09:26:02.000Z</time>
      </trkpt>
      <trkpt lat="48.51542" lon="7.42747">
        <ele>267.50122070312</ele>
        <time>2017-06-04T09:26:05.000Z</time>
      </trkpt>
      <trkpt lat="48.51538" lon="7.42751">
        <ele>267.70443725586</ele>
        <time>2017-06-04T09:26:07.000Z</time>
      </trkpt>
      <trkpt lat="48.51534" lon="7.42757">
        <ele>267.98617553711</ele>
        <time>2017-06-04T09:26:10.000Z</time>
      </trkpt>
      <trkpt lat="48.51531" lon="7.42761">
        <ele>268.30136108398</ele>
        <time>2017-06-04T09:26:12.000Z</time>
      </trkpt>
      <trkpt lat="48.51527" lon="7.42766">
        <ele>268.67791748047</ele>
        <time>2017-06-04T09:26:15.000Z</time>
      </trkpt>
      <trkpt lat="48.51524" lon="7.4277">
        <ele>269.05926513672</ele>
        <time>2017-06-04T09:26:17.000Z</time>
      </trkpt>
      <trkpt lat="48.51519" lon="7.42775">
        <ele>269.47485351562</ele>
        <time>2017-06-04T09:26:20.000Z</time>
      </trkpt>
      <trkpt lat="48.51515" lon="7.42779">
        <ele>269.85140991211</ele>
        <time>2017-06-04T09:26:23.000Z</time>
      </trkpt>
      <trkpt lat="48.51512" lon="7.42782">
        <ele>270.20166015625</ele>
        <time>2017-06-04T09:26:25.000Z</time>
      </trkpt>
      <trkpt lat="48.51509" lon="7.42786">
        <ele>270.51528930664</ele>
        <time>2017-06-04T09:26:28.000Z</time>
      </trkpt>
      <trkpt lat="48.51507" lon="7.4279">
        <ele>270.81301879883</ele>
        <time>2017-06-04T09:26:30.000Z</time>
      </trkpt>
      <trkpt lat="48.51504" lon="7.42795">
        <ele>271.10382080078</ele>
        <time>2017-06-04T09:26:33.000Z</time>
      </trkpt>
      <trkpt lat="48.51501" lon="7.42799">
        <ele>271.36810302734</ele>
        <time>2017-06-04T09:26:35.000Z</time>
      </trkpt>
      <trkpt lat="48.51499" lon="7.42802">
        <ele>271.64715576172</ele>
        <time>2017-06-04T09:26:37.000Z</time>
      </trkpt>
      <trkpt lat="48.51496" lon="7.42807">
        <ele>271.95843505859</ele>
        <time>2017-06-04T09:26:40.000Z</time>
      </trkpt>
      <trkpt lat="48.51493" lon="7.42811">
        <ele>272.31964111328</ele>
        <time>2017-06-04T09:26:43.000Z</time>
      </trkpt>
      <trkpt lat="48.51491" lon="7.42814">
        <ele>272.65960693359</ele>
        <time>2017-06-04T09:26:45.000Z</time>
      </trkpt>
      <trkpt lat="48.51488" lon="7.42817">
        <ele>273.02105712891</ele>
        <time>2017-06-04T09:26:47.000Z</time>
      </trkpt>
      <trkpt lat="48.51486" lon="7.4282">
        <ele>273.38973999023</ele>
        <time>2017-06-04T09:26:49.000Z</time>
      </trkpt>
      <trkpt lat="48.51482" lon="7.42823">
        <ele>273.75274658203</ele>
        <time>2017-06-04T09:26:52.000Z</time>
      </trkpt>
      <trkpt lat="48.5148" lon="7.42825">
        <ele>274.07080078125</ele>
        <time>2017-06-04T09:26:54.000Z</time>
      </trkpt>
      <trkpt lat="48.51478" lon="7.42827">
        <ele>274.39025878906</ele>
        <time>2017-06-04T09:26:56.000Z</time>
      </trkpt>
      <trkpt lat="48.51476" lon="7.42829">
        <ele>274.69055175781</ele>
        <time>2017-06-04T09:26:58.000Z</time>
      </trkpt>
      <trkpt lat="48.51473" lon="7.42831">
        <ele>274.97866821289</ele>
        <time>2017-06-04T09:27:00.000Z</time>
      </trkpt>
      <trkpt lat="48.51469" lon="7.42834">
        <ele>275.26449584961</ele>
        <time>2017-06-04T09:27:03.000Z</time>
      </trkpt>
      <trkpt lat="48.51466" lon="7.42838">
        <ele>275.57598876953</ele>
        <time>2017-06-04T09:27:06.000Z</time>
      </trkpt>
      <trkpt lat="48.51462" lon="7.42842">
        <ele>275.92276000977</ele>
        <time>2017-06-04T09:27:09.000Z</time>
      </trkpt>
      <trkpt lat="48.51458" lon="7.42846">
        <ele>276.29974365234</ele>
        <time>2017-06-04T09:27:12.000Z</time>
      </trkpt>
      <trkpt lat="48.51456" lon="7.42849">
        <ele>276.67889404297</ele>
        <time>2017-06-04T09:27:14.000Z</time>
      </trkpt>
      <trkpt lat="48.51453" lon="7.42853">
        <ele>277.04315185547</ele>
        <time>2017-06-04T09:27:17.000Z</time>
      </trkpt>
      <trkpt lat="48.5145" lon="7.42857">
        <ele>277.40576171875</ele>
        <time>2017-06-04T09:27:20.000Z</time>
      </trkpt>
      <trkpt lat="48.51447" lon="7.4286">
        <ele>277.74475097656</ele>
        <time>2017-06-04T09:27:23.000Z</time>
      </trkpt>
      <trkpt lat="48.51444" lon="7.42864">
        <ele>278.05963134766</ele>
        <time>2017-06-04T09:27:25.000Z</time>
      </trkpt>
      <trkpt lat="48.51442" lon="7.42867">
        <ele>278.36563110352</ele>
        <time>2017-06-04T09:27:27.000Z</time>
      </trkpt>
      <trkpt lat="48.5144" lon="7.42873">
        <ele>278.68026733398</ele>
        <time>2017-06-04T09:27:30.000Z</time>
      </trkpt>
      <trkpt lat="48.51438" lon="7.42876">
        <ele>278.96850585938</ele>
        <time>2017-06-04T09:27:32.000Z</time>
      </trkpt>
      <trkpt lat="48.51435" lon="7.42883">
        <ele>279.26745605469</ele>
        <time>2017-06-04T09:27:35.000Z</time>
      </trkpt>
      <trkpt lat="48.51433" lon="7.42889">
        <ele>279.59124755859</ele>
        <time>2017-06-04T09:27:38.000Z</time>
      </trkpt>
      <trkpt lat="48.51431" lon="7.42894">
        <ele>279.91973876953</ele>
        <time>2017-06-04T09:27:40.000Z</time>
      </trkpt>
      <trkpt lat="48.51429" lon="7.42899">
        <ele>280.22985839844</ele>
        <time>2017-06-04T09:27:42.000Z</time>
      </trkpt>
      <trkpt lat="48.51427" lon="7.42907">
        <ele>280.57592773438</ele>
        <time>2017-06-04T09:27:45.000Z</time>
      </trkpt>
      <trkpt lat="48.51424" lon="7.42914">
        <ele>280.92047119141</ele>
        <time>2017-06-04T09:27:48.000Z</time>
      </trkpt>
      <trkpt lat="48.51421" lon="7.42919">
        <ele>281.26721191406</ele>
        <time>2017-06-04T09:27:51.000Z</time>
      </trkpt>
      <trkpt lat="48.51419" lon="7.42923">
        <ele>281.63824462891</ele>
        <time>2017-06-04T09:27:53.000Z</time>
      </trkpt>
      <trkpt lat="48.51415" lon="7.42932">
        <ele>282.11376953125</ele>
        <time>2017-06-04T09:27:56.000Z</time>
      </trkpt>
      <trkpt lat="48.51413" lon="7.42936">
        <ele>282.59674072266</ele>
        <time>2017-06-04T09:27:58.000Z</time>
      </trkpt>
      <trkpt lat="48.5141" lon="7.42944">
        <ele>283.16696166992</ele>
        <time>2017-06-04T09:28:01.000Z</time>
      </trkpt>
      <trkpt lat="48.51406" lon="7.42949">
        <ele>283.76620483398</ele>
        <time>2017-06-04T09:28:03.000Z</time>
      </trkpt>
      <trkpt lat="48.51404" lon="7.42955">
        <ele>284.40673828125</ele>
        <time>2017-06-04T09:28:05.000Z</time>
      </trkpt>
      <trkpt lat="48.514" lon="7.42963">
        <ele>285.03643798828</ele>
        <time>2017-06-04T09:28:08.000Z</time>
      </trkpt>
      <trkpt lat="48.51397" lon="7.42971">
        <ele>285.71908569336</ele>
        <time>2017-06-04T09:28:11.000Z</time>
      </trkpt>
      <trkpt lat="48.51395" lon="7.42977">
        <ele>286.34039306641</ele>
        <time>2017-06-04T09:28:13.000Z</time>
      </trkpt>
      <trkpt lat="48.51393" lon="7.42985">
        <ele>286.97463989258</ele>
        <time>2017-06-04T09:28:16.000Z</time>
      </trkpt>
      <trkpt lat="48.5139" lon="7.42993">
        <ele>287.62835693359</ele>
        <time>2017-06-04T09:28:19.000Z</time>
      </trkpt>
      <trkpt lat="48.51387" lon="7.43002">
        <ele>288.27188110352</ele>
        <time>2017-06-04T09:28:22.000Z</time>
      </trkpt>
      <trkpt lat="48.51385" lon="7.43009">
        <ele>288.88497924805</ele>
        <time>2017-06-04T09:28:24.000Z</time>
      </trkpt>
      <trkpt lat="48.51383" lon="7.43014">
        <ele>289.49981689453</ele>
        <time>2017-06-04T09:28:26.000Z</time>
      </trkpt>
      <trkpt lat="48.5138" lon="7.43023">
        <ele>290.13430786133</ele>
        <time>2017-06-04T09:28:29.000Z</time>
      </trkpt>
      <trkpt lat="48.51377" lon="7.43032">
        <ele>290.76919555664</ele>
        <time>2017-06-04T09:28:32.000Z</time>
      </trkpt>
      <trkpt lat="48.51375" lon="7.4304">
        <ele>291.37509155273</ele>
        <time>2017-06-04T09:28:35.000Z</time>
      </trkpt>
      <trkpt lat="48.51373" lon="7.43048">
        <ele>291.98690795898</ele>
        <time>2017-06-04T09:28:38.000Z</time>
      </trkpt>
      <trkpt lat="48.51371" lon="7.43054">
        <ele>292.58023071289</ele>
        <time>2017-06-04T09:28:40.000Z</time>
      </trkpt>
      <trkpt lat="48.51369" lon="7.43063">
        <ele>293.14126586914</ele>
        <time>2017-06-04T09:28:43.000Z</time>
      </trkpt>
      <trkpt lat="48.51368" lon="7.43068">
        <ele>293.63061523438</ele>
        <time>2017-06-04T09:28:45.000Z</time>
      </trkpt>
      <trkpt lat="48.51365" lon="7.43076">
        <ele>294.09436035156</ele>
        <time>2017-06-04T09:28:48.000Z</time>
      </trkpt>
      <trkpt lat="48.51361" lon="7.43084">
        <ele>294.53311157227</ele>
        <time>2017-06-04T09:28:51.000Z</time>
      </trkpt>
      <trkpt lat="48.51359" lon="7.43089">
        <ele>294.94396972656</ele>
        <time>2017-06-04T09:28:53.000Z</time>
      </trkpt>
      <trkpt lat="48.51353" lon="7.43094">
        <ele>295.28198242188</ele>
        <time>2017-06-04T09:28:56.000Z</time>
      </trkpt>
      <trkpt lat="48.5135" lon="7.43096">
        <ele>295.58145141602</ele>
        <time>2017-06-04T09:28:58.000Z</time>
      </trkpt>
      <trkpt lat="48.51347" lon="7.431">
        <ele>295.81909179688</ele>
        <time>2017-06-04T09:29:01.000Z</time>
      </trkpt>
      <trkpt lat="48.51345" lon="7.43104">
        <ele>295.99667358398</ele>
        <time>2017-06-04T09:29:03.000Z</time>
      </trkpt>
      <trkpt lat="48.51344" lon="7.43108">
        <ele>296.16018676758</ele>
        <time>2017-06-04T09:29:05.000Z</time>
      </trkpt>
      <trkpt lat="48.51342" lon="7.43112">
        <ele>296.31356811523</ele>
        <time>2017-06-04T09:29:08.000Z</time>
      </trkpt>
      <trkpt lat="48.51341" lon="7.43112">
        <ele>296.43707275391</ele>
        <time>2017-06-04T09:29:12.000Z</time>
      </trkpt>
      <trkpt lat="48.5134" lon="7.43113">
        <ele>296.54461669922</ele>
        <time>2017-06-04T09:29:14.000Z</time>
      </trkpt>
      <trkpt lat="48.51341" lon="7.43113">
        <ele>296.62484741211</ele>
        <time>2017-06-04T09:29:19.000Z</time>
      </trkpt>
      <trkpt lat="48.5134" lon="7.43113">
        <ele>296.64895629883</ele>
        <time>2017-06-04T09:29:27.000Z</time>
      </trkpt>
      <trkpt lat="48.51339" lon="7.43111">
        <ele>296.62359619141</ele>
        <time>2017-06-04T09:29:29.000Z</time>
      </trkpt>
      <trkpt lat="48.5134" lon="7.43111">
        <ele>296.60748291016</ele>
        <time>2017-06-04T09:29:40.000Z</time>
      </trkpt>
      <trkpt lat="48.5134" lon="7.43112">
        <ele>296.59243774414</ele>
        <time>2017-06-04T09:29:52.000Z</time>
      </trkpt>
      <trkpt lat="48.5134" lon="7.43112">
        <ele>296.59243774414</ele>
        <time>2017-06-04T09:30:12.000Z</time>
      </trkpt>
      <trkpt lat="48.5134" lon="7.43113">
        <ele>296.58480834961</ele>
        <time>2017-06-04T09:30:19.000Z</time>
      </trkpt>
      <trkpt lat="48.5134" lon="7.43114">
        <ele>296.60806274414</ele>
        <time>2017-06-04T09:30:21.000Z</time>
      </trkpt>
      <trkpt lat="48.5134" lon="7.43116">
        <ele>296.66812133789</ele>
        <time>2017-06-04T09:30:56.000Z</time>
      </trkpt>
      <trkpt lat="48.51339" lon="7.43116">
        <ele>296.71844482422</ele>
        <time>2017-06-04T09:30:59.000Z</time>
      </trkpt>
      <trkpt lat="48.51339" lon="7.43116">
        <ele>296.71844482422</ele>
        <time>2017-06-04T09:31:19.000Z</time>
      </trkpt>
      <trkpt lat="48.51339" lon="7.43115">
        <ele>296.74530029297</ele>
        <time>2017-06-04T09:33:02.000Z</time>
      </trkpt>
      <trkpt lat="48.51339" lon="7.43115">
        <ele>296.74530029297</ele>
        <time>2017-06-04T09:33:22.000Z</time>
      </trkpt>
      <trkpt lat="48.51337" lon="7.43114">
        <ele>296.73977661133</ele>
        <time>2017-06-04T09:33:49.000Z</time>
      </trkpt>
      <trkpt lat="48.51337" lon="7.43114">
        <ele>296.73977661133</ele>
        <time>2017-06-04T09:34:09.000Z</time>
      </trkpt>
      <trkpt lat="48.51337" lon="7.43118">
        <ele>296.75189208984</ele>
        <time>2017-06-04T09:34:13.000Z</time>
      </trkpt>
      <trkpt lat="48.51337" lon="7.43118">
        <ele>296.75189208984</ele>
        <time>2017-06-04T09:34:33.000Z</time>
      </trkpt>
      <trkpt lat="48.51338" lon="7.43117">
        <ele>296.74652099609</ele>
        <time>2017-06-04T09:35:48.000Z</time>
      </trkpt>
      <trkpt lat="48.51339" lon="7.43116">
        <ele>296.74261474609</ele>
        <time>2017-06-04T09:35:51.000Z</time>
      </trkpt>
      <trkpt lat="48.51339" lon="7.43116">
        <ele>296.74261474609</ele>
        <time>2017-06-04T09:36:11.000Z</time>
      </trkpt>
      <trkpt lat="48.51339" lon="7.43112">
        <ele>296.71307373047</ele>
        <time>2017-06-04T09:38:16.000Z</time>
      </trkpt>
      <trkpt lat="48.51339" lon="7.43112">
        <ele>296.71307373047</ele>
        <time>2017-06-04T09:38:36.000Z</time>
      </trkpt>
      <trkpt lat="48.5134" lon="7.43113">
        <ele>296.71533203125</ele>
        <time>2017-06-04T09:38:42.000Z</time>
      </trkpt>
      <trkpt lat="48.51341" lon="7.43114">
        <ele>296.70272827148</ele>
        <time>2017-06-04T09:38:44.000Z</time>
      </trkpt>
      <trkpt lat="48.51342" lon="7.43116">
        <ele>296.71743774414</ele>
        <time>2017-06-04T09:38:47.000Z</time>
      </trkpt>
      <trkpt lat="48.51342" lon="7.43116">
        <ele>296.71743774414</ele>
        <time>2017-06-04T09:39:07.000Z</time>
      </trkpt>
      <trkpt lat="48.51344" lon="7.43115">
        <ele>296.74127197266</ele>
        <time>2017-06-04T09:39:12.000Z</time>
      </trkpt>
      <trkpt lat="48.51343" lon="7.43118">
        <ele>296.82608032227</ele>
        <time>2017-06-04T09:39:31.000Z</time>
      </trkpt>
      <trkpt lat="48.51342" lon="7.43113">
        <ele>296.84246826172</ele>
        <time>2017-06-04T09:39:34.000Z</time>
      </trkpt>
      <trkpt lat="48.51341" lon="7.43111">
        <ele>296.80871582031</ele>
        <time>2017-06-04T09:39:36.000Z</time>
      </trkpt>
      <trkpt lat="48.51336" lon="7.43105">
        <ele>296.66168212891</ele>
        <time>2017-06-04T09:39:39.000Z</time>
      </trkpt>
      <trkpt lat="48.51332" lon="7.43105">
        <ele>296.50747680664</ele>
        <time>2017-06-04T09:39:41.000Z</time>
      </trkpt>
      <trkpt lat="48.51328" lon="7.43108">
        <ele>296.43545532227</ele>
        <time>2017-06-04T09:39:44.000Z</time>
      </trkpt>
      <trkpt lat="48.51323" lon="7.43109">
        <ele>296.52560424805</ele>
        <time>2017-06-04T09:39:47.000Z</time>
      </trkpt>
      <trkpt lat="48.51319" lon="7.43111">
        <ele>296.7126159668</ele>
        <time>2017-06-04T09:39:49.000Z</time>
      </trkpt>
      <trkpt lat="48.51315" lon="7.43112">
        <ele>297.07577514648</ele>
        <time>2017-06-04T09:39:52.000Z</time>
      </trkpt>
      <trkpt lat="48.51311" lon="7.43112">
        <ele>297.50961303711</ele>
        <time>2017-06-04T09:39:55.000Z</time>
      </trkpt>
      <trkpt lat="48.51308" lon="7.43112">
        <ele>297.88348388672</ele>
        <time>2017-06-04T09:39:57.000Z</time>
      </trkpt>
      <trkpt lat="48.51304" lon="7.43112">
        <ele>298.21600341797</ele>
        <time>2017-06-04T09:39:59.000Z</time>
      </trkpt>
      <trkpt lat="48.51298" lon="7.43112">
        <ele>298.58346557617</ele>
        <time>2017-06-04T09:40:02.000Z</time>
      </trkpt>
      <trkpt lat="48.51294" lon="7.43113">
        <ele>298.92868041992</ele>
        <time>2017-06-04T09:40:04.000Z</time>
      </trkpt>
      <trkpt lat="48.51289" lon="7.43118">
        <ele>299.32318115234</ele>
        <time>2017-06-04T09:40:07.000Z</time>
      </trkpt>
      <trkpt lat="48.51286" lon="7.43124">
        <ele>299.75173950195</ele>
        <time>2017-06-04T09:40:10.000Z</time>
      </trkpt>
      <trkpt lat="48.51283" lon="7.43129">
        <ele>300.19735717773</ele>
        <time>2017-06-04T09:40:13.000Z</time>
      </trkpt>
      <trkpt lat="48.51279" lon="7.43132">
        <ele>300.61441040039</ele>
        <time>2017-06-04T09:40:16.000Z</time>
      </trkpt>
      <trkpt lat="48.51277" lon="7.43134">
        <ele>301.00619506836</ele>
        <time>2017-06-04T09:40:18.000Z</time>
      </trkpt>
      <trkpt lat="48.51272" lon="7.43136">
        <ele>301.35443115234</ele>
        <time>2017-06-04T09:40:21.000Z</time>
      </trkpt>
      <trkpt lat="48.51268" lon="7.43138">
        <ele>301.70065307617</ele>
        <time>2017-06-04T09:40:24.000Z</time>
      </trkpt>
      <trkpt lat="48.51265" lon="7.43139">
        <ele>302.00836181641</ele>
        <time>2017-06-04T09:40:26.000Z</time>
      </trkpt>
      <trkpt lat="48.5126" lon="7.43139">
        <ele>302.3112487793</ele>
        <time>2017-06-04T09:40:29.000Z</time>
      </trkpt>
      <trkpt lat="48.51255" lon="7.43139">
        <ele>302.64389038086</ele>
        <time>2017-06-04T09:40:32.000Z</time>
      </trkpt>
      <trkpt lat="48.51251" lon="7.43139">
        <ele>302.96087646484</ele>
        <time>2017-06-04T09:40:35.000Z</time>
      </trkpt>
      <trkpt lat="48.51248" lon="7.43139">
        <ele>303.26641845703</ele>
        <time>2017-06-04T09:40:37.000Z</time>
      </trkpt>
      <trkpt lat="48.51244" lon="7.43139">
        <ele>303.65924072266</ele>
        <time>2017-06-04T09:40:40.000Z</time>
      </trkpt>
      <trkpt lat="48.51241" lon="7.43139">
        <ele>304.05834960938</ele>
        <time>2017-06-04T09:40:42.000Z</time>
      </trkpt>
      <trkpt lat="48.51238" lon="7.43139">
        <ele>304.48266601562</ele>
        <time>2017-06-04T09:40:44.000Z</time>
      </trkpt>
      <trkpt lat="48.51235" lon="7.43139">
        <ele>304.93295288086</ele>
        <time>2017-06-04T09:40:46.000Z</time>
      </trkpt>
      <trkpt lat="48.5123" lon="7.43138">
        <ele>305.47485351562</ele>
        <time>2017-06-04T09:40:49.000Z</time>
      </trkpt>
      <trkpt lat="48.51226" lon="7.43139">
        <ele>306.01727294922</ele>
        <time>2017-06-04T09:40:52.000Z</time>
      </trkpt>
      <trkpt lat="48.51223" lon="7.43138">
        <ele>306.57238769531</ele>
        <time>2017-06-04T09:40:54.000Z</time>
      </trkpt>
      <trkpt lat="48.5122" lon="7.43138">
        <ele>307.12799072266</ele>
        <time>2017-06-04T09:40:56.000Z</time>
      </trkpt>
      <trkpt lat="48.51215" lon="7.43138">
        <ele>307.72128295898</ele>
        <time>2017-06-04T09:40:59.000Z</time>
      </trkpt>
      <trkpt lat="48.5121" lon="7.43139">
        <ele>308.31185913086</ele>
        <time>2017-06-04T09:41:02.000Z</time>
      </trkpt>
      <trkpt lat="48.51207" lon="7.4314">
        <ele>308.86114501953</ele>
        <time>2017-06-04T09:41:04.000Z</time>
      </trkpt>
      <trkpt lat="48.51203" lon="7.43138">
        <ele>309.45587158203</ele>
        <time>2017-06-04T09:41:07.000Z</time>
      </trkpt>
      <trkpt lat="48.51199" lon="7.43138">
        <ele>310.07952880859</ele>
        <time>2017-06-04T09:41:10.000Z</time>
      </trkpt>
      <trkpt lat="48.51196" lon="7.43138">
        <ele>310.67520141602</ele>
        <time>2017-06-04T09:41:12.000Z</time>
      </trkpt>
      <trkpt lat="48.51193" lon="7.43138">
        <ele>311.18591308594</ele>
        <time>2017-06-04T09:41:14.000Z</time>
      </trkpt>
      <trkpt lat="48.51188" lon="7.43139">
        <ele>311.74584960938</ele>
        <time>2017-06-04T09:41:17.000Z</time>
      </trkpt>
      <trkpt lat="48.51185" lon="7.43139">
        <ele>312.25527954102</ele>
        <time>2017-06-04T09:41:19.000Z</time>
      </trkpt>
      <trkpt lat="48.5118" lon="7.4314">
        <ele>312.77337646484</ele>
        <time>2017-06-04T09:41:22.000Z</time>
      </trkpt>
      <trkpt lat="48.51178" lon="7.43141">
        <ele>313.26095581055</ele>
        <time>2017-06-04T09:41:24.000Z</time>
      </trkpt>
      <trkpt lat="48.51175" lon="7.43142">
        <ele>313.75146484375</ele>
        <time>2017-06-04T09:41:27.000Z</time>
      </trkpt>
      <trkpt lat="48.51173" lon="7.43143">
        <ele>314.14813232422</ele>
        <time>2017-06-04T09:41:29.000Z</time>
      </trkpt>
      <trkpt lat="48.5117" lon="7.43144">
        <ele>314.52551269531</ele>
        <time>2017-06-04T09:41:31.000Z</time>
      </trkpt>
      <trkpt lat="48.51166" lon="7.43145">
        <ele>314.86590576172</ele>
        <time>2017-06-04T09:41:34.000Z</time>
      </trkpt>
      <trkpt lat="48.51162" lon="7.43147">
        <ele>315.22769165039</ele>
        <time>2017-06-04T09:41:37.000Z</time>
      </trkpt>
      <trkpt lat="48.51158" lon="7.43148">
        <ele>315.61047363281</ele>
        <time>2017-06-04T09:41:40.000Z</time>
      </trkpt>
      <trkpt lat="48.51156" lon="7.43148">
        <ele>315.98977661133</ele>
        <time>2017-06-04T09:41:42.000Z</time>
      </trkpt>
      <trkpt lat="48.51154" lon="7.43149">
        <ele>316.36883544922</ele>
        <time>2017-06-04T09:41:44.000Z</time>
      </trkpt>
      <trkpt lat="48.5115" lon="7.43149">
        <ele>316.74053955078</ele>
        <time>2017-06-04T09:41:47.000Z</time>
      </trkpt>
      <trkpt lat="48.51146" lon="7.43149">
        <ele>317.12286376953</ele>
        <time>2017-06-04T09:41:50.000Z</time>
      </trkpt>
      <trkpt lat="48.51144" lon="7.43149">
        <ele>317.47647094727</ele>
        <time>2017-06-04T09:41:52.000Z</time>
      </trkpt>
      <trkpt lat="48.51141" lon="7.43149">
        <ele>317.85269165039</ele>
        <time>2017-06-04T09:41:54.000Z</time>
      </trkpt>
      <trkpt lat="48.51138" lon="7.43149">
        <ele>318.25747680664</ele>
        <time>2017-06-04T09:41:57.000Z</time>
      </trkpt>
      <trkpt lat="48.51136" lon="7.43148">
        <ele>318.6399230957</ele>
        <time>2017-06-04T09:41:59.000Z</time>
      </trkpt>
      <trkpt lat="48.51133" lon="7.43148">
        <ele>319.01763916016</ele>
        <time>2017-06-04T09:42:01.000Z</time>
      </trkpt>
      <trkpt lat="48.51129" lon="7.43146">
        <ele>319.43975830078</ele>
        <time>2017-06-04T09:42:04.000Z</time>
      </trkpt>
      <trkpt lat="48.51125" lon="7.43145">
        <ele>319.90017700195</ele>
        <time>2017-06-04T09:42:07.000Z</time>
      </trkpt>
      <trkpt lat="48.51123" lon="7.43145">
        <ele>320.32632446289</ele>
        <time>2017-06-04T09:42:09.000Z</time>
      </trkpt>
      <trkpt lat="48.5112" lon="7.43142">
        <ele>320.787109375</ele>
        <time>2017-06-04T09:42:12.000Z</time>
      </trkpt>
      <trkpt lat="48.51118" lon="7.4314">
        <ele>321.21704101562</ele>
        <time>2017-06-04T09:42:14.000Z</time>
      </trkpt>
      <trkpt lat="48.51116" lon="7.43135">
        <ele>321.6328125</ele>
        <time>2017-06-04T09:42:17.000Z</time>
      </trkpt>
      <trkpt lat="48.51115" lon="7.43132">
        <ele>321.99334716797</ele>
        <time>2017-06-04T09:42:19.000Z</time>
      </trkpt>
      <trkpt lat="48.51113" lon="7.43127">
        <ele>322.36346435547</ele>
        <time>2017-06-04T09:42:22.000Z</time>
      </trkpt>
      <trkpt lat="48.51112" lon="7.43122">
        <ele>322.70159912109</ele>
        <time>2017-06-04T09:42:25.000Z</time>
      </trkpt>
      <trkpt lat="48.5111" lon="7.43118">
        <ele>323.02938842773</ele>
        <time>2017-06-04T09:42:27.000Z</time>
      </trkpt>
      <trkpt lat="48.51109" lon="7.43113">
        <ele>323.32925415039</ele>
        <time>2017-06-04T09:42:30.000Z</time>
      </trkpt>
      <trkpt lat="48.51108" lon="7.4311">
        <ele>323.62423706055</ele>
        <time>2017-06-04T09:42:32.000Z</time>
      </trkpt>
      <trkpt lat="48.51106" lon="7.43106">
        <ele>323.91519165039</ele>
        <time>2017-06-04T09:42:35.000Z</time>
      </trkpt>
      <trkpt lat="48.51103" lon="7.43101">
        <ele>324.21661376953</ele>
        <time>2017-06-04T09:42:38.000Z</time>
      </trkpt>
      <trkpt lat="48.51101" lon="7.43098">
        <ele>324.52429199219</ele>
        <time>2017-06-04T09:42:40.000Z</time>
      </trkpt>
      <trkpt lat="48.51097" lon="7.43092">
        <ele>324.875</ele>
        <time>2017-06-04T09:42:43.000Z</time>
      </trkpt>
      <trkpt lat="48.51092" lon="7.43089">
        <ele>325.27307128906</ele>
        <time>2017-06-04T09:42:45.000Z</time>
      </trkpt>
      <trkpt lat="48.51087" lon="7.43086">
        <ele>325.70532226562</ele>
        <time>2017-06-04T09:42:47.000Z</time>
      </trkpt>
      <trkpt lat="48.51082" lon="7.43085">
        <ele>326.14282226562</ele>
        <time>2017-06-04T09:42:50.000Z</time>
      </trkpt>
      <trkpt lat="48.51078" lon="7.43085">
        <ele>326.57336425781</ele>
        <time>2017-06-04T09:42:52.000Z</time>
      </trkpt>
      <trkpt lat="48.51071" lon="7.43084">
        <ele>326.97964477539</ele>
        <time>2017-06-04T09:42:55.000Z</time>
      </trkpt>
      <trkpt lat="48.51064" lon="7.43083">
        <ele>327.37606811523</ele>
        <time>2017-06-04T09:42:58.000Z</time>
      </trkpt>
      <trkpt lat="48.51059" lon="7.43083">
        <ele>327.7366027832</ele>
        <time>2017-06-04T09:43:00.000Z</time>
      </trkpt>
      <trkpt lat="48.51052" lon="7.43083">
        <ele>328.08837890625</ele>
        <time>2017-06-04T09:43:03.000Z</time>
      </trkpt>
      <trkpt lat="48.51048" lon="7.43082">
        <ele>328.4440612793</ele>
        <time>2017-06-04T09:43:06.000Z</time>
      </trkpt>
      <trkpt lat="48.51041" lon="7.43081">
        <ele>328.78997802734</ele>
        <time>2017-06-04T09:43:09.000Z</time>
      </trkpt>
      <trkpt lat="48.51036" lon="7.43081">
        <ele>329.11413574219</ele>
        <time>2017-06-04T09:43:11.000Z</time>
      </trkpt>
      <trkpt lat="48.51028" lon="7.43081">
        <ele>329.474609375</ele>
        <time>2017-06-04T09:43:14.000Z</time>
      </trkpt>
      <trkpt lat="48.51022" lon="7.43081">
        <ele>329.82772827148</ele>
        <time>2017-06-04T09:43:17.000Z</time>
      </trkpt>
      <trkpt lat="48.51018" lon="7.43084">
        <ele>330.19912719727</ele>
        <time>2017-06-04T09:43:19.000Z</time>
      </trkpt>
      <trkpt lat="48.5101" lon="7.43085">
        <ele>330.5905456543</ele>
        <time>2017-06-04T09:43:22.000Z</time>
      </trkpt>
      <trkpt lat="48.51006" lon="7.43085">
        <ele>330.97467041016</ele>
        <time>2017-06-04T09:43:24.000Z</time>
      </trkpt>
      <trkpt lat="48.51001" lon="7.43083">
        <ele>331.32052612305</ele>
        <time>2017-06-04T09:43:26.000Z</time>
      </trkpt>
      <trkpt lat="48.50992" lon="7.4308">
        <ele>331.62680053711</ele>
        <time>2017-06-04T09:43:29.000Z</time>
      </trkpt>
      <trkpt lat="48.50986" lon="7.43079">
        <ele>331.89617919922</ele>
        <time>2017-06-04T09:43:31.000Z</time>
      </trkpt>
      <trkpt lat="48.50979" lon="7.43079">
        <ele>332.12240600586</ele>
        <time>2017-06-04T09:43:34.000Z</time>
      </trkpt>
      <trkpt lat="48.50973" lon="7.4308">
        <ele>332.34997558594</ele>
        <time>2017-06-04T09:43:36.000Z</time>
      </trkpt>
      <trkpt lat="48.50964" lon="7.43083">
        <ele>332.61236572266</ele>
        <time>2017-06-04T09:43:39.000Z</time>
      </trkpt>
      <trkpt lat="48.50955" lon="7.43087">
        <ele>332.92489624023</ele>
        <time>2017-06-04T09:43:42.000Z</time>
      </trkpt>
      <trkpt lat="48.50946" lon="7.43091">
        <ele>333.28350830078</ele>
        <time>2017-06-04T09:43:45.000Z</time>
      </trkpt>
      <trkpt lat="48.50937" lon="7.43094">
        <ele>333.67260742188</ele>
        <time>2017-06-04T09:43:48.000Z</time>
      </trkpt>
      <trkpt lat="48.50929" lon="7.43098">
        <ele>334.08227539062</ele>
        <time>2017-06-04T09:43:51.000Z</time>
      </trkpt>
      <trkpt lat="48.50924" lon="7.43101">
        <ele>334.45324707031</ele>
        <time>2017-06-04T09:43:53.000Z</time>
      </trkpt>
      <trkpt lat="48.50916" lon="7.43104">
        <ele>334.81057739258</ele>
        <time>2017-06-04T09:43:56.000Z</time>
      </trkpt>
      <trkpt lat="48.50907" lon="7.43107">
        <ele>335.06558227539</ele>
        <time>2017-06-04T09:43:59.000Z</time>
      </trkpt>
      <trkpt lat="48.50899" lon="7.4311">
        <ele>335.22039794922</ele>
        <time>2017-06-04T09:44:02.000Z</time>
      </trkpt>
      <trkpt lat="48.5089" lon="7.43112">
        <ele>335.27725219727</ele>
        <time>2017-06-04T09:44:05.000Z</time>
      </trkpt>
      <trkpt lat="48.50882" lon="7.43114">
        <ele>335.26596069336</ele>
        <time>2017-06-04T09:44:08.000Z</time>
      </trkpt>
      <trkpt lat="48.50873" lon="7.43115">
        <ele>335.16546630859</ele>
        <time>2017-06-04T09:44:11.000Z</time>
      </trkpt>
      <trkpt lat="48.50868" lon="7.43116">
        <ele>335.08697509766</ele>
        <time>2017-06-04T09:44:13.000Z</time>
      </trkpt>
      <trkpt lat="48.50863" lon="7.43119">
        <ele>335.03469848633</ele>
        <time>2017-06-04T09:44:15.000Z</time>
      </trkpt>
      <trkpt lat="48.50854" lon="7.43123">
        <ele>335.02764892578</ele>
        <time>2017-06-04T09:44:18.000Z</time>
      </trkpt>
      <trkpt lat="48.50846" lon="7.43125">
        <ele>335.04656982422</ele>
        <time>2017-06-04T09:44:21.000Z</time>
      </trkpt>
      <trkpt lat="48.5084" lon="7.43126">
        <ele>335.08453369141</ele>
        <time>2017-06-04T09:44:23.000Z</time>
      </trkpt>
      <trkpt lat="48.5083" lon="7.43127">
        <ele>335.13427734375</ele>
        <time>2017-06-04T09:44:26.000Z</time>
      </trkpt>
      <trkpt lat="48.50824" lon="7.43129">
        <ele>335.20855712891</ele>
        <time>2017-06-04T09:44:28.000Z</time>
      </trkpt>
      <trkpt lat="48.50814" lon="7.43128">
        <ele>335.27642822266</ele>
        <time>2017-06-04T09:44:31.000Z</time>
      </trkpt>
      <trkpt lat="48.50805" lon="7.43127">
        <ele>335.34503173828</ele>
        <time>2017-06-04T09:44:34.000Z</time>
      </trkpt>
      <trkpt lat="48.50797" lon="7.43128">
        <ele>335.44650268555</ele>
        <time>2017-06-04T09:44:37.000Z</time>
      </trkpt>
      <trkpt lat="48.50788" lon="7.43129">
        <ele>335.57275390625</ele>
        <time>2017-06-04T09:44:40.000Z</time>
      </trkpt>
      <trkpt lat="48.5078" lon="7.4313">
        <ele>335.7170715332</ele>
        <time>2017-06-04T09:44:43.000Z</time>
      </trkpt>
      <trkpt lat="48.50776" lon="7.43132">
        <ele>335.88442993164</ele>
        <time>2017-06-04T09:44:45.000Z</time>
      </trkpt>
      <trkpt lat="48.50772" lon="7.43133">
        <ele>336.07049560547</ele>
        <time>2017-06-04T09:44:47.000Z</time>
      </trkpt>
      <trkpt lat="48.50766" lon="7.43133">
        <ele>336.23883056641</ele>
        <time>2017-06-04T09:44:50.000Z</time>
      </trkpt>
      <trkpt lat="48.50761" lon="7.43131">
        <ele>336.35247802734</ele>
        <time>2017-06-04T09:44:53.000Z</time>
      </trkpt>
      <trkpt lat="48.50759" lon="7.4313">
        <ele>336.4052734375</ele>
        <time>2017-06-04T09:44:56.000Z</time>
      </trkpt>
      <trkpt lat="48.50758" lon="7.43129">
        <ele>336.3923034668</ele>
        <time>2017-06-04T09:45:03.000Z</time>
      </trkpt>
      <trkpt lat="48.50758" lon="7.43129">
        <ele>336.3923034668</ele>
        <time>2017-06-04T09:45:23.000Z</time>
      </trkpt>
      <trkpt lat="48.5076" lon="7.43127">
        <ele>336.32568359375</ele>
        <time>2017-06-04T09:45:52.000Z</time>
      </trkpt>
      <trkpt lat="48.50759" lon="7.43129">
        <ele>336.28546142578</ele>
        <time>2017-06-04T09:45:59.000Z</time>
      </trkpt>
      <trkpt lat="48.50755" lon="7.43129">
        <ele>336.27508544922</ele>
        <time>2017-06-04T09:46:02.000Z</time>
      </trkpt>
      <trkpt lat="48.50751" lon="7.43132">
        <ele>336.33489990234</ele>
        <time>2017-06-04T09:46:04.000Z</time>
      </trkpt>
      <trkpt lat="48.50747" lon="7.43136">
        <ele>336.46905517578</ele>
        <time>2017-06-04T09:46:06.000Z</time>
      </trkpt>
      <trkpt lat="48.5074" lon="7.43137">
        <ele>336.58215332031</ele>
        <time>2017-06-04T09:46:09.000Z</time>
      </trkpt>
      <trkpt lat="48.50735" lon="7.43138">
        <ele>336.63125610352</ele>
        <time>2017-06-04T09:46:11.000Z</time>
      </trkpt>
      <trkpt lat="48.50732" lon="7.43139">
        <ele>336.66189575195</ele>
        <time>2017-06-04T09:46:13.000Z</time>
      </trkpt>
      <trkpt lat="48.50728" lon="7.43142">
        <ele>336.63336181641</ele>
        <time>2017-06-04T09:46:16.000Z</time>
      </trkpt>
      <trkpt lat="48.50724" lon="7.43145">
        <ele>336.54806518555</ele>
        <time>2017-06-04T09:46:19.000Z</time>
      </trkpt>
      <trkpt lat="48.50721" lon="7.43145">
        <ele>336.48419189453</ele>
        <time>2017-06-04T09:46:21.000Z</time>
      </trkpt>
      <trkpt lat="48.50717" lon="7.43147">
        <ele>336.42770385742</ele>
        <time>2017-06-04T09:46:24.000Z</time>
      </trkpt>
      <trkpt lat="48.50714" lon="7.43148">
        <ele>336.36441040039</ele>
        <time>2017-06-04T09:46:26.000Z</time>
      </trkpt>
      <trkpt lat="48.50714" lon="7.43148">
        <ele>336.29663085938</ele>
        <time>2017-06-04T09:46:29.000Z</time>
      </trkpt>
      <trkpt lat="48.50714" lon="7.43149">
        <ele>336.25970458984</ele>
        <time>2017-06-04T09:46:36.000Z</time>
      </trkpt>
      <trkpt lat="48.50716" lon="7.43149">
        <ele>336.26165771484</ele>
        <time>2017-06-04T09:46:40.000Z</time>
      </trkpt>
      <trkpt lat="48.50716" lon="7.43148">
        <ele>336.26773071289</ele>
        <time>2017-06-04T09:46:43.000Z</time>
      </trkpt>
      <trkpt lat="48.50716" lon="7.43149">
        <ele>336.31558227539</ele>
        <time>2017-06-04T09:46:50.000Z</time>
      </trkpt>
      <trkpt lat="48.50713" lon="7.43152">
        <ele>336.35754394531</ele>
        <time>2017-06-04T09:46:53.000Z</time>
      </trkpt>
      <trkpt lat="48.50706" lon="7.43155">
        <ele>336.31924438477</ele>
        <time>2017-06-04T09:46:56.000Z</time>
      </trkpt>
      <trkpt lat="48.50698" lon="7.43156">
        <ele>336.19598388672</ele>
        <time>2017-06-04T09:46:59.000Z</time>
      </trkpt>
      <trkpt lat="48.50692" lon="7.43159">
        <ele>336.03060913086</ele>
        <time>2017-06-04T09:47:01.000Z</time>
      </trkpt>
      <trkpt lat="48.50682" lon="7.43163">
        <ele>335.73983764648</ele>
        <time>2017-06-04T09:47:04.000Z</time>
      </trkpt>
      <trkpt lat="48.50674" lon="7.4317">
        <ele>335.36557006836</ele>
        <time>2017-06-04T09:47:07.000Z</time>
      </trkpt>
      <trkpt lat="48.50671" lon="7.43173">
        <ele>334.99771118164</ele>
        <time>2017-06-04T09:47:09.000Z</time>
      </trkpt>
      <trkpt lat="48.50669" lon="7.43175">
        <ele>334.67031860352</ele>
        <time>2017-06-04T09:47:11.000Z</time>
      </trkpt>
      <trkpt lat="48.50668" lon="7.43177">
        <ele>334.36953735352</ele>
        <time>2017-06-04T09:47:13.000Z</time>
      </trkpt>
      <trkpt lat="48.50665" lon="7.43179">
        <ele>334.10165405273</ele>
        <time>2017-06-04T09:47:16.000Z</time>
      </trkpt>
      <trkpt lat="48.50665" lon="7.4318">
        <ele>333.89782714844</ele>
        <time>2017-06-04T09:47:19.000Z</time>
      </trkpt>
      <trkpt lat="48.50664" lon="7.43181">
        <ele>333.7216796875</ele>
        <time>2017-06-04T09:47:21.000Z</time>
      </trkpt>
      <trkpt lat="48.50663" lon="7.43182">
        <ele>333.55834960938</ele>
        <time>2017-06-04T09:47:26.000Z</time>
      </trkpt>
      <trkpt lat="48.50663" lon="7.43184">
        <ele>333.42108154297</ele>
        <time>2017-06-04T09:47:29.000Z</time>
      </trkpt>
      <trkpt lat="48.50663" lon="7.43185">
        <ele>333.31915283203</ele>
        <time>2017-06-04T09:47:34.000Z</time>
      </trkpt>
      <trkpt lat="48.50663" lon="7.43184">
        <ele>333.24969482422</ele>
        <time>2017-06-04T09:47:42.000Z</time>
      </trkpt>
      <trkpt lat="48.50663" lon="7.43184">
        <ele>333.24969482422</ele>
        <time>2017-06-04T09:48:02.000Z</time>
      </trkpt>
      <trkpt lat="48.50661" lon="7.43184">
        <ele>333.16748046875</ele>
        <time>2017-06-04T09:49:09.000Z</time>
      </trkpt>
      <trkpt lat="48.50661" lon="7.43184">
        <ele>333.16748046875</ele>
        <time>2017-06-04T09:49:29.000Z</time>
      </trkpt>
      <trkpt lat="48.50661" lon="7.43182">
        <ele>333.10760498047</ele>
        <time>2017-06-04T09:49:47.000Z</time>
      </trkpt>
      <trkpt lat="48.50662" lon="7.43183">
        <ele>333.0859375</ele>
        <time>2017-06-04T09:50:04.000Z</time>
      </trkpt>
      <trkpt lat="48.50662" lon="7.43183">
        <ele>333.0859375</ele>
        <time>2017-06-04T09:50:24.000Z</time>
      </trkpt>
      <trkpt lat="48.50664" lon="7.43182">
        <ele>333.13088989258</ele>
        <time>2017-06-04T09:50:36.000Z</time>
      </trkpt>
      <trkpt lat="48.50666" lon="7.43184">
        <ele>333.25323486328</ele>
        <time>2017-06-04T09:50:38.000Z</time>
      </trkpt>
      <trkpt lat="48.50671" lon="7.43187">
        <ele>333.49578857422</ele>
        <time>2017-06-04T09:50:41.000Z</time>
      </trkpt>
      <trkpt lat="48.50677" lon="7.43188">
        <ele>333.82580566406</ele>
        <time>2017-06-04T09:50:44.000Z</time>
      </trkpt>
      <trkpt lat="48.50681" lon="7.43189">
        <ele>334.18786621094</ele>
        <time>2017-06-04T09:50:46.000Z</time>
      </trkpt>
      <trkpt lat="48.50684" lon="7.43189">
        <ele>334.58609008789</ele>
        <time>2017-06-04T09:50:49.000Z</time>
      </trkpt>
      <trkpt lat="48.50688" lon="7.43189">
        <ele>334.96157836914</ele>
        <time>2017-06-04T09:50:52.000Z</time>
      </trkpt>
      <trkpt lat="48.5069" lon="7.43189">
        <ele>335.30645751953</ele>
        <time>2017-06-04T09:50:54.000Z</time>
      </trkpt>
      <trkpt lat="48.50693" lon="7.43189">
        <ele>335.60382080078</ele>
        <time>2017-06-04T09:50:56.000Z</time>
      </trkpt>
      <trkpt lat="48.50697" lon="7.43192">
        <ele>335.92398071289</ele>
        <time>2017-06-04T09:50:59.000Z</time>
      </trkpt>
      <trkpt lat="48.50702" lon="7.43196">
        <ele>336.26177978516</ele>
        <time>2017-06-04T09:51:02.000Z</time>
      </trkpt>
      <trkpt lat="48.50706" lon="7.432">
        <ele>336.64416503906</ele>
        <time>2017-06-04T09:51:05.000Z</time>
      </trkpt>
      <trkpt lat="48.50708" lon="7.43203">
        <ele>337.02325439453</ele>
        <time>2017-06-04T09:51:07.000Z</time>
      </trkpt>
      <trkpt lat="48.50708" lon="7.43211">
        <ele>337.39248657227</ele>
        <time>2017-06-04T09:51:10.000Z</time>
      </trkpt>
      <trkpt lat="48.50709" lon="7.43218">
        <ele>337.74111938477</ele>
        <time>2017-06-04T09:51:13.000Z</time>
      </trkpt>
      <trkpt lat="48.5071" lon="7.43223">
        <ele>338.05267333984</ele>
        <time>2017-06-04T09:51:15.000Z</time>
      </trkpt>
      <trkpt lat="48.50709" lon="7.43231">
        <ele>338.26428222656</ele>
        <time>2017-06-04T09:51:18.000Z</time>
      </trkpt>
      <trkpt lat="48.50708" lon="7.43238">
        <ele>338.42852783203</ele>
        <time>2017-06-04T09:51:20.000Z</time>
      </trkpt>
      <trkpt lat="48.50707" lon="7.43245">
        <ele>338.56713867188</ele>
        <time>2017-06-04T09:51:22.000Z</time>
      </trkpt>
      <trkpt lat="48.50706" lon="7.43257">
        <ele>338.64605712891</ele>
        <time>2017-06-04T09:51:25.000Z</time>
      </trkpt>
      <trkpt lat="48.50706" lon="7.43264">
        <ele>338.67034912109</ele>
        <time>2017-06-04T09:51:27.000Z</time>
      </trkpt>
      <trkpt lat="48.50706" lon="7.43269">
        <ele>338.69061279297</ele>
        <time>2017-06-04T09:51:29.000Z</time>
      </trkpt>
      <trkpt lat="48.50706" lon="7.43278">
        <ele>338.69808959961</ele>
        <time>2017-06-04T09:51:32.000Z</time>
      </trkpt>
      <trkpt lat="48.50705" lon="7.43282">
        <ele>338.671875</ele>
        <time>2017-06-04T09:51:34.000Z</time>
      </trkpt>
      <trkpt lat="48.50705" lon="7.4329">
        <ele>338.63671875</ele>
        <time>2017-06-04T09:51:37.000Z</time>
      </trkpt>
      <trkpt lat="48.50705" lon="7.43296">
        <ele>338.58984375</ele>
        <time>2017-06-04T09:51:39.000Z</time>
      </trkpt>
      <trkpt lat="48.50705" lon="7.43302">
        <ele>338.54296875</ele>
        <time>2017-06-04T09:51:41.000Z</time>
      </trkpt>
      <trkpt lat="48.50705" lon="7.43312">
        <ele>338.5078125</ele>
        <time>2017-06-04T09:51:44.000Z</time>
      </trkpt>
      <trkpt lat="48.50705" lon="7.43319">
        <ele>338.49609375</ele>
        <time>2017-06-04T09:51:46.000Z</time>
      </trkpt>
      <trkpt lat="48.50705" lon="7.43327">
        <ele>338.484375</ele>
        <time>2017-06-04T09:51:48.000Z</time>
      </trkpt>
      <trkpt lat="48.50706" lon="7.43341">
        <ele>338.49926757812</ele>
        <time>2017-06-04T09:51:51.000Z</time>
      </trkpt>
      <trkpt lat="48.50708" lon="7.4335">
        <ele>338.5615234375</ele>
        <time>2017-06-04T09:51:53.000Z</time>
      </trkpt>
      <trkpt lat="48.50712" lon="7.43361">
        <ele>338.73574829102</ele>
        <time>2017-06-04T09:51:56.000Z</time>
      </trkpt>
      <trkpt lat="48.50717" lon="7.43372">
        <ele>339.03176879883</ele>
        <time>2017-06-04T09:51:59.000Z</time>
      </trkpt>
      <trkpt lat="48.50721" lon="7.43379">
        <ele>339.41778564453</ele>
        <time>2017-06-04T09:52:01.000Z</time>
      </trkpt>
      <trkpt lat="48.50727" lon="7.43389">
        <ele>339.95086669922</ele>
        <time>2017-06-04T09:52:04.000Z</time>
      </trkpt>
      <trkpt lat="48.50732" lon="7.43394">
        <ele>340.54833984375</ele>
        <time>2017-06-04T09:52:06.000Z</time>
      </trkpt>
      <trkpt lat="48.50736" lon="7.43399">
        <ele>341.13391113281</ele>
        <time>2017-06-04T09:52:08.000Z</time>
      </trkpt>
      <trkpt lat="48.50742" lon="7.43407">
        <ele>341.75659179688</ele>
        <time>2017-06-04T09:52:11.000Z</time>
      </trkpt>
      <trkpt lat="48.50747" lon="7.43417">
        <ele>342.39434814453</ele>
        <time>2017-06-04T09:52:14.000Z</time>
      </trkpt>
      <trkpt lat="48.50751" lon="7.43431">
        <ele>342.91024780273</ele>
        <time>2017-06-04T09:52:17.000Z</time>
      </trkpt>
      <trkpt lat="48.50757" lon="7.43445">
        <ele>343.26345825195</ele>
        <time>2017-06-04T09:52:20.000Z</time>
      </trkpt>
      <trkpt lat="48.50762" lon="7.43459">
        <ele>343.46096801758</ele>
        <time>2017-06-04T09:52:23.000Z</time>
      </trkpt>
      <trkpt lat="48.50763" lon="7.4347">
        <ele>343.46551513672</ele>
        <time>2017-06-04T09:52:25.000Z</time>
      </trkpt>
      <trkpt lat="48.50764" lon="7.43486">
        <ele>343.31494140625</ele>
        <time>2017-06-04T09:52:28.000Z</time>
      </trkpt>
      <trkpt lat="48.50765" lon="7.43503">
        <ele>343.05462646484</ele>
        <time>2017-06-04T09:52:31.000Z</time>
      </trkpt>
      <trkpt lat="48.50767" lon="7.43514">
        <ele>342.74844360352</ele>
        <time>2017-06-04T09:52:33.000Z</time>
      </trkpt>
      <trkpt lat="48.50768" lon="7.43527">
        <ele>342.38861083984</ele>
        <time>2017-06-04T09:52:35.000Z</time>
      </trkpt>
      <trkpt lat="48.50768" lon="7.4354">
        <ele>341.96127319336</ele>
        <time>2017-06-04T09:52:37.000Z</time>
      </trkpt>
      <trkpt lat="48.50773" lon="7.43557">
        <ele>341.44854736328</ele>
        <time>2017-06-04T09:52:40.000Z</time>
      </trkpt>
      <trkpt lat="48.50783" lon="7.43571">
        <ele>340.91201782227</ele>
        <time>2017-06-04T09:52:43.000Z</time>
      </trkpt>
      <trkpt lat="48.50791" lon="7.4358">
        <ele>340.42700195312</ele>
        <time>2017-06-04T09:52:46.000Z</time>
      </trkpt>
      <trkpt lat="48.50796" lon="7.4359">
        <ele>340.0305480957</ele>
        <time>2017-06-04T09:52:48.000Z</time>
      </trkpt>
      <trkpt lat="48.50802" lon="7.436">
        <ele>339.73251342773</ele>
        <time>2017-06-04T09:52:50.000Z</time>
      </trkpt>
      <trkpt lat="48.50812" lon="7.43614">
        <ele>339.58474731445</ele>
        <time>2017-06-04T09:52:53.000Z</time>
      </trkpt>
      <trkpt lat="48.50817" lon="7.43626">
        <ele>339.54174804688</ele>
        <time>2017-06-04T09:52:55.000Z</time>
      </trkpt>
      <trkpt lat="48.50821" lon="7.4364">
        <ele>339.55142211914</ele>
        <time>2017-06-04T09:52:57.000Z</time>
      </trkpt>
      <trkpt lat="48.50828" lon="7.43663">
        <ele>339.61645507812</ele>
        <time>2017-06-04T09:53:00.000Z</time>
      </trkpt>
      <trkpt lat="48.50834" lon="7.43679">
        <ele>339.65176391602</ele>
        <time>2017-06-04T09:53:02.000Z</time>
      </trkpt>
      <trkpt lat="48.50846" lon="7.43704">
        <ele>339.33477783203</ele>
        <time>2017-06-04T09:53:05.000Z</time>
      </trkpt>
      <trkpt lat="48.50855" lon="7.43732">
        <ele>338.78579711914</ele>
        <time>2017-06-04T09:53:08.000Z</time>
      </trkpt>
      <trkpt lat="48.50859" lon="7.43751">
        <ele>338.14901733398</ele>
        <time>2017-06-04T09:53:10.000Z</time>
      </trkpt>
      <trkpt lat="48.50861" lon="7.4377">
        <ele>337.33923339844</ele>
        <time>2017-06-04T09:53:12.000Z</time>
      </trkpt>
      <trkpt lat="48.50859" lon="7.43777">
        <ele>336.54632568359</ele>
        <time>2017-06-04T09:53:15.000Z</time>
      </trkpt>
      <trkpt lat="48.50855" lon="7.43778">
        <ele>336.12130737305</ele>
        <time>2017-06-04T09:53:18.000Z</time>
      </trkpt>
      <trkpt lat="48.50853" lon="7.43778">
        <ele>335.94570922852</ele>
        <time>2017-06-04T09:53:20.000Z</time>
      </trkpt>
      <trkpt lat="48.50852" lon="7.43777">
        <ele>335.86672973633</ele>
        <time>2017-06-04T09:53:22.000Z</time>
      </trkpt>
      <trkpt lat="48.50852" lon="7.43777">
        <ele>335.86672973633</ele>
        <time>2017-06-04T09:53:42.000Z</time>
      </trkpt>
      <trkpt lat="48.50852" lon="7.43779">
        <ele>335.91595458984</ele>
        <time>2017-06-04T09:54:06.000Z</time>
      </trkpt>
      <trkpt lat="48.50851" lon="7.4378">
        <ele>335.98452758789</ele>
        <time>2017-06-04T09:54:08.000Z</time>
      </trkpt>
      <trkpt lat="48.50844" lon="7.4378">
        <ele>336.08502197266</ele>
        <time>2017-06-04T09:54:11.000Z</time>
      </trkpt>
      <trkpt lat="48.50838" lon="7.43781">
        <ele>336.21130371094</ele>
        <time>2017-06-04T09:54:13.000Z</time>
      </trkpt>
      <trkpt lat="48.5083" lon="7.43782">
        <ele>336.30752563477</ele>
        <time>2017-06-04T09:54:16.000Z</time>
      </trkpt>
      <trkpt lat="48.50824" lon="7.43782">
        <ele>336.29998779297</ele>
        <time>2017-06-04T09:54:18.000Z</time>
      </trkpt>
      <trkpt lat="48.50818" lon="7.43782">
        <ele>336.16314697266</ele>
        <time>2017-06-04T09:54:20.000Z</time>
      </trkpt>
      <trkpt lat="48.50807" lon="7.43782">
        <ele>335.74676513672</ele>
        <time>2017-06-04T09:54:23.000Z</time>
      </trkpt>
      <trkpt lat="48.50798" lon="7.43782">
        <ele>335.09967041016</ele>
        <time>2017-06-04T09:54:25.000Z</time>
      </trkpt>
      <trkpt lat="48.50782" lon="7.43781">
        <ele>334.16357421875</ele>
        <time>2017-06-04T09:54:28.000Z</time>
      </trkpt>
      <trkpt lat="48.50768" lon="7.43778">
        <ele>333.09982299805</ele>
        <time>2017-06-04T09:54:30.000Z</time>
      </trkpt>
      <trkpt lat="48.50744" lon="7.43772">
        <ele>331.67221069336</ele>
        <time>2017-06-04T09:54:33.000Z</time>
      </trkpt>
      <trkpt lat="48.50732" lon="7.43768">
        <ele>330.00860595703</ele>
        <time>2017-06-04T09:54:35.000Z</time>
      </trkpt>
      <trkpt lat="48.50721" lon="7.43772">
        <ele>328.05639648438</ele>
        <time>2017-06-04T09:54:38.000Z</time>
      </trkpt>
      <trkpt lat="48.50722" lon="7.43788">
        <ele>326.19940185547</ele>
        <time>2017-06-04T09:54:41.000Z</time>
      </trkpt>
      <trkpt lat="48.50724" lon="7.438">
        <ele>324.48681640625</ele>
        <time>2017-06-04T09:54:43.000Z</time>
      </trkpt>
      <trkpt lat="48.50728" lon="7.4382">
        <ele>323.13940429688</ele>
        <time>2017-06-04T09:54:46.000Z</time>
      </trkpt>
      <trkpt lat="48.50734" lon="7.43843">
        <ele>322.15777587891</ele>
        <time>2017-06-04T09:54:49.000Z</time>
      </trkpt>
      <trkpt lat="48.50741" lon="7.43863">
        <ele>321.57473754883</ele>
        <time>2017-06-04T09:54:52.000Z</time>
      </trkpt>
      <trkpt lat="48.5075" lon="7.43876">
        <ele>321.34692382812</ele>
        <time>2017-06-04T09:54:55.000Z</time>
      </trkpt>
      <trkpt lat="48.50756" lon="7.43885">
        <ele>321.22125244141</ele>
        <time>2017-06-04T09:54:58.000Z</time>
      </trkpt>
      <trkpt lat="48.5076" lon="7.43893">
        <ele>321.21960449219</ele>
        <time>2017-06-04T09:55:00.000Z</time>
      </trkpt>
      <trkpt lat="48.50762" lon="7.43901">
        <ele>321.25463867188</ele>
        <time>2017-06-04T09:55:02.000Z</time>
      </trkpt>
      <trkpt lat="48.50765" lon="7.43911">
        <ele>321.32043457031</ele>
        <time>2017-06-04T09:55:04.000Z</time>
      </trkpt>
      <trkpt lat="48.5077" lon="7.43924">
        <ele>321.19769287109</ele>
        <time>2017-06-04T09:55:07.000Z</time>
      </trkpt>
      <trkpt lat="48.50775" lon="7.43937">
        <ele>321.02838134766</ele>
        <time>2017-06-04T09:55:10.000Z</time>
      </trkpt>
      <trkpt lat="48.50778" lon="7.43952">
        <ele>320.77188110352</ele>
        <time>2017-06-04T09:55:13.000Z</time>
      </trkpt>
      <trkpt lat="48.50781" lon="7.43966">
        <ele>320.48080444336</ele>
        <time>2017-06-04T09:55:16.000Z</time>
      </trkpt>
      <trkpt lat="48.50784" lon="7.4398">
        <ele>320.15539550781</ele>
        <time>2017-06-04T09:55:19.000Z</time>
      </trkpt>
      <trkpt lat="48.50787" lon="7.4399">
        <ele>319.87823486328</ele>
        <time>2017-06-04T09:55:21.000Z</time>
      </trkpt>
      <trkpt lat="48.50792" lon="7.44002">
        <ele>319.71420288086</ele>
        <time>2017-06-04T09:55:24.000Z</time>
      </trkpt>
      <trkpt lat="48.50796" lon="7.44011">
        <ele>319.75762939453</ele>
        <time>2017-06-04T09:55:26.000Z</time>
      </trkpt>
      <trkpt lat="48.50802" lon="7.44023">
        <ele>320.07928466797</ele>
        <time>2017-06-04T09:55:29.000Z</time>
      </trkpt>
      <trkpt lat="48.5081" lon="7.44031">
        <ele>320.76272583008</ele>
        <time>2017-06-04T09:55:32.000Z</time>
      </trkpt>
      <trkpt lat="48.50817" lon="7.44038">
        <ele>321.72540283203</ele>
        <time>2017-06-04T09:55:35.000Z</time>
      </trkpt>
      <trkpt lat="48.5082" lon="7.44044">
        <ele>322.74005126953</ele>
        <time>2017-06-04T09:55:37.000Z</time>
      </trkpt>
      <trkpt lat="48.50822" lon="7.44051">
        <ele>323.66143798828</ele>
        <time>2017-06-04T09:55:39.000Z</time>
      </trkpt>
      <trkpt lat="48.50824" lon="7.44058">
        <ele>324.4375</ele>
        <time>2017-06-04T09:55:41.000Z</time>
      </trkpt>
      <trkpt lat="48.50827" lon="7.44069">
        <ele>325.00985717773</ele>
        <time>2017-06-04T09:55:44.000Z</time>
      </trkpt>
      <trkpt lat="48.50832" lon="7.44077">
        <ele>325.51324462891</ele>
        <time>2017-06-04T09:55:47.000Z</time>
      </trkpt>
      <trkpt lat="48.50834" lon="7.4408">
        <ele>325.98846435547</ele>
        <time>2017-06-04T09:55:49.000Z</time>
      </trkpt>
      <trkpt lat="48.50838" lon="7.44085">
        <ele>326.50073242188</ele>
        <time>2017-06-04T09:55:52.000Z</time>
      </trkpt>
      <trkpt lat="48.5084" lon="7.44095">
        <ele>326.95401000977</ele>
        <time>2017-06-04T09:55:55.000Z</time>
      </trkpt>
      <trkpt lat="48.50843" lon="7.44103">
        <ele>327.35021972656</ele>
        <time>2017-06-04T09:55:58.000Z</time>
      </trkpt>
      <trkpt lat="48.50846" lon="7.44109">
        <ele>327.54956054688</ele>
        <time>2017-06-04T09:56:00.000Z</time>
      </trkpt>
      <trkpt lat="48.50848" lon="7.44113">
        <ele>327.69927978516</ele>
        <time>2017-06-04T09:56:02.000Z</time>
      </trkpt>
      <trkpt lat="48.50852" lon="7.44117">
        <ele>327.87857055664</ele>
        <time>2017-06-04T09:56:05.000Z</time>
      </trkpt>
      <trkpt lat="48.50853" lon="7.44119">
        <ele>328.11401367188</ele>
        <time>2017-06-04T09:56:07.000Z</time>
      </trkpt>
      <trkpt lat="48.50855" lon="7.4412">
        <ele>328.37957763672</ele>
        <time>2017-06-04T09:56:09.000Z</time>
      </trkpt>
      <trkpt lat="48.50856" lon="7.44121">
        <ele>328.66156005859</ele>
        <time>2017-06-04T09:56:20.000Z</time>
      </trkpt>
      <trkpt lat="48.50858" lon="7.44121">
        <ele>328.93536376953</ele>
        <time>2017-06-04T09:56:22.000Z</time>
      </trkpt>
      <trkpt lat="48.5086" lon="7.44123">
        <ele>329.17724609375</ele>
        <time>2017-06-04T09:56:25.000Z</time>
      </trkpt>
      <trkpt lat="48.50863" lon="7.44125">
        <ele>329.458984375</ele>
        <time>2017-06-04T09:56:28.000Z</time>
      </trkpt>
      <trkpt lat="48.50864" lon="7.44127">
        <ele>329.70993041992</ele>
        <time>2017-06-04T09:56:30.000Z</time>
      </trkpt>
      <trkpt lat="48.50866" lon="7.44131">
        <ele>329.99212646484</ele>
        <time>2017-06-04T09:56:33.000Z</time>
      </trkpt>
      <trkpt lat="48.50867" lon="7.44134">
        <ele>330.25335693359</ele>
        <time>2017-06-04T09:56:35.000Z</time>
      </trkpt>
      <trkpt lat="48.50867" lon="7.44135">
        <ele>330.46011352539</ele>
        <time>2017-06-04T09:56:40.000Z</time>
      </trkpt>
      <trkpt lat="48.50867" lon="7.44143">
        <ele>330.54638671875</ele>
        <time>2017-06-04T09:56:43.000Z</time>
      </trkpt>
      <trkpt lat="48.50869" lon="7.44151">
        <ele>330.64447021484</ele>
        <time>2017-06-04T09:56:46.000Z</time>
      </trkpt>
      <trkpt lat="48.50871" lon="7.44156">
        <ele>330.68438720703</ele>
        <time>2017-06-04T09:56:48.000Z</time>
      </trkpt>
      <trkpt lat="48.50872" lon="7.44161">
        <ele>330.75064086914</ele>
        <time>2017-06-04T09:56:50.000Z</time>
      </trkpt>
      <trkpt lat="48.50873" lon="7.44169">
        <ele>330.83676147461</ele>
        <time>2017-06-04T09:56:53.000Z</time>
      </trkpt>
      <trkpt lat="48.50874" lon="7.44174">
        <ele>331.00836181641</ele>
        <time>2017-06-04T09:56:55.000Z</time>
      </trkpt>
      <trkpt lat="48.50876" lon="7.44179">
        <ele>331.18804931641</ele>
        <time>2017-06-04T09:56:57.000Z</time>
      </trkpt>
      <trkpt lat="48.50877" lon="7.44185">
        <ele>331.42620849609</ele>
        <time>2017-06-04T09:57:00.000Z</time>
      </trkpt>
      <trkpt lat="48.5088" lon="7.44192">
        <ele>331.72521972656</ele>
        <time>2017-06-04T09:57:03.000Z</time>
      </trkpt>
      <trkpt lat="48.5088" lon="7.44197">
        <ele>332.03405761719</ele>
        <time>2017-06-04T09:57:05.000Z</time>
      </trkpt>
      <trkpt lat="48.50882" lon="7.44206">
        <ele>332.34838867188</ele>
        <time>2017-06-04T09:57:08.000Z</time>
      </trkpt>
      <trkpt lat="48.50882" lon="7.44212">
        <ele>332.63220214844</ele>
        <time>2017-06-04T09:57:10.000Z</time>
      </trkpt>
      <trkpt lat="48.50885" lon="7.44222">
        <ele>332.9951171875</ele>
        <time>2017-06-04T09:57:13.000Z</time>
      </trkpt>
      <trkpt lat="48.50887" lon="7.44227">
        <ele>333.34686279297</ele>
        <time>2017-06-04T09:57:15.000Z</time>
      </trkpt>
      <trkpt lat="48.50888" lon="7.44233">
        <ele>333.70306396484</ele>
        <time>2017-06-04T09:57:17.000Z</time>
      </trkpt>
      <trkpt lat="48.50889" lon="7.44239">
        <ele>334.02679443359</ele>
        <time>2017-06-04T09:57:19.000Z</time>
      </trkpt>
      <trkpt lat="48.50892" lon="7.4425">
        <ele>334.4873046875</ele>
        <time>2017-06-04T09:57:22.000Z</time>
      </trkpt>
      <trkpt lat="48.50893" lon="7.44264">
        <ele>334.85641479492</ele>
        <time>2017-06-04T09:57:25.000Z</time>
      </trkpt>
      <trkpt lat="48.5089" lon="7.4428">
        <ele>334.93743896484</ele>
        <time>2017-06-04T09:57:28.000Z</time>
      </trkpt>
      <trkpt lat="48.5089" lon="7.44295">
        <ele>334.95516967773</ele>
        <time>2017-06-04T09:57:31.000Z</time>
      </trkpt>
      <trkpt lat="48.50893" lon="7.44308">
        <ele>335.0696105957</ele>
        <time>2017-06-04T09:57:34.000Z</time>
      </trkpt>
      <trkpt lat="48.50896" lon="7.44322">
        <ele>335.16949462891</ele>
        <time>2017-06-04T09:57:37.000Z</time>
      </trkpt>
      <trkpt lat="48.50897" lon="7.44331">
        <ele>335.26440429688</ele>
        <time>2017-06-04T09:57:39.000Z</time>
      </trkpt>
      <trkpt lat="48.50901" lon="7.44343">
        <ele>335.71588134766</ele>
        <time>2017-06-04T09:57:42.000Z</time>
      </trkpt>
      <trkpt lat="48.50903" lon="7.44352">
        <ele>336.33364868164</ele>
        <time>2017-06-04T09:57:45.000Z</time>
      </trkpt>
      <trkpt lat="48.50903" lon="7.44362">
        <ele>336.81146240234</ele>
        <time>2017-06-04T09:57:47.000Z</time>
      </trkpt>
      <trkpt lat="48.50904" lon="7.44374">
        <ele>337.22909545898</ele>
        <time>2017-06-04T09:57:50.000Z</time>
      </trkpt>
      <trkpt lat="48.50905" lon="7.44387">
        <ele>337.6162109375</ele>
        <time>2017-06-04T09:57:53.000Z</time>
      </trkpt>
      <trkpt lat="48.50904" lon="7.44399">
        <ele>337.7802734375</ele>
        <time>2017-06-04T09:57:56.000Z</time>
      </trkpt>
      <trkpt lat="48.50903" lon="7.44406">
        <ele>337.759765625</ele>
        <time>2017-06-04T09:57:58.000Z</time>
      </trkpt>
      <trkpt lat="48.50902" lon="7.44415">
        <ele>337.71875</ele>
        <time>2017-06-04T09:58:00.000Z</time>
      </trkpt>
      <trkpt lat="48.50901" lon="7.44431">
        <ele>337.59210205078</ele>
        <time>2017-06-04T09:58:03.000Z</time>
      </trkpt>
      <trkpt lat="48.50901" lon="7.44446">
        <ele>337.44903564453</ele>
        <time>2017-06-04T09:58:06.000Z</time>
      </trkpt>
      <trkpt lat="48.50901" lon="7.44464">
        <ele>337.41662597656</ele>
        <time>2017-06-04T09:58:09.000Z</time>
      </trkpt>
      <trkpt lat="48.50901" lon="7.44476">
        <ele>337.47711181641</ele>
        <time>2017-06-04T09:58:11.000Z</time>
      </trkpt>
      <trkpt lat="48.509" lon="7.4449">
        <ele>337.58477783203</ele>
        <time>2017-06-04T09:58:13.000Z</time>
      </trkpt>
      <trkpt lat="48.50899" lon="7.44509">
        <ele>337.685546875</ele>
        <time>2017-06-04T09:58:16.000Z</time>
      </trkpt>
      <trkpt lat="48.50897" lon="7.44521">
        <ele>337.71655273438</ele>
        <time>2017-06-04T09:58:18.000Z</time>
      </trkpt>
      <trkpt lat="48.50892" lon="7.44543">
        <ele>337.55535888672</ele>
        <time>2017-06-04T09:58:21.000Z</time>
      </trkpt>
      <trkpt lat="48.50888" lon="7.44574">
        <ele>337.21243286133</ele>
        <time>2017-06-04T09:58:24.000Z</time>
      </trkpt>
      <trkpt lat="48.50887" lon="7.44608">
        <ele>336.7848815918</ele>
        <time>2017-06-04T09:58:27.000Z</time>
      </trkpt>
      <trkpt lat="48.50886" lon="7.44629">
        <ele>336.27606201172</ele>
        <time>2017-06-04T09:58:29.000Z</time>
      </trkpt>
      <trkpt lat="48.50878" lon="7.44649">
        <ele>335.52420043945</ele>
        <time>2017-06-04T09:58:32.000Z</time>
      </trkpt>
      <trkpt lat="48.50878" lon="7.44657">
        <ele>334.88323974609</ele>
        <time>2017-06-04T09:58:35.000Z</time>
      </trkpt>
      <trkpt lat="48.50879" lon="7.44658">
        <ele>334.39685058594</ele>
        <time>2017-06-04T09:58:37.000Z</time>
      </trkpt>
      <trkpt lat="48.5088" lon="7.44663">
        <ele>334.04675292969</ele>
        <time>2017-06-04T09:58:40.000Z</time>
      </trkpt>
      <trkpt lat="48.50883" lon="7.44668">
        <ele>333.83163452148</ele>
        <time>2017-06-04T09:58:42.000Z</time>
      </trkpt>
      <trkpt lat="48.50884" lon="7.44672">
        <ele>333.92611694336</ele>
        <time>2017-06-04T09:58:44.000Z</time>
      </trkpt>
      <trkpt lat="48.50886" lon="7.44674">
        <ele>334.09237670898</ele>
        <time>2017-06-04T09:58:46.000Z</time>
      </trkpt>
      <trkpt lat="48.50888" lon="7.44679">
        <ele>334.24514770508</ele>
        <time>2017-06-04T09:58:49.000Z</time>
      </trkpt>
      <trkpt lat="48.50891" lon="7.44686">
        <ele>334.37814331055</ele>
        <time>2017-06-04T09:58:52.000Z</time>
      </trkpt>
      <trkpt lat="48.50896" lon="7.44693">
        <ele>334.53567504883</ele>
        <time>2017-06-04T09:58:55.000Z</time>
      </trkpt>
      <trkpt lat="48.50899" lon="7.44703">
        <ele>334.65692138672</ele>
        <time>2017-06-04T09:58:58.000Z</time>
      </trkpt>
      <trkpt lat="48.50903" lon="7.44711">
        <ele>334.74462890625</ele>
        <time>2017-06-04T09:59:00.000Z</time>
      </trkpt>
      <trkpt lat="48.50911" lon="7.44721">
        <ele>334.91070556641</ele>
        <time>2017-06-04T09:59:03.000Z</time>
      </trkpt>
      <trkpt lat="48.50918" lon="7.44727">
        <ele>335.12243652344</ele>
        <time>2017-06-04T09:59:06.000Z</time>
      </trkpt>
      <trkpt lat="48.50923" lon="7.44729">
        <ele>335.29205322266</ele>
        <time>2017-06-04T09:59:08.000Z</time>
      </trkpt>
      <trkpt lat="48.50931" lon="7.44731">
        <ele>335.55297851562</ele>
        <time>2017-06-04T09:59:11.000Z</time>
      </trkpt>
      <trkpt lat="48.50935" lon="7.44733">
        <ele>335.8173828125</ele>
        <time>2017-06-04T09:59:13.000Z</time>
      </trkpt>
      <trkpt lat="48.50941" lon="7.44737">
        <ele>335.99008178711</ele>
        <time>2017-06-04T09:59:16.000Z</time>
      </trkpt>
      <trkpt lat="48.50949" lon="7.44744">
        <ele>336.05694580078</ele>
        <time>2017-06-04T09:59:19.000Z</time>
      </trkpt>
      <trkpt lat="48.50955" lon="7.44752">
        <ele>336.03112792969</ele>
        <time>2017-06-04T09:59:22.000Z</time>
      </trkpt>
      <trkpt lat="48.50962" lon="7.44764">
        <ele>335.86224365234</ele>
        <time>2017-06-04T09:59:25.000Z</time>
      </trkpt>
      <trkpt lat="48.50967" lon="7.44773">
        <ele>335.61346435547</ele>
        <time>2017-06-04T09:59:27.000Z</time>
      </trkpt>
      <trkpt lat="48.50977" lon="7.44789">
        <ele>335.23434448242</ele>
        <time>2017-06-04T09:59:30.000Z</time>
      </trkpt>
      <trkpt lat="48.50987" lon="7.44799">
        <ele>334.81924438477</ele>
        <time>2017-06-04T09:59:32.000Z</time>
      </trkpt>
      <trkpt lat="48.50999" lon="7.44811">
        <ele>334.39761352539</ele>
        <time>2017-06-04T09:59:35.000Z</time>
      </trkpt>
      <trkpt lat="48.51016" lon="7.44818">
        <ele>333.97152709961</ele>
        <time>2017-06-04T09:59:38.000Z</time>
      </trkpt>
      <trkpt lat="48.51025" lon="7.44813">
        <ele>333.68267822266</ele>
        <time>2017-06-04T09:59:40.000Z</time>
      </trkpt>
      <trkpt lat="48.51038" lon="7.44805">
        <ele>333.64169311523</ele>
        <time>2017-06-04T09:59:43.000Z</time>
      </trkpt>
      <trkpt lat="48.51048" lon="7.448">
        <ele>333.72338867188</ele>
        <time>2017-06-04T09:59:45.000Z</time>
      </trkpt>
      <trkpt lat="48.51057" lon="7.44795">
        <ele>333.95556640625</ele>
        <time>2017-06-04T09:59:47.000Z</time>
      </trkpt>
      <trkpt lat="48.5107" lon="7.44789">
        <ele>334.37377929688</ele>
        <time>2017-06-04T09:59:50.000Z</time>
      </trkpt>
      <trkpt lat="48.51079" lon="7.44784">
        <ele>334.79052734375</ele>
        <time>2017-06-04T09:59:52.000Z</time>
      </trkpt>
      <trkpt lat="48.51092" lon="7.44777">
        <ele>335.11578369141</ele>
        <time>2017-06-04T09:59:55.000Z</time>
      </trkpt>
      <trkpt lat="48.511" lon="7.44773">
        <ele>335.3503112793</ele>
        <time>2017-06-04T09:59:57.000Z</time>
      </trkpt>
      <trkpt lat="48.5111" lon="7.44771">
        <ele>335.42822265625</ele>
        <time>2017-06-04T09:59:59.000Z</time>
      </trkpt>
      <trkpt lat="48.51118" lon="7.44778">
        <ele>335.27569580078</ele>
        <time>2017-06-04T10:00:01.000Z</time>
      </trkpt>
      <trkpt lat="48.51129" lon="7.44792">
        <ele>334.88836669922</ele>
        <time>2017-06-04T10:00:04.000Z</time>
      </trkpt>
      <trkpt lat="48.51139" lon="7.44806">
        <ele>334.37371826172</ele>
        <time>2017-06-04T10:00:07.000Z</time>
      </trkpt>
      <trkpt lat="48.51147" lon="7.44819">
        <ele>333.84017944336</ele>
        <time>2017-06-04T10:00:09.000Z</time>
      </trkpt>
      <trkpt lat="48.51153" lon="7.44833">
        <ele>333.37811279297</ele>
        <time>2017-06-04T10:00:11.000Z</time>
      </trkpt>
      <trkpt lat="48.51171" lon="7.44852">
        <ele>332.88684082031</ele>
        <time>2017-06-04T10:00:14.000Z</time>
      </trkpt>
      <trkpt lat="48.5118" lon="7.44876">
        <ele>332.30474853516</ele>
        <time>2017-06-04T10:00:17.000Z</time>
      </trkpt>
      <trkpt lat="48.51194" lon="7.44905">
        <ele>331.60711669922</ele>
        <time>2017-06-04T10:00:20.000Z</time>
      </trkpt>
      <trkpt lat="48.51204" lon="7.44926">
        <ele>330.83917236328</ele>
        <time>2017-06-04T10:00:23.000Z</time>
      </trkpt>
      <trkpt lat="48.51213" lon="7.44937">
        <ele>330.00082397461</ele>
        <time>2017-06-04T10:00:25.000Z</time>
      </trkpt>
      <trkpt lat="48.5122" lon="7.44948">
        <ele>329.29547119141</ele>
        <time>2017-06-04T10:00:27.000Z</time>
      </trkpt>
      <trkpt lat="48.51234" lon="7.44964">
        <ele>328.87542724609</ele>
        <time>2017-06-04T10:00:30.000Z</time>
      </trkpt>
      <trkpt lat="48.51242" lon="7.44971">
        <ele>328.72177124023</ele>
        <time>2017-06-04T10:00:32.000Z</time>
      </trkpt>
      <trkpt lat="48.51245" lon="7.44974">
        <ele>328.71365356445</ele>
        <time>2017-06-04T10:00:34.000Z</time>
      </trkpt>
      <trkpt lat="48.51255" lon="7.44973">
        <ele>328.69860839844</ele>
        <time>2017-06-04T10:00:37.000Z</time>
      </trkpt>
      <trkpt lat="48.51262" lon="7.44971">
        <ele>328.55508422852</ele>
        <time>2017-06-04T10:00:39.000Z</time>
      </trkpt>
      <trkpt lat="48.5127" lon="7.4497">
        <ele>328.19677734375</ele>
        <time>2017-06-04T10:00:42.000Z</time>
      </trkpt>
      <trkpt lat="48.51277" lon="7.44968">
        <ele>327.63372802734</ele>
        <time>2017-06-04T10:00:44.000Z</time>
      </trkpt>
      <trkpt lat="48.51305" lon="7.44969">
        <ele>326.46331787109</ele>
        <time>2017-06-04T10:00:48.000Z</time>
      </trkpt>
      <trkpt lat="48.51322" lon="7.44973">
        <ele>325.06463623047</ele>
        <time>2017-06-04T10:00:50.000Z</time>
      </trkpt>
      <trkpt lat="48.51349" lon="7.44978">
        <ele>323.27212524414</ele>
        <time>2017-06-04T10:00:53.000Z</time>
      </trkpt>
      <trkpt lat="48.51369" lon="7.44984">
        <ele>321.29840087891</ele>
        <time>2017-06-04T10:00:55.000Z</time>
      </trkpt>
      <trkpt lat="48.51393" lon="7.44998">
        <ele>319.17358398438</ele>
        <time>2017-06-04T10:00:58.000Z</time>
      </trkpt>
      <trkpt lat="48.51407" lon="7.45015">
        <ele>317.59872436523</ele>
        <time>2017-06-04T10:01:00.000Z</time>
      </trkpt>
      <trkpt lat="48.51425" lon="7.45035">
        <ele>316.22476196289</ele>
        <time>2017-06-04T10:01:03.000Z</time>
      </trkpt>
      <trkpt lat="48.51432" lon="7.45042">
        <ele>315.31314086914</ele>
        <time>2017-06-04T10:01:05.000Z</time>
      </trkpt>
      <trkpt lat="48.5144" lon="7.45049">
        <ele>314.66857910156</ele>
        <time>2017-06-04T10:01:07.000Z</time>
      </trkpt>
      <trkpt lat="48.51454" lon="7.4506">
        <ele>314.08050537109</ele>
        <time>2017-06-04T10:01:10.000Z</time>
      </trkpt>
      <trkpt lat="48.51469" lon="7.45068">
        <ele>313.24243164062</ele>
        <time>2017-06-04T10:01:13.000Z</time>
      </trkpt>
      <trkpt lat="48.51479" lon="7.45081">
        <ele>312.47381591797</ele>
        <time>2017-06-04T10:01:15.000Z</time>
      </trkpt>
      <trkpt lat="48.51488" lon="7.45099">
        <ele>311.88876342773</ele>
        <time>2017-06-04T10:01:18.000Z</time>
      </trkpt>
      <trkpt lat="48.51501" lon="7.45114">
        <ele>311.39614868164</ele>
        <time>2017-06-04T10:01:21.000Z</time>
      </trkpt>
      <trkpt lat="48.51516" lon="7.45132">
        <ele>310.99478149414</ele>
        <time>2017-06-04T10:01:24.000Z</time>
      </trkpt>
      <trkpt lat="48.51527" lon="7.45141">
        <ele>310.65338134766</ele>
        <time>2017-06-04T10:01:26.000Z</time>
      </trkpt>
      <trkpt lat="48.51537" lon="7.45157">
        <ele>310.27593994141</ele>
        <time>2017-06-04T10:01:29.000Z</time>
      </trkpt>
      <trkpt lat="48.51563" lon="7.45184">
        <ele>309.26477050781</ele>
        <time>2017-06-04T10:01:33.000Z</time>
      </trkpt>
      <trkpt lat="48.51575" lon="7.45192">
        <ele>307.88909912109</ele>
        <time>2017-06-04T10:01:35.000Z</time>
      </trkpt>
      <trkpt lat="48.51579" lon="7.45201">
        <ele>306.66110229492</ele>
        <time>2017-06-04T10:01:37.000Z</time>
      </trkpt>
      <trkpt lat="48.51593" lon="7.45213">
        <ele>305.32684326172</ele>
        <time>2017-06-04T10:01:40.000Z</time>
      </trkpt>
      <trkpt lat="48.51609" lon="7.45227">
        <ele>303.68182373047</ele>
        <time>2017-06-04T10:01:43.000Z</time>
      </trkpt>
      <trkpt lat="48.51619" lon="7.45236">
        <ele>302.34985351562</ele>
        <time>2017-06-04T10:01:45.000Z</time>
      </trkpt>
      <trkpt lat="48.5164" lon="7.45254">
        <ele>300.93426513672</ele>
        <time>2017-06-04T10:01:48.000Z</time>
      </trkpt>
      <trkpt lat="48.5167" lon="7.45279">
        <ele>298.94342041016</ele>
        <time>2017-06-04T10:01:51.000Z</time>
      </trkpt>
      <trkpt lat="48.51685" lon="7.45293">
        <ele>297.12976074219</ele>
        <time>2017-06-04T10:01:53.000Z</time>
      </trkpt>
      <trkpt lat="48.51688" lon="7.45313">
        <ele>295.97161865234</ele>
        <time>2017-06-04T10:01:55.000Z</time>
      </trkpt>
      <trkpt lat="48.51699" lon="7.45325">
        <ele>294.91387939453</ele>
        <time>2017-06-04T10:01:57.000Z</time>
      </trkpt>
      <trkpt lat="48.51715" lon="7.45348">
        <ele>294.15008544922</ele>
        <time>2017-06-04T10:02:00.000Z</time>
      </trkpt>
      <trkpt lat="48.51719" lon="7.45363">
        <ele>294.05914306641</ele>
        <time>2017-06-04T10:02:02.000Z</time>
      </trkpt>
      <trkpt lat="48.51725" lon="7.45375">
        <ele>294.05328369141</ele>
        <time>2017-06-04T10:02:04.000Z</time>
      </trkpt>
      <trkpt lat="48.51734" lon="7.45396">
        <ele>293.71685791016</ele>
        <time>2017-06-04T10:02:07.000Z</time>
      </trkpt>
      <trkpt lat="48.51738" lon="7.45415">
        <ele>293.56076049805</ele>
        <time>2017-06-04T10:02:10.000Z</time>
      </trkpt>
      <trkpt lat="48.51743" lon="7.45432">
        <ele>293.72387695312</ele>
        <time>2017-06-04T10:02:12.000Z</time>
      </trkpt>
      <trkpt lat="48.51749" lon="7.45449">
        <ele>293.8932800293</ele>
        <time>2017-06-04T10:02:15.000Z</time>
      </trkpt>
      <trkpt lat="48.51754" lon="7.45462">
        <ele>294.17068481445</ele>
        <time>2017-06-04T10:02:18.000Z</time>
      </trkpt>
      <trkpt lat="48.51764" lon="7.45476">
        <ele>294.40591430664</ele>
        <time>2017-06-04T10:02:21.000Z</time>
      </trkpt>
      <trkpt lat="48.5177" lon="7.45482">
        <ele>294.44772338867</ele>
        <time>2017-06-04T10:02:23.000Z</time>
      </trkpt>
      <trkpt lat="48.51775" lon="7.4549">
        <ele>294.29806518555</ele>
        <time>2017-06-04T10:02:25.000Z</time>
      </trkpt>
      <trkpt lat="48.51785" lon="7.45505">
        <ele>293.8359375</ele>
        <time>2017-06-04T10:02:28.000Z</time>
      </trkpt>
      <trkpt lat="48.51789" lon="7.45515">
        <ele>293.30572509766</ele>
        <time>2017-06-04T10:02:30.000Z</time>
      </trkpt>
      <trkpt lat="48.51799" lon="7.45535">
        <ele>292.78875732422</ele>
        <time>2017-06-04T10:02:33.000Z</time>
      </trkpt>
      <trkpt lat="48.51808" lon="7.45553">
        <ele>292.2868347168</ele>
        <time>2017-06-04T10:02:36.000Z</time>
      </trkpt>
      <trkpt lat="48.51815" lon="7.45559">
        <ele>291.59741210938</ele>
        <time>2017-06-04T10:02:38.000Z</time>
      </trkpt>
      <trkpt lat="48.51824" lon="7.4557">
        <ele>290.90307617188</ele>
        <time>2017-06-04T10:02:40.000Z</time>
      </trkpt>
      <trkpt lat="48.51835" lon="7.45581">
        <ele>289.93612670898</ele>
        <time>2017-06-04T10:02:42.000Z</time>
      </trkpt>
      <trkpt lat="48.51853" lon="7.45604">
        <ele>288.91342163086</ele>
        <time>2017-06-04T10:02:45.000Z</time>
      </trkpt>
      <trkpt lat="48.51862" lon="7.45622">
        <ele>288.05856323242</ele>
        <time>2017-06-04T10:02:47.000Z</time>
      </trkpt>
      <trkpt lat="48.51873" lon="7.45642">
        <ele>287.40936279297</ele>
        <time>2017-06-04T10:02:49.000Z</time>
      </trkpt>
      <trkpt lat="48.51884" lon="7.45666">
        <ele>287.01971435547</ele>
        <time>2017-06-04T10:02:52.000Z</time>
      </trkpt>
      <trkpt lat="48.5189" lon="7.45684">
        <ele>286.72613525391</ele>
        <time>2017-06-04T10:02:54.000Z</time>
      </trkpt>
      <trkpt lat="48.51901" lon="7.45708">
        <ele>286.25268554688</ele>
        <time>2017-06-04T10:02:57.000Z</time>
      </trkpt>
      <trkpt lat="48.51909" lon="7.45721">
        <ele>285.53234863281</ele>
        <time>2017-06-04T10:02:59.000Z</time>
      </trkpt>
      <trkpt lat="48.51922" lon="7.45744">
        <ele>284.52960205078</ele>
        <time>2017-06-04T10:03:02.000Z</time>
      </trkpt>
      <trkpt lat="48.51931" lon="7.45761">
        <ele>283.3525390625</ele>
        <time>2017-06-04T10:03:04.000Z</time>
      </trkpt>
      <trkpt lat="48.51947" lon="7.45784">
        <ele>282.13772583008</ele>
        <time>2017-06-04T10:03:07.000Z</time>
      </trkpt>
      <trkpt lat="48.51957" lon="7.45802">
        <ele>281.14901733398</ele>
        <time>2017-06-04T10:03:09.000Z</time>
      </trkpt>
      <trkpt lat="48.51966" lon="7.45821">
        <ele>280.25817871094</ele>
        <time>2017-06-04T10:03:12.000Z</time>
      </trkpt>
      <trkpt lat="48.51964" lon="7.4582">
        <ele>279.75183105469</ele>
        <time>2017-06-04T10:03:14.000Z</time>
      </trkpt>
      <trkpt lat="48.51965" lon="7.45819">
        <ele>279.3408203125</ele>
        <time>2017-06-04T10:03:16.000Z</time>
      </trkpt>
      <trkpt lat="48.51966" lon="7.45819">
        <ele>279.10961914062</ele>
        <time>2017-06-04T10:03:19.000Z</time>
      </trkpt>
      <trkpt lat="48.51965" lon="7.45816">
        <ele>278.98913574219</ele>
        <time>2017-06-04T10:03:22.000Z</time>
      </trkpt>
      <trkpt lat="48.51962" lon="7.45815">
        <ele>279.06689453125</ele>
        <time>2017-06-04T10:03:25.000Z</time>
      </trkpt>
      <trkpt lat="48.51958" lon="7.45813">
        <ele>279.16223144531</ele>
        <time>2017-06-04T10:03:28.000Z</time>
      </trkpt>
      <trkpt lat="48.51954" lon="7.4581">
        <ele>279.40393066406</ele>
        <time>2017-06-04T10:03:31.000Z</time>
      </trkpt>
      <trkpt lat="48.51952" lon="7.45808">
        <ele>279.73510742188</ele>
        <time>2017-06-04T10:03:33.000Z</time>
      </trkpt>
      <trkpt lat="48.51945" lon="7.45804">
        <ele>280.26892089844</ele>
        <time>2017-06-04T10:03:36.000Z</time>
      </trkpt>
      <trkpt lat="48.51941" lon="7.45804">
        <ele>280.82885742188</ele>
        <time>2017-06-04T10:03:38.000Z</time>
      </trkpt>
      <trkpt lat="48.51936" lon="7.458">
        <ele>281.41540527344</ele>
        <time>2017-06-04T10:03:41.000Z</time>
      </trkpt>
      <trkpt lat="48.51934" lon="7.45798">
        <ele>281.93090820312</ele>
        <time>2017-06-04T10:03:43.000Z</time>
      </trkpt>
      <trkpt lat="48.51933" lon="7.45795">
        <ele>282.44580078125</ele>
        <time>2017-06-04T10:03:45.000Z</time>
      </trkpt>
      <trkpt lat="48.5193" lon="7.45791">
        <ele>282.78234863281</ele>
        <time>2017-06-04T10:03:48.000Z</time>
      </trkpt>
      <trkpt lat="48.51928" lon="7.45789">
        <ele>283.03979492188</ele>
        <time>2017-06-04T10:03:50.000Z</time>
      </trkpt>
      <trkpt lat="48.51926" lon="7.45784">
        <ele>283.21276855469</ele>
        <time>2017-06-04T10:03:53.000Z</time>
      </trkpt>
      <trkpt lat="48.51921" lon="7.45781">
        <ele>283.46923828125</ele>
        <time>2017-06-04T10:03:56.000Z</time>
      </trkpt>
      <trkpt lat="48.51918" lon="7.4578">
        <ele>283.75708007812</ele>
        <time>2017-06-04T10:03:58.000Z</time>
      </trkpt>
      <trkpt lat="48.51917" lon="7.45777">
        <ele>284.04257202148</ele>
        <time>2017-06-04T10:04:00.000Z</time>
      </trkpt>
      <trkpt lat="48.51913" lon="7.45773">
        <ele>284.33447265625</ele>
        <time>2017-06-04T10:04:03.000Z</time>
      </trkpt>
      <trkpt lat="48.51911" lon="7.45772">
        <ele>284.62969970703</ele>
        <time>2017-06-04T10:04:05.000Z</time>
      </trkpt>
      <trkpt lat="48.51908" lon="7.45771">
        <ele>284.90414428711</ele>
        <time>2017-06-04T10:04:08.000Z</time>
      </trkpt>
      <trkpt lat="48.51905" lon="7.4577">
        <ele>285.16934204102</ele>
        <time>2017-06-04T10:04:10.000Z</time>
      </trkpt>
      <trkpt lat="48.519" lon="7.45766">
        <ele>285.505859375</ele>
        <time>2017-06-04T10:04:13.000Z</time>
      </trkpt>
      <trkpt lat="48.51897" lon="7.45762">
        <ele>285.84173583984</ele>
        <time>2017-06-04T10:04:15.000Z</time>
      </trkpt>
      <trkpt lat="48.51895" lon="7.45759">
        <ele>286.16967773438</ele>
        <time>2017-06-04T10:04:17.000Z</time>
      </trkpt>
      <trkpt lat="48.51891" lon="7.45757">
        <ele>286.52478027344</ele>
        <time>2017-06-04T10:04:20.000Z</time>
      </trkpt>
      <trkpt lat="48.51888" lon="7.45756">
        <ele>286.89794921875</ele>
        <time>2017-06-04T10:04:22.000Z</time>
      </trkpt>
      <trkpt lat="48.51884" lon="7.45753">
        <ele>287.26699829102</ele>
        <time>2017-06-04T10:04:24.000Z</time>
      </trkpt>
      <trkpt lat="48.51882" lon="7.45751">
        <ele>287.64361572266</ele>
        <time>2017-06-04T10:04:26.000Z</time>
      </trkpt>
      <trkpt lat="48.51879" lon="7.45749">
        <ele>288.07342529297</ele>
        <time>2017-06-04T10:04:29.000Z</time>
      </trkpt>
      <trkpt lat="48.51876" lon="7.45747">
        <ele>288.45809936523</ele>
        <time>2017-06-04T10:04:31.000Z</time>
      </trkpt>
      <trkpt lat="48.51872" lon="7.45744">
        <ele>288.92211914062</ele>
        <time>2017-06-04T10:04:34.000Z</time>
      </trkpt>
      <trkpt lat="48.5187" lon="7.45742">
        <ele>289.3544921875</ele>
        <time>2017-06-04T10:04:36.000Z</time>
      </trkpt>
      <trkpt lat="48.51866" lon="7.45739">
        <ele>289.85479736328</ele>
        <time>2017-06-04T10:04:39.000Z</time>
      </trkpt>
      <trkpt lat="48.51864" lon="7.45738">
        <ele>290.33178710938</ele>
        <time>2017-06-04T10:04:41.000Z</time>
      </trkpt>
      <trkpt lat="48.51861" lon="7.45736">
        <ele>290.84344482422</ele>
        <time>2017-06-04T10:04:43.000Z</time>
      </trkpt>
      <trkpt lat="48.51859" lon="7.45733">
        <ele>291.27279663086</ele>
        <time>2017-06-04T10:04:45.000Z</time>
      </trkpt>
      <trkpt lat="48.51855" lon="7.4573">
        <ele>291.78012084961</ele>
        <time>2017-06-04T10:04:48.000Z</time>
      </trkpt>
      <trkpt lat="48.51852" lon="7.45729">
        <ele>292.2548828125</ele>
        <time>2017-06-04T10:04:50.000Z</time>
      </trkpt>
      <trkpt lat="48.51849" lon="7.45728">
        <ele>292.78915405273</ele>
        <time>2017-06-04T10:04:53.000Z</time>
      </trkpt>
      <trkpt lat="48.51846" lon="7.45729">
        <ele>293.28082275391</ele>
        <time>2017-06-04T10:04:55.000Z</time>
      </trkpt>
      <trkpt lat="48.51846" lon="7.45736">
        <ele>293.69802856445</ele>
        <time>2017-06-04T10:04:58.000Z</time>
      </trkpt>
      <trkpt lat="48.51849" lon="7.45742">
        <ele>293.87551879883</ele>
        <time>2017-06-04T10:05:01.000Z</time>
      </trkpt>
      <trkpt lat="48.51851" lon="7.45746">
        <ele>293.86636352539</ele>
        <time>2017-06-04T10:05:03.000Z</time>
      </trkpt>
      <trkpt lat="48.51855" lon="7.45751">
        <ele>293.62066650391</ele>
        <time>2017-06-04T10:05:06.000Z</time>
      </trkpt>
      <trkpt lat="48.51857" lon="7.45755">
        <ele>293.23999023438</ele>
        <time>2017-06-04T10:05:08.000Z</time>
      </trkpt>
      <trkpt lat="48.51861" lon="7.45762">
        <ele>292.76913452148</ele>
        <time>2017-06-04T10:05:11.000Z</time>
      </trkpt>
      <trkpt lat="48.51864" lon="7.45772">
        <ele>292.32846069336</ele>
        <time>2017-06-04T10:05:14.000Z</time>
      </trkpt>
      <trkpt lat="48.51867" lon="7.45783">
        <ele>291.94927978516</ele>
        <time>2017-06-04T10:05:17.000Z</time>
      </trkpt>
      <trkpt lat="48.51869" lon="7.45793">
        <ele>291.66595458984</ele>
        <time>2017-06-04T10:05:19.000Z</time>
      </trkpt>
      <trkpt lat="48.51872" lon="7.45806">
        <ele>291.43606567383</ele>
        <time>2017-06-04T10:05:21.000Z</time>
      </trkpt>
      <trkpt lat="48.51875" lon="7.4582">
        <ele>291.2932434082</ele>
        <time>2017-06-04T10:05:23.000Z</time>
      </trkpt>
      <trkpt lat="48.51883" lon="7.45844">
        <ele>291.11737060547</ele>
        <time>2017-06-04T10:05:26.000Z</time>
      </trkpt>
      <trkpt lat="48.51891" lon="7.45865">
        <ele>290.79385375977</ele>
        <time>2017-06-04T10:05:29.000Z</time>
      </trkpt>
      <trkpt lat="48.51897" lon="7.45887">
        <ele>290.34628295898</ele>
        <time>2017-06-04T10:05:32.000Z</time>
      </trkpt>
      <trkpt lat="48.51904" lon="7.45904">
        <ele>289.82208251953</ele>
        <time>2017-06-04T10:05:34.000Z</time>
      </trkpt>
      <trkpt lat="48.5191" lon="7.45931">
        <ele>289.01486206055</ele>
        <time>2017-06-04T10:05:37.000Z</time>
      </trkpt>
      <trkpt lat="48.51905" lon="7.4595">
        <ele>288.04330444336</ele>
        <time>2017-06-04T10:05:40.000Z</time>
      </trkpt>
      <trkpt lat="48.51892" lon="7.45951">
        <ele>287.28106689453</ele>
        <time>2017-06-04T10:05:43.000Z</time>
      </trkpt>
      <trkpt lat="48.51881" lon="7.45948">
        <ele>286.75982666016</ele>
        <time>2017-06-04T10:05:46.000Z</time>
      </trkpt>
      <trkpt lat="48.51873" lon="7.45945">
        <ele>286.41146850586</ele>
        <time>2017-06-04T10:05:48.000Z</time>
      </trkpt>
      <trkpt lat="48.51866" lon="7.45942">
        <ele>286.43222045898</ele>
        <time>2017-06-04T10:05:50.000Z</time>
      </trkpt>
      <trkpt lat="48.51856" lon="7.45938">
        <ele>286.85473632812</ele>
        <time>2017-06-04T10:05:53.000Z</time>
      </trkpt>
      <trkpt lat="48.51849" lon="7.45935">
        <ele>287.34759521484</ele>
        <time>2017-06-04T10:05:55.000Z</time>
      </trkpt>
      <trkpt lat="48.51842" lon="7.45932">
        <ele>287.84460449219</ele>
        <time>2017-06-04T10:05:58.000Z</time>
      </trkpt>
      <trkpt lat="48.51839" lon="7.45932">
        <ele>288.27008056641</ele>
        <time>2017-06-04T10:06:00.000Z</time>
      </trkpt>
      <trkpt lat="48.51837" lon="7.45937">
        <ele>288.51025390625</ele>
        <time>2017-06-04T10:06:03.000Z</time>
      </trkpt>
      <trkpt lat="48.51836" lon="7.45945">
        <ele>288.43600463867</ele>
        <time>2017-06-04T10:06:06.000Z</time>
      </trkpt>
      <trkpt lat="48.51835" lon="7.45956">
        <ele>288.01193237305</ele>
        <time>2017-06-04T10:06:08.000Z</time>
      </trkpt>
      <trkpt lat="48.51834" lon="7.45972">
        <ele>287.10614013672</ele>
        <time>2017-06-04T10:06:10.000Z</time>
      </trkpt>
      <trkpt lat="48.5183" lon="7.45985">
        <ele>285.84503173828</ele>
        <time>2017-06-04T10:06:12.000Z</time>
      </trkpt>
      <trkpt lat="48.5182" lon="7.45988">
        <ele>284.52157592773</ele>
        <time>2017-06-04T10:06:15.000Z</time>
      </trkpt>
      <trkpt lat="48.51812" lon="7.45983">
        <ele>283.42611694336</ele>
        <time>2017-06-04T10:06:17.000Z</time>
      </trkpt>
      <trkpt lat="48.51804" lon="7.45978">
        <ele>282.62738037109</ele>
        <time>2017-06-04T10:06:19.000Z</time>
      </trkpt>
      <trkpt lat="48.51794" lon="7.45974">
        <ele>282.24920654297</ele>
        <time>2017-06-04T10:06:21.000Z</time>
      </trkpt>
      <trkpt lat="48.51778" lon="7.45968">
        <ele>282.29376220703</ele>
        <time>2017-06-04T10:06:24.000Z</time>
      </trkpt>
      <trkpt lat="48.51767" lon="7.45961">
        <ele>282.65274047852</ele>
        <time>2017-06-04T10:06:26.000Z</time>
      </trkpt>
      <trkpt lat="48.51757" lon="7.45956">
        <ele>283.06237792969</ele>
        <time>2017-06-04T10:06:28.000Z</time>
      </trkpt>
      <trkpt lat="48.51741" lon="7.45953">
        <ele>283.45297241211</ele>
        <time>2017-06-04T10:06:31.000Z</time>
      </trkpt>
      <trkpt lat="48.51724" lon="7.4595">
        <ele>283.7829284668</ele>
        <time>2017-06-04T10:06:34.000Z</time>
      </trkpt>
      <trkpt lat="48.51712" lon="7.45947">
        <ele>284.08486938477</ele>
        <time>2017-06-04T10:06:36.000Z</time>
      </trkpt>
      <trkpt lat="48.51696" lon="7.45944">
        <ele>284.23101806641</ele>
        <time>2017-06-04T10:06:39.000Z</time>
      </trkpt>
      <trkpt lat="48.51682" lon="7.45948">
        <ele>284.04159545898</ele>
        <time>2017-06-04T10:06:42.000Z</time>
      </trkpt>
      <trkpt lat="48.51662" lon="7.45953">
        <ele>283.56356811523</ele>
        <time>2017-06-04T10:06:45.000Z</time>
      </trkpt>
      <trkpt lat="48.51642" lon="7.45961">
        <ele>282.94775390625</ele>
        <time>2017-06-04T10:06:48.000Z</time>
      </trkpt>
      <trkpt lat="48.51616" lon="7.45969">
        <ele>282.25109863281</ele>
        <time>2017-06-04T10:06:51.000Z</time>
      </trkpt>
      <trkpt lat="48.516" lon="7.45974">
        <ele>281.55303955078</ele>
        <time>2017-06-04T10:06:53.000Z</time>
      </trkpt>
      <trkpt lat="48.51581" lon="7.45983">
        <ele>281.00909423828</ele>
        <time>2017-06-04T10:06:56.000Z</time>
      </trkpt>
      <trkpt lat="48.5156" lon="7.45987">
        <ele>280.55575561523</ele>
        <time>2017-06-04T10:06:59.000Z</time>
      </trkpt>
      <trkpt lat="48.51545" lon="7.45987">
        <ele>280.22534179688</ele>
        <time>2017-06-04T10:07:01.000Z</time>
      </trkpt>
      <trkpt lat="48.51531" lon="7.45986">
        <ele>279.90939331055</ele>
        <time>2017-06-04T10:07:03.000Z</time>
      </trkpt>
      <trkpt lat="48.51514" lon="7.45979">
        <ele>279.72589111328</ele>
        <time>2017-06-04T10:07:06.000Z</time>
      </trkpt>
      <trkpt lat="48.51501" lon="7.45969">
        <ele>279.85125732422</ele>
        <time>2017-06-04T10:07:09.000Z</time>
      </trkpt>
      <trkpt lat="48.51493" lon="7.45961">
        <ele>280.22027587891</ele>
        <time>2017-06-04T10:07:11.000Z</time>
      </trkpt>
      <trkpt lat="48.51485" lon="7.45953">
        <ele>280.69158935547</ele>
        <time>2017-06-04T10:07:13.000Z</time>
      </trkpt>
      <trkpt lat="48.51478" lon="7.45944">
        <ele>281.29327392578</ele>
        <time>2017-06-04T10:07:15.000Z</time>
      </trkpt>
      <trkpt lat="48.51469" lon="7.45931">
        <ele>281.9287109375</ele>
        <time>2017-06-04T10:07:18.000Z</time>
      </trkpt>
      <trkpt lat="48.51463" lon="7.45923">
        <ele>282.42260742188</ele>
        <time>2017-06-04T10:07:21.000Z</time>
      </trkpt>
      <trkpt lat="48.51454" lon="7.45912">
        <ele>282.96490478516</ele>
        <time>2017-06-04T10:07:23.000Z</time>
      </trkpt>
      <trkpt lat="48.51446" lon="7.45902">
        <ele>283.51666259766</ele>
        <time>2017-06-04T10:07:26.000Z</time>
      </trkpt>
      <trkpt lat="48.51441" lon="7.45895">
        <ele>284.00625610352</ele>
        <time>2017-06-04T10:07:28.000Z</time>
      </trkpt>
      <trkpt lat="48.51436" lon="7.4589">
        <ele>284.36383056641</ele>
        <time>2017-06-04T10:07:30.000Z</time>
      </trkpt>
      <trkpt lat="48.51431" lon="7.45886">
        <ele>284.62652587891</ele>
        <time>2017-06-04T10:07:32.000Z</time>
      </trkpt>
      <trkpt lat="48.51424" lon="7.45887">
        <ele>284.60189819336</ele>
        <time>2017-06-04T10:07:35.000Z</time>
      </trkpt>
      <trkpt lat="48.51412" lon="7.45905">
        <ele>283.81161499023</ele>
        <time>2017-06-04T10:07:38.000Z</time>
      </trkpt>
      <trkpt lat="48.51402" lon="7.45918">
        <ele>282.36071777344</ele>
        <time>2017-06-04T10:07:40.000Z</time>
      </trkpt>
      <trkpt lat="48.51384" lon="7.45945">
        <ele>279.63833618164</ele>
        <time>2017-06-04T10:07:43.000Z</time>
      </trkpt>
      <trkpt lat="48.51372" lon="7.4596">
        <ele>276.16970825195</ele>
        <time>2017-06-04T10:07:46.000Z</time>
      </trkpt>
      <trkpt lat="48.51364" lon="7.45973">
        <ele>272.33093261719</ele>
        <time>2017-06-04T10:07:49.000Z</time>
      </trkpt>
      <trkpt lat="48.51354" lon="7.45987">
        <ele>268.53369140625</ele>
        <time>2017-06-04T10:07:52.000Z</time>
      </trkpt>
      <trkpt lat="48.51347" lon="7.45998">
        <ele>264.88272094727</ele>
        <time>2017-06-04T10:07:54.000Z</time>
      </trkpt>
      <trkpt lat="48.51335" lon="7.46018">
        <ele>261.59515380859</ele>
        <time>2017-06-04T10:07:57.000Z</time>
      </trkpt>
      <trkpt lat="48.51327" lon="7.46028">
        <ele>258.53826904297</ele>
        <time>2017-06-04T10:07:59.000Z</time>
      </trkpt>
      <trkpt lat="48.51317" lon="7.46042">
        <ele>255.36752319336</ele>
        <time>2017-06-04T10:08:02.000Z</time>
      </trkpt>
      <trkpt lat="48.51309" lon="7.46062">
        <ele>252.15774536133</ele>
        <time>2017-06-04T10:08:05.000Z</time>
      </trkpt>
      <trkpt lat="48.51298" lon="7.46076">
        <ele>248.80032348633</ele>
        <time>2017-06-04T10:08:07.000Z</time>
      </trkpt>
      <trkpt lat="48.51276" lon="7.46099">
        <ele>245.44303894043</ele>
        <time>2017-06-04T10:08:10.000Z</time>
      </trkpt>
      <trkpt lat="48.51259" lon="7.46117">
        <ele>242.05062866211</ele>
        <time>2017-06-04T10:08:12.000Z</time>
      </trkpt>
      <trkpt lat="48.51241" lon="7.46133">
        <ele>239.04177856445</ele>
        <time>2017-06-04T10:08:14.000Z</time>
      </trkpt>
      <trkpt lat="48.51212" lon="7.46157">
        <ele>236.82040405273</ele>
        <time>2017-06-04T10:08:17.000Z</time>
      </trkpt>
      <trkpt lat="48.51192" lon="7.46176">
        <ele>235.41366577148</ele>
        <time>2017-06-04T10:08:20.000Z</time>
      </trkpt>
      <trkpt lat="48.51188" lon="7.46192">
        <ele>234.95561218262</ele>
        <time>2017-06-04T10:08:23.000Z</time>
      </trkpt>
      <trkpt lat="48.5119" lon="7.46202">
        <ele>235.02180480957</ele>
        <time>2017-06-04T10:08:25.000Z</time>
      </trkpt>
      <trkpt lat="48.51196" lon="7.46216">
        <ele>235.29280090332</ele>
        <time>2017-06-04T10:08:28.000Z</time>
      </trkpt>
      <trkpt lat="48.512" lon="7.46234">
        <ele>235.408203125</ele>
        <time>2017-06-04T10:08:31.000Z</time>
      </trkpt>
      <trkpt lat="48.51204" lon="7.46246">
        <ele>235.2666015625</ele>
        <time>2017-06-04T10:08:33.000Z</time>
      </trkpt>
      <trkpt lat="48.51212" lon="7.46266">
        <ele>234.90287780762</ele>
        <time>2017-06-04T10:08:36.000Z</time>
      </trkpt>
      <trkpt lat="48.51218" lon="7.46278">
        <ele>234.43179321289</ele>
        <time>2017-06-04T10:08:38.000Z</time>
      </trkpt>
      <trkpt lat="48.51223" lon="7.46296">
        <ele>233.83959960938</ele>
        <time>2017-06-04T10:08:41.000Z</time>
      </trkpt>
      <trkpt lat="48.51226" lon="7.46312">
        <ele>233.15751647949</ele>
        <time>2017-06-04T10:08:43.000Z</time>
      </trkpt>
      <trkpt lat="48.51228" lon="7.46328">
        <ele>232.36404418945</ele>
        <time>2017-06-04T10:08:45.000Z</time>
      </trkpt>
      <trkpt lat="48.51231" lon="7.46346">
        <ele>231.56262207031</ele>
        <time>2017-06-04T10:08:47.000Z</time>
      </trkpt>
      <trkpt lat="48.51234" lon="7.46366">
        <ele>230.75161743164</ele>
        <time>2017-06-04T10:08:49.000Z</time>
      </trkpt>
      <trkpt lat="48.51234" lon="7.46394">
        <ele>229.9753112793</ele>
        <time>2017-06-04T10:08:52.000Z</time>
      </trkpt>
      <trkpt lat="48.51229" lon="7.46407">
        <ele>229.40315246582</ele>
        <time>2017-06-04T10:08:54.000Z</time>
      </trkpt>
      <trkpt lat="48.51222" lon="7.46413">
        <ele>229.13159179688</ele>
        <time>2017-06-04T10:08:56.000Z</time>
      </trkpt>
      <trkpt lat="48.51216" lon="7.46418">
        <ele>229.1703338623</ele>
        <time>2017-06-04T10:08:58.000Z</time>
      </trkpt>
      <trkpt lat="48.51209" lon="7.46426">
        <ele>229.54830932617</ele>
        <time>2017-06-04T10:09:01.000Z</time>
      </trkpt>
      <trkpt lat="48.5121" lon="7.4644">
        <ele>230.11613464355</ele>
        <time>2017-06-04T10:09:04.000Z</time>
      </trkpt>
      <trkpt lat="48.51213" lon="7.46452">
        <ele>230.61929321289</ele>
        <time>2017-06-04T10:09:06.000Z</time>
      </trkpt>
      <trkpt lat="48.51217" lon="7.46473">
        <ele>231.03091430664</ele>
        <time>2017-06-04T10:09:09.000Z</time>
      </trkpt>
      <trkpt lat="48.5122" lon="7.46492">
        <ele>231.37236022949</ele>
        <time>2017-06-04T10:09:12.000Z</time>
      </trkpt>
      <trkpt lat="48.51225" lon="7.46509">
        <ele>231.66841125488</ele>
        <time>2017-06-04T10:09:15.000Z</time>
      </trkpt>
      <trkpt lat="48.51225" lon="7.46519">
        <ele>232.05911254883</ele>
        <time>2017-06-04T10:09:17.000Z</time>
      </trkpt>
      <trkpt lat="48.51221" lon="7.46527">
        <ele>232.58613586426</ele>
        <time>2017-06-04T10:09:20.000Z</time>
      </trkpt>
      <trkpt lat="48.51216" lon="7.46533">
        <ele>233.16133117676</ele>
        <time>2017-06-04T10:09:23.000Z</time>
      </trkpt>
      <trkpt lat="48.5121" lon="7.46538">
        <ele>233.75175476074</ele>
        <time>2017-06-04T10:09:26.000Z</time>
      </trkpt>
      <trkpt lat="48.51203" lon="7.46544">
        <ele>234.27670288086</ele>
        <time>2017-06-04T10:09:29.000Z</time>
      </trkpt>
      <trkpt lat="48.51199" lon="7.46547">
        <ele>234.72074890137</ele>
        <time>2017-06-04T10:09:31.000Z</time>
      </trkpt>
      <trkpt lat="48.51193" lon="7.46553">
        <ele>235.09736633301</ele>
        <time>2017-06-04T10:09:34.000Z</time>
      </trkpt>
      <trkpt lat="48.51189" lon="7.46557">
        <ele>235.42463684082</ele>
        <time>2017-06-04T10:09:36.000Z</time>
      </trkpt>
      <trkpt lat="48.51183" lon="7.46563">
        <ele>235.72457885742</ele>
        <time>2017-06-04T10:09:39.000Z</time>
      </trkpt>
      <trkpt lat="48.51179" lon="7.46567">
        <ele>235.98075866699</ele>
        <time>2017-06-04T10:09:41.000Z</time>
      </trkpt>
      <trkpt lat="48.51175" lon="7.4657">
        <ele>236.21215820312</ele>
        <time>2017-06-04T10:09:43.000Z</time>
      </trkpt>
      <trkpt lat="48.51171" lon="7.46574">
        <ele>236.39587402344</ele>
        <time>2017-06-04T10:09:45.000Z</time>
      </trkpt>
      <trkpt lat="48.51167" lon="7.46577">
        <ele>236.55415344238</ele>
        <time>2017-06-04T10:09:47.000Z</time>
      </trkpt>
      <trkpt lat="48.51164" lon="7.46581">
        <ele>236.70845031738</ele>
        <time>2017-06-04T10:09:50.000Z</time>
      </trkpt>
      <trkpt lat="48.51162" lon="7.46585">
        <ele>236.88101196289</ele>
        <time>2017-06-04T10:09:52.000Z</time>
      </trkpt>
      <trkpt lat="48.5116" lon="7.4659">
        <ele>237.13374328613</ele>
        <time>2017-06-04T10:09:55.000Z</time>
      </trkpt>
      <trkpt lat="48.51159" lon="7.46594">
        <ele>237.43734741211</ele>
        <time>2017-06-04T10:09:57.000Z</time>
      </trkpt>
      <trkpt lat="48.51159" lon="7.466">
        <ele>237.83981323242</ele>
        <time>2017-06-04T10:10:00.000Z</time>
      </trkpt>
      <trkpt lat="48.51158" lon="7.46605">
        <ele>238.25704956055</ele>
        <time>2017-06-04T10:10:02.000Z</time>
      </trkpt>
      <trkpt lat="48.51158" lon="7.4661">
        <ele>238.70877075195</ele>
        <time>2017-06-04T10:10:04.000Z</time>
      </trkpt>
      <trkpt lat="48.51158" lon="7.46614">
        <ele>239.13412475586</ele>
        <time>2017-06-04T10:10:06.000Z</time>
      </trkpt>
      <trkpt lat="48.51158" lon="7.46622">
        <ele>239.60171508789</ele>
        <time>2017-06-04T10:10:09.000Z</time>
      </trkpt>
      <trkpt lat="48.51158" lon="7.46626">
        <ele>240.02438354492</ele>
        <time>2017-06-04T10:10:11.000Z</time>
      </trkpt>
      <trkpt lat="48.51159" lon="7.46633">
        <ele>240.47888183594</ele>
        <time>2017-06-04T10:10:14.000Z</time>
      </trkpt>
      <trkpt lat="48.5116" lon="7.46639">
        <ele>240.93925476074</ele>
        <time>2017-06-04T10:10:17.000Z</time>
      </trkpt>
      <trkpt lat="48.51161" lon="7.46643">
        <ele>241.38957214355</ele>
        <time>2017-06-04T10:10:19.000Z</time>
      </trkpt>
      <trkpt lat="48.51161" lon="7.46647">
        <ele>241.78775024414</ele>
        <time>2017-06-04T10:10:21.000Z</time>
      </trkpt>
      <trkpt lat="48.51162" lon="7.46654">
        <ele>242.21694946289</ele>
        <time>2017-06-04T10:10:24.000Z</time>
      </trkpt>
      <trkpt lat="48.51163" lon="7.46658">
        <ele>242.61569213867</ele>
        <time>2017-06-04T10:10:26.000Z</time>
      </trkpt>
      <trkpt lat="48.51164" lon="7.46665">
        <ele>243.0339050293</ele>
        <time>2017-06-04T10:10:29.000Z</time>
      </trkpt>
      <trkpt lat="48.51164" lon="7.46672">
        <ele>243.4541015625</ele>
        <time>2017-06-04T10:10:32.000Z</time>
      </trkpt>
      <trkpt lat="48.51165" lon="7.46678">
        <ele>243.86831665039</ele>
        <time>2017-06-04T10:10:35.000Z</time>
      </trkpt>
      <trkpt lat="48.51166" lon="7.46685">
        <ele>244.24282836914</ele>
        <time>2017-06-04T10:10:38.000Z</time>
      </trkpt>
      <trkpt lat="48.51166" lon="7.4669">
        <ele>244.58242797852</ele>
        <time>2017-06-04T10:10:40.000Z</time>
      </trkpt>
      <trkpt lat="48.51167" lon="7.46696">
        <ele>244.87069702148</ele>
        <time>2017-06-04T10:10:43.000Z</time>
      </trkpt>
      <trkpt lat="48.51167" lon="7.46702">
        <ele>245.14582824707</ele>
        <time>2017-06-04T10:10:46.000Z</time>
      </trkpt>
      <trkpt lat="48.51167" lon="7.46708">
        <ele>245.42581176758</ele>
        <time>2017-06-04T10:10:49.000Z</time>
      </trkpt>
      <trkpt lat="48.51168" lon="7.46715">
        <ele>245.70561218262</ele>
        <time>2017-06-04T10:10:52.000Z</time>
      </trkpt>
      <trkpt lat="48.51168" lon="7.46719">
        <ele>245.990234375</ele>
        <time>2017-06-04T10:10:54.000Z</time>
      </trkpt>
      <trkpt lat="48.51168" lon="7.46726">
        <ele>246.27709960938</ele>
        <time>2017-06-04T10:10:57.000Z</time>
      </trkpt>
      <trkpt lat="48.51169" lon="7.46732">
        <ele>246.5705871582</ele>
        <time>2017-06-04T10:11:00.000Z</time>
      </trkpt>
      <trkpt lat="48.5117" lon="7.46739">
        <ele>246.86543273926</ele>
        <time>2017-06-04T10:11:03.000Z</time>
      </trkpt>
      <trkpt lat="48.5117" lon="7.46743">
        <ele>247.13986206055</ele>
        <time>2017-06-04T10:11:05.000Z</time>
      </trkpt>
      <trkpt lat="48.51171" lon="7.46749">
        <ele>247.43489074707</ele>
        <time>2017-06-04T10:11:08.000Z</time>
      </trkpt>
      <trkpt lat="48.51171" lon="7.46755">
        <ele>247.80261230469</ele>
        <time>2017-06-04T10:11:11.000Z</time>
      </trkpt>
      <trkpt lat="48.51171" lon="7.46762">
        <ele>248.25540161133</ele>
        <time>2017-06-04T10:11:14.000Z</time>
      </trkpt>
      <trkpt lat="48.51171" lon="7.46768">
        <ele>248.79032897949</ele>
        <time>2017-06-04T10:11:17.000Z</time>
      </trkpt>
      <trkpt lat="48.51171" lon="7.46772">
        <ele>249.38163757324</ele>
        <time>2017-06-04T10:11:19.000Z</time>
      </trkpt>
      <trkpt lat="48.51171" lon="7.46778">
        <ele>250.06059265137</ele>
        <time>2017-06-04T10:11:22.000Z</time>
      </trkpt>
      <trkpt lat="48.51171" lon="7.46782">
        <ele>250.70808410645</ele>
        <time>2017-06-04T10:11:24.000Z</time>
      </trkpt>
      <trkpt lat="48.51171" lon="7.46787">
        <ele>251.3141784668</ele>
        <time>2017-06-04T10:11:26.000Z</time>
      </trkpt>
      <trkpt lat="48.51171" lon="7.46793">
        <ele>251.93148803711</ele>
        <time>2017-06-04T10:11:29.000Z</time>
      </trkpt>
      <trkpt lat="48.51173" lon="7.468">
        <ele>252.60818481445</ele>
        <time>2017-06-04T10:11:32.000Z</time>
      </trkpt>
      <trkpt lat="48.51176" lon="7.46804">
        <ele>253.24125671387</ele>
        <time>2017-06-04T10:11:35.000Z</time>
      </trkpt>
      <trkpt lat="48.5118" lon="7.46805">
        <ele>253.78915405273</ele>
        <time>2017-06-04T10:11:37.000Z</time>
      </trkpt>
      <trkpt lat="48.51186" lon="7.46803">
        <ele>254.19470214844</ele>
        <time>2017-06-04T10:11:40.000Z</time>
      </trkpt>
      <trkpt lat="48.5119" lon="7.46803">
        <ele>254.43685913086</ele>
        <time>2017-06-04T10:11:42.000Z</time>
      </trkpt>
      <trkpt lat="48.51198" lon="7.46802">
        <ele>254.49633789062</ele>
        <time>2017-06-04T10:11:45.000Z</time>
      </trkpt>
      <trkpt lat="48.51204" lon="7.46801">
        <ele>254.43579101562</ele>
        <time>2017-06-04T10:11:47.000Z</time>
      </trkpt>
      <trkpt lat="48.5121" lon="7.46801">
        <ele>254.37385559082</ele>
        <time>2017-06-04T10:11:49.000Z</time>
      </trkpt>
      <trkpt lat="48.51219" lon="7.46803">
        <ele>254.40267944336</ele>
        <time>2017-06-04T10:11:52.000Z</time>
      </trkpt>
      <trkpt lat="48.51228" lon="7.46807">
        <ele>254.51728820801</ele>
        <time>2017-06-04T10:11:55.000Z</time>
      </trkpt>
      <trkpt lat="48.51234" lon="7.46811">
        <ele>254.75216674805</ele>
        <time>2017-06-04T10:11:57.000Z</time>
      </trkpt>
      <trkpt lat="48.51242" lon="7.46817">
        <ele>255.1530456543</ele>
        <time>2017-06-04T10:12:00.000Z</time>
      </trkpt>
      <trkpt lat="48.51249" lon="7.46823">
        <ele>255.65328979492</ele>
        <time>2017-06-04T10:12:03.000Z</time>
      </trkpt>
      <trkpt lat="48.51255" lon="7.46826">
        <ele>256.1240234375</ele>
        <time>2017-06-04T10:12:05.000Z</time>
      </trkpt>
      <trkpt lat="48.51264" lon="7.4683">
        <ele>256.52505493164</ele>
        <time>2017-06-04T10:12:08.000Z</time>
      </trkpt>
      <trkpt lat="48.51273" lon="7.46831">
        <ele>256.76156616211</ele>
        <time>2017-06-04T10:12:11.000Z</time>
      </trkpt>
      <trkpt lat="48.51283" lon="7.4683">
        <ele>256.72180175781</ele>
        <time>2017-06-04T10:12:14.000Z</time>
      </trkpt>
      <trkpt lat="48.5129" lon="7.46831">
        <ele>256.5246887207</ele>
        <time>2017-06-04T10:12:16.000Z</time>
      </trkpt>
      <trkpt lat="48.51298" lon="7.46838">
        <ele>256.29165649414</ele>
        <time>2017-06-04T10:12:19.000Z</time>
      </trkpt>
      <trkpt lat="48.51307" lon="7.46847">
        <ele>256.01794433594</ele>
        <time>2017-06-04T10:12:22.000Z</time>
      </trkpt>
      <trkpt lat="48.51312" lon="7.46852">
        <ele>255.79702758789</ele>
        <time>2017-06-04T10:12:24.000Z</time>
      </trkpt>
      <trkpt lat="48.51318" lon="7.46856">
        <ele>255.67306518555</ele>
        <time>2017-06-04T10:12:26.000Z</time>
      </trkpt>
      <trkpt lat="48.51328" lon="7.4686">
        <ele>255.53742980957</ele>
        <time>2017-06-04T10:12:29.000Z</time>
      </trkpt>
      <trkpt lat="48.51335" lon="7.46862">
        <ele>255.36943054199</ele>
        <time>2017-06-04T10:12:31.000Z</time>
      </trkpt>
      <trkpt lat="48.51346" lon="7.46865">
        <ele>255.17280578613</ele>
        <time>2017-06-04T10:12:34.000Z</time>
      </trkpt>
      <trkpt lat="48.51352" lon="7.46867">
        <ele>254.96110534668</ele>
        <time>2017-06-04T10:12:36.000Z</time>
      </trkpt>
      <trkpt lat="48.51361" lon="7.4687">
        <ele>254.74092102051</ele>
        <time>2017-06-04T10:12:39.000Z</time>
      </trkpt>
      <trkpt lat="48.51369" lon="7.46875">
        <ele>254.5478515625</ele>
        <time>2017-06-04T10:12:42.000Z</time>
      </trkpt>
      <trkpt lat="48.51374" lon="7.46882">
        <ele>254.41418457031</ele>
        <time>2017-06-04T10:12:44.000Z</time>
      </trkpt>
      <trkpt lat="48.51378" lon="7.46895">
        <ele>254.40612792969</ele>
        <time>2017-06-04T10:12:47.000Z</time>
      </trkpt>
      <trkpt lat="48.51382" lon="7.46903">
        <ele>254.45336914062</ele>
        <time>2017-06-04T10:12:49.000Z</time>
      </trkpt>
      <trkpt lat="48.51389" lon="7.46912">
        <ele>254.5478515625</ele>
        <time>2017-06-04T10:12:52.000Z</time>
      </trkpt>
      <trkpt lat="48.51396" lon="7.46919">
        <ele>254.65571594238</ele>
        <time>2017-06-04T10:12:55.000Z</time>
      </trkpt>
      <trkpt lat="48.514" lon="7.46921">
        <ele>254.71743774414</ele>
        <time>2017-06-04T10:12:57.000Z</time>
      </trkpt>
      <trkpt lat="48.51405" lon="7.4692">
        <ele>254.67556762695</ele>
        <time>2017-06-04T10:13:00.000Z</time>
      </trkpt>
      <trkpt lat="48.51408" lon="7.46916">
        <ele>254.57925415039</ele>
        <time>2017-06-04T10:13:02.000Z</time>
      </trkpt>
      <trkpt lat="48.51412" lon="7.46912">
        <ele>254.41552734375</ele>
        <time>2017-06-04T10:13:04.000Z</time>
      </trkpt>
      <trkpt lat="48.51415" lon="7.46908">
        <ele>254.20845031738</ele>
        <time>2017-06-04T10:13:06.000Z</time>
      </trkpt>
      <trkpt lat="48.51422" lon="7.469">
        <ele>253.90702819824</ele>
        <time>2017-06-04T10:13:09.000Z</time>
      </trkpt>
      <trkpt lat="48.51427" lon="7.46897">
        <ele>253.56632995605</ele>
        <time>2017-06-04T10:13:11.000Z</time>
      </trkpt>
      <trkpt lat="48.51432" lon="7.46898">
        <ele>253.19526672363</ele>
        <time>2017-06-04T10:13:13.000Z</time>
      </trkpt>
      <trkpt lat="48.5144" lon="7.46904">
        <ele>252.83432006836</ele>
        <time>2017-06-04T10:13:16.000Z</time>
      </trkpt>
      <trkpt lat="48.51447" lon="7.46912">
        <ele>252.49894714355</ele>
        <time>2017-06-04T10:13:18.000Z</time>
      </trkpt>
      <trkpt lat="48.51455" lon="7.46922">
        <ele>252.21235656738</ele>
        <time>2017-06-04T10:13:21.000Z</time>
      </trkpt>
      <trkpt lat="48.51464" lon="7.46932">
        <ele>251.89987182617</ele>
        <time>2017-06-04T10:13:24.000Z</time>
      </trkpt>
      <trkpt lat="48.51472" lon="7.46944">
        <ele>251.53422546387</ele>
        <time>2017-06-04T10:13:27.000Z</time>
      </trkpt>
      <trkpt lat="48.51479" lon="7.46961">
        <ele>251.09292602539</ele>
        <time>2017-06-04T10:13:30.000Z</time>
      </trkpt>
      <trkpt lat="48.51484" lon="7.46974">
        <ele>250.583984375</ele>
        <time>2017-06-04T10:13:32.000Z</time>
      </trkpt>
      <trkpt lat="48.51492" lon="7.47002">
        <ele>249.9673614502</ele>
        <time>2017-06-04T10:13:35.000Z</time>
      </trkpt>
      <trkpt lat="48.51495" lon="7.47031">
        <ele>249.08622741699</ele>
        <time>2017-06-04T10:13:38.000Z</time>
      </trkpt>
      <trkpt lat="48.51502" lon="7.47047">
        <ele>248.06489562988</ele>
        <time>2017-06-04T10:13:41.000Z</time>
      </trkpt>
      <trkpt lat="48.51511" lon="7.47046">
        <ele>246.97834777832</ele>
        <time>2017-06-04T10:13:43.000Z</time>
      </trkpt>
      <trkpt lat="48.51523" lon="7.47044">
        <ele>245.7301940918</ele>
        <time>2017-06-04T10:13:46.000Z</time>
      </trkpt>
      <trkpt lat="48.5153" lon="7.4705">
        <ele>244.43217468262</ele>
        <time>2017-06-04T10:13:48.000Z</time>
      </trkpt>
      <trkpt lat="48.51543" lon="7.47046">
        <ele>243.2580871582</ele>
        <time>2017-06-04T10:13:51.000Z</time>
      </trkpt>
      <trkpt lat="48.51551" lon="7.47041">
        <ele>242.19502258301</ele>
        <time>2017-06-04T10:13:53.000Z</time>
      </trkpt>
      <trkpt lat="48.51561" lon="7.4704">
        <ele>241.12124633789</ele>
        <time>2017-06-04T10:13:56.000Z</time>
      </trkpt>
      <trkpt lat="48.51561" lon="7.47059">
        <ele>240.07107543945</ele>
        <time>2017-06-04T10:13:59.000Z</time>
      </trkpt>
      <trkpt lat="48.51555" lon="7.47087">
        <ele>239.07495117188</ele>
        <time>2017-06-04T10:14:02.000Z</time>
      </trkpt>
      <trkpt lat="48.51556" lon="7.47106">
        <ele>238.0549621582</ele>
        <time>2017-06-04T10:14:04.000Z</time>
      </trkpt>
      <trkpt lat="48.51572" lon="7.47128">
        <ele>236.53405761719</ele>
        <time>2017-06-04T10:14:07.000Z</time>
      </trkpt>
      <trkpt lat="48.51584" lon="7.47138">
        <ele>234.82446289062</ele>
        <time>2017-06-04T10:14:09.000Z</time>
      </trkpt>
      <trkpt lat="48.516" lon="7.47152">
        <ele>232.63371276855</ele>
        <time>2017-06-04T10:14:12.000Z</time>
      </trkpt>
      <trkpt lat="48.51609" lon="7.47158">
        <ele>230.20352172852</ele>
        <time>2017-06-04T10:14:14.000Z</time>
      </trkpt>
      <trkpt lat="48.51624" lon="7.47174">
        <ele>227.24087524414</ele>
        <time>2017-06-04T10:14:17.000Z</time>
      </trkpt>
      <trkpt lat="48.51633" lon="7.47207">
        <ele>223.98770141602</ele>
        <time>2017-06-04T10:14:20.000Z</time>
      </trkpt>
      <trkpt lat="48.51639" lon="7.47233">
        <ele>220.49638366699</ele>
        <time>2017-06-04T10:14:22.000Z</time>
      </trkpt>
      <trkpt lat="48.51649" lon="7.47262">
        <ele>216.96627807617</ele>
        <time>2017-06-04T10:14:25.000Z</time>
      </trkpt>
      <trkpt lat="48.51664" lon="7.47288">
        <ele>213.18173217773</ele>
        <time>2017-06-04T10:14:28.000Z</time>
      </trkpt>
      <trkpt lat="48.51669" lon="7.47329">
        <ele>209.61532592773</ele>
        <time>2017-06-04T10:14:31.000Z</time>
      </trkpt>
      <trkpt lat="48.51672" lon="7.47359">
        <ele>206.57571411133</ele>
        <time>2017-06-04T10:14:33.000Z</time>
      </trkpt>
      <trkpt lat="48.51675" lon="7.47389">
        <ele>203.79016113281</ele>
        <time>2017-06-04T10:14:35.000Z</time>
      </trkpt>
      <trkpt lat="48.51677" lon="7.47415">
        <ele>201.44543457031</ele>
        <time>2017-06-04T10:14:37.000Z</time>
      </trkpt>
      <trkpt lat="48.51683" lon="7.47439">
        <ele>199.58276367188</ele>
        <time>2017-06-04T10:14:40.000Z</time>
      </trkpt>
      <trkpt lat="48.51697" lon="7.47448">
        <ele>198.16450500488</ele>
        <time>2017-06-04T10:14:43.000Z</time>
      </trkpt>
      <trkpt lat="48.51713" lon="7.47454">
        <ele>197.04409790039</ele>
        <time>2017-06-04T10:14:46.000Z</time>
      </trkpt>
      <trkpt lat="48.5173" lon="7.47466">
        <ele>196.16220092773</ele>
        <time>2017-06-04T10:14:49.000Z</time>
      </trkpt>
      <trkpt lat="48.51746" lon="7.47473">
        <ele>195.50741577148</ele>
        <time>2017-06-04T10:14:52.000Z</time>
      </trkpt>
      <trkpt lat="48.51755" lon="7.4748">
        <ele>194.99295043945</ele>
        <time>2017-06-04T10:14:54.000Z</time>
      </trkpt>
      <trkpt lat="48.51764" lon="7.47487">
        <ele>194.57527160645</ele>
        <time>2017-06-04T10:14:56.000Z</time>
      </trkpt>
      <trkpt lat="48.51776" lon="7.47499">
        <ele>194.21542358398</ele>
        <time>2017-06-04T10:14:59.000Z</time>
      </trkpt>
      <trkpt lat="48.51785" lon="7.47513">
        <ele>193.92497253418</ele>
        <time>2017-06-04T10:15:02.000Z</time>
      </trkpt>
      <trkpt lat="48.51794" lon="7.47528">
        <ele>193.67373657227</ele>
        <time>2017-06-04T10:15:05.000Z</time>
      </trkpt>
      <trkpt lat="48.51799" lon="7.47538">
        <ele>193.44921875</ele>
        <time>2017-06-04T10:15:07.000Z</time>
      </trkpt>
      <trkpt lat="48.5181" lon="7.47551">
        <ele>193.2444152832</ele>
        <time>2017-06-04T10:15:10.000Z</time>
      </trkpt>
      <trkpt lat="48.51819" lon="7.47559">
        <ele>193.09098815918</ele>
        <time>2017-06-04T10:15:12.000Z</time>
      </trkpt>
      <trkpt lat="48.51832" lon="7.47569">
        <ele>193.01010131836</ele>
        <time>2017-06-04T10:15:15.000Z</time>
      </trkpt>
      <trkpt lat="48.51843" lon="7.47577">
        <ele>192.95162963867</ele>
        <time>2017-06-04T10:15:18.000Z</time>
      </trkpt>
      <trkpt lat="48.51857" lon="7.47588">
        <ele>192.86125183105</ele>
        <time>2017-06-04T10:15:21.000Z</time>
      </trkpt>
      <trkpt lat="48.5187" lon="7.47598">
        <ele>192.70243835449</ele>
        <time>2017-06-04T10:15:24.000Z</time>
      </trkpt>
      <trkpt lat="48.51881" lon="7.47604">
        <ele>192.47610473633</ele>
        <time>2017-06-04T10:15:26.000Z</time>
      </trkpt>
      <trkpt lat="48.51901" lon="7.47616">
        <ele>192.09461975098</ele>
        <time>2017-06-04T10:15:29.000Z</time>
      </trkpt>
      <trkpt lat="48.51915" lon="7.47621">
        <ele>191.65194702148</ele>
        <time>2017-06-04T10:15:31.000Z</time>
      </trkpt>
      <trkpt lat="48.5193" lon="7.47627">
        <ele>191.15727233887</ele>
        <time>2017-06-04T10:15:33.000Z</time>
      </trkpt>
      <trkpt lat="48.51946" lon="7.47632">
        <ele>190.65174865723</ele>
        <time>2017-06-04T10:15:35.000Z</time>
      </trkpt>
      <trkpt lat="48.5197" lon="7.47646">
        <ele>190.05137634277</ele>
        <time>2017-06-04T10:15:38.000Z</time>
      </trkpt>
      <trkpt lat="48.51983" lon="7.47661">
        <ele>189.4952545166</ele>
        <time>2017-06-04T10:15:40.000Z</time>
      </trkpt>
      <trkpt lat="48.51996" lon="7.47675">
        <ele>189.01403808594</ele>
        <time>2017-06-04T10:15:42.000Z</time>
      </trkpt>
      <trkpt lat="48.52008" lon="7.4769">
        <ele>188.68472290039</ele>
        <time>2017-06-04T10:15:44.000Z</time>
      </trkpt>
      <trkpt lat="48.52022" lon="7.47709">
        <ele>188.51301574707</ele>
        <time>2017-06-04T10:15:47.000Z</time>
      </trkpt>
      <trkpt lat="48.5203" lon="7.47722">
        <ele>188.54895019531</ele>
        <time>2017-06-04T10:15:49.000Z</time>
      </trkpt>
      <trkpt lat="48.52043" lon="7.4774">
        <ele>188.74015808105</ele>
        <time>2017-06-04T10:15:52.000Z</time>
      </trkpt>
      <trkpt lat="48.52051" lon="7.47751">
        <ele>188.96952819824</ele>
        <time>2017-06-04T10:15:54.000Z</time>
      </trkpt>
      <trkpt lat="48.52062" lon="7.47766">
        <ele>189.12680053711</ele>
        <time>2017-06-04T10:15:57.000Z</time>
      </trkpt>
      <trkpt lat="48.5207" lon="7.47777">
        <ele>189.20816040039</ele>
        <time>2017-06-04T10:15:59.000Z</time>
      </trkpt>
      <trkpt lat="48.52079" lon="7.47793">
        <ele>189.22383117676</ele>
        <time>2017-06-04T10:16:02.000Z</time>
      </trkpt>
      <trkpt lat="48.5209" lon="7.47805">
        <ele>189.19779968262</ele>
        <time>2017-06-04T10:16:05.000Z</time>
      </trkpt>
      <trkpt lat="48.52106" lon="7.47805">
        <ele>189.20901489258</ele>
        <time>2017-06-04T10:16:08.000Z</time>
      </trkpt>
      <trkpt lat="48.52123" lon="7.478">
        <ele>189.30995178223</ele>
        <time>2017-06-04T10:16:11.000Z</time>
      </trkpt>
      <trkpt lat="48.52134" lon="7.47796">
        <ele>189.46469116211</ele>
        <time>2017-06-04T10:16:13.000Z</time>
      </trkpt>
      <trkpt lat="48.5215" lon="7.47792">
        <ele>189.69630432129</ele>
        <time>2017-06-04T10:16:16.000Z</time>
      </trkpt>
      <trkpt lat="48.52165" lon="7.47785">
        <ele>189.9485168457</ele>
        <time>2017-06-04T10:16:19.000Z</time>
      </trkpt>
      <trkpt lat="48.52177" lon="7.47782">
        <ele>190.12716674805</ele>
        <time>2017-06-04T10:16:22.000Z</time>
      </trkpt>
      <trkpt lat="48.52188" lon="7.47787">
        <ele>190.24131774902</ele>
        <time>2017-06-04T10:16:25.000Z</time>
      </trkpt>
      <trkpt lat="48.52192" lon="7.47799">
        <ele>190.33651733398</ele>
        <time>2017-06-04T10:16:27.000Z</time>
      </trkpt>
      <trkpt lat="48.52193" lon="7.47812">
        <ele>190.39460754395</ele>
        <time>2017-06-04T10:16:29.000Z</time>
      </trkpt>
      <trkpt lat="48.52194" lon="7.47832">
        <ele>190.44921875</ele>
        <time>2017-06-04T10:16:32.000Z</time>
      </trkpt>
      <trkpt lat="48.52195" lon="7.47847">
        <ele>190.50271606445</ele>
        <time>2017-06-04T10:16:34.000Z</time>
      </trkpt>
      <trkpt lat="48.52197" lon="7.47868">
        <ele>190.54153442383</ele>
        <time>2017-06-04T10:16:37.000Z</time>
      </trkpt>
      <trkpt lat="48.52199" lon="7.47885">
        <ele>190.55386352539</ele>
        <time>2017-06-04T10:16:39.000Z</time>
      </trkpt>
      <trkpt lat="48.52199" lon="7.47903">
        <ele>190.53903198242</ele>
        <time>2017-06-04T10:16:42.000Z</time>
      </trkpt>
      <trkpt lat="48.522" lon="7.47915">
        <ele>190.48663330078</ele>
        <time>2017-06-04T10:16:44.000Z</time>
      </trkpt>
      <trkpt lat="48.52209" lon="7.47923">
        <ele>190.43698120117</ele>
        <time>2017-06-04T10:16:47.000Z</time>
      </trkpt>
      <trkpt lat="48.52217" lon="7.47922">
        <ele>190.42767333984</ele>
        <time>2017-06-04T10:16:49.000Z</time>
      </trkpt>
      <trkpt lat="48.52232" lon="7.47917">
        <ele>190.48368835449</ele>
        <time>2017-06-04T10:16:52.000Z</time>
      </trkpt>
      <trkpt lat="48.52243" lon="7.47916">
        <ele>190.58053588867</ele>
        <time>2017-06-04T10:16:55.000Z</time>
      </trkpt>
      <trkpt lat="48.52256" lon="7.47914">
        <ele>190.6813659668</ele>
        <time>2017-06-04T10:16:58.000Z</time>
      </trkpt>
      <trkpt lat="48.52267" lon="7.47911">
        <ele>190.7639465332</ele>
        <time>2017-06-04T10:17:00.000Z</time>
      </trkpt>
      <trkpt lat="48.5228" lon="7.47907">
        <ele>190.7985534668</ele>
        <time>2017-06-04T10:17:03.000Z</time>
      </trkpt>
      <trkpt lat="48.52295" lon="7.47902">
        <ele>190.76129150391</ele>
        <time>2017-06-04T10:17:06.000Z</time>
      </trkpt>
      <trkpt lat="48.52302" lon="7.47902">
        <ele>190.68411254883</ele>
        <time>2017-06-04T10:17:08.000Z</time>
      </trkpt>
      <trkpt lat="48.52314" lon="7.47899">
        <ele>190.60501098633</ele>
        <time>2017-06-04T10:17:11.000Z</time>
      </trkpt>
      <trkpt lat="48.52323" lon="7.47899">
        <ele>190.54513549805</ele>
        <time>2017-06-04T10:17:13.000Z</time>
      </trkpt>
      <trkpt lat="48.52335" lon="7.47897">
        <ele>190.4976348877</ele>
        <time>2017-06-04T10:17:16.000Z</time>
      </trkpt>
      <trkpt lat="48.52342" lon="7.47895">
        <ele>190.42735290527</ele>
        <time>2017-06-04T10:17:18.000Z</time>
      </trkpt>
      <trkpt lat="48.52351" lon="7.47891">
        <ele>190.31639099121</ele>
        <time>2017-06-04T10:17:20.000Z</time>
      </trkpt>
      <trkpt lat="48.52365" lon="7.47888">
        <ele>190.12268066406</ele>
        <time>2017-06-04T10:17:23.000Z</time>
      </trkpt>
      <trkpt lat="48.52375" lon="7.47887">
        <ele>189.86767578125</ele>
        <time>2017-06-04T10:17:25.000Z</time>
      </trkpt>
      <trkpt lat="48.52392" lon="7.47882">
        <ele>189.52880859375</ele>
        <time>2017-06-04T10:17:28.000Z</time>
      </trkpt>
      <trkpt lat="48.52408" lon="7.4788">
        <ele>189.12280273438</ele>
        <time>2017-06-04T10:17:31.000Z</time>
      </trkpt>
      <trkpt lat="48.52425" lon="7.47881">
        <ele>188.67269897461</ele>
        <time>2017-06-04T10:17:34.000Z</time>
      </trkpt>
      <trkpt lat="48.5244" lon="7.47879">
        <ele>188.26176452637</ele>
        <time>2017-06-04T10:17:37.000Z</time>
      </trkpt>
      <trkpt lat="48.52455" lon="7.4788">
        <ele>187.86633300781</ele>
        <time>2017-06-04T10:17:40.000Z</time>
      </trkpt>
      <trkpt lat="48.52469" lon="7.47882">
        <ele>187.51210021973</ele>
        <time>2017-06-04T10:17:43.000Z</time>
      </trkpt>
      <trkpt lat="48.52478" lon="7.4788">
        <ele>187.23774719238</ele>
        <time>2017-06-04T10:17:45.000Z</time>
      </trkpt>
      <trkpt lat="48.52486" lon="7.47887">
        <ele>187.01097106934</ele>
        <time>2017-06-04T10:17:48.000Z</time>
      </trkpt>
      <trkpt lat="48.52485" lon="7.47904">
        <ele>186.78625488281</ele>
        <time>2017-06-04T10:17:51.000Z</time>
      </trkpt>
      <trkpt lat="48.52485" lon="7.47917">
        <ele>186.57629394531</ele>
        <time>2017-06-04T10:17:53.000Z</time>
      </trkpt>
      <trkpt lat="48.52483" lon="7.47939">
        <ele>186.34254455566</ele>
        <time>2017-06-04T10:17:56.000Z</time>
      </trkpt>
      <trkpt lat="48.52483" lon="7.47958">
        <ele>186.06419372559</ele>
        <time>2017-06-04T10:17:59.000Z</time>
      </trkpt>
      <trkpt lat="48.52488" lon="7.47964">
        <ele>185.78076171875</ele>
        <time>2017-06-04T10:18:01.000Z</time>
      </trkpt>
      <trkpt lat="48.52503" lon="7.47968">
        <ele>185.4515838623</ele>
        <time>2017-06-04T10:18:04.000Z</time>
      </trkpt>
      <trkpt lat="48.52518" lon="7.47968">
        <ele>185.11227416992</ele>
        <time>2017-06-04T10:18:07.000Z</time>
      </trkpt>
      <trkpt lat="48.52529" lon="7.47968">
        <ele>184.81596374512</ele>
        <time>2017-06-04T10:18:09.000Z</time>
      </trkpt>
      <trkpt lat="48.52545" lon="7.47969">
        <ele>184.53440856934</ele>
        <time>2017-06-04T10:18:12.000Z</time>
      </trkpt>
      <trkpt lat="48.52556" lon="7.47969">
        <ele>184.2647857666</ele>
        <time>2017-06-04T10:18:14.000Z</time>
      </trkpt>
      <trkpt lat="48.52573" lon="7.47968">
        <ele>184.03153991699</ele>
        <time>2017-06-04T10:18:17.000Z</time>
      </trkpt>
      <trkpt lat="48.5259" lon="7.4797">
        <ele>183.77883911133</ele>
        <time>2017-06-04T10:18:20.000Z</time>
      </trkpt>
      <trkpt lat="48.526" lon="7.47972">
        <ele>183.52139282227</ele>
        <time>2017-06-04T10:18:22.000Z</time>
      </trkpt>
      <trkpt lat="48.52614" lon="7.47972">
        <ele>183.26290893555</ele>
        <time>2017-06-04T10:18:24.000Z</time>
      </trkpt>
      <trkpt lat="48.52627" lon="7.47971">
        <ele>182.9888458252</ele>
        <time>2017-06-04T10:18:27.000Z</time>
      </trkpt>
      <trkpt lat="48.52642" lon="7.47972">
        <ele>182.70817565918</ele>
        <time>2017-06-04T10:18:30.000Z</time>
      </trkpt>
      <trkpt lat="48.52654" lon="7.4798">
        <ele>182.46520996094</ele>
        <time>2017-06-04T10:18:33.000Z</time>
      </trkpt>
      <trkpt lat="48.52654" lon="7.47997">
        <ele>182.28996276855</ele>
        <time>2017-06-04T10:18:36.000Z</time>
      </trkpt>
      <trkpt lat="48.52649" lon="7.48012">
        <ele>182.15975952148</ele>
        <time>2017-06-04T10:18:38.000Z</time>
      </trkpt>
      <trkpt lat="48.52642" lon="7.48034">
        <ele>182.0474395752</ele>
        <time>2017-06-04T10:18:41.000Z</time>
      </trkpt>
      <trkpt lat="48.52638" lon="7.48058">
        <ele>181.94784545898</ele>
        <time>2017-06-04T10:18:44.000Z</time>
      </trkpt>
      <trkpt lat="48.52638" lon="7.48083">
        <ele>181.81881713867</ele>
        <time>2017-06-04T10:18:47.000Z</time>
      </trkpt>
      <trkpt lat="48.52639" lon="7.48099">
        <ele>181.64544677734</ele>
        <time>2017-06-04T10:18:49.000Z</time>
      </trkpt>
      <trkpt lat="48.52639" lon="7.48116">
        <ele>181.47128295898</ele>
        <time>2017-06-04T10:18:51.000Z</time>
      </trkpt>
      <trkpt lat="48.52641" lon="7.48131">
        <ele>181.32061767578</ele>
        <time>2017-06-04T10:18:53.000Z</time>
      </trkpt>
      <trkpt lat="48.52646" lon="7.4815">
        <ele>181.20069885254</ele>
        <time>2017-06-04T10:18:56.000Z</time>
      </trkpt>
      <trkpt lat="48.52654" lon="7.48158">
        <ele>181.13401794434</ele>
        <time>2017-06-04T10:18:58.000Z</time>
      </trkpt>
      <trkpt lat="48.52663" lon="7.4816">
        <ele>181.08137512207</ele>
        <time>2017-06-04T10:19:00.000Z</time>
      </trkpt>
      <trkpt lat="48.52679" lon="7.4816">
        <ele>181.01287841797</ele>
        <time>2017-06-04T10:19:03.000Z</time>
      </trkpt>
      <trkpt lat="48.52688" lon="7.48159">
        <ele>180.93432617188</ele>
        <time>2017-06-04T10:19:05.000Z</time>
      </trkpt>
      <trkpt lat="48.52697" lon="7.48159">
        <ele>180.85151672363</ele>
        <time>2017-06-04T10:19:07.000Z</time>
      </trkpt>
      <trkpt lat="48.52711" lon="7.4816">
        <ele>180.7421875</ele>
        <time>2017-06-04T10:19:10.000Z</time>
      </trkpt>
      <trkpt lat="48.52725" lon="7.4816">
        <ele>180.6015625</ele>
        <time>2017-06-04T10:19:13.000Z</time>
      </trkpt>
      <trkpt lat="48.52739" lon="7.4816">
        <ele>180.45703125</ele>
        <time>2017-06-04T10:19:16.000Z</time>
      </trkpt>
      <trkpt lat="48.52753" lon="7.4816">
        <ele>180.29634094238</ele>
        <time>2017-06-04T10:19:19.000Z</time>
      </trkpt>
      <trkpt lat="48.52762" lon="7.48161">
        <ele>180.11532592773</ele>
        <time>2017-06-04T10:19:21.000Z</time>
      </trkpt>
      <trkpt lat="48.52776" lon="7.48161">
        <ele>179.90287780762</ele>
        <time>2017-06-04T10:19:24.000Z</time>
      </trkpt>
      <trkpt lat="48.52791" lon="7.48163">
        <ele>179.65461730957</ele>
        <time>2017-06-04T10:19:27.000Z</time>
      </trkpt>
      <trkpt lat="48.52805" lon="7.48165">
        <ele>179.3698425293</ele>
        <time>2017-06-04T10:19:30.000Z</time>
      </trkpt>
      <trkpt lat="48.52815" lon="7.48166">
        <ele>179.07420349121</ele>
        <time>2017-06-04T10:19:32.000Z</time>
      </trkpt>
      <trkpt lat="48.52829" lon="7.48168">
        <ele>178.74612426758</ele>
        <time>2017-06-04T10:19:35.000Z</time>
      </trkpt>
      <trkpt lat="48.52843" lon="7.48171">
        <ele>178.50276184082</ele>
        <time>2017-06-04T10:19:38.000Z</time>
      </trkpt>
      <trkpt lat="48.52858" lon="7.48175">
        <ele>178.40179443359</ele>
        <time>2017-06-04T10:19:41.000Z</time>
      </trkpt>
      <trkpt lat="48.52868" lon="7.48179">
        <ele>178.41819763184</ele>
        <time>2017-06-04T10:19:43.000Z</time>
      </trkpt>
      <trkpt lat="48.52884" lon="7.48185">
        <ele>178.57688903809</ele>
        <time>2017-06-04T10:19:46.000Z</time>
      </trkpt>
      <trkpt lat="48.52898" lon="7.48194">
        <ele>178.90769958496</ele>
        <time>2017-06-04T10:19:49.000Z</time>
      </trkpt>
      <trkpt lat="48.52908" lon="7.482">
        <ele>179.29217529297</ele>
        <time>2017-06-04T10:19:51.000Z</time>
      </trkpt>
      <trkpt lat="48.52922" lon="7.48209">
        <ele>179.67573547363</ele>
        <time>2017-06-04T10:19:54.000Z</time>
      </trkpt>
      <trkpt lat="48.52932" lon="7.48214">
        <ele>180.00939941406</ele>
        <time>2017-06-04T10:19:56.000Z</time>
      </trkpt>
      <trkpt lat="48.52946" lon="7.48221">
        <ele>180.24137878418</ele>
        <time>2017-06-04T10:19:59.000Z</time>
      </trkpt>
      <trkpt lat="48.5296" lon="7.48226">
        <ele>180.36093139648</ele>
        <time>2017-06-04T10:20:02.000Z</time>
      </trkpt>
      <trkpt lat="48.52968" lon="7.48231">
        <ele>180.3971862793</ele>
        <time>2017-06-04T10:20:04.000Z</time>
      </trkpt>
      <trkpt lat="48.5298" lon="7.4824">
        <ele>180.34399414062</ele>
        <time>2017-06-04T10:20:07.000Z</time>
      </trkpt>
      <trkpt lat="48.52988" lon="7.48247">
        <ele>180.27903747559</ele>
        <time>2017-06-04T10:20:09.000Z</time>
      </trkpt>
      <trkpt lat="48.52996" lon="7.48254">
        <ele>180.20364379883</ele>
        <time>2017-06-04T10:20:11.000Z</time>
      </trkpt>
      <trkpt lat="48.53008" lon="7.48265">
        <ele>180.13859558105</ele>
        <time>2017-06-04T10:20:14.000Z</time>
      </trkpt>
      <trkpt lat="48.53016" lon="7.48272">
        <ele>180.09004211426</ele>
        <time>2017-06-04T10:20:16.000Z</time>
      </trkpt>
      <trkpt lat="48.53029" lon="7.48282">
        <ele>180.07585144043</ele>
        <time>2017-06-04T10:20:19.000Z</time>
      </trkpt>
      <trkpt lat="48.5304" lon="7.48297">
        <ele>180.10330200195</ele>
        <time>2017-06-04T10:20:22.000Z</time>
      </trkpt>
      <trkpt lat="48.53047" lon="7.48308">
        <ele>180.17381286621</ele>
        <time>2017-06-04T10:20:24.000Z</time>
      </trkpt>
      <trkpt lat="48.53058" lon="7.48323">
        <ele>180.29232788086</ele>
        <time>2017-06-04T10:20:27.000Z</time>
      </trkpt>
      <trkpt lat="48.53065" lon="7.48332">
        <ele>180.43548583984</ele>
        <time>2017-06-04T10:20:29.000Z</time>
      </trkpt>
      <trkpt lat="48.53075" lon="7.48346">
        <ele>180.56155395508</ele>
        <time>2017-06-04T10:20:32.000Z</time>
      </trkpt>
      <trkpt lat="48.53082" lon="7.48354">
        <ele>180.65495300293</ele>
        <time>2017-06-04T10:20:34.000Z</time>
      </trkpt>
      <trkpt lat="48.53091" lon="7.48362">
        <ele>180.6834564209</ele>
        <time>2017-06-04T10:20:36.000Z</time>
      </trkpt>
      <trkpt lat="48.53099" lon="7.48367">
        <ele>180.63447570801</ele>
        <time>2017-06-04T10:20:38.000Z</time>
      </trkpt>
      <trkpt lat="48.53112" lon="7.48373">
        <ele>180.5143737793</ele>
        <time>2017-06-04T10:20:41.000Z</time>
      </trkpt>
      <trkpt lat="48.5312" lon="7.4838">
        <ele>180.3724822998</ele>
        <time>2017-06-04T10:20:43.000Z</time>
      </trkpt>
      <trkpt lat="48.53127" lon="7.48388">
        <ele>180.22183227539</ele>
        <time>2017-06-04T10:20:45.000Z</time>
      </trkpt>
      <trkpt lat="48.53137" lon="7.48399">
        <ele>180.10237121582</ele>
        <time>2017-06-04T10:20:48.000Z</time>
      </trkpt>
      <trkpt lat="48.53148" lon="7.48411">
        <ele>180.02182006836</ele>
        <time>2017-06-04T10:20:51.000Z</time>
      </trkpt>
      <trkpt lat="48.53153" lon="7.48428">
        <ele>180.04602050781</ele>
        <time>2017-06-04T10:20:54.000Z</time>
      </trkpt>
      <trkpt lat="48.53151" lon="7.4845">
        <ele>180.19902038574</ele>
        <time>2017-06-04T10:20:57.000Z</time>
      </trkpt>
      <trkpt lat="48.53145" lon="7.48472">
        <ele>180.42654418945</ele>
        <time>2017-06-04T10:21:00.000Z</time>
      </trkpt>
      <trkpt lat="48.53141" lon="7.48485">
        <ele>180.67739868164</ele>
        <time>2017-06-04T10:21:02.000Z</time>
      </trkpt>
      <trkpt lat="48.53138" lon="7.48498">
        <ele>180.9303894043</ele>
        <time>2017-06-04T10:21:04.000Z</time>
      </trkpt>
      <trkpt lat="48.53135" lon="7.48512">
        <ele>181.06771850586</ele>
        <time>2017-06-04T10:21:06.000Z</time>
      </trkpt>
      <trkpt lat="48.53131" lon="7.48525">
        <ele>181.03778076172</ele>
        <time>2017-06-04T10:21:08.000Z</time>
      </trkpt>
      <trkpt lat="48.53123" lon="7.48543">
        <ele>180.83955383301</ele>
        <time>2017-06-04T10:21:11.000Z</time>
      </trkpt>
      <trkpt lat="48.53119" lon="7.48555">
        <ele>180.56793212891</ele>
        <time>2017-06-04T10:21:13.000Z</time>
      </trkpt>
      <trkpt lat="48.53114" lon="7.48567">
        <ele>180.22749328613</ele>
        <time>2017-06-04T10:21:15.000Z</time>
      </trkpt>
      <trkpt lat="48.53106" lon="7.48585">
        <ele>179.85652160645</ele>
        <time>2017-06-04T10:21:18.000Z</time>
      </trkpt>
      <trkpt lat="48.53102" lon="7.48598">
        <ele>179.54568481445</ele>
        <time>2017-06-04T10:21:20.000Z</time>
      </trkpt>
      <trkpt lat="48.53097" lon="7.48618">
        <ele>179.36322021484</ele>
        <time>2017-06-04T10:21:23.000Z</time>
      </trkpt>
      <trkpt lat="48.53093" lon="7.48632">
        <ele>179.26809692383</ele>
        <time>2017-06-04T10:21:26.000Z</time>
      </trkpt>
      <trkpt lat="48.53088" lon="7.48649">
        <ele>179.28842163086</ele>
        <time>2017-06-04T10:21:29.000Z</time>
      </trkpt>
      <trkpt lat="48.53085" lon="7.48661">
        <ele>179.4402923584</ele>
        <time>2017-06-04T10:21:31.000Z</time>
      </trkpt>
      <trkpt lat="48.53078" lon="7.4868">
        <ele>179.56483459473</ele>
        <time>2017-06-04T10:21:34.000Z</time>
      </trkpt>
      <trkpt lat="48.53073" lon="7.48691">
        <ele>179.61918640137</ele>
        <time>2017-06-04T10:21:36.000Z</time>
      </trkpt>
      <trkpt lat="48.53064" lon="7.48707">
        <ele>179.58093261719</ele>
        <time>2017-06-04T10:21:39.000Z</time>
      </trkpt>
      <trkpt lat="48.53059" lon="7.48716">
        <ele>179.45309448242</ele>
        <time>2017-06-04T10:21:41.000Z</time>
      </trkpt>
      <trkpt lat="48.53053" lon="7.48731">
        <ele>179.23181152344</ele>
        <time>2017-06-04T10:21:44.000Z</time>
      </trkpt>
      <trkpt lat="48.53049" lon="7.48742">
        <ele>179.0122833252</ele>
        <time>2017-06-04T10:21:46.000Z</time>
      </trkpt>
      <trkpt lat="48.53044" lon="7.48759">
        <ele>178.8399810791</ele>
        <time>2017-06-04T10:21:49.000Z</time>
      </trkpt>
      <trkpt lat="48.53041" lon="7.48771">
        <ele>178.75630187988</ele>
        <time>2017-06-04T10:21:51.000Z</time>
      </trkpt>
      <trkpt lat="48.53038" lon="7.4879">
        <ele>178.7444152832</ele>
        <time>2017-06-04T10:21:54.000Z</time>
      </trkpt>
      <trkpt lat="48.53035" lon="7.48808">
        <ele>178.8137512207</ele>
        <time>2017-06-04T10:21:57.000Z</time>
      </trkpt>
      <trkpt lat="48.53034" lon="7.4882">
        <ele>178.93481445312</ele>
        <time>2017-06-04T10:21:59.000Z</time>
      </trkpt>
      <trkpt lat="48.53032" lon="7.48831">
        <ele>179.08142089844</ele>
        <time>2017-06-04T10:22:01.000Z</time>
      </trkpt>
      <trkpt lat="48.5303" lon="7.48848">
        <ele>179.20092773438</ele>
        <time>2017-06-04T10:22:04.000Z</time>
      </trkpt>
      <trkpt lat="48.53027" lon="7.48858">
        <ele>179.2815246582</ele>
        <time>2017-06-04T10:22:06.000Z</time>
      </trkpt>
      <trkpt lat="48.53022" lon="7.4887">
        <ele>179.32894897461</ele>
        <time>2017-06-04T10:22:09.000Z</time>
      </trkpt>
      <trkpt lat="48.5302" lon="7.48875">
        <ele>179.35485839844</ele>
        <time>2017-06-04T10:22:11.000Z</time>
      </trkpt>
      <trkpt lat="48.53022" lon="7.48876">
        <ele>179.35635375977</ele>
        <time>2017-06-04T10:22:13.000Z</time>
      </trkpt>
      <trkpt lat="48.53026" lon="7.48876">
        <ele>179.3561706543</ele>
        <time>2017-06-04T10:22:16.000Z</time>
      </trkpt>
      <trkpt lat="48.5303" lon="7.48877">
        <ele>179.35314941406</ele>
        <time>2017-06-04T10:22:19.000Z</time>
      </trkpt>
      <trkpt lat="48.53032" lon="7.48878">
        <ele>179.34301757812</ele>
        <time>2017-06-04T10:22:21.000Z</time>
      </trkpt>
      <trkpt lat="48.53033" lon="7.48879">
        <ele>179.32580566406</ele>
        <time>2017-06-04T10:22:23.000Z</time>
      </trkpt>
      <trkpt lat="48.53034" lon="7.48879">
        <ele>179.30830383301</ele>
        <time>2017-06-04T10:22:26.000Z</time>
      </trkpt>
      <trkpt lat="48.53032" lon="7.48878">
        <ele>179.2998046875</ele>
        <time>2017-06-04T10:22:45.000Z</time>
      </trkpt>
      <trkpt lat="48.53034" lon="7.48877">
        <ele>179.29501342773</ele>
        <time>2017-06-04T10:22:50.000Z</time>
      </trkpt>
      <trkpt lat="48.53037" lon="7.48879">
        <ele>179.28601074219</ele>
        <time>2017-06-04T10:22:53.000Z</time>
      </trkpt>
      <trkpt lat="48.53043" lon="7.48885">
        <ele>179.26225280762</ele>
        <time>2017-06-04T10:22:56.000Z</time>
      </trkpt>
      <trkpt lat="48.53048" lon="7.48891">
        <ele>179.2184753418</ele>
        <time>2017-06-04T10:22:58.000Z</time>
      </trkpt>
      <trkpt lat="48.53055" lon="7.48896">
        <ele>179.1423034668</ele>
        <time>2017-06-04T10:23:00.000Z</time>
      </trkpt>
      <trkpt lat="48.53063" lon="7.48902">
        <ele>179.02745056152</ele>
        <time>2017-06-04T10:23:02.000Z</time>
      </trkpt>
      <trkpt lat="48.5307" lon="7.48907">
        <ele>178.87272644043</ele>
        <time>2017-06-04T10:23:04.000Z</time>
      </trkpt>
      <trkpt lat="48.5308" lon="7.48915">
        <ele>178.66067504883</ele>
        <time>2017-06-04T10:23:07.000Z</time>
      </trkpt>
      <trkpt lat="48.53088" lon="7.48924">
        <ele>178.44282531738</ele>
        <time>2017-06-04T10:23:10.000Z</time>
      </trkpt>
      <trkpt lat="48.53097" lon="7.4893">
        <ele>178.26025390625</ele>
        <time>2017-06-04T10:23:13.000Z</time>
      </trkpt>
      <trkpt lat="48.53102" lon="7.48933">
        <ele>178.12232971191</ele>
        <time>2017-06-04T10:23:15.000Z</time>
      </trkpt>
      <trkpt lat="48.53106" lon="7.48936">
        <ele>178.03286743164</ele>
        <time>2017-06-04T10:23:17.000Z</time>
      </trkpt>
      <trkpt lat="48.53113" lon="7.48941">
        <ele>178.02478027344</ele>
        <time>2017-06-04T10:23:20.000Z</time>
      </trkpt>
      <trkpt lat="48.53118" lon="7.48943">
        <ele>178.05102539062</ele>
        <time>2017-06-04T10:23:22.000Z</time>
      </trkpt>
      <trkpt lat="48.53123" lon="7.48944">
        <ele>178.07922363281</ele>
        <time>2017-06-04T10:23:24.000Z</time>
      </trkpt>
      <trkpt lat="48.53131" lon="7.48948">
        <ele>178.11328125</ele>
        <time>2017-06-04T10:23:27.000Z</time>
      </trkpt>
      <trkpt lat="48.53139" lon="7.48952">
        <ele>178.15246582031</ele>
        <time>2017-06-04T10:23:30.000Z</time>
      </trkpt>
      <trkpt lat="48.53143" lon="7.48955">
        <ele>178.19030761719</ele>
        <time>2017-06-04T10:23:32.000Z</time>
      </trkpt>
      <trkpt lat="48.53148" lon="7.48964">
        <ele>178.21081542969</ele>
        <time>2017-06-04T10:23:35.000Z</time>
      </trkpt>
      <trkpt lat="48.53147" lon="7.48973">
        <ele>178.19970703125</ele>
        <time>2017-06-04T10:23:37.000Z</time>
      </trkpt>
      <trkpt lat="48.53145" lon="7.48981">
        <ele>178.15344238281</ele>
        <time>2017-06-04T10:23:39.000Z</time>
      </trkpt>
      <trkpt lat="48.53143" lon="7.48994">
        <ele>178.06433105469</ele>
        <time>2017-06-04T10:23:42.000Z</time>
      </trkpt>
      <trkpt lat="48.53144" lon="7.49004">
        <ele>177.9759979248</ele>
        <time>2017-06-04T10:23:44.000Z</time>
      </trkpt>
      <trkpt lat="48.53146" lon="7.49018">
        <ele>177.97299194336</ele>
        <time>2017-06-04T10:23:47.000Z</time>
      </trkpt>
      <trkpt lat="48.53151" lon="7.49031">
        <ele>178.0676574707</ele>
        <time>2017-06-04T10:23:50.000Z</time>
      </trkpt>
      <trkpt lat="48.53156" lon="7.4904">
        <ele>178.23847961426</ele>
        <time>2017-06-04T10:23:52.000Z</time>
      </trkpt>
      <trkpt lat="48.5316" lon="7.49048">
        <ele>178.49584960938</ele>
        <time>2017-06-04T10:23:54.000Z</time>
      </trkpt>
      <trkpt lat="48.53167" lon="7.49061">
        <ele>178.82218933105</ele>
        <time>2017-06-04T10:23:57.000Z</time>
      </trkpt>
      <trkpt lat="48.53175" lon="7.49072">
        <ele>179.11437988281</ele>
        <time>2017-06-04T10:24:00.000Z</time>
      </trkpt>
      <trkpt lat="48.53176" lon="7.49085">
        <ele>179.38737487793</ele>
        <time>2017-06-04T10:24:03.000Z</time>
      </trkpt>
      <trkpt lat="48.53173" lon="7.49093">
        <ele>179.65524291992</ele>
        <time>2017-06-04T10:24:05.000Z</time>
      </trkpt>
      <trkpt lat="48.53168" lon="7.49106">
        <ele>179.94143676758</ele>
        <time>2017-06-04T10:24:08.000Z</time>
      </trkpt>
      <trkpt lat="48.53165" lon="7.49114">
        <ele>180.19540405273</ele>
        <time>2017-06-04T10:24:10.000Z</time>
      </trkpt>
      <trkpt lat="48.53161" lon="7.49128">
        <ele>180.46621704102</ele>
        <time>2017-06-04T10:24:13.000Z</time>
      </trkpt>
      <trkpt lat="48.53159" lon="7.49139">
        <ele>180.72592163086</ele>
        <time>2017-06-04T10:24:15.000Z</time>
      </trkpt>
      <trkpt lat="48.5316" lon="7.49149">
        <ele>180.99345397949</ele>
        <time>2017-06-04T10:24:17.000Z</time>
      </trkpt>
      <trkpt lat="48.53164" lon="7.49164">
        <ele>181.27197265625</ele>
        <time>2017-06-04T10:24:20.000Z</time>
      </trkpt>
      <trkpt lat="48.53169" lon="7.49177">
        <ele>181.4974822998</ele>
        <time>2017-06-04T10:24:23.000Z</time>
      </trkpt>
      <trkpt lat="48.53173" lon="7.49189">
        <ele>181.62606811523</ele>
        <time>2017-06-04T10:24:26.000Z</time>
      </trkpt>
      <trkpt lat="48.53174" lon="7.49199">
        <ele>181.68447875977</ele>
        <time>2017-06-04T10:24:29.000Z</time>
      </trkpt>
      <trkpt lat="48.5317" lon="7.49205">
        <ele>181.68537902832</ele>
        <time>2017-06-04T10:24:31.000Z</time>
      </trkpt>
      <trkpt lat="48.53165" lon="7.49208">
        <ele>181.60659790039</ele>
        <time>2017-06-04T10:24:33.000Z</time>
      </trkpt>
      <trkpt lat="48.53156" lon="7.4921">
        <ele>181.53343200684</ele>
        <time>2017-06-04T10:24:36.000Z</time>
      </trkpt>
      <trkpt lat="48.5315" lon="7.49215">
        <ele>181.49406433105</ele>
        <time>2017-06-04T10:24:38.000Z</time>
      </trkpt>
      <trkpt lat="48.53144" lon="7.4922">
        <ele>181.47734069824</ele>
        <time>2017-06-04T10:24:40.000Z</time>
      </trkpt>
      <trkpt lat="48.53138" lon="7.49226">
        <ele>181.46284484863</ele>
        <time>2017-06-04T10:24:42.000Z</time>
      </trkpt>
      <trkpt lat="48.53132" lon="7.49238">
        <ele>181.44955444336</ele>
        <time>2017-06-04T10:24:45.000Z</time>
      </trkpt>
      <trkpt lat="48.53128" lon="7.4925">
        <ele>181.44546508789</ele>
        <time>2017-06-04T10:24:48.000Z</time>
      </trkpt>
      <trkpt lat="48.53128" lon="7.49265">
        <ele>181.42765808105</ele>
        <time>2017-06-04T10:24:51.000Z</time>
      </trkpt>
      <trkpt lat="48.53128" lon="7.49275">
        <ele>181.4005279541</ele>
        <time>2017-06-04T10:24:53.000Z</time>
      </trkpt>
      <trkpt lat="48.53127" lon="7.49287">
        <ele>181.36264038086</ele>
        <time>2017-06-04T10:24:55.000Z</time>
      </trkpt>
      <trkpt lat="48.53127" lon="7.49306">
        <ele>181.30020141602</ele>
        <time>2017-06-04T10:24:58.000Z</time>
      </trkpt>
      <trkpt lat="48.53127" lon="7.49326">
        <ele>181.2077331543</ele>
        <time>2017-06-04T10:25:01.000Z</time>
      </trkpt>
      <trkpt lat="48.53126" lon="7.49346">
        <ele>181.1286315918</ele>
        <time>2017-06-04T10:25:04.000Z</time>
      </trkpt>
      <trkpt lat="48.53125" lon="7.49359">
        <ele>181.06803894043</ele>
        <time>2017-06-04T10:25:06.000Z</time>
      </trkpt>
      <trkpt lat="48.53123" lon="7.4938">
        <ele>181.02755737305</ele>
        <time>2017-06-04T10:25:09.000Z</time>
      </trkpt>
      <trkpt lat="48.53121" lon="7.49397">
        <ele>181.01936340332</ele>
        <time>2017-06-04T10:25:12.000Z</time>
      </trkpt>
      <trkpt lat="48.53121" lon="7.49411">
        <ele>181.0390625</ele>
        <time>2017-06-04T10:25:14.000Z</time>
      </trkpt>
      <trkpt lat="48.53122" lon="7.49422">
        <ele>181.03973388672</ele>
        <time>2017-06-04T10:25:16.000Z</time>
      </trkpt>
      <trkpt lat="48.53122" lon="7.49433">
        <ele>180.99508666992</ele>
        <time>2017-06-04T10:25:18.000Z</time>
      </trkpt>
      <trkpt lat="48.53122" lon="7.49445">
        <ele>180.89755249023</ele>
        <time>2017-06-04T10:25:20.000Z</time>
      </trkpt>
      <trkpt lat="48.5312" lon="7.49464">
        <ele>180.72459411621</ele>
        <time>2017-06-04T10:25:23.000Z</time>
      </trkpt>
      <trkpt lat="48.53119" lon="7.49486">
        <ele>180.47416687012</ele>
        <time>2017-06-04T10:25:26.000Z</time>
      </trkpt>
      <trkpt lat="48.53121" lon="7.49502">
        <ele>180.18913269043</ele>
        <time>2017-06-04T10:25:29.000Z</time>
      </trkpt>
      <trkpt lat="48.53128" lon="7.49516">
        <ele>179.92692565918</ele>
        <time>2017-06-04T10:25:32.000Z</time>
      </trkpt>
      <trkpt lat="48.53124" lon="7.49534">
        <ele>179.71960449219</ele>
        <time>2017-06-04T10:25:35.000Z</time>
      </trkpt>
      <trkpt lat="48.5312" lon="7.49556">
        <ele>179.58670043945</ele>
        <time>2017-06-04T10:25:38.000Z</time>
      </trkpt>
      <trkpt lat="48.53117" lon="7.49578">
        <ele>179.537109375</ele>
        <time>2017-06-04T10:25:41.000Z</time>
      </trkpt>
      <trkpt lat="48.53114" lon="7.49601">
        <ele>179.5665435791</ele>
        <time>2017-06-04T10:25:44.000Z</time>
      </trkpt>
      <trkpt lat="48.53112" lon="7.49618">
        <ele>179.6286315918</ele>
        <time>2017-06-04T10:25:46.000Z</time>
      </trkpt>
      <trkpt lat="48.5311" lon="7.49642">
        <ele>179.7126159668</ele>
        <time>2017-06-04T10:25:49.000Z</time>
      </trkpt>
      <trkpt lat="48.53107" lon="7.49667">
        <ele>179.8296661377</ele>
        <time>2017-06-04T10:25:52.000Z</time>
      </trkpt>
      <trkpt lat="48.53102" lon="7.49683">
        <ele>179.88131713867</ele>
        <time>2017-06-04T10:25:54.000Z</time>
      </trkpt>
      <trkpt lat="48.53096" lon="7.49707">
        <ele>179.80500793457</ele>
        <time>2017-06-04T10:25:57.000Z</time>
      </trkpt>
      <trkpt lat="48.53094" lon="7.49722">
        <ele>179.62704467773</ele>
        <time>2017-06-04T10:25:59.000Z</time>
      </trkpt>
      <trkpt lat="48.53108" lon="7.4973">
        <ele>179.3423614502</ele>
        <time>2017-06-04T10:26:02.000Z</time>
      </trkpt>
      <trkpt lat="48.53121" lon="7.49735">
        <ele>178.97171020508</ele>
        <time>2017-06-04T10:26:05.000Z</time>
      </trkpt>
      <trkpt lat="48.53132" lon="7.49737">
        <ele>178.638671875</ele>
        <time>2017-06-04T10:26:07.000Z</time>
      </trkpt>
      <trkpt lat="48.53148" lon="7.49742">
        <ele>178.38854980469</ele>
        <time>2017-06-04T10:26:10.000Z</time>
      </trkpt>
      <trkpt lat="48.53159" lon="7.49746">
        <ele>178.21391296387</ele>
        <time>2017-06-04T10:26:12.000Z</time>
      </trkpt>
      <trkpt lat="48.53175" lon="7.4975">
        <ele>178.07347106934</ele>
        <time>2017-06-04T10:26:15.000Z</time>
      </trkpt>
      <trkpt lat="48.53184" lon="7.49755">
        <ele>177.93453979492</ele>
        <time>2017-06-04T10:26:17.000Z</time>
      </trkpt>
      <trkpt lat="48.53194" lon="7.49758">
        <ele>177.77032470703</ele>
        <time>2017-06-04T10:26:19.000Z</time>
      </trkpt>
      <trkpt lat="48.53206" lon="7.49762">
        <ele>177.58224487305</ele>
        <time>2017-06-04T10:26:21.000Z</time>
      </trkpt>
      <trkpt lat="48.53221" lon="7.49767">
        <ele>177.34527587891</ele>
        <time>2017-06-04T10:26:24.000Z</time>
      </trkpt>
      <trkpt lat="48.53236" lon="7.49771">
        <ele>177.0936126709</ele>
        <time>2017-06-04T10:26:27.000Z</time>
      </trkpt>
      <trkpt lat="48.5325" lon="7.49772">
        <ele>176.82754516602</ele>
        <time>2017-06-04T10:26:30.000Z</time>
      </trkpt>
      <trkpt lat="48.53259" lon="7.49774">
        <ele>176.61064147949</ele>
        <time>2017-06-04T10:26:32.000Z</time>
      </trkpt>
      <trkpt lat="48.53272" lon="7.49775">
        <ele>176.44493103027</ele>
        <time>2017-06-04T10:26:35.000Z</time>
      </trkpt>
      <trkpt lat="48.53277" lon="7.49776">
        <ele>176.34104919434</ele>
        <time>2017-06-04T10:26:37.000Z</time>
      </trkpt>
      <trkpt lat="48.53278" lon="7.49785">
        <ele>176.31579589844</ele>
        <time>2017-06-04T10:26:40.000Z</time>
      </trkpt>
      <trkpt lat="48.53276" lon="7.49794">
        <ele>176.36926269531</ele>
        <time>2017-06-04T10:26:42.000Z</time>
      </trkpt>
      <trkpt lat="48.53276" lon="7.49809">
        <ele>176.45373535156</ele>
        <time>2017-06-04T10:26:45.000Z</time>
      </trkpt>
      <trkpt lat="48.53279" lon="7.49817">
        <ele>176.5546875</ele>
        <time>2017-06-04T10:26:47.000Z</time>
      </trkpt>
      <trkpt lat="48.53284" lon="7.49829">
        <ele>176.68298339844</ele>
        <time>2017-06-04T10:26:50.000Z</time>
      </trkpt>
      <trkpt lat="48.53286" lon="7.4984">
        <ele>176.78601074219</ele>
        <time>2017-06-04T10:26:52.000Z</time>
      </trkpt>
      <trkpt lat="48.53291" lon="7.49856">
        <ele>176.85028076172</ele>
        <time>2017-06-04T10:26:55.000Z</time>
      </trkpt>
      <trkpt lat="48.53296" lon="7.49875">
        <ele>176.88160705566</ele>
        <time>2017-06-04T10:26:58.000Z</time>
      </trkpt>
      <trkpt lat="48.53298" lon="7.49896">
        <ele>176.90295410156</ele>
        <time>2017-06-04T10:27:01.000Z</time>
      </trkpt>
      <trkpt lat="48.53298" lon="7.49918">
        <ele>176.8932800293</ele>
        <time>2017-06-04T10:27:04.000Z</time>
      </trkpt>
      <trkpt lat="48.53298" lon="7.49932">
        <ele>176.95588684082</ele>
        <time>2017-06-04T10:27:06.000Z</time>
      </trkpt>
      <trkpt lat="48.53298" lon="7.49947">
        <ele>177.11267089844</ele>
        <time>2017-06-04T10:27:08.000Z</time>
      </trkpt>
      <trkpt lat="48.53299" lon="7.4997">
        <ele>177.37953186035</ele>
        <time>2017-06-04T10:27:11.000Z</time>
      </trkpt>
      <trkpt lat="48.53297" lon="7.49984">
        <ele>177.693359375</ele>
        <time>2017-06-04T10:27:13.000Z</time>
      </trkpt>
      <trkpt lat="48.53295" lon="7.49999">
        <ele>178.0439453125</ele>
        <time>2017-06-04T10:27:15.000Z</time>
      </trkpt>
      <trkpt lat="48.53288" lon="7.5002">
        <ele>178.20809936523</ele>
        <time>2017-06-04T10:27:18.000Z</time>
      </trkpt>
      <trkpt lat="48.53281" lon="7.50032">
        <ele>178.21688842773</ele>
        <time>2017-06-04T10:27:20.000Z</time>
      </trkpt>
      <trkpt lat="48.53274" lon="7.50042">
        <ele>178.04922485352</ele>
        <time>2017-06-04T10:27:22.000Z</time>
      </trkpt>
      <trkpt lat="48.53262" lon="7.50056">
        <ele>177.7555847168</ele>
        <time>2017-06-04T10:27:25.000Z</time>
      </trkpt>
      <trkpt lat="48.53254" lon="7.50064">
        <ele>177.39942932129</ele>
        <time>2017-06-04T10:27:27.000Z</time>
      </trkpt>
      <trkpt lat="48.53245" lon="7.50078">
        <ele>177.16218566895</ele>
        <time>2017-06-04T10:27:30.000Z</time>
      </trkpt>
      <trkpt lat="48.53238" lon="7.50094">
        <ele>176.99374389648</ele>
        <time>2017-06-04T10:27:33.000Z</time>
      </trkpt>
      <trkpt lat="48.53234" lon="7.50104">
        <ele>176.87252807617</ele>
        <time>2017-06-04T10:27:35.000Z</time>
      </trkpt>
      <trkpt lat="48.53228" lon="7.50121">
        <ele>176.79428100586</ele>
        <time>2017-06-04T10:27:38.000Z</time>
      </trkpt>
      <trkpt lat="48.53228" lon="7.50139">
        <ele>176.72982788086</ele>
        <time>2017-06-04T10:27:41.000Z</time>
      </trkpt>
      <trkpt lat="48.53235" lon="7.50152">
        <ele>176.68609619141</ele>
        <time>2017-06-04T10:27:44.000Z</time>
      </trkpt>
      <trkpt lat="48.53242" lon="7.50155">
        <ele>176.68496704102</ele>
        <time>2017-06-04T10:27:47.000Z</time>
      </trkpt>
      <trkpt lat="48.53244" lon="7.50156">
        <ele>176.70811462402</ele>
        <time>2017-06-04T10:27:49.000Z</time>
      </trkpt>
      <trkpt lat="48.53243" lon="7.50156">
        <ele>176.75527954102</ele>
        <time>2017-06-04T10:27:54.000Z</time>
      </trkpt>
      <trkpt lat="48.53242" lon="7.50153">
        <ele>176.81231689453</ele>
        <time>2017-06-04T10:27:56.000Z</time>
      </trkpt>
      <trkpt lat="48.53244" lon="7.50151">
        <ele>176.85354614258</ele>
        <time>2017-06-04T10:27:59.000Z</time>
      </trkpt>
      <trkpt lat="48.53246" lon="7.50154">
        <ele>176.86833190918</ele>
        <time>2017-06-04T10:28:02.000Z</time>
      </trkpt>
      <trkpt lat="48.53246" lon="7.50155">
        <ele>176.87399291992</ele>
        <time>2017-06-04T10:28:04.000Z</time>
      </trkpt>
      <trkpt lat="48.53244" lon="7.50158">
        <ele>176.87730407715</ele>
        <time>2017-06-04T10:28:11.000Z</time>
      </trkpt>
      <trkpt lat="48.53245" lon="7.50169">
        <ele>176.87284851074</ele>
        <time>2017-06-04T10:28:14.000Z</time>
      </trkpt>
      <trkpt lat="48.53246" lon="7.50177">
        <ele>176.83016967773</ele>
        <time>2017-06-04T10:28:16.000Z</time>
      </trkpt>
      <trkpt lat="48.53247" lon="7.5019">
        <ele>176.72512817383</ele>
        <time>2017-06-04T10:28:19.000Z</time>
      </trkpt>
      <trkpt lat="48.53248" lon="7.50198">
        <ele>176.58972167969</ele>
        <time>2017-06-04T10:28:22.000Z</time>
      </trkpt>
      <trkpt lat="48.53249" lon="7.50202">
        <ele>176.44592285156</ele>
        <time>2017-06-04T10:28:25.000Z</time>
      </trkpt>
      <trkpt lat="48.53249" lon="7.50205">
        <ele>176.29682922363</ele>
        <time>2017-06-04T10:28:28.000Z</time>
      </trkpt>
      <trkpt lat="48.53248" lon="7.50206">
        <ele>176.17338562012</ele>
        <time>2017-06-04T10:28:30.000Z</time>
      </trkpt>
      <trkpt lat="48.53247" lon="7.50207">
        <ele>176.09518432617</ele>
        <time>2017-06-04T10:28:36.000Z</time>
      </trkpt>
      <trkpt lat="48.53247" lon="7.5021">
        <ele>176.03733825684</ele>
        <time>2017-06-04T10:28:41.000Z</time>
      </trkpt>
      <trkpt lat="48.53247" lon="7.50208">
        <ele>176.00161743164</ele>
        <time>2017-06-04T10:28:45.000Z</time>
      </trkpt>
      <trkpt lat="48.53247" lon="7.50207">
        <ele>175.98825073242</ele>
        <time>2017-06-04T10:28:48.000Z</time>
      </trkpt>
      <trkpt lat="48.53247" lon="7.50207">
        <ele>175.98825073242</ele>
        <time>2017-06-04T10:28:51.000Z</time>
      </trkpt>
    </trkseg>
  </trk>
</gpx>